<?xml version='1.0' encoding='UTF-8'?><gpx version="1.1" creator="JPX - https://github.com/jenetics/jpx" xmlns="http://www.topografix.com/GPX/1/1"><trk><trkseg><trkpt lat="48.551521591992554" lon="7.331522443245988"><ele>285.0</ele><time>2026-04-30T09:09:40.008Z</time></trkpt><trkpt lat="48.55153551552289" lon="7.331637170696255"><ele>285.0</ele><time>2026-04-30T09:09:54.008Z</time></trkpt><trkpt lat="48.55155249610026" lon="7.331740415449386"><ele>285.0</ele><time>2026-04-30T09:09:56.008Z</time></trkpt><trkpt lat="48.55147374171458" lon="7.331798839694035"><ele>285.0</ele><time>2026-04-30T09:09:59.008Z</time></trkpt><trkpt lat="48.55139398977348" lon="7.331802439822281"><ele>285.0</ele><time>2026-04-30T09:10:01.008Z</time></trkpt><trkpt lat="48.55135410748203" lon="7.33194478689464"><ele>285.0</ele><time>2026-04-30T09:10:05.008Z</time></trkpt><trkpt lat="48.55138277692073" lon="7.3320562017850355"><ele>285.0</ele><time>2026-04-30T09:10:06.008Z</time></trkpt><trkpt lat="48.55142241876538" lon="7.332196512025871"><ele>285.0</ele><time>2026-04-30T09:10:07.008Z</time></trkpt><trkpt lat="48.5514627000303" lon="7.3323375711422685"><ele>285.0</ele><time>2026-04-30T09:10:08.008Z</time></trkpt><trkpt lat="48.551498171407744" lon="7.3324816958972825"><ele>285.0</ele><time>2026-04-30T09:10:09.008Z</time></trkpt><trkpt lat="48.5515390193664" lon="7.332637688212774"><ele>285.0</ele><time>2026-04-30T09:10:10.008Z</time></trkpt><trkpt lat="48.55157271838688" lon="7.332798113747031"><ele>285.2</ele><time>2026-04-30T09:10:11.008Z</time></trkpt><trkpt lat="48.55161961053504" lon="7.33294690494609"><ele>285.4</ele><time>2026-04-30T09:10:12.008Z</time></trkpt><trkpt lat="48.55167194415974" lon="7.333095286091457"><ele>285.6</ele><time>2026-04-30T09:10:13.008Z</time></trkpt><trkpt lat="48.551726629874715" lon="7.33323669621805"><ele>285.8</ele><time>2026-04-30T09:10:14.008Z</time></trkpt><trkpt lat="48.55177640255624" lon="7.333361853334806"><ele>286.0</ele><time>2026-04-30T09:10:15.008Z</time></trkpt><trkpt lat="48.5518235988268" lon="7.333441972103666"><ele>286.16666666666663</ele><time>2026-04-30T09:10:16.008Z</time></trkpt><trkpt lat="48.55185668467401" lon="7.333529390641845"><ele>286.3333333333333</ele><time>2026-04-30T09:10:17.008Z</time></trkpt><trkpt lat="48.55190692865368" lon="7.33367121844151"><ele>286.5</ele><time>2026-04-30T09:10:19.008Z</time></trkpt><trkpt lat="48.55193721224122" lon="7.333765354573669"><ele>286.6666666666667</ele><time>2026-04-30T09:10:20.008Z</time></trkpt><trkpt lat="48.55200591209871" lon="7.333855691655198"><ele>286.83333333333337</ele><time>2026-04-30T09:10:21.008Z</time></trkpt><trkpt lat="48.552082121494415" lon="7.333937783932689"><ele>287.0</ele><time>2026-04-30T09:10:22.008Z</time></trkpt><trkpt lat="48.55217343514284" lon="7.33402053475439"><ele>288.8</ele><time>2026-04-30T09:10:23.008Z</time></trkpt><trkpt lat="48.55226380009318" lon="7.334087750105161"><ele>290.6</ele><time>2026-04-30T09:10:24.008Z</time></trkpt><trkpt lat="48.55234648611344" lon="7.334150617093978"><ele>292.40000000000003</ele><time>2026-04-30T09:10:25.008Z</time></trkpt><trkpt lat="48.55243311838913" lon="7.334197590446394"><ele>294.2</ele><time>2026-04-30T09:10:26.008Z</time></trkpt><trkpt lat="48.55252248321229" lon="7.334217974880114"><ele>296.0</ele><time>2026-04-30T09:10:27.008Z</time></trkpt><trkpt lat="48.55260981228412" lon="7.334232809604035"><ele>296.0</ele><time>2026-04-30T09:10:28.008Z</time></trkpt><trkpt lat="48.55270282188547" lon="7.3342451083331"><ele>296.0</ele><time>2026-04-30T09:10:29.008Z</time></trkpt><trkpt lat="48.55278926967986" lon="7.334264443156805"><ele>296.0</ele><time>2026-04-30T09:10:30.008Z</time></trkpt><trkpt lat="48.55287552128192" lon="7.334289104680522"><ele>296.0</ele><time>2026-04-30T09:10:31.008Z</time></trkpt><trkpt lat="48.552958814774264" lon="7.334321966545779"><ele>296.0</ele><time>2026-04-30T09:10:32.008Z</time></trkpt><trkpt lat="48.553046579746166" lon="7.33436695614784"><ele>296.0</ele><time>2026-04-30T09:10:33.008Z</time></trkpt><trkpt lat="48.55314386639012" lon="7.334428218319459"><ele>297.0</ele><time>2026-04-30T09:10:34.008Z</time></trkpt><trkpt lat="48.5532333158326" lon="7.334492474598195"><ele>298.0</ele><time>2026-04-30T09:10:35.008Z</time></trkpt><trkpt lat="48.5533350285048" lon="7.33455893238638"><ele>299.0</ele><time>2026-04-30T09:10:36.008Z</time></trkpt><trkpt lat="48.55343507583575" lon="7.334624476497316"><ele>300.0</ele><time>2026-04-30T09:10:37.008Z</time></trkpt><trkpt lat="48.55353710186334" lon="7.3346958641476885"><ele>301.0</ele><time>2026-04-30T09:10:38.008Z</time></trkpt><trkpt lat="48.55364400511278" lon="7.334763701145266"><ele>302.25</ele><time>2026-04-30T09:10:39.008Z</time></trkpt><trkpt lat="48.5537545485594" lon="7.3348397122769"><ele>303.5</ele><time>2026-04-30T09:10:40.008Z</time></trkpt><trkpt lat="48.55388246199878" lon="7.334856899740867"><ele>304.75</ele><time>2026-04-30T09:10:41.008Z</time></trkpt><trkpt lat="48.55401880602004" lon="7.334886937631242"><ele>306.0</ele><time>2026-04-30T09:10:42.008Z</time></trkpt><trkpt lat="48.55415743789453" lon="7.334944944942613"><ele>306.0</ele><time>2026-04-30T09:10:43.008Z</time></trkpt><trkpt lat="48.554327754121054" lon="7.334961008076349"><ele>306.0</ele><time>2026-04-30T09:10:44.008Z</time></trkpt><trkpt lat="48.55449080134929" lon="7.3350376572787015"><ele>306.0</ele><time>2026-04-30T09:10:45.008Z</time></trkpt><trkpt lat="48.554668743696446" lon="7.335121012186538"><ele>307.0</ele><time>2026-04-30T09:10:46.008Z</time></trkpt><trkpt lat="48.55484352813509" lon="7.33521449537292"><ele>308.0</ele><time>2026-04-30T09:10:47.008Z</time></trkpt><trkpt lat="48.555032186396076" lon="7.335312706703039"><ele>309.0</ele><time>2026-04-30T09:10:48.008Z</time></trkpt><trkpt lat="48.555209853087604" lon="7.335404979003252"><ele>309.6666666666667</ele><time>2026-04-30T09:10:49.008Z</time></trkpt><trkpt lat="48.5553871843137" lon="7.335497139794867"><ele>310.33333333333337</ele><time>2026-04-30T09:10:50.008Z</time></trkpt><trkpt lat="48.5555667470992" lon="7.335590560256079"><ele>311.0</ele><time>2026-04-30T09:10:51.008Z</time></trkpt><trkpt lat="48.555745750539245" lon="7.335685367471592"><ele>313.0</ele><time>2026-04-30T09:10:52.008Z</time></trkpt><trkpt lat="48.555939468097634" lon="7.335790107220099"><ele>315.0</ele><time>2026-04-30T09:10:53.008Z</time></trkpt><trkpt lat="48.556144173739575" lon="7.335900788038208"><ele>317.0</ele><time>2026-04-30T09:10:54.008Z</time></trkpt><trkpt lat="48.556360047617325" lon="7.336018216429289"><ele>318.0</ele><time>2026-04-30T09:10:55.008Z</time></trkpt><trkpt lat="48.55656367062792" lon="7.3361367297931785"><ele>319.0</ele><time>2026-04-30T09:10:56.008Z</time></trkpt><trkpt lat="48.55677096118714" lon="7.336254271232384"><ele>320.0</ele><time>2026-04-30T09:10:57.008Z</time></trkpt><trkpt lat="48.55697369392066" lon="7.3363599267151365"><ele>322.5</ele><time>2026-04-30T09:10:58.008Z</time></trkpt><trkpt lat="48.55719272456801" lon="7.336446213441504"><ele>325.0</ele><time>2026-04-30T09:10:59.008Z</time></trkpt><trkpt lat="48.557408800842566" lon="7.33655338229524"><ele>325.0</ele><time>2026-04-30T09:11:00.008Z</time></trkpt><trkpt lat="48.55763120640016" lon="7.33666043092901"><ele>325.0</ele><time>2026-04-30T09:11:01.008Z</time></trkpt><trkpt lat="48.55785341387653" lon="7.3367718987913655"><ele>326.0</ele><time>2026-04-30T09:11:02.008Z</time></trkpt><trkpt lat="48.558060386433795" lon="7.3368703720648005"><ele>327.0</ele><time>2026-04-30T09:11:03.008Z</time></trkpt><trkpt lat="48.55826487160625" lon="7.336967185556295"><ele>328.0</ele><time>2026-04-30T09:11:04.008Z</time></trkpt><trkpt lat="48.558476780767016" lon="7.33705946518033"><ele>328.0</ele><time>2026-04-30T09:11:05.008Z</time></trkpt><trkpt lat="48.55868641870562" lon="7.33715067468452"><ele>328.0</ele><time>2026-04-30T09:11:06.008Z</time></trkpt><trkpt lat="48.558897357127385" lon="7.337234585026039"><ele>328.0</ele><time>2026-04-30T09:11:07.008Z</time></trkpt><trkpt lat="48.55911681581994" lon="7.3372983345034"><ele>331.5</ele><time>2026-04-30T09:11:08.008Z</time></trkpt><trkpt lat="48.55934147733966" lon="7.33736059638008"><ele>335.0</ele><time>2026-04-30T09:11:09.008Z</time></trkpt><trkpt lat="48.55956263975298" lon="7.33743166622694"><ele>338.0</ele><time>2026-04-30T09:11:10.008Z</time></trkpt><trkpt lat="48.559790939474695" lon="7.337496319137186"><ele>341.0</ele><time>2026-04-30T09:11:11.008Z</time></trkpt><trkpt lat="48.560021835373675" lon="7.337574685344151"><ele>341.0</ele><time>2026-04-30T09:11:12.008Z</time></trkpt><trkpt lat="48.56021935982091" lon="7.337649149759619"><ele>341.0</ele><time>2026-04-30T09:11:13.008Z</time></trkpt><trkpt lat="48.56039832879787" lon="7.337744881055227"><ele>341.0</ele><time>2026-04-30T09:11:14.008Z</time></trkpt><trkpt lat="48.56055265180033" lon="7.3379070415197845"><ele>340.0</ele><time>2026-04-30T09:11:15.008Z</time></trkpt><trkpt lat="48.560709960536805" lon="7.338094642334181"><ele>339.0</ele><time>2026-04-30T09:11:16.008Z</time></trkpt><trkpt lat="48.56087940799909" lon="7.338302272262041"><ele>338.0</ele><time>2026-04-30T09:11:17.008Z</time></trkpt><trkpt lat="48.56101623848443" lon="7.338468723286571"><ele>338.0</ele><time>2026-04-30T09:11:18.008Z</time></trkpt><trkpt lat="48.56115006403943" lon="7.338628373139536"><ele>338.0</ele><time>2026-04-30T09:11:19.008Z</time></trkpt><trkpt lat="48.56125622837311" lon="7.338728043349265"><ele>338.0</ele><time>2026-04-30T09:11:20.008Z</time></trkpt><trkpt lat="48.56133450511316" lon="7.33885923342759"><ele>338.0</ele><time>2026-04-30T09:11:21.008Z</time></trkpt><trkpt lat="48.56141674220797" lon="7.338964834081436"><ele>337.0</ele><time>2026-04-30T09:11:22.009Z</time></trkpt><trkpt lat="48.561467953353954" lon="7.339080164496748"><ele>336.0</ele><time>2026-04-30T09:11:23.009Z</time></trkpt><trkpt lat="48.561453391586596" lon="7.3392375853819605"><ele>335.0</ele><time>2026-04-30T09:11:24.009Z</time></trkpt><trkpt lat="48.56143854297729" lon="7.339428871546471"><ele>334.0</ele><time>2026-04-30T09:11:25.01Z</time></trkpt><trkpt lat="48.5613773452836" lon="7.339666612670036"><ele>333.0</ele><time>2026-04-30T09:11:26.009Z</time></trkpt><trkpt lat="48.5613117671328" lon="7.339922125758504"><ele>332.0</ele><time>2026-04-30T09:11:27.009Z</time></trkpt><trkpt lat="48.5612497493117" lon="7.340181455367178"><ele>331.0</ele><time>2026-04-30T09:11:28.009Z</time></trkpt><trkpt lat="48.56118258085422" lon="7.340463360477511"><ele>330.3333333333333</ele><time>2026-04-30T09:11:29.01Z</time></trkpt><trkpt lat="48.56110754187672" lon="7.340778145601337"><ele>329.6666666666667</ele><time>2026-04-30T09:11:30.01Z</time></trkpt><trkpt lat="48.561040115412425" lon="7.34110036549072"><ele>329.0</ele><time>2026-04-30T09:11:31.009Z</time></trkpt><trkpt lat="48.56098477927481" lon="7.341404627821075"><ele>329.0</ele><time>2026-04-30T09:11:32.008Z</time></trkpt><trkpt lat="48.560917004037066" lon="7.341710677747626"><ele>329.0</ele><time>2026-04-30T09:11:33.008Z</time></trkpt><trkpt lat="48.56084430706223" lon="7.3420478547024866"><ele>329.0</ele><time>2026-04-30T09:11:34.009Z</time></trkpt><trkpt lat="48.560777184229906" lon="7.342349232784686"><ele>327.6666666666667</ele><time>2026-04-30T09:11:35.009Z</time></trkpt><trkpt lat="48.56070814482355" lon="7.342636673626414"><ele>326.3333333333333</ele><time>2026-04-30T09:11:36.009Z</time></trkpt><trkpt lat="48.56065514481693" lon="7.342888932281197"><ele>325.0</ele><time>2026-04-30T09:11:37.009Z</time></trkpt><trkpt lat="48.56058905684596" lon="7.343132085543801"><ele>324.0</ele><time>2026-04-30T09:11:38.009Z</time></trkpt><trkpt lat="48.560533392337284" lon="7.343357464367446"><ele>323.0</ele><time>2026-04-30T09:11:39.009Z</time></trkpt><trkpt lat="48.56048736797772" lon="7.343576156902004"><ele>322.0</ele><time>2026-04-30T09:11:40.009Z</time></trkpt><trkpt lat="48.560442452995034" lon="7.343795975208364"><ele>320.75</ele><time>2026-04-30T09:11:41.009Z</time></trkpt><trkpt lat="48.560391366404346" lon="7.344007163078235"><ele>319.5</ele><time>2026-04-30T09:11:42.009Z</time></trkpt><trkpt lat="48.56034823095072" lon="7.344197361174654"><ele>318.25</ele><time>2026-04-30T09:11:43.009Z</time></trkpt><trkpt lat="48.56031397029007" lon="7.344380758161901"><ele>317.0</ele><time>2026-04-30T09:11:44.009Z</time></trkpt><trkpt lat="48.560300431051424" lon="7.34455822797804"><ele>317.0</ele><time>2026-04-30T09:11:45.009Z</time></trkpt><trkpt lat="48.56030316823835" lon="7.3447311296605005"><ele>317.0</ele><time>2026-04-30T09:11:46.009Z</time></trkpt><trkpt lat="48.56031469461156" lon="7.344920759561612"><ele>317.0</ele><time>2026-04-30T09:11:47.009Z</time></trkpt><trkpt lat="48.56033630186882" lon="7.345124655813981"><ele>317.0</ele><time>2026-04-30T09:11:48.009Z</time></trkpt><trkpt lat="48.56036040278788" lon="7.34536600535606"><ele>316.6666666666667</ele><time>2026-04-30T09:11:49.009Z</time></trkpt><trkpt lat="48.56035698218886" lon="7.3456372907231255"><ele>316.3333333333333</ele><time>2026-04-30T09:11:50.009Z</time></trkpt><trkpt lat="48.560377756972734" lon="7.345930084038455"><ele>316.0</ele><time>2026-04-30T09:11:51.009Z</time></trkpt><trkpt lat="48.560396371677086" lon="7.346233414918789"><ele>316.3333333333333</ele><time>2026-04-30T09:11:52.009Z</time></trkpt><trkpt lat="48.56041472828372" lon="7.346569627338506"><ele>316.6666666666667</ele><time>2026-04-30T09:11:53.009Z</time></trkpt><trkpt lat="48.56043306141739" lon="7.346880702880978"><ele>317.0</ele><time>2026-04-30T09:11:54.009Z</time></trkpt><trkpt lat="48.560446264424996" lon="7.347150784952555"><ele>316.0</ele><time>2026-04-30T09:11:55.009Z</time></trkpt><trkpt lat="48.56046729951443" lon="7.3474022777619625"><ele>315.0</ele><time>2026-04-30T09:11:56.009Z</time></trkpt><trkpt lat="48.56048379682094" lon="7.34769066395022"><ele>314.0</ele><time>2026-04-30T09:11:57.009Z</time></trkpt><trkpt lat="48.56050835829179" lon="7.3479833982684015"><ele>313.33333333333337</ele><time>2026-04-30T09:11:58.009Z</time></trkpt><trkpt lat="48.56052622319073" lon="7.348309217028556"><ele>312.6666666666667</ele><time>2026-04-30T09:11:59.009Z</time></trkpt><trkpt lat="48.56054732590178" lon="7.34865018071464"><ele>312.0</ele><time>2026-04-30T09:12:00.009Z</time></trkpt><trkpt lat="48.560573411487" lon="7.349001675249563"><ele>311.3333333333333</ele><time>2026-04-30T09:12:01.009Z</time></trkpt><trkpt lat="48.56059781333735" lon="7.349342632706871"><ele>310.66666666666663</ele><time>2026-04-30T09:12:02.009Z</time></trkpt><trkpt lat="48.560621212194164" lon="7.349634888799995"><ele>310.0</ele><time>2026-04-30T09:12:03.009Z</time></trkpt><trkpt lat="48.560638959959505" lon="7.349898646808838"><ele>309.0</ele><time>2026-04-30T09:12:04.009Z</time></trkpt><trkpt lat="48.560648525937594" lon="7.350131971577893"><ele>308.0</ele><time>2026-04-30T09:12:05.009Z</time></trkpt><trkpt lat="48.56066105140765" lon="7.3502829579229685"><ele>307.0</ele><time>2026-04-30T09:12:06.009Z</time></trkpt><trkpt lat="48.56065147640613" lon="7.350403853334303"><ele>306.0</ele><time>2026-04-30T09:12:08.009Z</time></trkpt><trkpt lat="48.560571198035085" lon="7.350377786643009"><ele>305.0</ele><time>2026-04-30T09:12:11.009Z</time></trkpt><trkpt lat="48.56056743661083" lon="7.350279598877157"><ele>305.0</ele><time>2026-04-30T09:12:12.009Z</time></trkpt><trkpt lat="48.5605169216226" lon="7.350197069809662"><ele>305.0</ele><time>2026-04-30T09:12:13.009Z</time></trkpt><trkpt lat="48.56047658856733" lon="7.350080947628447"><ele>305.0</ele><time>2026-04-30T09:12:14.009Z</time></trkpt><trkpt lat="48.56042909559367" lon="7.349987364403685"><ele>305.0</ele><time>2026-04-30T09:12:15.009Z</time></trkpt><trkpt lat="48.56037810204229" lon="7.349855875285911"><ele>305.0</ele><time>2026-04-30T09:12:16.009Z</time></trkpt><trkpt lat="48.560325505310175" lon="7.349722449559483"><ele>305.0</ele><time>2026-04-30T09:12:17.009Z</time></trkpt><trkpt lat="48.56027003050694" lon="7.349583066493654"><ele>305.2</ele><time>2026-04-30T09:12:18.009Z</time></trkpt><trkpt lat="48.56022192442488" lon="7.34948128504917"><ele>305.4</ele><time>2026-04-30T09:12:19.009Z</time></trkpt><trkpt lat="48.560172734203846" lon="7.349397712208632"><ele>305.6</ele><time>2026-04-30T09:12:20.009Z</time></trkpt><trkpt lat="48.560062001296956" lon="7.349289673715439"><ele>305.8</ele><time>2026-04-30T09:12:22.009Z</time></trkpt><trkpt lat="48.55996863918337" lon="7.349188570991952"><ele>306.0</ele><time>2026-04-30T09:12:24.009Z</time></trkpt><trkpt lat="48.559881973983806" lon="7.3490385638062286"><ele>306.0</ele><time>2026-04-30T09:12:26.009Z</time></trkpt><trkpt lat="48.55983107529679" lon="7.34895211489093"><ele>306.0</ele><time>2026-04-30T09:12:27.009Z</time></trkpt><trkpt lat="48.55977525131081" lon="7.348862937486681"><ele>306.0</ele><time>2026-04-30T09:12:28.009Z</time></trkpt><trkpt lat="48.55971511436401" lon="7.348771907816702"><ele>306.0</ele><time>2026-04-30T09:12:29.009Z</time></trkpt><trkpt lat="48.559659825423424" lon="7.348684805820845"><ele>306.0</ele><time>2026-04-30T09:12:30.009Z</time></trkpt><trkpt lat="48.55960930691819" lon="7.348596923513463"><ele>306.0</ele><time>2026-04-30T09:12:31.009Z</time></trkpt><trkpt lat="48.55954657744818" lon="7.348513253958181"><ele>306.0</ele><time>2026-04-30T09:12:32.009Z</time></trkpt><trkpt lat="48.55948853444642" lon="7.348406101096331"><ele>306.0</ele><time>2026-04-30T09:12:33.009Z</time></trkpt><trkpt lat="48.55942972376649" lon="7.3483325860516535"><ele>306.0</ele><time>2026-04-30T09:12:34.009Z</time></trkpt><trkpt lat="48.559367755083066" lon="7.348265748890439"><ele>306.0</ele><time>2026-04-30T09:12:35.009Z</time></trkpt><trkpt lat="48.559306960574645" lon="7.348185584834986"><ele>306.0</ele><time>2026-04-30T09:12:36.009Z</time></trkpt><trkpt lat="48.55923772153034" lon="7.348112739401438"><ele>306.0</ele><time>2026-04-30T09:12:37.009Z</time></trkpt><trkpt lat="48.55917377059611" lon="7.34801257016323"><ele>306.0</ele><time>2026-04-30T09:12:38.009Z</time></trkpt><trkpt lat="48.55910476234508" lon="7.347908441714868"><ele>306.0</ele><time>2026-04-30T09:12:39.009Z</time></trkpt><trkpt lat="48.55904380055679" lon="7.347808473062279"><ele>306.0</ele><time>2026-04-30T09:12:40.009Z</time></trkpt><trkpt lat="48.55898550192495" lon="7.347728960876624"><ele>306.0</ele><time>2026-04-30T09:12:41.009Z</time></trkpt><trkpt lat="48.55893301344006" lon="7.347629249167172"><ele>306.0</ele><time>2026-04-30T09:12:42.009Z</time></trkpt><trkpt lat="48.55889756251004" lon="7.347526656149624"><ele>306.0</ele><time>2026-04-30T09:12:43.009Z</time></trkpt><trkpt lat="48.5588472473775" lon="7.347422976833993"><ele>306.0</ele><time>2026-04-30T09:12:44.009Z</time></trkpt><trkpt lat="48.55880681544284" lon="7.347299745407391"><ele>306.0</ele><time>2026-04-30T09:12:45.009Z</time></trkpt><trkpt lat="48.558771413669525" lon="7.347204115478508"><ele>306.0</ele><time>2026-04-30T09:12:46.009Z</time></trkpt><trkpt lat="48.55869388736441" lon="7.347017175760296"><ele>306.0</ele><time>2026-04-30T09:12:48.009Z</time></trkpt><trkpt lat="48.55864751098818" lon="7.346916451586223"><ele>306.0</ele><time>2026-04-30T09:12:49.009Z</time></trkpt><trkpt lat="48.55860103689449" lon="7.34681257372994"><ele>304.5</ele><time>2026-04-30T09:12:50.009Z</time></trkpt><trkpt lat="48.55854329745401" lon="7.346712328964061"><ele>303.0</ele><time>2026-04-30T09:12:51.009Z</time></trkpt><trkpt lat="48.55848298460122" lon="7.346626473862628"><ele>301.5</ele><time>2026-04-30T09:12:52.009Z</time></trkpt><trkpt lat="48.55841341301058" lon="7.346518497265568"><ele>300.0</ele><time>2026-04-30T09:12:53.009Z</time></trkpt><trkpt lat="48.55836169388644" lon="7.346431436354547"><ele>298.5</ele><time>2026-04-30T09:12:54.009Z</time></trkpt><trkpt lat="48.558311789552654" lon="7.346331833002891"><ele>297.0</ele><time>2026-04-30T09:12:55.009Z</time></trkpt><trkpt lat="48.558262106206634" lon="7.346235824834635"><ele>297.0</ele><time>2026-04-30T09:12:56.009Z</time></trkpt><trkpt lat="48.55820907110003" lon="7.346121666153608"><ele>297.0</ele><time>2026-04-30T09:12:57.009Z</time></trkpt><trkpt lat="48.55813199767752" lon="7.345954107185282"><ele>297.0</ele><time>2026-04-30T09:12:58.009Z</time></trkpt><trkpt lat="48.55805409624461" lon="7.345780515328458"><ele>297.0</ele><time>2026-04-30T09:12:59.009Z</time></trkpt><trkpt lat="48.55800994352949" lon="7.345617601694178"><ele>296.25</ele><time>2026-04-30T09:13:00.009Z</time></trkpt><trkpt lat="48.55796769883725" lon="7.345459783841545"><ele>295.5</ele><time>2026-04-30T09:13:01.009Z</time></trkpt><trkpt lat="48.557927822332495" lon="7.345260773842669"><ele>294.75</ele><time>2026-04-30T09:13:02.009Z</time></trkpt><trkpt lat="48.55787789608485" lon="7.345036909082683"><ele>294.0</ele><time>2026-04-30T09:13:03.009Z</time></trkpt><trkpt lat="48.55781948454478" lon="7.34478004289217"><ele>292.25</ele><time>2026-04-30T09:13:04.009Z</time></trkpt><trkpt lat="48.55778395069015" lon="7.3445559963254805"><ele>290.5</ele><time>2026-04-30T09:13:05.009Z</time></trkpt><trkpt lat="48.55774732678704" lon="7.344365216713448"><ele>288.75</ele><time>2026-04-30T09:13:06.009Z</time></trkpt><trkpt lat="48.55770476898895" lon="7.344220091931087"><ele>287.0</ele><time>2026-04-30T09:13:07.009Z</time></trkpt><trkpt lat="48.55765220670482" lon="7.344100564193935"><ele>287.0</ele><time>2026-04-30T09:13:08.009Z</time></trkpt><trkpt lat="48.557591402893856" lon="7.343961536438567"><ele>287.0</ele><time>2026-04-30T09:13:09.009Z</time></trkpt><trkpt lat="48.55751553444186" lon="7.343784682740902"><ele>287.0</ele><time>2026-04-30T09:13:10.009Z</time></trkpt><trkpt lat="48.557417202842664" lon="7.343602695730437"><ele>287.0</ele><time>2026-04-30T09:13:11.009Z</time></trkpt><trkpt lat="48.55731266268885" lon="7.343389786192728"><ele>286.6666666666667</ele><time>2026-04-30T09:13:12.009Z</time></trkpt><trkpt lat="48.55719482793124" lon="7.343196505727943"><ele>286.3333333333333</ele><time>2026-04-30T09:13:13.009Z</time></trkpt><trkpt lat="48.55709676834262" lon="7.343036494695558"><ele>286.0</ele><time>2026-04-30T09:13:14.009Z</time></trkpt><trkpt lat="48.556998122111494" lon="7.342870583994027"><ele>285.5</ele><time>2026-04-30T09:13:15.009Z</time></trkpt><trkpt lat="48.55690083647857" lon="7.342720935657637"><ele>285.0</ele><time>2026-04-30T09:13:16.009Z</time></trkpt><trkpt lat="48.556810946662196" lon="7.342569251149284"><ele>284.5</ele><time>2026-04-30T09:13:17.009Z</time></trkpt><trkpt lat="48.5567111053296" lon="7.342464529160904"><ele>284.0</ele><time>2026-04-30T09:13:18.009Z</time></trkpt><trkpt lat="48.556600282793354" lon="7.342358727212025"><ele>284.0</ele><time>2026-04-30T09:13:19.009Z</time></trkpt><trkpt lat="48.55648399307175" lon="7.342235271074232"><ele>284.0</ele><time>2026-04-30T09:13:20.009Z</time></trkpt><trkpt lat="48.55638049991421" lon="7.342093460227714"><ele>284.0</ele><time>2026-04-30T09:13:21.009Z</time></trkpt><trkpt lat="48.55630184934581" lon="7.341974070073778"><ele>284.0</ele><time>2026-04-30T09:13:22.009Z</time></trkpt><trkpt lat="48.55622803611602" lon="7.341822002333217"><ele>284.25</ele><time>2026-04-30T09:13:23.009Z</time></trkpt><trkpt lat="48.55615619816831" lon="7.341660257326031"><ele>284.5</ele><time>2026-04-30T09:13:24.009Z</time></trkpt><trkpt lat="48.5560818295861" lon="7.34149145343636"><ele>284.75</ele><time>2026-04-30T09:13:25.009Z</time></trkpt><trkpt lat="48.55603256275812" lon="7.341330050777331"><ele>285.0</ele><time>2026-04-30T09:13:26.009Z</time></trkpt><trkpt lat="48.55599485258521" lon="7.341156887019224"><ele>285.25</ele><time>2026-04-30T09:13:27.009Z</time></trkpt><trkpt lat="48.55595033763921" lon="7.340960025105104"><ele>285.5</ele><time>2026-04-30T09:13:28.01Z</time></trkpt><trkpt lat="48.55588496586863" lon="7.340749059114322"><ele>285.75</ele><time>2026-04-30T09:13:29.01Z</time></trkpt><trkpt lat="48.5558306829648" lon="7.3405654947476"><ele>286.0</ele><time>2026-04-30T09:13:30.01Z</time></trkpt><trkpt lat="48.55579619895294" lon="7.3404327629776995"><ele>286.8</ele><time>2026-04-30T09:13:31.01Z</time></trkpt><trkpt lat="48.55576089791731" lon="7.3403269281406"><ele>287.6</ele><time>2026-04-30T09:13:32.01Z</time></trkpt><trkpt lat="48.55571852983199" lon="7.340251244211012"><ele>288.4</ele><time>2026-04-30T09:13:33.01Z</time></trkpt><trkpt lat="48.55565423540552" lon="7.340178960580928"><ele>289.2</ele><time>2026-04-30T09:13:34.01Z</time></trkpt><trkpt lat="48.555545876910664" lon="7.340107728400915"><ele>290.0</ele><time>2026-04-30T09:13:35.01Z</time></trkpt><trkpt lat="48.555398100966315" lon="7.340014404275548"><ele>289.6666666666667</ele><time>2026-04-30T09:13:36.01Z</time></trkpt><trkpt lat="48.55522135028217" lon="7.339888270946333"><ele>289.3333333333333</ele><time>2026-04-30T09:13:37.01Z</time></trkpt><trkpt lat="48.55503879496376" lon="7.3397477955838095"><ele>289.0</ele><time>2026-04-30T09:13:38.01Z</time></trkpt><trkpt lat="48.55486689749513" lon="7.339611139660578"><ele>289.5</ele><time>2026-04-30T09:13:39.01Z</time></trkpt><trkpt lat="48.554730506521096" lon="7.339480667145738"><ele>290.0</ele><time>2026-04-30T09:13:40.01Z</time></trkpt><trkpt lat="48.55460348715214" lon="7.339365982420444"><ele>290.5</ele><time>2026-04-30T09:13:41.01Z</time></trkpt><trkpt lat="48.55447763446456" lon="7.339282672298034"><ele>291.0</ele><time>2026-04-30T09:13:42.01Z</time></trkpt><trkpt lat="48.554338049218075" lon="7.339236534227262"><ele>291.25</ele><time>2026-04-30T09:13:43.01Z</time></trkpt><trkpt lat="48.55419601539971" lon="7.339228859853924"><ele>291.5</ele><time>2026-04-30T09:13:44.01Z</time></trkpt><trkpt lat="48.55405790370258" lon="7.339214400811942"><ele>291.75</ele><time>2026-04-30T09:13:45.01Z</time></trkpt><trkpt lat="48.55394594177965" lon="7.339160326113571"><ele>292.0</ele><time>2026-04-30T09:13:46.01Z</time></trkpt><trkpt lat="48.55383755716635" lon="7.339067717806553"><ele>292.0</ele><time>2026-04-30T09:13:47.01Z</time></trkpt><trkpt lat="48.55371945313803" lon="7.338933289753792"><ele>292.0</ele><time>2026-04-30T09:13:48.01Z</time></trkpt><trkpt lat="48.553569187074295" lon="7.338772402866744"><ele>292.0</ele><time>2026-04-30T09:13:49.01Z</time></trkpt><trkpt lat="48.55342132792102" lon="7.338626003503816"><ele>292.75</ele><time>2026-04-30T09:13:50.01Z</time></trkpt><trkpt lat="48.55330942545658" lon="7.33848977044651"><ele>293.5</ele><time>2026-04-30T09:13:51.01Z</time></trkpt><trkpt lat="48.5532253011856" lon="7.33833544840322"><ele>294.25</ele><time>2026-04-30T09:13:52.01Z</time></trkpt><trkpt lat="48.553159497261035" lon="7.338152106519634"><ele>295.0</ele><time>2026-04-30T09:13:53.01Z</time></trkpt><trkpt lat="48.55308614350368" lon="7.337925459042005"><ele>295.3333333333333</ele><time>2026-04-30T09:13:54.01Z</time></trkpt><trkpt lat="48.55300247050082" lon="7.33769166831639"><ele>295.6666666666667</ele><time>2026-04-30T09:13:55.01Z</time></trkpt><trkpt lat="48.5529187644793" lon="7.337494025967223"><ele>296.0</ele><time>2026-04-30T09:13:56.01Z</time></trkpt><trkpt lat="48.55285622952394" lon="7.337341659228851"><ele>296.0</ele><time>2026-04-30T09:13:57.01Z</time></trkpt><trkpt lat="48.55279217077091" lon="7.337202644245903"><ele>296.0</ele><time>2026-04-30T09:13:58.01Z</time></trkpt><trkpt lat="48.552734681224216" lon="7.337083762053356"><ele>296.0</ele><time>2026-04-30T09:13:59.01Z</time></trkpt><trkpt lat="48.552679326540506" lon="7.336992764648096"><ele>296.0</ele><time>2026-04-30T09:14:00.01Z</time></trkpt><trkpt lat="48.5526217556299" lon="7.336900991772571"><ele>296.0</ele><time>2026-04-30T09:14:01.01Z</time></trkpt><trkpt lat="48.55256727206285" lon="7.336811474332103"><ele>296.0</ele><time>2026-04-30T09:14:02.01Z</time></trkpt><trkpt lat="48.5525100913174" lon="7.336710669877545"><ele>296.0</ele><time>2026-04-30T09:14:03.01Z</time></trkpt><trkpt lat="48.552441445069164" lon="7.336599875611064"><ele>296.0</ele><time>2026-04-30T09:14:04.01Z</time></trkpt><trkpt lat="48.552367856466326" lon="7.336490033118851"><ele>296.0</ele><time>2026-04-30T09:14:05.01Z</time></trkpt><trkpt lat="48.552290902039296" lon="7.336397793662702"><ele>296.0</ele><time>2026-04-30T09:14:06.01Z</time></trkpt><trkpt lat="48.55221130770753" lon="7.336299598320372"><ele>295.8</ele><time>2026-04-30T09:14:07.01Z</time></trkpt><trkpt lat="48.55213686145736" lon="7.3361931170732895"><ele>295.6</ele><time>2026-04-30T09:14:08.01Z</time></trkpt><trkpt lat="48.552058693008284" lon="7.3360885862347995"><ele>295.4</ele><time>2026-04-30T09:14:09.01Z</time></trkpt><trkpt lat="48.551975554879924" lon="7.335994936992324"><ele>295.2</ele><time>2026-04-30T09:14:10.01Z</time></trkpt><trkpt lat="48.5519004138652" lon="7.3359104718598545"><ele>295.0</ele><time>2026-04-30T09:14:11.01Z</time></trkpt><trkpt lat="48.55183938065847" lon="7.335828274270898"><ele>294.5</ele><time>2026-04-30T09:14:12.01Z</time></trkpt><trkpt lat="48.55178878360892" lon="7.33575502822431"><ele>294.0</ele><time>2026-04-30T09:14:13.01Z</time></trkpt><trkpt lat="48.551728691478914" lon="7.335661947894166"><ele>293.5</ele><time>2026-04-30T09:14:15.01Z</time></trkpt><trkpt lat="48.551629364306905" lon="7.335732650861055"><ele>293.0</ele><time>2026-04-30T09:14:19.01Z</time></trkpt><trkpt lat="48.55157940169361" lon="7.335821488247857"><ele>292.5</ele><time>2026-04-30T09:14:20.01Z</time></trkpt><trkpt lat="48.551512037406376" lon="7.33592164872073"><ele>292.0</ele><time>2026-04-30T09:14:21.01Z</time></trkpt><trkpt lat="48.5514329869149" lon="7.336009017656051"><ele>292.0</ele><time>2026-04-30T09:14:22.01Z</time></trkpt><trkpt lat="48.55134675644275" lon="7.336101918729602"><ele>292.0</ele><time>2026-04-30T09:14:23.01Z</time></trkpt><trkpt lat="48.551261539665646" lon="7.336204418819495"><ele>292.0</ele><time>2026-04-30T09:14:24.01Z</time></trkpt><trkpt lat="48.55118102089224" lon="7.33629724616224"><ele>292.0</ele><time>2026-04-30T09:14:25.01Z</time></trkpt><trkpt lat="48.55110785250763" lon="7.33639915791838"><ele>292.0</ele><time>2026-04-30T09:14:26.01Z</time></trkpt><trkpt lat="48.55103299259518" lon="7.336512639460416"><ele>292.4</ele><time>2026-04-30T09:14:27.01Z</time></trkpt><trkpt lat="48.55095942392568" lon="7.336637992456834"><ele>292.79999999999995</ele><time>2026-04-30T09:14:28.01Z</time></trkpt><trkpt lat="48.550888575707404" lon="7.336772388208482"><ele>293.2</ele><time>2026-04-30T09:14:29.01Z</time></trkpt><trkpt lat="48.550835636002965" lon="7.336900588052688"><ele>293.59999999999997</ele><time>2026-04-30T09:14:30.01Z</time></trkpt><trkpt lat="48.5507934460066" lon="7.3370117990136325"><ele>294.0</ele><time>2026-04-30T09:14:31.01Z</time></trkpt><trkpt lat="48.55076266035108" lon="7.337102263360806"><ele>294.0</ele><time>2026-04-30T09:14:32.01Z</time></trkpt><trkpt lat="48.55074484951084" lon="7.337200064149837"><ele>294.0</ele><time>2026-04-30T09:14:33.01Z</time></trkpt><trkpt lat="48.5507461374127" lon="7.337332641981227"><ele>294.0</ele><time>2026-04-30T09:14:34.01Z</time></trkpt><trkpt lat="48.55072670753831" lon="7.337479415938533"><ele>294.0</ele><time>2026-04-30T09:14:35.01Z</time></trkpt><trkpt lat="48.55070046407315" lon="7.337633676949361"><ele>294.0</ele><time>2026-04-30T09:14:36.01Z</time></trkpt><trkpt lat="48.55067500229719" lon="7.337811306751475"><ele>294.8</ele><time>2026-04-30T09:14:37.01Z</time></trkpt><trkpt lat="48.550647583094104" lon="7.337974460909235"><ele>295.59999999999997</ele><time>2026-04-30T09:14:38.01Z</time></trkpt><trkpt lat="48.55062223260083" lon="7.338115075622469"><ele>296.4</ele><time>2026-04-30T09:14:39.01Z</time></trkpt><trkpt lat="48.55059309089783" lon="7.338252841831272"><ele>297.2</ele><time>2026-04-30T09:14:40.01Z</time></trkpt><trkpt lat="48.55056162669423" lon="7.33837517787675"><ele>298.0</ele><time>2026-04-30T09:14:41.01Z</time></trkpt><trkpt lat="48.55053447534088" lon="7.338485262322166"><ele>299.0</ele><time>2026-04-30T09:14:42.01Z</time></trkpt><trkpt lat="48.55051097904939" lon="7.338586887453127"><ele>300.0</ele><time>2026-04-30T09:14:43.01Z</time></trkpt><trkpt lat="48.550502315915075" lon="7.33870442590087"><ele>301.0</ele><time>2026-04-30T09:14:44.01Z</time></trkpt><trkpt lat="48.550510258344275" lon="7.33884298707266"><ele>302.0</ele><time>2026-04-30T09:14:45.01Z</time></trkpt><trkpt lat="48.55052868784572" lon="7.339014672832227"><ele>303.0</ele><time>2026-04-30T09:14:46.01Z</time></trkpt><trkpt lat="48.55055482091497" lon="7.339213335576126"><ele>304.0</ele><time>2026-04-30T09:14:47.01Z</time></trkpt><trkpt lat="48.55058979276536" lon="7.3394403177659715"><ele>305.0</ele><time>2026-04-30T09:14:48.01Z</time></trkpt><trkpt lat="48.550648004176686" lon="7.3397105379331515"><ele>306.0</ele><time>2026-04-30T09:14:49.01Z</time></trkpt><trkpt lat="48.550735632030715" lon="7.339972176546406"><ele>306.3333333333333</ele><time>2026-04-30T09:14:50.01Z</time></trkpt><trkpt lat="48.55079262137033" lon="7.340193620855779"><ele>306.66666666666663</ele><time>2026-04-30T09:14:51.01Z</time></trkpt><trkpt lat="48.5508151690561" lon="7.340426835781123"><ele>307.0</ele><time>2026-04-30T09:14:52.01Z</time></trkpt><trkpt lat="48.55082804363929" lon="7.3406599497460014"><ele>307.0</ele><time>2026-04-30T09:14:53.01Z</time></trkpt><trkpt lat="48.55084507598498" lon="7.340902201673311"><ele>307.0</ele><time>2026-04-30T09:14:54.01Z</time></trkpt><trkpt lat="48.55086553380311" lon="7.34113380867315"><ele>307.0</ele><time>2026-04-30T09:14:55.01Z</time></trkpt><trkpt lat="48.55090756993583" lon="7.341354081671342"><ele>306.0</ele><time>2026-04-30T09:14:56.01Z</time></trkpt><trkpt lat="48.55095870269316" lon="7.341544705488351"><ele>305.0</ele><time>2026-04-30T09:14:57.01Z</time></trkpt><trkpt lat="48.5510109516119" lon="7.341717701183611"><ele>304.0</ele><time>2026-04-30T09:14:58.01Z</time></trkpt><trkpt lat="48.551081813879705" lon="7.341867366750214"><ele>303.0</ele><time>2026-04-30T09:14:59.01Z</time></trkpt><trkpt lat="48.55117587170524" lon="7.341994360204121"><ele>302.0</ele><time>2026-04-30T09:15:00.01Z</time></trkpt><trkpt lat="48.55127365172759" lon="7.342126587661617"><ele>301.0</ele><time>2026-04-30T09:15:01.01Z</time></trkpt><trkpt lat="48.551397345002535" lon="7.342251517333544"><ele>300.0</ele><time>2026-04-30T09:15:02.01Z</time></trkpt><trkpt lat="48.55150343911935" lon="7.342374758581096"><ele>299.0</ele><time>2026-04-30T09:15:03.01Z</time></trkpt><trkpt lat="48.551571555891194" lon="7.342508540955048"><ele>298.75</ele><time>2026-04-30T09:15:04.01Z</time></trkpt><trkpt lat="48.55161270703303" lon="7.3426956321864845"><ele>298.5</ele><time>2026-04-30T09:15:05.01Z</time></trkpt><trkpt lat="48.551646432483686" lon="7.34288408410032"><ele>298.25</ele><time>2026-04-30T09:15:06.01Z</time></trkpt><trkpt lat="48.55168248740116" lon="7.343073594273819"><ele>298.0</ele><time>2026-04-30T09:15:07.01Z</time></trkpt><trkpt lat="48.55172648119452" lon="7.343259926465972"><ele>297.75</ele><time>2026-04-30T09:15:08.01Z</time></trkpt><trkpt lat="48.551775455551685" lon="7.343448828090282"><ele>297.5</ele><time>2026-04-30T09:15:09.01Z</time></trkpt><trkpt lat="48.55183461082502" lon="7.343650488488467"><ele>297.25</ele><time>2026-04-30T09:15:10.01Z</time></trkpt><trkpt lat="48.55191325106229" lon="7.343819952047928"><ele>297.0</ele><time>2026-04-30T09:15:11.01Z</time></trkpt><trkpt lat="48.5519928986525" lon="7.34402760851498"><ele>296.0</ele><time>2026-04-30T09:15:12.01Z</time></trkpt><trkpt lat="48.55207678076155" lon="7.344257571417246"><ele>295.0</ele><time>2026-04-30T09:15:13.01Z</time></trkpt><trkpt lat="48.552166748106444" lon="7.344517281851013"><ele>294.0</ele><time>2026-04-30T09:15:14.01Z</time></trkpt><trkpt lat="48.55227853170537" lon="7.344787540051047"><ele>294.0</ele><time>2026-04-30T09:15:15.01Z</time></trkpt><trkpt lat="48.55240875062867" lon="7.345073882443628"><ele>294.0</ele><time>2026-04-30T09:15:16.01Z</time></trkpt><trkpt lat="48.55252189569939" lon="7.345321879207543"><ele>294.0</ele><time>2026-04-30T09:15:17.01Z</time></trkpt><trkpt lat="48.55261269510128" lon="7.345532727565157"><ele>293.75</ele><time>2026-04-30T09:15:18.01Z</time></trkpt><trkpt lat="48.55268627029675" lon="7.3457214047606305"><ele>293.5</ele><time>2026-04-30T09:15:19.01Z</time></trkpt><trkpt lat="48.55274578173178" lon="7.345895809204197"><ele>293.25</ele><time>2026-04-30T09:15:20.01Z</time></trkpt><trkpt lat="48.5527851498741" lon="7.3460573072873485"><ele>293.0</ele><time>2026-04-30T09:15:21.01Z</time></trkpt><trkpt lat="48.55280299211724" lon="7.346219408122504"><ele>293.0</ele><time>2026-04-30T09:15:22.01Z</time></trkpt><trkpt lat="48.55279525115651" lon="7.346424754704144"><ele>293.0</ele><time>2026-04-30T09:15:23.01Z</time></trkpt><trkpt lat="48.55278402117809" lon="7.3466538101761"><ele>293.0</ele><time>2026-04-30T09:15:24.01Z</time></trkpt><trkpt lat="48.55276735740596" lon="7.34685643876409"><ele>293.0</ele><time>2026-04-30T09:15:25.01Z</time></trkpt><trkpt lat="48.55273061305598" lon="7.34703313890365"><ele>292.6666666666667</ele><time>2026-04-30T09:15:26.01Z</time></trkpt><trkpt lat="48.55266140671606" lon="7.347227785080312"><ele>292.3333333333333</ele><time>2026-04-30T09:15:27.01Z</time></trkpt><trkpt lat="48.55256072461727" lon="7.347479632503046"><ele>292.0</ele><time>2026-04-30T09:15:28.01Z</time></trkpt><trkpt lat="48.552468325879445" lon="7.347768419692016"><ele>292.0</ele><time>2026-04-30T09:15:29.01Z</time></trkpt><trkpt lat="48.55237232819578" lon="7.348078941863538"><ele>292.0</ele><time>2026-04-30T09:15:30.01Z</time></trkpt><trkpt lat="48.55225837460322" lon="7.348374066898117"><ele>292.0</ele><time>2026-04-30T09:15:31.01Z</time></trkpt><trkpt lat="48.552148204190516" lon="7.348637318782024"><ele>292.0</ele><time>2026-04-30T09:15:32.01Z</time></trkpt><trkpt lat="48.552062387415" lon="7.348893001225985"><ele>292.0</ele><time>2026-04-30T09:15:33.01Z</time></trkpt><trkpt lat="48.5519841367076" lon="7.349121100399506"><ele>292.0</ele><time>2026-04-30T09:15:34.011Z</time></trkpt><trkpt lat="48.5519107940746" lon="7.349302836410131"><ele>292.0</ele><time>2026-04-30T09:15:35.011Z</time></trkpt><trkpt lat="48.55185023285852" lon="7.349433811598186"><ele>292.0</ele><time>2026-04-30T09:15:36.011Z</time></trkpt><trkpt lat="48.55178735455697" lon="7.349532604904921"><ele>292.0</ele><time>2026-04-30T09:15:37.012Z</time></trkpt><trkpt lat="48.551737168657816" lon="7.349630685731971"><ele>292.0</ele><time>2026-04-30T09:15:38.011Z</time></trkpt><trkpt lat="48.55168638958277" lon="7.349712073894839"><ele>292.0</ele><time>2026-04-30T09:15:39.011Z</time></trkpt><trkpt lat="48.551588123275124" lon="7.34978098481777"><ele>292.0</ele><time>2026-04-30T09:15:41.011Z</time></trkpt><trkpt lat="48.55151415801922" lon="7.34973393012955"><ele>292.0</ele><time>2026-04-30T09:15:42.011Z</time></trkpt><trkpt lat="48.55140255632869" lon="7.349655509266847"><ele>292.0</ele><time>2026-04-30T09:15:43.011Z</time></trkpt><trkpt lat="48.55124412199885" lon="7.349526735258514"><ele>289.66666666666663</ele><time>2026-04-30T09:15:44.011Z</time></trkpt><trkpt lat="48.55105552536047" lon="7.349391743177937"><ele>287.3333333333333</ele><time>2026-04-30T09:15:45.011Z</time></trkpt><trkpt lat="48.55087310456313" lon="7.349329690125552"><ele>285.0</ele><time>2026-04-30T09:15:46.011Z</time></trkpt><trkpt lat="48.55069930589438" lon="7.349315658203719"><ele>285.0</ele><time>2026-04-30T09:15:47.011Z</time></trkpt><trkpt lat="48.55054817708642" lon="7.349321530620287"><ele>285.0</ele><time>2026-04-30T09:15:48.011Z</time></trkpt><trkpt lat="48.550397699104636" lon="7.349299751436778"><ele>285.0</ele><time>2026-04-30T09:15:49.011Z</time></trkpt><trkpt lat="48.55026619830251" lon="7.349241184323523"><ele>285.0</ele><time>2026-04-30T09:15:50.011Z</time></trkpt><trkpt lat="48.550138909021456" lon="7.349140886256583"><ele>285.0</ele><time>2026-04-30T09:15:51.011Z</time></trkpt><trkpt lat="48.54999917700544" lon="7.349001848629289"><ele>285.0</ele><time>2026-04-30T09:15:52.011Z</time></trkpt><trkpt lat="48.54986150923938" lon="7.348808957898854"><ele>285.0</ele><time>2026-04-30T09:15:53.011Z</time></trkpt><trkpt lat="48.54972618481276" lon="7.348626876925163"><ele>285.0</ele><time>2026-04-30T09:15:54.011Z</time></trkpt><trkpt lat="48.54961383054008" lon="7.34848277409414"><ele>285.0</ele><time>2026-04-30T09:15:55.011Z</time></trkpt><trkpt lat="48.549479199521215" lon="7.34837960762854"><ele>285.0</ele><time>2026-04-30T09:15:56.011Z</time></trkpt><trkpt lat="48.54931796216408" lon="7.348284953066363"><ele>285.25</ele><time>2026-04-30T09:15:57.011Z</time></trkpt><trkpt lat="48.54916137159203" lon="7.348198664564157"><ele>285.5</ele><time>2026-04-30T09:15:58.011Z</time></trkpt><trkpt lat="48.54903155574597" lon="7.348126903717589"><ele>285.75</ele><time>2026-04-30T09:15:59.011Z</time></trkpt><trkpt lat="48.54893316582882" lon="7.34806759453968"><ele>286.0</ele><time>2026-04-30T09:16:00.011Z</time></trkpt><trkpt lat="48.5488473396993" lon="7.348019818653322"><ele>286.0</ele><time>2026-04-30T09:16:01.011Z</time></trkpt><trkpt lat="48.54877445143453" lon="7.347973138997263"><ele>286.0</ele><time>2026-04-30T09:16:02.011Z</time></trkpt><trkpt lat="48.54870662983222" lon="7.347922397070904"><ele>286.0</ele><time>2026-04-30T09:16:03.011Z</time></trkpt><trkpt lat="48.54863220034535" lon="7.347875847704213"><ele>286.0</ele><time>2026-04-30T09:16:04.011Z</time></trkpt><trkpt lat="48.54855553986573" lon="7.347822584388505"><ele>286.0</ele><time>2026-04-30T09:16:05.011Z</time></trkpt><trkpt lat="48.5484685082483" lon="7.347769818100881"><ele>286.0</ele><time>2026-04-30T09:16:06.011Z</time></trkpt><trkpt lat="48.54837700854668" lon="7.3477174425006915"><ele>286.0</ele><time>2026-04-30T09:16:07.011Z</time></trkpt><trkpt lat="48.548292446954754" lon="7.347675442568695"><ele>286.0</ele><time>2026-04-30T09:16:08.011Z</time></trkpt><trkpt lat="48.54820336248769" lon="7.347631256526817"><ele>286.0</ele><time>2026-04-30T09:16:09.011Z</time></trkpt><trkpt lat="48.54812446336705" lon="7.347601194342172"><ele>286.0</ele><time>2026-04-30T09:16:10.011Z</time></trkpt><trkpt lat="48.548053040569876" lon="7.3475681308431176"><ele>286.0</ele><time>2026-04-30T09:16:11.011Z</time></trkpt><trkpt lat="48.54797287137492" lon="7.34752826140559"><ele>286.0</ele><time>2026-04-30T09:16:12.011Z</time></trkpt><trkpt lat="48.547892029672184" lon="7.347486983619302"><ele>286.0</ele><time>2026-04-30T09:16:13.011Z</time></trkpt><trkpt lat="48.54781381953139" lon="7.347439353994009"><ele>286.0</ele><time>2026-04-30T09:16:14.011Z</time></trkpt><trkpt lat="48.547738100722356" lon="7.347393102937098"><ele>286.0</ele><time>2026-04-30T09:16:15.011Z</time></trkpt><trkpt lat="48.54765673102153" lon="7.347348508808386"><ele>286.0</ele><time>2026-04-30T09:16:16.011Z</time></trkpt><trkpt lat="48.54757675816521" lon="7.3473016628889924"><ele>286.0</ele><time>2026-04-30T09:16:17.011Z</time></trkpt><trkpt lat="48.54750850273642" lon="7.347249908539297"><ele>286.0</ele><time>2026-04-30T09:16:18.011Z</time></trkpt><trkpt lat="48.547457358447325" lon="7.34716686436656"><ele>284.8</ele><time>2026-04-30T09:16:19.011Z</time></trkpt><trkpt lat="48.54740418827207" lon="7.347053944484834"><ele>283.6</ele><time>2026-04-30T09:16:20.011Z</time></trkpt><trkpt lat="48.54735026559059" lon="7.346922877732613"><ele>282.4</ele><time>2026-04-30T09:16:21.011Z</time></trkpt><trkpt lat="48.547303680132565" lon="7.346797185598501"><ele>281.2</ele><time>2026-04-30T09:16:22.011Z</time></trkpt><trkpt lat="48.547255148549205" lon="7.346658257840607"><ele>280.0</ele><time>2026-04-30T09:16:23.011Z</time></trkpt><trkpt lat="48.547208797508496" lon="7.346508243405573"><ele>278.8</ele><time>2026-04-30T09:16:24.011Z</time></trkpt><trkpt lat="48.54717152368036" lon="7.346335601502112"><ele>277.6</ele><time>2026-04-30T09:16:25.011Z</time></trkpt><trkpt lat="48.54713679672934" lon="7.3461989263356084"><ele>276.4</ele><time>2026-04-30T09:16:26.011Z</time></trkpt><trkpt lat="48.54709763115293" lon="7.346053914233433"><ele>275.2</ele><time>2026-04-30T09:16:27.011Z</time></trkpt><trkpt lat="48.547063872417105" lon="7.345909505093264"><ele>274.0</ele><time>2026-04-30T09:16:28.011Z</time></trkpt><trkpt lat="48.54702264857574" lon="7.3457812665773865"><ele>274.0</ele><time>2026-04-30T09:16:29.011Z</time></trkpt><trkpt lat="48.54696745773832" lon="7.3456485220661065"><ele>274.0</ele><time>2026-04-30T09:16:30.011Z</time></trkpt><trkpt lat="48.54689426061476" lon="7.345494527063008"><ele>274.0</ele><time>2026-04-30T09:16:31.011Z</time></trkpt><trkpt lat="48.546840501086095" lon="7.345377033736025"><ele>274.0</ele><time>2026-04-30T09:16:32.011Z</time></trkpt><trkpt lat="48.54678527577413" lon="7.34524402025288"><ele>274.0</ele><time>2026-04-30T09:16:33.011Z</time></trkpt><trkpt lat="48.5467253834641" lon="7.345120002658012"><ele>273.0</ele><time>2026-04-30T09:16:34.011Z</time></trkpt><trkpt lat="48.54667298026243" lon="7.344999312905522"><ele>272.0</ele><time>2026-04-30T09:16:35.011Z</time></trkpt><trkpt lat="48.54661763152708" lon="7.34488371405537"><ele>271.0</ele><time>2026-04-30T09:16:36.011Z</time></trkpt><trkpt lat="48.54656132146879" lon="7.344769826388454"><ele>270.0</ele><time>2026-04-30T09:16:37.011Z</time></trkpt><trkpt lat="48.54650290359255" lon="7.3446739025228815"><ele>269.0</ele><time>2026-04-30T09:16:38.011Z</time></trkpt><trkpt lat="48.546441820671596" lon="7.344568742727865"><ele>268.0</ele><time>2026-04-30T09:16:39.011Z</time></trkpt><trkpt lat="48.546369999547686" lon="7.344476121735945"><ele>267.0</ele><time>2026-04-30T09:16:40.011Z</time></trkpt><trkpt lat="48.54629543301534" lon="7.3444009591275945"><ele>266.0</ele><time>2026-04-30T09:16:41.011Z</time></trkpt><trkpt lat="48.54620991472029" lon="7.344332985756955"><ele>265.0</ele><time>2026-04-30T09:16:42.011Z</time></trkpt><trkpt lat="48.546111747210304" lon="7.344266390113702"><ele>264.0</ele><time>2026-04-30T09:16:43.011Z</time></trkpt><trkpt lat="48.54602244834933" lon="7.3442059368139505"><ele>263.8</ele><time>2026-04-30T09:16:44.011Z</time></trkpt><trkpt lat="48.54592995996732" lon="7.344123241480184"><ele>263.59999999999997</ele><time>2026-04-30T09:16:45.011Z</time></trkpt><trkpt lat="48.54585310512649" lon="7.344028822684469"><ele>263.4</ele><time>2026-04-30T09:16:46.011Z</time></trkpt><trkpt lat="48.54577235148286" lon="7.343941760065251"><ele>263.2</ele><time>2026-04-30T09:16:47.011Z</time></trkpt><trkpt lat="48.54571651414481" lon="7.34384854982111"><ele>263.0</ele><time>2026-04-30T09:16:48.011Z</time></trkpt><trkpt lat="48.54565105941115" lon="7.3437652065683485"><ele>262.5</ele><time>2026-04-30T09:16:49.011Z</time></trkpt><trkpt lat="48.5455736096421" lon="7.343705450082498"><ele>262.0</ele><time>2026-04-30T09:16:50.011Z</time></trkpt><trkpt lat="48.54549523551722" lon="7.343658100741845"><ele>261.5</ele><time>2026-04-30T09:16:51.011Z</time></trkpt><trkpt lat="48.5454159331374" lon="7.3436240131188795"><ele>261.0</ele><time>2026-04-30T09:16:52.011Z</time></trkpt><trkpt lat="48.54534267785179" lon="7.343589561641442"><ele>260.5</ele><time>2026-04-30T09:16:53.011Z</time></trkpt><trkpt lat="48.545271163353156" lon="7.343556489107313"><ele>260.0</ele><time>2026-04-30T09:16:54.011Z</time></trkpt><trkpt lat="48.545151845478514" lon="7.343549173854632"><ele>259.25</ele><time>2026-04-30T09:16:56.011Z</time></trkpt><trkpt lat="48.545063620936325" lon="7.343729280016973"><ele>258.5</ele><time>2026-04-30T09:16:58.011Z</time></trkpt><trkpt lat="48.545011925334634" lon="7.343868997258783"><ele>257.75</ele><time>2026-04-30T09:16:59.011Z</time></trkpt><trkpt lat="48.54496304368966" lon="7.344009486150906"><ele>257.0</ele><time>2026-04-30T09:17:00.011Z</time></trkpt><trkpt lat="48.54491963108022" lon="7.344134142527698"><ele>258.5</ele><time>2026-04-30T09:17:01.011Z</time></trkpt><trkpt lat="48.54487505602847" lon="7.344249845843914"><ele>260.0</ele><time>2026-04-30T09:17:02.011Z</time></trkpt><trkpt lat="48.54482090628695" lon="7.344362467087397"><ele>261.5</ele><time>2026-04-30T09:17:03.011Z</time></trkpt><trkpt lat="48.544772425117735" lon="7.34446315826264"><ele>263.0</ele><time>2026-04-30T09:17:04.011Z</time></trkpt><trkpt lat="48.544725912089824" lon="7.344563306329908"><ele>264.5</ele><time>2026-04-30T09:17:05.011Z</time></trkpt><trkpt lat="48.54468237624661" lon="7.344669567567418"><ele>266.0</ele><time>2026-04-30T09:17:06.011Z</time></trkpt><trkpt lat="48.54463686171474" lon="7.344783276616306"><ele>266.6666666666667</ele><time>2026-04-30T09:17:07.011Z</time></trkpt><trkpt lat="48.5445884850438" lon="7.344904171660683"><ele>267.33333333333337</ele><time>2026-04-30T09:17:08.011Z</time></trkpt><trkpt lat="48.544539336989345" lon="7.345004489863462"><ele>268.0</ele><time>2026-04-30T09:17:09.011Z</time></trkpt><trkpt lat="48.54448622371632" lon="7.345117471369296"><ele>268.6666666666667</ele><time>2026-04-30T09:17:10.011Z</time></trkpt><trkpt lat="48.5444354568963" lon="7.345217768923431"><ele>269.3333333333333</ele><time>2026-04-30T09:17:11.011Z</time></trkpt><trkpt lat="48.54438462543807" lon="7.345310081636204"><ele>270.0</ele><time>2026-04-30T09:17:12.011Z</time></trkpt><trkpt lat="48.54432657129159" lon="7.345437887433037"><ele>271.2</ele><time>2026-04-30T09:17:13.011Z</time></trkpt><trkpt lat="48.544272190066536" lon="7.345592214347329"><ele>272.4</ele><time>2026-04-30T09:17:14.011Z</time></trkpt><trkpt lat="48.54421982983388" lon="7.3457269046400855"><ele>273.6</ele><time>2026-04-30T09:17:15.011Z</time></trkpt><trkpt lat="48.54416815858709" lon="7.345858991449179"><ele>274.8</ele><time>2026-04-30T09:17:16.011Z</time></trkpt><trkpt lat="48.544119818559885" lon="7.3460016128903645"><ele>276.0</ele><time>2026-04-30T09:17:17.011Z</time></trkpt><trkpt lat="48.544067979039156" lon="7.346139502820838"><ele>276.0</ele><time>2026-04-30T09:17:18.011Z</time></trkpt><trkpt lat="48.544013884455" lon="7.3462800653875915"><ele>276.0</ele><time>2026-04-30T09:17:19.011Z</time></trkpt><trkpt lat="48.543965715102985" lon="7.346420726677312"><ele>276.0</ele><time>2026-04-30T09:17:20.011Z</time></trkpt><trkpt lat="48.54389372669738" lon="7.346557436327154"><ele>276.0</ele><time>2026-04-30T09:17:21.011Z</time></trkpt><trkpt lat="48.543852581957196" lon="7.346691628034765"><ele>276.0</ele><time>2026-04-30T09:17:22.011Z</time></trkpt><trkpt lat="48.54381338150922" lon="7.346825754439634"><ele>276.2</ele><time>2026-04-30T09:17:23.011Z</time></trkpt><trkpt lat="48.54377640991753" lon="7.346956145123943"><ele>276.40000000000003</ele><time>2026-04-30T09:17:24.011Z</time></trkpt><trkpt lat="48.54374386594063" lon="7.347097025362676"><ele>276.6</ele><time>2026-04-30T09:17:25.011Z</time></trkpt><trkpt lat="48.54370902222485" lon="7.347226458053136"><ele>276.8</ele><time>2026-04-30T09:17:26.011Z</time></trkpt><trkpt lat="48.54367406865144" lon="7.347379828043142"><ele>277.0</ele><time>2026-04-30T09:17:27.011Z</time></trkpt><trkpt lat="48.54362442423453" lon="7.347517498837301"><ele>277.0</ele><time>2026-04-30T09:17:28.011Z</time></trkpt><trkpt lat="48.54358875690246" lon="7.34765155764674"><ele>277.0</ele><time>2026-04-30T09:17:29.011Z</time></trkpt><trkpt lat="48.543565438586505" lon="7.347789970652826"><ele>277.0</ele><time>2026-04-30T09:17:30.011Z</time></trkpt><trkpt lat="48.54352326446717" lon="7.34794027177247"><ele>277.0</ele><time>2026-04-30T09:17:31.011Z</time></trkpt><trkpt lat="48.543491618181584" lon="7.348079068317415"><ele>277.0</ele><time>2026-04-30T09:17:32.011Z</time></trkpt><trkpt lat="48.543458916448394" lon="7.348233220973078"><ele>277.4</ele><time>2026-04-30T09:17:33.011Z</time></trkpt><trkpt lat="48.5434276345555" lon="7.348394154924517"><ele>277.79999999999995</ele><time>2026-04-30T09:17:34.011Z</time></trkpt><trkpt lat="48.54339592641045" lon="7.348538189517782"><ele>278.2</ele><time>2026-04-30T09:17:35.011Z</time></trkpt><trkpt lat="48.54336479592144" lon="7.3486912721420605"><ele>278.59999999999997</ele><time>2026-04-30T09:17:36.011Z</time></trkpt><trkpt lat="48.54333108584847" lon="7.348858563694418"><ele>279.0</ele><time>2026-04-30T09:17:37.011Z</time></trkpt><trkpt lat="48.54329012526182" lon="7.349051489278928"><ele>279.4</ele><time>2026-04-30T09:17:38.011Z</time></trkpt><trkpt lat="48.54323554095306" lon="7.349239158984464"><ele>279.79999999999995</ele><time>2026-04-30T09:17:39.011Z</time></trkpt><trkpt lat="48.543200779110855" lon="7.349401354244251"><ele>280.20000000000005</ele><time>2026-04-30T09:17:40.012Z</time></trkpt><trkpt lat="48.543174964962056" lon="7.3495480887748"><ele>280.6</ele><time>2026-04-30T09:17:41.012Z</time></trkpt><trkpt lat="48.54313087823156" lon="7.3496694344532525"><ele>281.0</ele><time>2026-04-30T09:17:42.012Z</time></trkpt><trkpt lat="48.54308326018006" lon="7.349811329897909"><ele>282.6666666666667</ele><time>2026-04-30T09:17:43.012Z</time></trkpt><trkpt lat="48.54303774836249" lon="7.3499974907602565"><ele>284.3333333333333</ele><time>2026-04-30T09:17:44.012Z</time></trkpt><trkpt lat="48.54298176750594" lon="7.350216087071083"><ele>286.0</ele><time>2026-04-30T09:17:45.012Z</time></trkpt><trkpt lat="48.542913400823274" lon="7.350489818039376"><ele>286.3333333333333</ele><time>2026-04-30T09:17:46.013Z</time></trkpt><trkpt lat="48.54305952636198" lon="7.35073204027716"><ele>286.6666666666667</ele><time>2026-04-30T09:17:47.012Z</time></trkpt><trkpt lat="48.543019073941814" lon="7.350983070329141"><ele>287.0</ele><time>2026-04-30T09:17:48.012Z</time></trkpt><trkpt lat="48.542243768920656" lon="7.351095697788814"><ele>287.0</ele><time>2026-04-30T09:17:49.013Z</time></trkpt><trkpt lat="48.54212010070417" lon="7.3512719115892455"><ele>287.0</ele><time>2026-04-30T09:17:50.012Z</time></trkpt><trkpt lat="48.541990820149934" lon="7.351413879473622"><ele>287.0</ele><time>2026-04-30T09:17:51.012Z</time></trkpt><trkpt lat="48.54186781413924" lon="7.35154741850497"><ele>284.0</ele><time>2026-04-30T09:17:52.013Z</time></trkpt><trkpt lat="48.54173990510023" lon="7.351688976281632"><ele>281.0</ele><time>2026-04-30T09:17:53.012Z</time></trkpt><trkpt lat="48.54161728593623" lon="7.351882661701356"><ele>278.0</ele><time>2026-04-30T09:17:54.012Z</time></trkpt><trkpt lat="48.54149657117748" lon="7.3520788405857145"><ele>278.2</ele><time>2026-04-30T09:17:55.012Z</time></trkpt><trkpt lat="48.54138922270383" lon="7.352235723450864"><ele>278.4</ele><time>2026-04-30T09:17:56.012Z</time></trkpt><trkpt lat="48.54131662703429" lon="7.35232988694956"><ele>278.59999999999997</ele><time>2026-04-30T09:17:57.012Z</time></trkpt><trkpt lat="48.541253551176425" lon="7.35236006722359"><ele>278.8</ele><time>2026-04-30T09:17:58.012Z</time></trkpt><trkpt lat="48.54116198045432" lon="7.352361521117173"><ele>279.0</ele><time>2026-04-30T09:17:59.012Z</time></trkpt><trkpt lat="48.541052098604" lon="7.352321867909179"><ele>278.3333333333333</ele><time>2026-04-30T09:18:00.012Z</time></trkpt><trkpt lat="48.5409228625005" lon="7.352250370929796"><ele>277.66666666666663</ele><time>2026-04-30T09:18:01.012Z</time></trkpt><trkpt lat="48.54078624614907" lon="7.352142390697523"><ele>277.0</ele><time>2026-04-30T09:18:02.012Z</time></trkpt><trkpt lat="48.54063674814791" lon="7.3520180055270545"><ele>276.66666666666663</ele><time>2026-04-30T09:18:03.012Z</time></trkpt><trkpt lat="48.540444210840526" lon="7.351884335203152"><ele>276.3333333333333</ele><time>2026-04-30T09:18:04.012Z</time></trkpt><trkpt lat="48.54026912098508" lon="7.351771772227679"><ele>276.0</ele><time>2026-04-30T09:18:05.012Z</time></trkpt><trkpt lat="48.540125205220896" lon="7.3516705968929115"><ele>276.0</ele><time>2026-04-30T09:18:06.012Z</time></trkpt><trkpt lat="48.54002724003871" lon="7.351573475039253"><ele>276.0</ele><time>2026-04-30T09:18:07.012Z</time></trkpt><trkpt lat="48.53995688587062" lon="7.351487999548101"><ele>276.0</ele><time>2026-04-30T09:18:08.012Z</time></trkpt><trkpt lat="48.53990449848605" lon="7.351387636654842"><ele>276.0</ele><time>2026-04-30T09:18:09.012Z</time></trkpt><trkpt lat="48.539859329373144" lon="7.351291704857362"><ele>276.0</ele><time>2026-04-30T09:18:10.012Z</time></trkpt><trkpt lat="48.5398158079981" lon="7.351199272612001"><ele>276.0</ele><time>2026-04-30T09:18:11.012Z</time></trkpt><trkpt lat="48.539765579281976" lon="7.35106844816591"><ele>276.40000000000003</ele><time>2026-04-30T09:18:12.012Z</time></trkpt><trkpt lat="48.539711748662135" lon="7.350933452648916"><ele>276.8</ele><time>2026-04-30T09:18:13.012Z</time></trkpt><trkpt lat="48.539676066428" lon="7.350803199625915"><ele>277.20000000000005</ele><time>2026-04-30T09:18:14.012Z</time></trkpt><trkpt lat="48.53964707560337" lon="7.350682935014127"><ele>277.6</ele><time>2026-04-30T09:18:15.012Z</time></trkpt><trkpt lat="48.539621239682894" lon="7.350558770915636"><ele>278.0</ele><time>2026-04-30T09:18:16.012Z</time></trkpt><trkpt lat="48.53960940819729" lon="7.350431297876006"><ele>278.0</ele><time>2026-04-30T09:18:17.012Z</time></trkpt><trkpt lat="48.539605739379084" lon="7.350300893156996"><ele>278.0</ele><time>2026-04-30T09:18:18.012Z</time></trkpt><trkpt lat="48.53960900046795" lon="7.350166388622166"><ele>278.0</ele><time>2026-04-30T09:18:19.012Z</time></trkpt><trkpt lat="48.539607369960834" lon="7.35005580848911"><ele>278.0</ele><time>2026-04-30T09:18:20.012Z</time></trkpt><trkpt lat="48.539601332547754" lon="7.349946066718803"><ele>278.0</ele><time>2026-04-30T09:18:21.012Z</time></trkpt><trkpt lat="48.53959594755686" lon="7.349802095480823"><ele>278.0</ele><time>2026-04-30T09:18:23.012Z</time></trkpt><trkpt lat="48.53958643104517" lon="7.349704106915192"><ele>276.5</ele><time>2026-04-30T09:18:24.012Z</time></trkpt><trkpt lat="48.53956735625425" lon="7.349597338431893"><ele>275.0</ele><time>2026-04-30T09:18:25.012Z</time></trkpt><trkpt lat="48.53954158056604" lon="7.34949271899168"><ele>273.5</ele><time>2026-04-30T09:18:26.012Z</time></trkpt><trkpt lat="48.53951365827813" lon="7.349400487168402"><ele>272.0</ele><time>2026-04-30T09:18:27.012Z</time></trkpt><trkpt lat="48.539448852835534" lon="7.349225291617896"><ele>270.5</ele><time>2026-04-30T09:18:29.012Z</time></trkpt><trkpt lat="48.53940358488464" lon="7.3491404374664135"><ele>269.0</ele><time>2026-04-30T09:18:30.012Z</time></trkpt><trkpt lat="48.539354067667325" lon="7.349051702420799"><ele>268.0</ele><time>2026-04-30T09:18:31.012Z</time></trkpt><trkpt lat="48.5392979733267" lon="7.348974277959939"><ele>267.0</ele><time>2026-04-30T09:18:32.012Z</time></trkpt><trkpt lat="48.53923263880317" lon="7.348907862338148"><ele>266.0</ele><time>2026-04-30T09:18:33.012Z</time></trkpt><trkpt lat="48.53915304766379" lon="7.348867655176567"><ele>265.0</ele><time>2026-04-30T09:18:34.012Z</time></trkpt><trkpt lat="48.53906123035353" lon="7.348815380016873"><ele>264.0</ele><time>2026-04-30T09:18:35.012Z</time></trkpt><trkpt lat="48.53896131542513" lon="7.348770108876849"><ele>263.0</ele><time>2026-04-30T09:18:36.012Z</time></trkpt><trkpt lat="48.538873019986916" lon="7.348721671712177"><ele>261.5</ele><time>2026-04-30T09:18:37.012Z</time></trkpt><trkpt lat="48.53880544619024" lon="7.348677272888933"><ele>260.0</ele><time>2026-04-30T09:18:38.012Z</time></trkpt><trkpt lat="48.5387317753959" lon="7.34862679760004"><ele>258.5</ele><time>2026-04-30T09:18:39.012Z</time></trkpt><trkpt lat="48.53867244439307" lon="7.348580631235817"><ele>257.0</ele><time>2026-04-30T09:18:40.012Z</time></trkpt><trkpt lat="48.53862163166896" lon="7.348485796738826"><ele>255.50000000000003</ele><time>2026-04-30T09:18:43.012Z</time></trkpt><trkpt lat="48.53862141379875" lon="7.3483672079164695"><ele>254.0</ele><time>2026-04-30T09:18:46.012Z</time></trkpt><trkpt lat="48.538671042712636" lon="7.3482490752225385"><ele>254.0</ele><time>2026-04-30T09:18:49.012Z</time></trkpt><trkpt lat="48.5387926881302" lon="7.348127407994186"><ele>254.0</ele><time>2026-04-30T09:18:51.012Z</time></trkpt><trkpt lat="48.53886807322143" lon="7.3479923144709165"><ele>254.0</ele><time>2026-04-30T09:18:52.012Z</time></trkpt><trkpt lat="48.53893960707452" lon="7.3478549513613824"><ele>254.0</ele><time>2026-04-30T09:18:53.012Z</time></trkpt><trkpt lat="48.53897978454363" lon="7.347727486580731"><ele>252.83333333333334</ele><time>2026-04-30T09:18:54.012Z</time></trkpt><trkpt lat="48.538991521091845" lon="7.347594351784957"><ele>251.66666666666669</ele><time>2026-04-30T09:18:55.012Z</time></trkpt><trkpt lat="48.53899112730429" lon="7.3474657876718075"><ele>250.5</ele><time>2026-04-30T09:18:56.012Z</time></trkpt><trkpt lat="48.53897392026429" lon="7.347344669527348"><ele>249.33333333333331</ele><time>2026-04-30T09:18:57.012Z</time></trkpt><trkpt lat="48.538964862797" lon="7.347228333893751"><ele>248.16666666666666</ele><time>2026-04-30T09:18:58.012Z</time></trkpt><trkpt lat="48.538960399925756" lon="7.347106041041505"><ele>247.0</ele><time>2026-04-30T09:18:59.012Z</time></trkpt><trkpt lat="48.53895167528394" lon="7.346963630373339"><ele>246.99999999999997</ele><time>2026-04-30T09:19:00.012Z</time></trkpt><trkpt lat="48.53894395530035" lon="7.3468352994437325"><ele>247.0</ele><time>2026-04-30T09:19:01.012Z</time></trkpt><trkpt lat="48.53894342760226" lon="7.346698609417464"><ele>247.0</ele><time>2026-04-30T09:19:02.012Z</time></trkpt><trkpt lat="48.53895154650167" lon="7.346560486943802"><ele>247.0</ele><time>2026-04-30T09:19:03.012Z</time></trkpt><trkpt lat="48.538971727002085" lon="7.346439832563622"><ele>246.99999999999997</ele><time>2026-04-30T09:19:04.012Z</time></trkpt><trkpt lat="48.539004532664855" lon="7.346322879940294"><ele>247.0</ele><time>2026-04-30T09:19:05.012Z</time></trkpt><trkpt lat="48.53904078502964" lon="7.3462385075878744"><ele>246.99999999999997</ele><time>2026-04-30T09:19:06.012Z</time></trkpt><trkpt lat="48.539079881375535" lon="7.346160880473663"><ele>247.0</ele><time>2026-04-30T09:19:07.012Z</time></trkpt><trkpt lat="48.539128005359395" lon="7.346005376030683"><ele>247.0</ele><time>2026-04-30T09:19:09.012Z</time></trkpt><trkpt lat="48.53918864496038" lon="7.345897229055791"><ele>247.0</ele><time>2026-04-30T09:19:11.012Z</time></trkpt><trkpt lat="48.53926182842497" lon="7.345864036820379"><ele>246.99999999999997</ele><time>2026-04-30T09:19:12.012Z</time></trkpt><trkpt lat="48.539330026020146" lon="7.345815450388918"><ele>247.0</ele><time>2026-04-30T09:19:13.011Z</time></trkpt><trkpt lat="48.539391229119325" lon="7.3457859545109025"><ele>247.0</ele><time>2026-04-30T09:19:14.011Z</time></trkpt><trkpt lat="48.53947287637234" lon="7.345827395478768"><ele>247.0</ele><time>2026-04-30T09:19:16.011Z</time></trkpt><trkpt lat="48.53956662309532" lon="7.345979511417803"><ele>247.0</ele><time>2026-04-30T09:19:18.011Z</time></trkpt><trkpt lat="48.53962148126459" lon="7.346070690246717"><ele>247.0</ele><time>2026-04-30T09:19:19.011Z</time></trkpt><trkpt lat="48.53967375239159" lon="7.346152295658507"><ele>247.0</ele><time>2026-04-30T09:19:20.011Z</time></trkpt><trkpt lat="48.53972959515461" lon="7.346229378756621"><ele>246.85714285714286</ele><time>2026-04-30T09:19:21.011Z</time></trkpt><trkpt lat="48.53978734904951" lon="7.346297226142896"><ele>246.71428571428572</ele><time>2026-04-30T09:19:22.011Z</time></trkpt><trkpt lat="48.53983894667987" lon="7.346356877532274"><ele>246.57142857142858</ele><time>2026-04-30T09:19:23.011Z</time></trkpt><trkpt lat="48.539896054828255" lon="7.346411033242135"><ele>246.42857142857144</ele><time>2026-04-30T09:19:24.011Z</time></trkpt><trkpt lat="48.53995588322468" lon="7.346472228850153"><ele>246.28571428571428</ele><time>2026-04-30T09:19:25.011Z</time></trkpt><trkpt lat="48.54001474495361" lon="7.346552275688776"><ele>246.14285714285717</ele><time>2026-04-30T09:19:26.011Z</time></trkpt><trkpt lat="48.54006447403185" lon="7.346647565987315"><ele>246.00000000000003</ele><time>2026-04-30T09:19:27.011Z</time></trkpt><trkpt lat="48.54011328776427" lon="7.346751848670017"><ele>246.0</ele><time>2026-04-30T09:19:28.011Z</time></trkpt><trkpt lat="48.54016694929328" lon="7.346850222914053"><ele>246.0</ele><time>2026-04-30T09:19:29.011Z</time></trkpt><trkpt lat="48.54021107623092" lon="7.346933110660571"><ele>246.0</ele><time>2026-04-30T09:19:30.011Z</time></trkpt><trkpt lat="48.54025696686794" lon="7.347010481137187"><ele>246.0</ele><time>2026-04-30T09:19:31.011Z</time></trkpt><trkpt lat="48.54030898174456" lon="7.34709979671796"><ele>246.0</ele><time>2026-04-30T09:19:51.013Z</time></trkpt><trkpt lat="48.5403586720927" lon="7.34717272745969"><ele>246.0</ele><time>2026-04-30T09:19:53.013Z</time></trkpt><trkpt lat="48.54047637416187" lon="7.347094674466182"><ele>246.33333333333334</ele><time>2026-04-30T09:19:55.013Z</time></trkpt><trkpt lat="48.54053781544089" lon="7.347035081577307"><ele>246.66666666666669</ele><time>2026-04-30T09:19:56.013Z</time></trkpt><trkpt lat="48.54060792428034" lon="7.347014331638154"><ele>247.0</ele><time>2026-04-30T09:19:57.013Z</time></trkpt><trkpt lat="48.54068156860202" lon="7.34699100620553"><ele>247.33333333333334</ele><time>2026-04-30T09:19:58.014Z</time></trkpt><trkpt lat="48.54076078355186" lon="7.346973378251514"><ele>247.66666666666669</ele><time>2026-04-30T09:19:59.014Z</time></trkpt><trkpt lat="48.540832901271756" lon="7.346938657749606"><ele>248.0</ele><time>2026-04-30T09:20:00.014Z</time></trkpt><trkpt lat="48.54092915118034" lon="7.346843260559127"><ele>248.0</ele><time>2026-04-30T09:20:02.014Z</time></trkpt><trkpt lat="48.54096795776956" lon="7.346764540602891"><ele>248.0</ele><time>2026-04-30T09:20:03.014Z</time></trkpt><trkpt lat="48.5410088594005" lon="7.346661104843309"><ele>248.0</ele><time>2026-04-30T09:20:04.014Z</time></trkpt><trkpt lat="48.541076738439465" lon="7.34652884197159"><ele>248.0</ele><time>2026-04-30T09:20:05.014Z</time></trkpt><trkpt lat="48.541135114771336" lon="7.346359212121655"><ele>248.0</ele><time>2026-04-30T09:20:06.014Z</time></trkpt><trkpt lat="48.541168396160565" lon="7.346196554285012"><ele>247.8</ele><time>2026-04-30T09:20:07.014Z</time></trkpt><trkpt lat="48.54119764442769" lon="7.346000398769196"><ele>247.60000000000002</ele><time>2026-04-30T09:20:08.014Z</time></trkpt><trkpt lat="48.541222982699566" lon="7.345802193709224"><ele>247.39999999999998</ele><time>2026-04-30T09:20:09.014Z</time></trkpt><trkpt lat="48.54123784635869" lon="7.345655189349586"><ele>247.2</ele><time>2026-04-30T09:20:10.014Z</time></trkpt><trkpt lat="48.541259845335155" lon="7.345551511885984"><ele>247.0</ele><time>2026-04-30T09:20:11.014Z</time></trkpt><trkpt lat="48.54129066069249" lon="7.345459604540264"><ele>247.33333333333331</ele><time>2026-04-30T09:20:12.014Z</time></trkpt><trkpt lat="48.54134824790428" lon="7.34536595940625"><ele>247.66666666666666</ele><time>2026-04-30T09:20:13.014Z</time></trkpt><trkpt lat="48.54141197332311" lon="7.345271124108969"><ele>248.0</ele><time>2026-04-30T09:20:14.014Z</time></trkpt><trkpt lat="48.541483254989764" lon="7.345166423549791"><ele>248.33333333333331</ele><time>2026-04-30T09:20:15.014Z</time></trkpt><trkpt lat="48.54153545775666" lon="7.345050088526074"><ele>248.66666666666666</ele><time>2026-04-30T09:20:16.014Z</time></trkpt><trkpt lat="48.54159903063209" lon="7.344971543851078"><ele>249.0</ele><time>2026-04-30T09:20:17.014Z</time></trkpt><trkpt lat="48.54167308616607" lon="7.344903515035797"><ele>249.0</ele><time>2026-04-30T09:20:18.014Z</time></trkpt><trkpt lat="48.54174692150348" lon="7.344820718250053"><ele>248.99999999999997</ele><time>2026-04-30T09:20:19.014Z</time></trkpt><trkpt lat="48.54180660835074" lon="7.344715006814981"><ele>248.99999999999997</ele><time>2026-04-30T09:20:20.014Z</time></trkpt><trkpt lat="48.541855283787356" lon="7.344600107747895"><ele>249.0</ele><time>2026-04-30T09:20:21.014Z</time></trkpt><trkpt lat="48.54191592692947" lon="7.344489651839112"><ele>249.0</ele><time>2026-04-30T09:20:22.014Z</time></trkpt><trkpt lat="48.54198446458956" lon="7.344394808964912"><ele>249.16666666666666</ele><time>2026-04-30T09:20:23.014Z</time></trkpt><trkpt lat="48.54204243876393" lon="7.344291227469362"><ele>249.33333333333331</ele><time>2026-04-30T09:20:24.014Z</time></trkpt><trkpt lat="48.54210386652561" lon="7.344199516179231"><ele>249.5</ele><time>2026-04-30T09:20:25.014Z</time></trkpt><trkpt lat="48.54216221620752" lon="7.34412550767903"><ele>249.66666666666666</ele><time>2026-04-30T09:20:26.014Z</time></trkpt><trkpt lat="48.54222340924432" lon="7.34404610508475"><ele>249.83333333333331</ele><time>2026-04-30T09:20:27.014Z</time></trkpt><trkpt lat="48.54229494279556" lon="7.343952575257179"><ele>250.0</ele><time>2026-04-30T09:20:28.014Z</time></trkpt><trkpt lat="48.54236492850512" lon="7.343862191758668"><ele>250.16666666666666</ele><time>2026-04-30T09:20:29.014Z</time></trkpt><trkpt lat="48.54241984150792" lon="7.343765325470225"><ele>250.33333333333331</ele><time>2026-04-30T09:20:30.014Z</time></trkpt><trkpt lat="48.54248711625195" lon="7.343680072204134"><ele>250.5</ele><time>2026-04-30T09:20:31.014Z</time></trkpt><trkpt lat="48.54254369691711" lon="7.343584571888542"><ele>250.66666666666669</ele><time>2026-04-30T09:20:32.014Z</time></trkpt><trkpt lat="48.54259845679813" lon="7.3434928686196885"><ele>250.83333333333334</ele><time>2026-04-30T09:20:33.014Z</time></trkpt><trkpt lat="48.54265787038409" lon="7.343397308662036"><ele>251.0</ele><time>2026-04-30T09:20:34.014Z</time></trkpt><trkpt lat="48.542714674000976" lon="7.3432954438629086"><ele>251.00000000000003</ele><time>2026-04-30T09:20:35.014Z</time></trkpt><trkpt lat="48.54277501262601" lon="7.343209158663794"><ele>251.0</ele><time>2026-04-30T09:20:36.014Z</time></trkpt><trkpt lat="48.542839517156516" lon="7.343119594712952"><ele>251.0</ele><time>2026-04-30T09:20:37.014Z</time></trkpt><trkpt lat="48.54290709367721" lon="7.343037537053226"><ele>251.0</ele><time>2026-04-30T09:20:38.014Z</time></trkpt><trkpt lat="48.542971138841565" lon="7.342964150144735"><ele>251.00000000000003</ele><time>2026-04-30T09:20:39.014Z</time></trkpt><trkpt lat="48.5430260285691" lon="7.342907246367128"><ele>251.0</ele><time>2026-04-30T09:20:40.014Z</time></trkpt><trkpt lat="48.54310705919095" lon="7.3428280862435855"><ele>251.33333333333334</ele><time>2026-04-30T09:20:42.014Z</time></trkpt><trkpt lat="48.54311309823198" lon="7.342704816267956"><ele>251.66666666666669</ele><time>2026-04-30T09:20:45.014Z</time></trkpt><trkpt lat="48.54307210192882" lon="7.342610274333262"><ele>252.0</ele><time>2026-04-30T09:20:46.014Z</time></trkpt><trkpt lat="48.543025206366984" lon="7.342499900108369"><ele>252.33333333333331</ele><time>2026-04-30T09:20:47.013Z</time></trkpt><trkpt lat="48.54298191771156" lon="7.342380599251889"><ele>252.66666666666666</ele><time>2026-04-30T09:20:48.013Z</time></trkpt><trkpt lat="48.54295132654708" lon="7.342274413127133"><ele>253.0</ele><time>2026-04-30T09:20:49.013Z</time></trkpt><trkpt lat="48.54297339645808" lon="7.342127874354444"><ele>253.2</ele><time>2026-04-30T09:20:51.013Z</time></trkpt><trkpt lat="48.54302464352302" lon="7.34201033722279"><ele>253.4</ele><time>2026-04-30T09:20:53.013Z</time></trkpt><trkpt lat="48.54299119228586" lon="7.341851125006586"><ele>253.59999999999997</ele><time>2026-04-30T09:20:55.013Z</time></trkpt><trkpt lat="48.54296700817363" lon="7.341724563333264"><ele>253.79999999999998</ele><time>2026-04-30T09:20:56.013Z</time></trkpt><trkpt lat="48.54293644766978" lon="7.341604853233463"><ele>254.0</ele><time>2026-04-30T09:20:57.013Z</time></trkpt><trkpt lat="48.54290671909457" lon="7.341492436283544"><ele>254.00000000000003</ele><time>2026-04-30T09:20:58.013Z</time></trkpt><trkpt lat="48.54287883239383" lon="7.341391355050118"><ele>254.0</ele><time>2026-04-30T09:20:59.013Z</time></trkpt><trkpt lat="48.542856036061984" lon="7.341293105572097"><ele>254.0</ele><time>2026-04-30T09:21:00.013Z</time></trkpt><trkpt lat="48.54283790342547" lon="7.341202048301962"><ele>254.0</ele><time>2026-04-30T09:21:01.013Z</time></trkpt><trkpt lat="48.54279757056929" lon="7.341034264650469"><ele>254.00000000000003</ele><time>2026-04-30T09:21:03.013Z</time></trkpt><trkpt lat="48.54271451491053" lon="7.340900107515305"><ele>254.0</ele><time>2026-04-30T09:21:05.013Z</time></trkpt><trkpt lat="48.54264055980767" lon="7.34085144729334"><ele>254.0</ele><time>2026-04-30T09:21:07.013Z</time></trkpt><trkpt lat="48.542582322713066" lon="7.340895560475734"><ele>254.0</ele><time>2026-04-30T09:21:09.013Z</time></trkpt><trkpt lat="48.542508637147506" lon="7.340999445009768"><ele>254.0</ele><time>2026-04-30T09:21:11.013Z</time></trkpt><trkpt lat="48.54244909728858" lon="7.340959145024959"><ele>254.0</ele><time>2026-04-30T09:21:13.013Z</time></trkpt><trkpt lat="48.54239263213991" lon="7.340901171574787"><ele>254.0</ele><time>2026-04-30T09:21:14.013Z</time></trkpt><trkpt lat="48.54233130957081" lon="7.3408279371806096"><ele>254.0</ele><time>2026-04-30T09:21:15.013Z</time></trkpt><trkpt lat="48.5422698246601" lon="7.340785432305545"><ele>254.0</ele><time>2026-04-30T09:21:16.013Z</time></trkpt><trkpt lat="48.54221539042913" lon="7.340676983057661"><ele>254.50000000000003</ele><time>2026-04-30T09:21:18.013Z</time></trkpt><trkpt lat="48.54218517632553" lon="7.340533045116973"><ele>255.0</ele><time>2026-04-30T09:21:20.013Z</time></trkpt><trkpt lat="48.54217364961985" lon="7.340355209820326"><ele>255.5</ele><time>2026-04-30T09:21:22.013Z</time></trkpt><trkpt lat="48.54215426658875" lon="7.340240641243866"><ele>256.0</ele><time>2026-04-30T09:21:23.013Z</time></trkpt><trkpt lat="48.542128178048614" lon="7.340144863899982"><ele>256.5</ele><time>2026-04-30T09:21:24.013Z</time></trkpt><trkpt lat="48.54213527135878" lon="7.340019049239309"><ele>257.0</ele><time>2026-04-30T09:21:26.013Z</time></trkpt><trkpt lat="48.54215624191646" lon="7.339927274083793"><ele>257.0</ele><time>2026-04-30T09:21:27.013Z</time></trkpt><trkpt lat="48.542168216628504" lon="7.339818555023653"><ele>257.0</ele><time>2026-04-30T09:21:28.013Z</time></trkpt><trkpt lat="48.54219863006451" lon="7.339659185040793"><ele>257.0</ele><time>2026-04-30T09:21:30.013Z</time></trkpt><trkpt lat="48.542253522498356" lon="7.339489753968043"><ele>257.0</ele><time>2026-04-30T09:21:32.013Z</time></trkpt><trkpt lat="48.54231753535247" lon="7.339358225741856"><ele>257.0</ele><time>2026-04-30T09:21:34.013Z</time></trkpt><trkpt lat="48.54239498804326" lon="7.339235272248033"><ele>257.6666666666667</ele><time>2026-04-30T09:21:36.013Z</time></trkpt><trkpt lat="48.54247581548786" lon="7.339084139144074"><ele>258.33333333333337</ele><time>2026-04-30T09:21:38.013Z</time></trkpt><trkpt lat="48.542502613176566" lon="7.338990231970551"><ele>259.0</ele><time>2026-04-30T09:21:39.013Z</time></trkpt><trkpt lat="48.542525658886916" lon="7.338892621246609"><ele>259.6666666666667</ele><time>2026-04-30T09:21:40.013Z</time></trkpt><trkpt lat="48.5425568334965" lon="7.338783330312432"><ele>260.3333333333333</ele><time>2026-04-30T09:21:41.013Z</time></trkpt><trkpt lat="48.54256346704319" lon="7.3386625844640845"><ele>261.0</ele><time>2026-04-30T09:21:42.013Z</time></trkpt><trkpt lat="48.54256173934605" lon="7.338514957521416"><ele>262.6</ele><time>2026-04-30T09:21:43.013Z</time></trkpt><trkpt lat="48.54255714072995" lon="7.338374178126539"><ele>264.20000000000005</ele><time>2026-04-30T09:21:44.013Z</time></trkpt><trkpt lat="48.54255983997773" lon="7.338229954098974"><ele>265.79999999999995</ele><time>2026-04-30T09:21:45.013Z</time></trkpt><trkpt lat="48.54255291527227" lon="7.338086168005279"><ele>267.4</ele><time>2026-04-30T09:21:46.013Z</time></trkpt><trkpt lat="48.542545616980064" lon="7.33794390566051"><ele>269.0</ele><time>2026-04-30T09:21:47.013Z</time></trkpt><trkpt lat="48.5425314334301" lon="7.337796387523792"><ele>270.2</ele><time>2026-04-30T09:21:48.013Z</time></trkpt><trkpt lat="48.542496317634594" lon="7.337652739284054"><ele>271.4</ele><time>2026-04-30T09:21:49.013Z</time></trkpt><trkpt lat="48.54244289672422" lon="7.337551788913442"><ele>272.6</ele><time>2026-04-30T09:21:50.013Z</time></trkpt><trkpt lat="48.542396226657644" lon="7.337449868615751"><ele>273.8</ele><time>2026-04-30T09:21:51.013Z</time></trkpt><trkpt lat="48.542334691043614" lon="7.337333245967549"><ele>275.0</ele><time>2026-04-30T09:21:52.014Z</time></trkpt><trkpt lat="48.54226287407148" lon="7.337238870779198"><ele>275.5</ele><time>2026-04-30T09:21:54.014Z</time></trkpt><trkpt lat="48.542164175905214" lon="7.337208911679106"><ele>276.0</ele><time>2026-04-30T09:21:55.015Z</time></trkpt><trkpt lat="48.54203234261906" lon="7.33715780038212"><ele>276.5</ele><time>2026-04-30T09:21:56.015Z</time></trkpt><trkpt lat="48.541856436766565" lon="7.337082394299724"><ele>277.0</ele><time>2026-04-30T09:21:57.015Z</time></trkpt><trkpt lat="48.5416780738855" lon="7.336979233232715"><ele>278.75</ele><time>2026-04-30T09:21:58.015Z</time></trkpt><trkpt lat="48.54154016711475" lon="7.336878075352041"><ele>280.5</ele><time>2026-04-30T09:21:59.015Z</time></trkpt><trkpt lat="48.54146692421513" lon="7.336821156016475"><ele>282.25</ele><time>2026-04-30T09:22:00.015Z</time></trkpt><trkpt lat="48.5413125109933" lon="7.33670945847951"><ele>284.0</ele><time>2026-04-30T09:22:02.014Z</time></trkpt><trkpt lat="48.541171955312706" lon="7.336631186115166"><ele>285.0</ele><time>2026-04-30T09:22:03.014Z</time></trkpt><trkpt lat="48.54100431316044" lon="7.336550182124186"><ele>286.0</ele><time>2026-04-30T09:22:04.014Z</time></trkpt><trkpt lat="48.54082637644843" lon="7.336482267804544"><ele>287.0</ele><time>2026-04-30T09:22:05.014Z</time></trkpt><trkpt lat="48.54063031126116" lon="7.336431022875817"><ele>286.33333333333337</ele><time>2026-04-30T09:22:06.014Z</time></trkpt><trkpt lat="48.54043279093167" lon="7.336339853411733"><ele>285.6666666666667</ele><time>2026-04-30T09:22:07.014Z</time></trkpt><trkpt lat="48.540230879349885" lon="7.336203440835702"><ele>285.0</ele><time>2026-04-30T09:22:08.014Z</time></trkpt><trkpt lat="48.540025567360985" lon="7.336063879137808"><ele>287.0</ele><time>2026-04-30T09:22:09.014Z</time></trkpt><trkpt lat="48.53982912146489" lon="7.3359344414057155"><ele>289.0</ele><time>2026-04-30T09:22:10.014Z</time></trkpt><trkpt lat="48.53966695090246" lon="7.335818308774305"><ele>291.0</ele><time>2026-04-30T09:22:11.014Z</time></trkpt><trkpt lat="48.53951600916178" lon="7.335710559639607"><ele>291.0</ele><time>2026-04-30T09:22:12.014Z</time></trkpt><trkpt lat="48.53935626111303" lon="7.335606266027026"><ele>291.0</ele><time>2026-04-30T09:22:13.014Z</time></trkpt><trkpt lat="48.53921170671183" lon="7.335529094346136"><ele>291.0</ele><time>2026-04-30T09:22:14.014Z</time></trkpt><trkpt lat="48.539106646704425" lon="7.3354783326820225"><ele>291.0</ele><time>2026-04-30T09:22:15.014Z</time></trkpt><trkpt lat="48.53901252955003" lon="7.33543824480096"><ele>291.0</ele><time>2026-04-30T09:22:16.014Z</time></trkpt><trkpt lat="48.538914131228985" lon="7.335406150092052"><ele>291.0</ele><time>2026-04-30T09:22:17.014Z</time></trkpt><trkpt lat="48.53882446006068" lon="7.335391361568098"><ele>291.0</ele><time>2026-04-30T09:22:18.014Z</time></trkpt><trkpt lat="48.53876255933089" lon="7.3353665933451015"><ele>291.0</ele><time>2026-04-30T09:22:19.014Z</time></trkpt><trkpt lat="48.53882827236913" lon="7.3352647030501155"><ele>291.0</ele><time>2026-04-30T09:22:22.014Z</time></trkpt><trkpt lat="48.53890763312648" lon="7.335253169262594"><ele>291.0</ele><time>2026-04-30T09:22:23.014Z</time></trkpt><trkpt lat="48.53903762974756" lon="7.33524069421638"><ele>291.0</ele><time>2026-04-30T09:22:24.014Z</time></trkpt><trkpt lat="48.539211874542744" lon="7.335176382630308"><ele>291.0</ele><time>2026-04-30T09:22:25.014Z</time></trkpt><trkpt lat="48.53937828868192" lon="7.335076965928113"><ele>291.0</ele><time>2026-04-30T09:22:26.014Z</time></trkpt><trkpt lat="48.53953743350829" lon="7.334957317306893"><ele>290.6666666666667</ele><time>2026-04-30T09:22:27.014Z</time></trkpt><trkpt lat="48.53968756309757" lon="7.334805015851702"><ele>290.33333333333337</ele><time>2026-04-30T09:22:28.014Z</time></trkpt><trkpt lat="48.53981634622799" lon="7.3346541022863665"><ele>290.0</ele><time>2026-04-30T09:22:29.014Z</time></trkpt><trkpt lat="48.53992046274234" lon="7.334501574332704"><ele>290.0</ele><time>2026-04-30T09:22:30.014Z</time></trkpt><trkpt lat="48.53999871191204" lon="7.3343607119510015"><ele>290.0</ele><time>2026-04-30T09:22:31.014Z</time></trkpt><trkpt lat="48.54007301147429" lon="7.334192064330282"><ele>290.0</ele><time>2026-04-30T09:22:32.014Z</time></trkpt><trkpt lat="48.54014972980342" lon="7.333980236370467"><ele>290.0</ele><time>2026-04-30T09:22:33.014Z</time></trkpt><trkpt lat="48.54021331180152" lon="7.333803997686252"><ele>290.25</ele><time>2026-04-30T09:22:34.014Z</time></trkpt><trkpt lat="48.540268168795315" lon="7.333697602503288"><ele>290.5</ele><time>2026-04-30T09:22:35.014Z</time></trkpt><trkpt lat="48.540331811546835" lon="7.3336377692998695"><ele>290.75</ele><time>2026-04-30T09:22:36.014Z</time></trkpt><trkpt lat="48.540433839104345" lon="7.333588212061221"><ele>291.0</ele><time>2026-04-30T09:22:37.014Z</time></trkpt><trkpt lat="48.540610805742325" lon="7.333551274077418"><ele>291.3333333333333</ele><time>2026-04-30T09:22:38.014Z</time></trkpt><trkpt lat="48.54081046215832" lon="7.333519759161781"><ele>291.66666666666663</ele><time>2026-04-30T09:22:39.014Z</time></trkpt><trkpt lat="48.541048667520805" lon="7.333447153910355"><ele>292.0</ele><time>2026-04-30T09:22:40.014Z</time></trkpt><trkpt lat="48.5412890996449" lon="7.333369055021215"><ele>291.0</ele><time>2026-04-30T09:22:41.014Z</time></trkpt><trkpt lat="48.54152027577281" lon="7.333304065579378"><ele>290.0</ele><time>2026-04-30T09:22:42.014Z</time></trkpt><trkpt lat="48.541720203304884" lon="7.333243030246216"><ele>289.0</ele><time>2026-04-30T09:22:43.014Z</time></trkpt><trkpt lat="48.541896062509025" lon="7.333159532559018"><ele>289.3333333333333</ele><time>2026-04-30T09:22:44.014Z</time></trkpt><trkpt lat="48.54204050613733" lon="7.33303927419953"><ele>289.6666666666667</ele><time>2026-04-30T09:22:45.014Z</time></trkpt><trkpt lat="48.54217354350956" lon="7.332903405271257"><ele>290.0</ele><time>2026-04-30T09:22:46.014Z</time></trkpt><trkpt lat="48.54230148579835" lon="7.332775381296794"><ele>288.75</ele><time>2026-04-30T09:22:47.014Z</time></trkpt><trkpt lat="48.542423741271136" lon="7.332671138748005"><ele>287.5</ele><time>2026-04-30T09:22:48.014Z</time></trkpt><trkpt lat="48.54252884504262" lon="7.3325779334203425"><ele>286.25</ele><time>2026-04-30T09:22:49.014Z</time></trkpt><trkpt lat="48.54263097984936" lon="7.3324921648452746"><ele>285.0</ele><time>2026-04-30T09:22:50.014Z</time></trkpt><trkpt lat="48.5427242436701" lon="7.332393980220464"><ele>285.0</ele><time>2026-04-30T09:22:51.014Z</time></trkpt><trkpt lat="48.54281930655532" lon="7.332311904704955"><ele>285.0</ele><time>2026-04-30T09:22:52.014Z</time></trkpt><trkpt lat="48.542918778538386" lon="7.332243179394029"><ele>285.0</ele><time>2026-04-30T09:22:53.014Z</time></trkpt><trkpt lat="48.54301117133978" lon="7.332197209684301"><ele>285.0</ele><time>2026-04-30T09:22:54.014Z</time></trkpt><trkpt lat="48.54311146951053" lon="7.332146120100038"><ele>285.0</ele><time>2026-04-30T09:22:55.014Z</time></trkpt><trkpt lat="48.54322227562721" lon="7.332086920319959"><ele>283.2</ele><time>2026-04-30T09:22:56.014Z</time></trkpt><trkpt lat="48.543329806041974" lon="7.332039298285231"><ele>281.4</ele><time>2026-04-30T09:22:57.014Z</time></trkpt><trkpt lat="48.54344035881698" lon="7.331980165554302"><ele>279.6</ele><time>2026-04-30T09:22:58.014Z</time></trkpt><trkpt lat="48.54354667752641" lon="7.3319204689921476"><ele>277.8</ele><time>2026-04-30T09:22:59.014Z</time></trkpt><trkpt lat="48.54363835917252" lon="7.331860867957008"><ele>276.0</ele><time>2026-04-30T09:23:00.014Z</time></trkpt><trkpt lat="48.54373004725667" lon="7.331810968041268"><ele>274.2</ele><time>2026-04-30T09:23:01.014Z</time></trkpt><trkpt lat="48.54382734242787" lon="7.331756931687193"><ele>272.40000000000003</ele><time>2026-04-30T09:23:02.014Z</time></trkpt><trkpt lat="48.543926339338206" lon="7.331704728944861"><ele>270.6</ele><time>2026-04-30T09:23:03.014Z</time></trkpt><trkpt lat="48.54402102286521" lon="7.331654430778054"><ele>268.8</ele><time>2026-04-30T09:23:04.014Z</time></trkpt><trkpt lat="48.54411192533076" lon="7.33160598612526"><ele>267.0</ele><time>2026-04-30T09:23:05.014Z</time></trkpt><trkpt lat="48.544206577524996" lon="7.331555611402906"><ele>267.0</ele><time>2026-04-30T09:23:06.014Z</time></trkpt><trkpt lat="48.544304937223245" lon="7.331506622869102"><ele>267.0</ele><time>2026-04-30T09:23:07.014Z</time></trkpt><trkpt lat="48.544403811151966" lon="7.331457275001987"><ele>267.0</ele><time>2026-04-30T09:23:08.014Z</time></trkpt><trkpt lat="48.54449967169887" lon="7.331412299431058"><ele>267.0</ele><time>2026-04-30T09:23:09.014Z</time></trkpt><trkpt lat="48.54459494493471" lon="7.331362429946301"><ele>267.0</ele><time>2026-04-30T09:23:10.014Z</time></trkpt><trkpt lat="48.544688194754606" lon="7.331322446651983"><ele>266.2</ele><time>2026-04-30T09:23:11.014Z</time></trkpt><trkpt lat="48.544786375298315" lon="7.331299912989317"><ele>265.4</ele><time>2026-04-30T09:23:12.014Z</time></trkpt><trkpt lat="48.54488260203017" lon="7.331291665363021"><ele>264.6</ele><time>2026-04-30T09:23:13.014Z</time></trkpt><trkpt lat="48.544974782452975" lon="7.331292614285618"><ele>263.8</ele><time>2026-04-30T09:23:14.014Z</time></trkpt><trkpt lat="48.545063859831394" lon="7.331296468814998"><ele>263.0</ele><time>2026-04-30T09:23:15.014Z</time></trkpt><trkpt lat="48.54515733147411" lon="7.331297909295607"><ele>263.0</ele><time>2026-04-30T09:23:16.014Z</time></trkpt><trkpt lat="48.54524043342879" lon="7.331306975365003"><ele>263.0</ele><time>2026-04-30T09:23:17.014Z</time></trkpt><trkpt lat="48.54532447426077" lon="7.3313140681533655"><ele>263.0</ele><time>2026-04-30T09:23:18.014Z</time></trkpt><trkpt lat="48.54541661133653" lon="7.331315545597828"><ele>263.0</ele><time>2026-04-30T09:23:19.014Z</time></trkpt><trkpt lat="48.54551664249279" lon="7.331324993906724"><ele>263.0</ele><time>2026-04-30T09:23:20.014Z</time></trkpt><trkpt lat="48.545600323359245" lon="7.331327824037324"><ele>263.0</ele><time>2026-04-30T09:23:21.014Z</time></trkpt><trkpt lat="48.5457009668744" lon="7.331325231593636"><ele>263.0</ele><time>2026-04-30T09:23:22.014Z</time></trkpt><trkpt lat="48.545792718506775" lon="7.331320020368473"><ele>263.0</ele><time>2026-04-30T09:23:23.014Z</time></trkpt><trkpt lat="48.5458824051041" lon="7.331309207668292"><ele>263.0</ele><time>2026-04-30T09:23:24.014Z</time></trkpt><trkpt lat="48.545970588483456" lon="7.3312916688879985"><ele>263.0</ele><time>2026-04-30T09:23:25.014Z</time></trkpt><trkpt lat="48.546059798458764" lon="7.331275539364696"><ele>263.0</ele><time>2026-04-30T09:23:26.014Z</time></trkpt><trkpt lat="48.546147869308214" lon="7.331269057168606"><ele>263.0</ele><time>2026-04-30T09:23:28.014Z</time></trkpt><trkpt lat="48.546213717608275" lon="7.331262600323588"><ele>263.0</ele><time>2026-04-30T09:23:35.014Z</time></trkpt><trkpt lat="48.54631404605135" lon="7.3312329016708855"><ele>263.0</ele><time>2026-04-30T09:23:37.014Z</time></trkpt><trkpt lat="48.54637890111084" lon="7.331252913556227"><ele>263.0</ele><time>2026-04-30T09:23:38.014Z</time></trkpt><trkpt lat="48.54650046821396" lon="7.331321168402031"><ele>263.0</ele><time>2026-04-30T09:23:40.014Z</time></trkpt><trkpt lat="48.54661995554492" lon="7.331390339578197"><ele>263.0</ele><time>2026-04-30T09:23:42.014Z</time></trkpt><trkpt lat="48.546713092293906" lon="7.331421543643018"><ele>263.0</ele><time>2026-04-30T09:23:44.014Z</time></trkpt><trkpt lat="48.54678350603951" lon="7.331455998200649"><ele>263.0</ele><time>2026-04-30T09:23:46.014Z</time></trkpt><trkpt lat="48.54674021652454" lon="7.331381428307955"><ele>263.0</ele><time>2026-04-30T09:23:50.014Z</time></trkpt><trkpt lat="48.54662501004206" lon="7.331357107919579"><ele>263.0</ele><time>2026-04-30T09:23:52.014Z</time></trkpt><trkpt lat="48.54649327088666" lon="7.331302626041432"><ele>263.0</ele><time>2026-04-30T09:23:54.014Z</time></trkpt><trkpt lat="48.546422902684014" lon="7.331244774957715"><ele>263.0</ele><time>2026-04-30T09:23:55.014Z</time></trkpt><trkpt lat="48.54630434188659" lon="7.331214359530395"><ele>263.0</ele><time>2026-04-30T09:23:57.014Z</time></trkpt><trkpt lat="48.546239115581066" lon="7.331230496586179"><ele>263.0</ele><time>2026-04-30T09:23:58.015Z</time></trkpt><trkpt lat="48.54616869643177" lon="7.331254339180325"><ele>263.0</ele><time>2026-04-30T09:23:59.015Z</time></trkpt><trkpt lat="48.54608180877762" lon="7.331272364485818"><ele>263.0</ele><time>2026-04-30T09:24:00.015Z</time></trkpt><trkpt lat="48.545997078611386" lon="7.331290849484692"><ele>263.0</ele><time>2026-04-30T09:24:01.016Z</time></trkpt><trkpt lat="48.54591280086698" lon="7.331307748796147"><ele>262.8</ele><time>2026-04-30T09:24:02.016Z</time></trkpt><trkpt lat="48.54582371294992" lon="7.3313214123967025"><ele>262.6</ele><time>2026-04-30T09:24:03.016Z</time></trkpt><trkpt lat="48.54572835586563" lon="7.331318920575832"><ele>262.4</ele><time>2026-04-30T09:24:04.016Z</time></trkpt><trkpt lat="48.545637774159374" lon="7.331311833320435"><ele>262.2</ele><time>2026-04-30T09:24:05.015Z</time></trkpt><trkpt lat="48.54554830517736" lon="7.331306199466995"><ele>262.0</ele><time>2026-04-30T09:24:06.015Z</time></trkpt><trkpt lat="48.54545140917523" lon="7.331295093110332"><ele>262.2</ele><time>2026-04-30T09:24:07.015Z</time></trkpt><trkpt lat="48.54534659029249" lon="7.3312883176022385"><ele>262.4</ele><time>2026-04-30T09:24:08.016Z</time></trkpt><trkpt lat="48.545240780835556" lon="7.331288096571529"><ele>262.6</ele><time>2026-04-30T09:24:09.016Z</time></trkpt><trkpt lat="48.54513726997739" lon="7.331282258316446"><ele>262.8</ele><time>2026-04-30T09:24:10.016Z</time></trkpt><trkpt lat="48.54503078262828" lon="7.331275033053681"><ele>263.0</ele><time>2026-04-30T09:24:11.016Z</time></trkpt><trkpt lat="48.54491949046926" lon="7.3312689877164425"><ele>263.0</ele><time>2026-04-30T09:24:12.016Z</time></trkpt><trkpt lat="48.54480722952249" lon="7.331271813724635"><ele>263.0</ele><time>2026-04-30T09:24:13.016Z</time></trkpt><trkpt lat="48.54468226688877" lon="7.33128843323134"><ele>263.0</ele><time>2026-04-30T09:24:14.016Z</time></trkpt><trkpt lat="48.54453836851219" lon="7.331340214930391"><ele>263.0</ele><time>2026-04-30T09:24:15.016Z</time></trkpt><trkpt lat="48.5443860240431" lon="7.331417850620725"><ele>264.33333333333337</ele><time>2026-04-30T09:24:16.016Z</time></trkpt><trkpt lat="48.54423039664337" lon="7.331512790019513"><ele>265.6666666666667</ele><time>2026-04-30T09:24:17.016Z</time></trkpt><trkpt lat="48.54407756907242" lon="7.331603537974082"><ele>267.0</ele><time>2026-04-30T09:24:18.016Z</time></trkpt><trkpt lat="48.54393370166889" lon="7.331684379934453"><ele>267.0</ele><time>2026-04-30T09:24:19.016Z</time></trkpt><trkpt lat="48.54379465717371" lon="7.33175868903124"><ele>267.0</ele><time>2026-04-30T09:24:20.016Z</time></trkpt><trkpt lat="48.543665326334065" lon="7.331827827231079"><ele>267.0</ele><time>2026-04-30T09:24:21.016Z</time></trkpt><trkpt lat="48.5435342393562" lon="7.331896542322635"><ele>267.0</ele><time>2026-04-30T09:24:22.016Z</time></trkpt><trkpt lat="48.543407279081585" lon="7.331964191958608"><ele>268.8</ele><time>2026-04-30T09:24:23.016Z</time></trkpt><trkpt lat="48.54329883151626" lon="7.332025166521848"><ele>270.6</ele><time>2026-04-30T09:24:24.016Z</time></trkpt><trkpt lat="48.54319635485415" lon="7.33208182462615"><ele>272.40000000000003</ele><time>2026-04-30T09:24:25.016Z</time></trkpt><trkpt lat="48.54310643753192" lon="7.332131634539616"><ele>274.2</ele><time>2026-04-30T09:24:26.016Z</time></trkpt><trkpt lat="48.54301674184883" lon="7.332180809648157"><ele>276.0</ele><time>2026-04-30T09:24:27.016Z</time></trkpt><trkpt lat="48.54294787646165" lon="7.332218027083168"><ele>276.3333333333333</ele><time>2026-04-30T09:24:28.016Z</time></trkpt><trkpt lat="48.54288232644263" lon="7.3322451339033865"><ele>276.6666666666667</ele><time>2026-04-30T09:24:30.016Z</time></trkpt><trkpt lat="48.542818738036935" lon="7.332314151130434"><ele>277.0</ele><time>2026-04-30T09:24:48.016Z</time></trkpt><trkpt lat="48.54275932539899" lon="7.332363523403302"><ele>277.33333333333337</ele><time>2026-04-30T09:24:49.016Z</time></trkpt><trkpt lat="48.542679615417946" lon="7.332420614984204"><ele>277.6666666666667</ele><time>2026-04-30T09:24:50.016Z</time></trkpt><trkpt lat="48.542615589476206" lon="7.33248779012003"><ele>278.0</ele><time>2026-04-30T09:24:51.016Z</time></trkpt><trkpt lat="48.54255497230694" lon="7.332564039816658"><ele>279.4</ele><time>2026-04-30T09:24:52.016Z</time></trkpt><trkpt lat="48.54250295977852" lon="7.3326311911927755"><ele>280.8</ele><time>2026-04-30T09:24:53.016Z</time></trkpt><trkpt lat="48.54241096518803" lon="7.3327033067316165"><ele>282.2</ele><time>2026-04-30T09:24:55.016Z</time></trkpt><trkpt lat="48.54230295980563" lon="7.33280126693591"><ele>283.6</ele><time>2026-04-30T09:24:57.016Z</time></trkpt><trkpt lat="48.54222687566299" lon="7.332861750039787"><ele>285.0</ele><time>2026-04-30T09:24:58.016Z</time></trkpt><trkpt lat="48.54215407931556" lon="7.332925592970558"><ele>285.0</ele><time>2026-04-30T09:24:59.016Z</time></trkpt><trkpt lat="48.5420919541391" lon="7.3329771896476466"><ele>285.0</ele><time>2026-04-30T09:25:00.016Z</time></trkpt><trkpt lat="48.54203061562188" lon="7.3330298757463215"><ele>285.0</ele><time>2026-04-30T09:25:01.016Z</time></trkpt><trkpt lat="48.54196699452624" lon="7.3330803093828685"><ele>285.0</ele><time>2026-04-30T09:25:02.016Z</time></trkpt><trkpt lat="48.541905001621096" lon="7.333130886776038"><ele>285.0</ele><time>2026-04-30T09:25:03.016Z</time></trkpt><trkpt lat="48.541837852812336" lon="7.333167961174978"><ele>285.0</ele><time>2026-04-30T09:25:04.016Z</time></trkpt><trkpt lat="48.54176653540542" lon="7.3331698932491065"><ele>285.0</ele><time>2026-04-30T09:25:05.016Z</time></trkpt><trkpt lat="48.54170858741381" lon="7.333122823598399"><ele>286.25</ele><time>2026-04-30T09:25:06.016Z</time></trkpt><trkpt lat="48.54164587542223" lon="7.333030642452991"><ele>287.5</ele><time>2026-04-30T09:25:07.016Z</time></trkpt><trkpt lat="48.541542245156535" lon="7.332864909987551"><ele>288.75</ele><time>2026-04-30T09:25:08.016Z</time></trkpt><trkpt lat="48.54142457639314" lon="7.332692742193264"><ele>290.0</ele><time>2026-04-30T09:25:09.016Z</time></trkpt><trkpt lat="48.54132840064792" lon="7.332456258395496"><ele>290.33333333333337</ele><time>2026-04-30T09:25:10.016Z</time></trkpt><trkpt lat="48.54122558332703" lon="7.332178033365921"><ele>290.6666666666667</ele><time>2026-04-30T09:25:11.016Z</time></trkpt><trkpt lat="48.54111950474574" lon="7.331871900472424"><ele>291.0</ele><time>2026-04-30T09:25:12.016Z</time></trkpt><trkpt lat="48.5409915275584" lon="7.331560220242442"><ele>291.0</ele><time>2026-04-30T09:25:13.016Z</time></trkpt><trkpt lat="48.540877650296196" lon="7.331253144249253"><ele>291.0</ele><time>2026-04-30T09:25:14.016Z</time></trkpt><trkpt lat="48.540774877129515" lon="7.3309923185233705"><ele>291.0</ele><time>2026-04-30T09:25:15.016Z</time></trkpt><trkpt lat="48.54069140559785" lon="7.330779240014945"><ele>291.0</ele><time>2026-04-30T09:25:16.016Z</time></trkpt><trkpt lat="48.54061753836653" lon="7.330601354142805"><ele>291.0</ele><time>2026-04-30T09:25:17.016Z</time></trkpt><trkpt lat="48.54053443211715" lon="7.33045500240503"><ele>291.0</ele><time>2026-04-30T09:25:18.016Z</time></trkpt><trkpt lat="48.54042928192681" lon="7.3303187874269335"><ele>291.0</ele><time>2026-04-30T09:25:19.016Z</time></trkpt><trkpt lat="48.54033841300158" lon="7.330202638326948"><ele>291.8</ele><time>2026-04-30T09:25:20.016Z</time></trkpt><trkpt lat="48.540278915278805" lon="7.330121758095874"><ele>292.6</ele><time>2026-04-30T09:25:21.016Z</time></trkpt><trkpt lat="48.54017069263203" lon="7.33010490812528"><ele>293.4</ele><time>2026-04-30T09:25:23.016Z</time></trkpt><trkpt lat="48.540100290708" lon="7.330157227293752"><ele>294.2</ele><time>2026-04-30T09:25:24.016Z</time></trkpt><trkpt lat="48.540022620254035" lon="7.330256561043004"><ele>295.0</ele><time>2026-04-30T09:25:25.016Z</time></trkpt><trkpt lat="48.53993719624066" lon="7.330394055306595"><ele>295.0</ele><time>2026-04-30T09:25:26.016Z</time></trkpt><trkpt lat="48.539837609487115" lon="7.330562284559324"><ele>295.0</ele><time>2026-04-30T09:25:27.016Z</time></trkpt><trkpt lat="48.53975363844448" lon="7.33071803987691"><ele>295.0</ele><time>2026-04-30T09:25:28.016Z</time></trkpt><trkpt lat="48.53969947853892" lon="7.3307991813677065"><ele>295.0</ele><time>2026-04-30T09:25:29.016Z</time></trkpt><trkpt lat="48.53961174773736" lon="7.330851036062082"><ele>295.0</ele><time>2026-04-30T09:25:31.016Z</time></trkpt><trkpt lat="48.539560644538795" lon="7.330974077963527"><ele>295.0</ele><time>2026-04-30T09:25:33.016Z</time></trkpt><trkpt lat="48.539542842121755" lon="7.331108741216054"><ele>295.0</ele><time>2026-04-30T09:25:35.016Z</time></trkpt><trkpt lat="48.539547276796895" lon="7.331218929478225"><ele>295.0</ele><time>2026-04-30T09:25:37.016Z</time></trkpt><trkpt lat="48.53948185338635" lon="7.331298962784236"><ele>295.0</ele><time>2026-04-30T09:25:39.016Z</time></trkpt><trkpt lat="48.53940855002303" lon="7.331323612096889"><ele>295.0</ele><time>2026-04-30T09:25:41.016Z</time></trkpt><trkpt lat="48.53934639253293" lon="7.331355679248806"><ele>293.8</ele><time>2026-04-30T09:25:42.016Z</time></trkpt><trkpt lat="48.539290933961496" lon="7.331403072883475"><ele>292.6</ele><time>2026-04-30T09:25:43.016Z</time></trkpt><trkpt lat="48.53921777417409" lon="7.331566810209931"><ele>291.4</ele><time>2026-04-30T09:25:45.016Z</time></trkpt><trkpt lat="48.53918515580108" lon="7.331714636294416"><ele>290.2</ele><time>2026-04-30T09:25:47.016Z</time></trkpt><trkpt lat="48.539151108565385" lon="7.331878908475367"><ele>289.0</ele><time>2026-04-30T09:25:49.016Z</time></trkpt><trkpt lat="48.539118166922904" lon="7.331987473723723"><ele>289.0</ele><time>2026-04-30T09:25:51.016Z</time></trkpt><trkpt lat="48.53905279621113" lon="7.332010176385745"><ele>289.0</ele><time>2026-04-30T09:25:53.016Z</time></trkpt><trkpt lat="48.5389770892701" lon="7.331866049645995"><ele>289.0</ele><time>2026-04-30T09:25:55.016Z</time></trkpt><trkpt lat="48.53889112905511" lon="7.331743214138483"><ele>289.0</ele><time>2026-04-30T09:25:56.016Z</time></trkpt><trkpt lat="48.5387643463963" lon="7.331556925670649"><ele>287.3333333333333</ele><time>2026-04-30T09:25:57.016Z</time></trkpt><trkpt lat="48.53864287695085" lon="7.331343806087303"><ele>285.6666666666667</ele><time>2026-04-30T09:25:58.016Z</time></trkpt><trkpt lat="48.5385445597411" lon="7.331163796578752"><ele>284.0</ele><time>2026-04-30T09:25:59.016Z</time></trkpt><trkpt lat="48.53844657415233" lon="7.331016631123139"><ele>284.0</ele><time>2026-04-30T09:26:00.016Z</time></trkpt><trkpt lat="48.538355017102106" lon="7.330868790979401"><ele>284.0</ele><time>2026-04-30T09:26:01.016Z</time></trkpt><trkpt lat="48.53827678174788" lon="7.330732745920125"><ele>284.0</ele><time>2026-04-30T09:26:02.016Z</time></trkpt><trkpt lat="48.538204055426775" lon="7.330574074349344"><ele>284.0</ele><time>2026-04-30T09:26:03.016Z</time></trkpt><trkpt lat="48.53811934863757" lon="7.330373900609451"><ele>284.75</ele><time>2026-04-30T09:26:04.017Z</time></trkpt><trkpt lat="48.53803093936829" lon="7.330172361750469"><ele>285.5</ele><time>2026-04-30T09:26:05.016Z</time></trkpt><trkpt lat="48.537945843305735" lon="7.329997332778895"><ele>286.25</ele><time>2026-04-30T09:26:06.016Z</time></trkpt><trkpt lat="48.537855346616716" lon="7.32984086422064"><ele>287.0</ele><time>2026-04-30T09:26:07.017Z</time></trkpt><trkpt lat="48.53777925258295" lon="7.329699787649889"><ele>285.5</ele><time>2026-04-30T09:26:08.017Z</time></trkpt><trkpt lat="48.53771102233421" lon="7.329579984997462"><ele>284.0</ele><time>2026-04-30T09:26:09.017Z</time></trkpt><trkpt lat="48.53764014873946" lon="7.329460569099147"><ele>282.5</ele><time>2026-04-30T09:26:10.017Z</time></trkpt><trkpt lat="48.5375631358441" lon="7.329325239793865"><ele>281.0</ele><time>2026-04-30T09:26:11.017Z</time></trkpt><trkpt lat="48.537482620568454" lon="7.329188732476779"><ele>281.0</ele><time>2026-04-30T09:26:12.017Z</time></trkpt><trkpt lat="48.53739304896137" lon="7.3290751286015805"><ele>281.0</ele><time>2026-04-30T09:26:13.017Z</time></trkpt><trkpt lat="48.537292535495915" lon="7.328976576430667"><ele>281.0</ele><time>2026-04-30T09:26:14.017Z</time></trkpt><trkpt lat="48.53717259418292" lon="7.328875704389009"><ele>281.0</ele><time>2026-04-30T09:26:15.017Z</time></trkpt><trkpt lat="48.5370350890079" lon="7.328772229541549"><ele>280.0</ele><time>2026-04-30T09:26:16.017Z</time></trkpt><trkpt lat="48.53691274792083" lon="7.3286501354280595"><ele>279.0</ele><time>2026-04-30T09:26:17.017Z</time></trkpt><trkpt lat="48.536815487441395" lon="7.328523491958092"><ele>278.0</ele><time>2026-04-30T09:26:18.017Z</time></trkpt><trkpt lat="48.53673379862851" lon="7.328392062884754"><ele>277.0</ele><time>2026-04-30T09:26:19.017Z</time></trkpt><trkpt lat="48.53667905074716" lon="7.3282873654867275"><ele>277.0</ele><time>2026-04-30T09:26:20.017Z</time></trkpt><trkpt lat="48.536619919760646" lon="7.328205273557928"><ele>277.0</ele><time>2026-04-30T09:26:21.017Z</time></trkpt><trkpt lat="48.53655096044265" lon="7.328124542334422"><ele>277.0</ele><time>2026-04-30T09:26:23.017Z</time></trkpt><trkpt lat="48.53657974216741" lon="7.3282091255412105"><ele>277.0</ele><time>2026-04-30T09:28:33.018Z</time></trkpt><trkpt lat="48.53665970616061" lon="7.32832793843803"><ele>277.0</ele><time>2026-04-30T09:28:35.018Z</time></trkpt><trkpt lat="48.53674542708458" lon="7.328441281087713"><ele>277.0</ele><time>2026-04-30T09:28:36.018Z</time></trkpt><trkpt lat="48.53682661552596" lon="7.328567890091171"><ele>277.0</ele><time>2026-04-30T09:28:37.018Z</time></trkpt><trkpt lat="48.53693147841971" lon="7.328723983270754"><ele>277.0</ele><time>2026-04-30T09:28:38.018Z</time></trkpt><trkpt lat="48.537020579628226" lon="7.328815858076372"><ele>277.0</ele><time>2026-04-30T09:28:39.018Z</time></trkpt><trkpt lat="48.53713936528914" lon="7.328915875361955"><ele>278.0</ele><time>2026-04-30T09:28:40.018Z</time></trkpt><trkpt lat="48.537277813332096" lon="7.329019840892293"><ele>279.0</ele><time>2026-04-30T09:28:41.018Z</time></trkpt><trkpt lat="48.537398371286216" lon="7.329111019243363"><ele>280.0</ele><time>2026-04-30T09:28:42.018Z</time></trkpt><trkpt lat="48.53748672598676" lon="7.329209780029673"><ele>281.0</ele><time>2026-04-30T09:28:43.018Z</time></trkpt><trkpt lat="48.53756307314352" lon="7.329363634391152"><ele>281.0</ele><time>2026-04-30T09:28:44.018Z</time></trkpt><trkpt lat="48.53765939262603" lon="7.329561290353566"><ele>281.0</ele><time>2026-04-30T09:28:45.018Z</time></trkpt><trkpt lat="48.537773692320286" lon="7.32978507273402"><ele>281.0</ele><time>2026-04-30T09:28:46.018Z</time></trkpt><trkpt lat="48.537883425101185" lon="7.329992821340605"><ele>281.75</ele><time>2026-04-30T09:28:47.018Z</time></trkpt><trkpt lat="48.53797520813834" lon="7.330177350340023"><ele>282.5</ele><time>2026-04-30T09:28:48.018Z</time></trkpt><trkpt lat="48.53804041688429" lon="7.330339888288654"><ele>283.25</ele><time>2026-04-30T09:28:49.018Z</time></trkpt><trkpt lat="48.5381067145583" lon="7.330505401501186"><ele>284.0</ele><time>2026-04-30T09:28:50.018Z</time></trkpt><trkpt lat="48.538190145947574" lon="7.330702751597212"><ele>284.0</ele><time>2026-04-30T09:28:51.018Z</time></trkpt><trkpt lat="48.53829529840327" lon="7.330924995989445"><ele>284.0</ele><time>2026-04-30T09:28:52.018Z</time></trkpt><trkpt lat="48.538419352691754" lon="7.331151994735816"><ele>284.0</ele><time>2026-04-30T09:28:53.018Z</time></trkpt><trkpt lat="48.538551841564136" lon="7.33136396550043"><ele>283.6666666666667</ele><time>2026-04-30T09:28:54.018Z</time></trkpt><trkpt lat="48.53867653228275" lon="7.331535099407421"><ele>283.3333333333333</ele><time>2026-04-30T09:28:55.018Z</time></trkpt><trkpt lat="48.53879423862989" lon="7.331715639764903"><ele>283.0</ele><time>2026-04-30T09:28:56.018Z</time></trkpt><trkpt lat="48.538936439080196" lon="7.331928775701237"><ele>285.0</ele><time>2026-04-30T09:28:57.018Z</time></trkpt><trkpt lat="48.53909730527208" lon="7.332164289111614"><ele>287.0</ele><time>2026-04-30T09:28:58.018Z</time></trkpt><trkpt lat="48.53928169944981" lon="7.332400239502843"><ele>287.0</ele><time>2026-04-30T09:28:59.018Z</time></trkpt><trkpt lat="48.5394423029363" lon="7.332623877664815"><ele>287.0</ele><time>2026-04-30T09:29:00.018Z</time></trkpt><trkpt lat="48.53957531823641" lon="7.332817051867037"><ele>287.0</ele><time>2026-04-30T09:29:01.018Z</time></trkpt><trkpt lat="48.53970099980199" lon="7.332982473208588"><ele>288.0</ele><time>2026-04-30T09:29:02.018Z</time></trkpt><trkpt lat="48.539813817345006" lon="7.333120359692087"><ele>289.0</ele><time>2026-04-30T09:29:03.018Z</time></trkpt><trkpt lat="48.53991549394544" lon="7.33323161342696"><ele>290.0</ele><time>2026-04-30T09:29:04.018Z</time></trkpt><trkpt lat="48.54000231534027" lon="7.333327781087755"><ele>291.0</ele><time>2026-04-30T09:29:05.018Z</time></trkpt><trkpt lat="48.5400748899486" lon="7.33341366947413"><ele>291.0</ele><time>2026-04-30T09:29:06.018Z</time></trkpt><trkpt lat="48.54013804221437" lon="7.333488210370499"><ele>291.0</ele><time>2026-04-30T09:29:07.018Z</time></trkpt><trkpt lat="48.54018501018909" lon="7.333552102790564"><ele>291.0</ele><time>2026-04-30T09:29:08.018Z</time></trkpt><trkpt lat="48.54022143005522" lon="7.333699116921855"><ele>291.0</ele><time>2026-04-30T09:29:10.018Z</time></trkpt><trkpt lat="48.54019834044826" lon="7.333807878500951"><ele>291.0</ele><time>2026-04-30T09:29:11.018Z</time></trkpt><trkpt lat="48.540156542932166" lon="7.333929074758737"><ele>291.0</ele><time>2026-04-30T09:29:12.018Z</time></trkpt><trkpt lat="48.54008430479073" lon="7.33407481835367"><ele>290.6666666666667</ele><time>2026-04-30T09:29:13.018Z</time></trkpt><trkpt lat="48.53999021454423" lon="7.334256842705231"><ele>290.33333333333337</ele><time>2026-04-30T09:29:14.018Z</time></trkpt><trkpt lat="48.53990144979368" lon="7.334453622131669"><ele>290.0</ele><time>2026-04-30T09:29:15.018Z</time></trkpt><trkpt lat="48.53980267297696" lon="7.334623099300647"><ele>290.0</ele><time>2026-04-30T09:29:16.018Z</time></trkpt><trkpt lat="48.539664229487066" lon="7.334780521630683"><ele>290.0</ele><time>2026-04-30T09:29:17.018Z</time></trkpt><trkpt lat="48.53951313841757" lon="7.334936480153132"><ele>290.0</ele><time>2026-04-30T09:29:18.018Z</time></trkpt><trkpt lat="48.53936909041649" lon="7.335061679791974"><ele>290.33333333333337</ele><time>2026-04-30T09:29:19.018Z</time></trkpt><trkpt lat="48.53922104454527" lon="7.33515423819781"><ele>290.6666666666667</ele><time>2026-04-30T09:29:20.018Z</time></trkpt><trkpt lat="48.539047381647215" lon="7.335221333086786"><ele>291.0</ele><time>2026-04-30T09:29:21.018Z</time></trkpt><trkpt lat="48.53884931712035" lon="7.3352616652611315"><ele>291.6666666666667</ele><time>2026-04-30T09:29:22.018Z</time></trkpt><trkpt lat="48.53864792827442" lon="7.335294450463953"><ele>292.33333333333337</ele><time>2026-04-30T09:29:23.018Z</time></trkpt><trkpt lat="48.538479499293814" lon="7.335322319540857"><ele>293.0</ele><time>2026-04-30T09:29:24.018Z</time></trkpt><trkpt lat="48.538347239849635" lon="7.335330106239244"><ele>293.0</ele><time>2026-04-30T09:29:25.018Z</time></trkpt><trkpt lat="48.53823393630845" lon="7.335337174284896"><ele>293.0</ele><time>2026-04-30T09:29:26.018Z</time></trkpt><trkpt lat="48.538126199450936" lon="7.335317283505531"><ele>293.0</ele><time>2026-04-30T09:29:27.018Z</time></trkpt><trkpt lat="48.53800426821446" lon="7.335258159475567"><ele>293.0</ele><time>2026-04-30T09:29:28.018Z</time></trkpt><trkpt lat="48.53786879573419" lon="7.335169312602735"><ele>293.33333333333337</ele><time>2026-04-30T09:29:29.018Z</time></trkpt><trkpt lat="48.537740086148716" lon="7.335059101185945"><ele>293.6666666666667</ele><time>2026-04-30T09:29:30.018Z</time></trkpt><trkpt lat="48.53763065364421" lon="7.334900344177964"><ele>294.0</ele><time>2026-04-30T09:29:31.018Z</time></trkpt><trkpt lat="48.53748759860289" lon="7.334698318721015"><ele>294.0</ele><time>2026-04-30T09:29:32.018Z</time></trkpt><trkpt lat="48.53730560705061" lon="7.334476873149246"><ele>294.0</ele><time>2026-04-30T09:29:33.018Z</time></trkpt><trkpt lat="48.53710282222648" lon="7.334300463556284"><ele>293.6666666666667</ele><time>2026-04-30T09:29:34.018Z</time></trkpt><trkpt lat="48.53693075425115" lon="7.334104857824565"><ele>293.33333333333337</ele><time>2026-04-30T09:29:35.018Z</time></trkpt><trkpt lat="48.53678469997211" lon="7.333884066153946"><ele>293.0</ele><time>2026-04-30T09:29:36.018Z</time></trkpt><trkpt lat="48.53664546316509" lon="7.333668189757765"><ele>293.0</ele><time>2026-04-30T09:29:37.018Z</time></trkpt><trkpt lat="48.536495018510614" lon="7.333477147765909"><ele>293.0</ele><time>2026-04-30T09:29:38.018Z</time></trkpt><trkpt lat="48.536326235430145" lon="7.333303857565265"><ele>293.0</ele><time>2026-04-30T09:29:39.018Z</time></trkpt><trkpt lat="48.53616993291068" lon="7.333136887526528"><ele>292.33333333333337</ele><time>2026-04-30T09:29:40.018Z</time></trkpt><trkpt lat="48.53603077881523" lon="7.332973257464037"><ele>291.6666666666667</ele><time>2026-04-30T09:29:41.018Z</time></trkpt><trkpt lat="48.53590419505573" lon="7.332851239516944"><ele>291.0</ele><time>2026-04-30T09:29:42.018Z</time></trkpt><trkpt lat="48.53575363372341" lon="7.332758701884798"><ele>291.0</ele><time>2026-04-30T09:29:43.018Z</time></trkpt><trkpt lat="48.53558935771729" lon="7.332661538382145"><ele>291.0</ele><time>2026-04-30T09:29:44.018Z</time></trkpt><trkpt lat="48.53542894868727" lon="7.332550479676036"><ele>291.0</ele><time>2026-04-30T09:29:45.018Z</time></trkpt><trkpt lat="48.535290600181455" lon="7.332445892083404"><ele>291.0</ele><time>2026-04-30T09:29:46.018Z</time></trkpt><trkpt lat="48.535163988379146" lon="7.3323460463376735"><ele>291.0</ele><time>2026-04-30T09:29:47.018Z</time></trkpt><trkpt lat="48.53504314494224" lon="7.33225415526245"><ele>291.0</ele><time>2026-04-30T09:29:48.018Z</time></trkpt><trkpt lat="48.53493576110516" lon="7.33216238010962"><ele>291.0</ele><time>2026-04-30T09:29:49.018Z</time></trkpt><trkpt lat="48.53483528131127" lon="7.332081983126701"><ele>290.8</ele><time>2026-04-30T09:29:50.018Z</time></trkpt><trkpt lat="48.53472688358393" lon="7.332020158969011"><ele>290.6</ele><time>2026-04-30T09:29:51.018Z</time></trkpt><trkpt lat="48.53461857432428" lon="7.331971135301236"><ele>290.4</ele><time>2026-04-30T09:29:52.018Z</time></trkpt><trkpt lat="48.53450681453827" lon="7.331934348875037"><ele>290.2</ele><time>2026-04-30T09:29:53.018Z</time></trkpt><trkpt lat="48.534412599802195" lon="7.3319072070791576"><ele>290.0</ele><time>2026-04-30T09:29:54.018Z</time></trkpt><trkpt lat="48.534310154481545" lon="7.331881266680432"><ele>288.2</ele><time>2026-04-30T09:29:55.018Z</time></trkpt><trkpt lat="48.53421738994147" lon="7.3318462361266965"><ele>286.4</ele><time>2026-04-30T09:29:56.018Z</time></trkpt><trkpt lat="48.534124099399904" lon="7.331813545072656"><ele>284.6</ele><time>2026-04-30T09:29:57.018Z</time></trkpt><trkpt lat="48.53402465337983" lon="7.331807032453368"><ele>282.8</ele><time>2026-04-30T09:29:58.018Z</time></trkpt><trkpt lat="48.533935763482084" lon="7.331799928864735"><ele>281.0</ele><time>2026-04-30T09:29:59.018Z</time></trkpt><trkpt lat="48.53383995217129" lon="7.331800551049005"><ele>281.0</ele><time>2026-04-30T09:30:00.018Z</time></trkpt><trkpt lat="48.5337496459171" lon="7.33180653073645"><ele>281.0</ele><time>2026-04-30T09:30:01.018Z</time></trkpt><trkpt lat="48.5336790429074" lon="7.331803135002636"><ele>281.0</ele><time>2026-04-30T09:30:02.018Z</time></trkpt><trkpt lat="48.53360830859256" lon="7.331806766919841"><ele>281.0</ele><time>2026-04-30T09:30:03.018Z</time></trkpt><trkpt lat="48.533506422631376" lon="7.331790896240538"><ele>281.0</ele><time>2026-04-30T09:30:04.018Z</time></trkpt><trkpt lat="48.53337022326155" lon="7.331791062299847"><ele>279.40000000000003</ele><time>2026-04-30T09:30:05.018Z</time></trkpt><trkpt lat="48.533251720899926" lon="7.33180399363878"><ele>277.8</ele><time>2026-04-30T09:30:06.018Z</time></trkpt><trkpt lat="48.53315664412371" lon="7.331804385654438"><ele>276.20000000000005</ele><time>2026-04-30T09:30:07.018Z</time></trkpt><trkpt lat="48.53306648902309" lon="7.331811276709307"><ele>274.6</ele><time>2026-04-30T09:30:08.018Z</time></trkpt><trkpt lat="48.53298095931655" lon="7.331825438678688"><ele>273.0</ele><time>2026-04-30T09:30:09.018Z</time></trkpt><trkpt lat="48.53288544399031" lon="7.331834457656546"><ele>270.8</ele><time>2026-04-30T09:30:10.018Z</time></trkpt><trkpt lat="48.53280178727603" lon="7.331838044952163"><ele>268.6</ele><time>2026-04-30T09:30:11.018Z</time></trkpt><trkpt lat="48.53269717797046" lon="7.331864063194347"><ele>266.4</ele><time>2026-04-30T09:30:13.018Z</time></trkpt><trkpt lat="48.532570150550946" lon="7.331918427281611"><ele>264.2</ele><time>2026-04-30T09:30:15.018Z</time></trkpt><trkpt lat="48.53247240203835" lon="7.331970329847671"><ele>262.0</ele><time>2026-04-30T09:30:16.018Z</time></trkpt><trkpt lat="48.53237085498931" lon="7.3320228817650035"><ele>262.0</ele><time>2026-04-30T09:30:17.018Z</time></trkpt><trkpt lat="48.53226764815103" lon="7.332077655944444"><ele>262.0</ele><time>2026-04-30T09:30:18.018Z</time></trkpt><trkpt lat="48.53217972297034" lon="7.332113024426035"><ele>262.0</ele><time>2026-04-30T09:30:19.018Z</time></trkpt><trkpt lat="48.532099193033794" lon="7.33211130023478"><ele>262.0</ele><time>2026-04-30T09:30:20.018Z</time></trkpt><trkpt lat="48.53201177282767" lon="7.332095298116953"><ele>262.0</ele><time>2026-04-30T09:30:21.018Z</time></trkpt><trkpt lat="48.531926189008594" lon="7.33206823627034"><ele>260.4</ele><time>2026-04-30T09:30:22.019Z</time></trkpt><trkpt lat="48.53184344350371" lon="7.332036611606677"><ele>258.79999999999995</ele><time>2026-04-30T09:30:23.019Z</time></trkpt><trkpt lat="48.53176702389712" lon="7.331994259557601"><ele>257.2</ele><time>2026-04-30T09:30:24.019Z</time></trkpt><trkpt lat="48.53167595596938" lon="7.3319154131951345"><ele>255.6</ele><time>2026-04-30T09:30:25.019Z</time></trkpt><trkpt lat="48.531574068579566" lon="7.331831668078162"><ele>254.0</ele><time>2026-04-30T09:30:26.019Z</time></trkpt><trkpt lat="48.5314651821011" lon="7.331741662131209"><ele>254.0</ele><time>2026-04-30T09:30:27.019Z</time></trkpt><trkpt lat="48.531361472492875" lon="7.331654291750647"><ele>253.99999999999997</ele><time>2026-04-30T09:30:28.019Z</time></trkpt><trkpt lat="48.53126412221743" lon="7.331575917548628"><ele>253.99999999999997</ele><time>2026-04-30T09:30:29.019Z</time></trkpt><trkpt lat="48.53118786980834" lon="7.331518741839341"><ele>254.0</ele><time>2026-04-30T09:30:30.019Z</time></trkpt><trkpt lat="48.53110052818985" lon="7.3314647643778885"><ele>254.0</ele><time>2026-04-30T09:30:31.019Z</time></trkpt><trkpt lat="48.53100745253415" lon="7.3314133058135456"><ele>254.00000000000003</ele><time>2026-04-30T09:30:32.019Z</time></trkpt><trkpt lat="48.530922068532355" lon="7.331351429786399"><ele>254.0</ele><time>2026-04-30T09:30:33.019Z</time></trkpt><trkpt lat="48.53086284749636" lon="7.33128091595299"><ele>254.0</ele><time>2026-04-30T09:30:34.019Z</time></trkpt><trkpt lat="48.53081544360905" lon="7.3311902706975705"><ele>254.0</ele><time>2026-04-30T09:30:35.019Z</time></trkpt><trkpt lat="48.53074893748144" lon="7.33108911325665"><ele>254.00000000000003</ele><time>2026-04-30T09:30:36.019Z</time></trkpt><trkpt lat="48.53067562360664" lon="7.330988850867069"><ele>254.0</ele><time>2026-04-30T09:30:37.019Z</time></trkpt><trkpt lat="48.53059711442276" lon="7.330878264833051"><ele>254.0</ele><time>2026-04-30T09:30:38.019Z</time></trkpt><trkpt lat="48.530534165573016" lon="7.330758524899095"><ele>253.99999999999997</ele><time>2026-04-30T09:30:39.019Z</time></trkpt><trkpt lat="48.53048030052114" lon="7.3306164035059265"><ele>253.99999999999997</ele><time>2026-04-30T09:30:40.019Z</time></trkpt><trkpt lat="48.53044081712337" lon="7.3304873558589545"><ele>254.0</ele><time>2026-04-30T09:30:41.019Z</time></trkpt><trkpt lat="48.53039956348828" lon="7.33038073316613"><ele>254.0</ele><time>2026-04-30T09:30:42.019Z</time></trkpt><trkpt lat="48.530363722696066" lon="7.3302892564729225"><ele>253.83333333333334</ele><time>2026-04-30T09:30:43.019Z</time></trkpt><trkpt lat="48.53032367826746" lon="7.330174270444935"><ele>253.66666666666669</ele><time>2026-04-30T09:30:44.019Z</time></trkpt><trkpt lat="48.5302787629709" lon="7.3300476806725925"><ele>253.5</ele><time>2026-04-30T09:30:45.019Z</time></trkpt><trkpt lat="48.53023468474212" lon="7.329922501111234"><ele>253.33333333333331</ele><time>2026-04-30T09:30:46.019Z</time></trkpt><trkpt lat="48.53019356135526" lon="7.329785486796045"><ele>253.16666666666666</ele><time>2026-04-30T09:30:47.019Z</time></trkpt><trkpt lat="48.530165607650204" lon="7.329682814601802"><ele>253.0</ele><time>2026-04-30T09:30:48.019Z</time></trkpt><trkpt lat="48.53013013924152" lon="7.329582339388828"><ele>253.0</ele><time>2026-04-30T09:30:49.019Z</time></trkpt><trkpt lat="48.530087052551394" lon="7.329469719949478"><ele>253.0</ele><time>2026-04-30T09:30:50.019Z</time></trkpt><trkpt lat="48.530040582867514" lon="7.329358864281659"><ele>253.0</ele><time>2026-04-30T09:30:51.019Z</time></trkpt><trkpt lat="48.52997615598402" lon="7.329236032861244"><ele>253.0</ele><time>2026-04-30T09:30:52.019Z</time></trkpt><trkpt lat="48.52989223214665" lon="7.329102159508795"><ele>253.0</ele><time>2026-04-30T09:30:53.019Z</time></trkpt><trkpt lat="48.529800391046464" lon="7.328965741990283"><ele>252.75</ele><time>2026-04-30T09:30:54.019Z</time></trkpt><trkpt lat="48.52969883785039" lon="7.328824950832444"><ele>252.5</ele><time>2026-04-30T09:30:55.019Z</time></trkpt><trkpt lat="48.52961381381398" lon="7.328686204086261"><ele>252.25</ele><time>2026-04-30T09:30:56.019Z</time></trkpt><trkpt lat="48.52953254771945" lon="7.328556248352544"><ele>252.0</ele><time>2026-04-30T09:30:57.019Z</time></trkpt><trkpt lat="48.5294622638842" lon="7.3284370762163205"><ele>251.2</ele><time>2026-04-30T09:30:58.019Z</time></trkpt><trkpt lat="48.52939164618666" lon="7.328323748912574"><ele>250.39999999999998</ele><time>2026-04-30T09:30:59.019Z</time></trkpt><trkpt lat="48.52932510076678" lon="7.328212534414339"><ele>249.60000000000002</ele><time>2026-04-30T09:31:00.019Z</time></trkpt><trkpt lat="48.52926332092892" lon="7.3281094381356695"><ele>248.8</ele><time>2026-04-30T09:31:01.019Z</time></trkpt><trkpt lat="48.529200325626036" lon="7.328006716953594"><ele>248.0</ele><time>2026-04-30T09:31:02.019Z</time></trkpt><trkpt lat="48.52914299326161" lon="7.3279119893253775"><ele>248.00000000000003</ele><time>2026-04-30T09:31:03.019Z</time></trkpt><trkpt lat="48.529085558943144" lon="7.327819832212764"><ele>248.0</ele><time>2026-04-30T09:31:04.019Z</time></trkpt><trkpt lat="48.52902481253748" lon="7.327727935609814"><ele>248.0</ele><time>2026-04-30T09:31:05.019Z</time></trkpt><trkpt lat="48.528966537909945" lon="7.327639770141802"><ele>248.0</ele><time>2026-04-30T09:31:06.019Z</time></trkpt><trkpt lat="48.52890393313281" lon="7.32755308498833"><ele>248.00000000000003</ele><time>2026-04-30T09:31:07.019Z</time></trkpt><trkpt lat="48.52883488346474" lon="7.327464866660958"><ele>248.0</ele><time>2026-04-30T09:31:08.019Z</time></trkpt><trkpt lat="48.52875981556601" lon="7.327382289743056"><ele>248.16666666666669</ele><time>2026-04-30T09:31:09.019Z</time></trkpt><trkpt lat="48.52868883538734" lon="7.327293793081325"><ele>248.33333333333334</ele><time>2026-04-30T09:31:10.019Z</time></trkpt><trkpt lat="48.5286233794459" lon="7.327217286779235"><ele>248.5</ele><time>2026-04-30T09:31:11.019Z</time></trkpt><trkpt lat="48.52856050158468" lon="7.327141858431368"><ele>248.66666666666669</ele><time>2026-04-30T09:31:12.019Z</time></trkpt><trkpt lat="48.528503816998274" lon="7.3270689547523835"><ele>248.83333333333334</ele><time>2026-04-30T09:31:13.019Z</time></trkpt><trkpt lat="48.5284439089784" lon="7.326999954968169"><ele>249.0</ele><time>2026-04-30T09:31:14.019Z</time></trkpt><trkpt lat="48.528386192250814" lon="7.326935200292333"><ele>249.0</ele><time>2026-04-30T09:31:15.019Z</time></trkpt><trkpt lat="48.52832180333126" lon="7.326875131760957"><ele>249.0</ele><time>2026-04-30T09:31:16.019Z</time></trkpt><trkpt lat="48.52825729290581" lon="7.3268285578933545"><ele>249.0</ele><time>2026-04-30T09:31:17.019Z</time></trkpt><trkpt lat="48.52818711243963" lon="7.326780002254753"><ele>249.0</ele><time>2026-04-30T09:31:18.019Z</time></trkpt><trkpt lat="48.528117795123336" lon="7.326727914820212"><ele>249.0</ele><time>2026-04-30T09:31:19.019Z</time></trkpt><trkpt lat="48.5280499498065" lon="7.3266737587092"><ele>249.0</ele><time>2026-04-30T09:31:20.019Z</time></trkpt><trkpt lat="48.527978110640326" lon="7.326618395489395"><ele>249.0</ele><time>2026-04-30T09:31:21.019Z</time></trkpt><trkpt lat="48.52789490771826" lon="7.326552868576526"><ele>249.0</ele><time>2026-04-30T09:31:22.019Z</time></trkpt><trkpt lat="48.52781496135474" lon="7.326498701040561"><ele>249.0</ele><time>2026-04-30T09:31:23.019Z</time></trkpt><trkpt lat="48.527731232597255" lon="7.326450177135646"><ele>249.0</ele><time>2026-04-30T09:31:24.019Z</time></trkpt><trkpt lat="48.52765508595396" lon="7.3264126323435095"><ele>249.0</ele><time>2026-04-30T09:31:25.019Z</time></trkpt><trkpt lat="48.527580516702386" lon="7.3263716662777885"><ele>249.0</ele><time>2026-04-30T09:31:26.019Z</time></trkpt><trkpt lat="48.52750796405031" lon="7.32632470922979"><ele>248.16666666666666</ele><time>2026-04-30T09:31:27.019Z</time></trkpt><trkpt lat="48.52744929772701" lon="7.326267777154746"><ele>247.33333333333331</ele><time>2026-04-30T09:31:28.019Z</time></trkpt><trkpt lat="48.52737715463668" lon="7.3261978396779615"><ele>246.5</ele><time>2026-04-30T09:31:29.019Z</time></trkpt><trkpt lat="48.52731489262028" lon="7.326085952727526"><ele>245.66666666666666</ele><time>2026-04-30T09:31:30.019Z</time></trkpt><trkpt lat="48.527250326019335" lon="7.325964764342149"><ele>244.83333333333331</ele><time>2026-04-30T09:31:31.019Z</time></trkpt><trkpt lat="48.527188400449084" lon="7.325865024038213"><ele>244.0</ele><time>2026-04-30T09:31:32.019Z</time></trkpt><trkpt lat="48.527123585767086" lon="7.325772153652406"><ele>243.99999999999997</ele><time>2026-04-30T09:31:33.019Z</time></trkpt><trkpt lat="48.527066467694475" lon="7.325674571849387"><ele>244.0</ele><time>2026-04-30T09:31:34.019Z</time></trkpt><trkpt lat="48.527023837170915" lon="7.3255842105268165"><ele>244.0</ele><time>2026-04-30T09:31:35.019Z</time></trkpt><trkpt lat="48.526979802113296" lon="7.325495819759732"><ele>244.0</ele><time>2026-04-30T09:31:36.019Z</time></trkpt><trkpt lat="48.526938722101285" lon="7.325413572080125"><ele>243.99999999999997</ele><time>2026-04-30T09:31:37.019Z</time></trkpt><trkpt lat="48.52687509715221" lon="7.325294992666258"><ele>244.0</ele><time>2026-04-30T09:31:39.019Z</time></trkpt><trkpt lat="48.52680394430648" lon="7.325308777730278"><ele>243.25</ele><time>2026-04-30T09:31:43.019Z</time></trkpt><trkpt lat="48.52672771823878" lon="7.3255109736744695"><ele>242.5</ele><time>2026-04-30T09:31:45.019Z</time></trkpt><trkpt lat="48.52669533938524" lon="7.325666880127855"><ele>241.75</ele><time>2026-04-30T09:31:46.019Z</time></trkpt><trkpt lat="48.52666245631668" lon="7.3257854437229035"><ele>241.0</ele><time>2026-04-30T09:31:47.019Z</time></trkpt><trkpt lat="48.52661329559307" lon="7.3259234684694485"><ele>241.0</ele><time>2026-04-30T09:31:48.019Z</time></trkpt><trkpt lat="48.5265672317757" lon="7.326068194332551"><ele>241.00000000000003</ele><time>2026-04-30T09:31:49.018Z</time></trkpt><trkpt lat="48.526517044343024" lon="7.326212338844799"><ele>241.00000000000003</ele><time>2026-04-30T09:31:50.018Z</time></trkpt><trkpt lat="48.526478403514425" lon="7.326348218794352"><ele>241.0</ele><time>2026-04-30T09:31:51.018Z</time></trkpt><trkpt lat="48.52644448971208" lon="7.326468998166851"><ele>241.0</ele><time>2026-04-30T09:31:52.018Z</time></trkpt><trkpt lat="48.526420141686295" lon="7.326578917872427"><ele>241.0</ele><time>2026-04-30T09:31:53.018Z</time></trkpt><trkpt lat="48.526367177845934" lon="7.326719234741265"><ele>241.00000000000003</ele><time>2026-04-30T09:31:55.018Z</time></trkpt><trkpt lat="48.526294222038985" lon="7.326718627382194"><ele>241.00000000000003</ele><time>2026-04-30T09:31:57.018Z</time></trkpt><trkpt lat="48.52622009545414" lon="7.326654130158836"><ele>241.0</ele><time>2026-04-30T09:31:58.018Z</time></trkpt><trkpt lat="48.52612360038627" lon="7.326560463945756"><ele>241.0</ele><time>2026-04-30T09:31:59.018Z</time></trkpt><trkpt lat="48.52601161475813" lon="7.326452940208331"><ele>240.20000000000002</ele><time>2026-04-30T09:32:00.018Z</time></trkpt><trkpt lat="48.525909730105774" lon="7.3263508562685296"><ele>239.40000000000003</ele><time>2026-04-30T09:32:01.018Z</time></trkpt><trkpt lat="48.525839290870806" lon="7.326256196700836"><ele>238.6</ele><time>2026-04-30T09:32:02.018Z</time></trkpt><trkpt lat="48.52577702365348" lon="7.3261573747593225"><ele>237.8</ele><time>2026-04-30T09:32:03.018Z</time></trkpt><trkpt lat="48.52570452477877" lon="7.326024627466292"><ele>237.0</ele><time>2026-04-30T09:32:04.018Z</time></trkpt><trkpt lat="48.52564705981843" lon="7.325866911905801"><ele>237.0</ele><time>2026-04-30T09:32:05.018Z</time></trkpt><trkpt lat="48.52560043042703" lon="7.325734450319449"><ele>237.0</ele><time>2026-04-30T09:32:06.018Z</time></trkpt><trkpt lat="48.52554071599622" lon="7.3256339568033795"><ele>237.0</ele><time>2026-04-30T09:32:08.018Z</time></trkpt><trkpt lat="48.52544823806349" lon="7.3255615840298995"><ele>237.0</ele><time>2026-04-30T09:32:10.018Z</time></trkpt><trkpt lat="48.52538958864387" lon="7.325403073854202"><ele>237.0</ele><time>2026-04-30T09:32:12.018Z</time></trkpt><trkpt lat="48.52539539079966" lon="7.3252461956575114"><ele>237.33333333333331</ele><time>2026-04-30T09:32:13.018Z</time></trkpt><trkpt lat="48.52540315883749" lon="7.32499578017074"><ele>237.66666666666666</ele><time>2026-04-30T09:32:14.018Z</time></trkpt><trkpt lat="48.52540726941648" lon="7.324698615341661"><ele>238.0</ele><time>2026-04-30T09:32:15.018Z</time></trkpt><trkpt lat="48.525398631290045" lon="7.324385706729543"><ele>237.33333333333331</ele><time>2026-04-30T09:32:16.018Z</time></trkpt><trkpt lat="48.525385475218165" lon="7.324059848445397"><ele>236.66666666666669</ele><time>2026-04-30T09:32:17.018Z</time></trkpt><trkpt lat="48.52537164440452" lon="7.323757664357064"><ele>236.0</ele><time>2026-04-30T09:32:18.018Z</time></trkpt><trkpt lat="48.525369615040724" lon="7.323525744695953"><ele>236.0</ele><time>2026-04-30T09:32:19.018Z</time></trkpt><trkpt lat="48.52536874858472" lon="7.323337034949566"><ele>236.00000000000003</ele><time>2026-04-30T09:32:20.018Z</time></trkpt><trkpt lat="48.52535682500559" lon="7.323190294984343"><ele>236.00000000000003</ele><time>2026-04-30T09:32:21.02Z</time></trkpt><trkpt lat="48.5253348507743" lon="7.323090170962778"><ele>236.0</ele><time>2026-04-30T09:32:22.02Z</time></trkpt><trkpt lat="48.52530492038622" lon="7.322958660173097"><ele>236.0</ele><time>2026-04-30T09:32:23.02Z</time></trkpt><trkpt lat="48.52525163828847" lon="7.3227693671337795"><ele>236.4</ele><time>2026-04-30T09:32:24.02Z</time></trkpt><trkpt lat="48.525200875635825" lon="7.32254783542645"><ele>236.8</ele><time>2026-04-30T09:32:25.02Z</time></trkpt><trkpt lat="48.52516300118222" lon="7.322370257967195"><ele>237.20000000000002</ele><time>2026-04-30T09:32:26.02Z</time></trkpt><trkpt lat="48.52512111065659" lon="7.3222661524758434"><ele>237.60000000000002</ele><time>2026-04-30T09:32:27.02Z</time></trkpt><trkpt lat="48.52506650543087" lon="7.322174691610513"><ele>238.0</ele><time>2026-04-30T09:32:29.02Z</time></trkpt><trkpt lat="48.52500565925751" lon="7.322129891917799"><ele>237.99999999999997</ele><time>2026-04-30T09:32:33.02Z</time></trkpt><trkpt lat="48.524936704276335" lon="7.322085834299695"><ele>238.0</ele><time>2026-04-30T09:32:37.019Z</time></trkpt><trkpt lat="48.52486556783674" lon="7.322059677245759"><ele>238.0</ele><time>2026-04-30T09:32:38.019Z</time></trkpt><trkpt lat="48.52479125227299" lon="7.322056582506238"><ele>238.0</ele><time>2026-04-30T09:32:39.019Z</time></trkpt><trkpt lat="48.52470663517046" lon="7.322040134353135"><ele>237.99999999999997</ele><time>2026-04-30T09:32:41.019Z</time></trkpt><trkpt lat="48.52465716846619" lon="7.322131146871871"><ele>238.0</ele><time>2026-04-30T09:32:44.019Z</time></trkpt><trkpt lat="48.52463254209613" lon="7.322253972208572"><ele>238.0</ele><time>2026-04-30T09:32:45.019Z</time></trkpt><trkpt lat="48.52460219680036" lon="7.322417635056145"><ele>238.0</ele><time>2026-04-30T09:32:46.019Z</time></trkpt><trkpt lat="48.52457300944792" lon="7.32264974190458"><ele>238.0</ele><time>2026-04-30T09:32:47.019Z</time></trkpt><trkpt lat="48.52453933197452" lon="7.3229190153534525"><ele>237.33333333333331</ele><time>2026-04-30T09:32:48.019Z</time></trkpt><trkpt lat="48.524497196686916" lon="7.3231992749564245"><ele>236.66666666666669</ele><time>2026-04-30T09:32:49.019Z</time></trkpt><trkpt lat="48.52447895848446" lon="7.3234682979782155"><ele>236.0</ele><time>2026-04-30T09:32:50.019Z</time></trkpt><trkpt lat="48.52445594907742" lon="7.323705351107293"><ele>236.0</ele><time>2026-04-30T09:32:51.019Z</time></trkpt><trkpt lat="48.524416643507685" lon="7.323930741741069"><ele>236.0</ele><time>2026-04-30T09:32:52.019Z</time></trkpt><trkpt lat="48.524326824709775" lon="7.324147444516669"><ele>236.0</ele><time>2026-04-30T09:32:53.019Z</time></trkpt><trkpt lat="48.52423738746478" lon="7.324391300216211"><ele>236.0</ele><time>2026-04-30T09:32:54.019Z</time></trkpt><trkpt lat="48.52417722460973" lon="7.3245815692651"><ele>236.0</ele><time>2026-04-30T09:32:55.019Z</time></trkpt><trkpt lat="48.52410674006388" lon="7.32473621343753"><ele>236.0</ele><time>2026-04-30T09:32:56.019Z</time></trkpt><trkpt lat="48.524020760922824" lon="7.324850303368399"><ele>236.0</ele><time>2026-04-30T09:32:57.019Z</time></trkpt><trkpt lat="48.52391898073464" lon="7.324953186043674"><ele>236.0</ele><time>2026-04-30T09:32:58.019Z</time></trkpt><trkpt lat="48.52382960265611" lon="7.3250358388079"><ele>236.00000000000003</ele><time>2026-04-30T09:32:59.019Z</time></trkpt><trkpt lat="48.52375109481994" lon="7.32507929085334"><ele>236.00000000000003</ele><time>2026-04-30T09:33:00.019Z</time></trkpt><trkpt lat="48.52365091585171" lon="7.325071021417801"><ele>236.0</ele><time>2026-04-30T09:33:01.019Z</time></trkpt><trkpt lat="48.52349733496509" lon="7.325037890865226"><ele>236.0</ele><time>2026-04-30T09:33:02.019Z</time></trkpt><trkpt lat="48.52331021762173" lon="7.325012324737489"><ele>235.66666666666669</ele><time>2026-04-30T09:33:03.019Z</time></trkpt><trkpt lat="48.523098874451044" lon="7.3250076118923735"><ele>235.33333333333331</ele><time>2026-04-30T09:33:04.019Z</time></trkpt><trkpt lat="48.52289836061961" lon="7.325009995241711"><ele>235.0</ele><time>2026-04-30T09:33:05.019Z</time></trkpt><trkpt lat="48.52272941431677" lon="7.324996147895521"><ele>234.6</ele><time>2026-04-30T09:33:06.019Z</time></trkpt><trkpt lat="48.52258299111085" lon="7.324981186258142"><ele>234.2</ele><time>2026-04-30T09:33:07.019Z</time></trkpt><trkpt lat="48.5224654940943" lon="7.324975415591059"><ele>233.8</ele><time>2026-04-30T09:33:08.019Z</time></trkpt><trkpt lat="48.5223658168724" lon="7.324982045788499"><ele>233.4</ele><time>2026-04-30T09:33:09.019Z</time></trkpt><trkpt lat="48.52228546275211" lon="7.3249751559289615"><ele>233.0</ele><time>2026-04-30T09:33:10.019Z</time></trkpt><trkpt lat="48.52221447129891" lon="7.324979065584315"><ele>233.0</ele><time>2026-04-30T09:33:11.019Z</time></trkpt><trkpt lat="48.522118583363685" lon="7.3250750217611005"><ele>233.0</ele><time>2026-04-30T09:33:13.019Z</time></trkpt><trkpt lat="48.52210341250428" lon="7.32519377259802"><ele>233.0</ele><time>2026-04-30T09:33:14.019Z</time></trkpt><trkpt lat="48.52210721263013" lon="7.3253612671326"><ele>233.0</ele><time>2026-04-30T09:33:15.019Z</time></trkpt><trkpt lat="48.522126537233945" lon="7.32557611381573"><ele>233.0</ele><time>2026-04-30T09:33:16.019Z</time></trkpt><trkpt lat="48.52215408440317" lon="7.325840079219723"><ele>233.0</ele><time>2026-04-30T09:33:17.019Z</time></trkpt><trkpt lat="48.52218808278609" lon="7.326157921027259"><ele>233.0</ele><time>2026-04-30T09:33:18.019Z</time></trkpt><trkpt lat="48.52221564231623" lon="7.326501885990657"><ele>234.0</ele><time>2026-04-30T09:33:19.019Z</time></trkpt><trkpt lat="48.52224716849544" lon="7.32685657619765"><ele>235.0</ele><time>2026-04-30T09:33:20.019Z</time></trkpt><trkpt lat="48.52227540817522" lon="7.327195463578287"><ele>235.0</ele><time>2026-04-30T09:33:21.019Z</time></trkpt><trkpt lat="48.5223016308926" lon="7.327477178439669"><ele>235.0</ele><time>2026-04-30T09:33:22.019Z</time></trkpt><trkpt lat="48.522314067251486" lon="7.32772503092081"><ele>235.0</ele><time>2026-04-30T09:33:23.019Z</time></trkpt><trkpt lat="48.52232513673082" lon="7.327944320988621"><ele>234.99999999999997</ele><time>2026-04-30T09:33:24.019Z</time></trkpt><trkpt lat="48.52233841362802" lon="7.328110831006072"><ele>235.0</ele><time>2026-04-30T09:33:25.019Z</time></trkpt><trkpt lat="48.52235011371816" lon="7.3282287176148895"><ele>235.0</ele><time>2026-04-30T09:33:26.019Z</time></trkpt><trkpt lat="48.52236694822496" lon="7.328321176772771"><ele>235.0</ele><time>2026-04-30T09:33:27.019Z</time></trkpt><trkpt lat="48.52240612600009" lon="7.32845188213748"><ele>234.99999999999997</ele><time>2026-04-30T09:33:29.019Z</time></trkpt><trkpt lat="48.522485490027854" lon="7.328512522040707"><ele>235.0</ele><time>2026-04-30T09:33:31.019Z</time></trkpt><trkpt lat="48.52262701338057" lon="7.328483862860309"><ele>235.0</ele><time>2026-04-30T09:33:33.019Z</time></trkpt><trkpt lat="48.52273074120356" lon="7.328458786443817"><ele>235.0</ele><time>2026-04-30T09:33:34.019Z</time></trkpt><trkpt lat="48.52283703468287" lon="7.328447989140915"><ele>235.0</ele><time>2026-04-30T09:33:35.019Z</time></trkpt><trkpt lat="48.52293920651293" lon="7.328422085725242"><ele>235.0</ele><time>2026-04-30T09:33:36.019Z</time></trkpt><trkpt lat="48.52304625472582" lon="7.328405185892856"><ele>235.0</ele><time>2026-04-30T09:33:37.019Z</time></trkpt><trkpt lat="48.523150445613204" lon="7.328389709687409"><ele>234.4</ele><time>2026-04-30T09:33:38.019Z</time></trkpt><trkpt lat="48.523253469892445" lon="7.3283782587347"><ele>233.8</ele><time>2026-04-30T09:33:39.019Z</time></trkpt><trkpt lat="48.52336616356898" lon="7.328365482702169"><ele>233.2</ele><time>2026-04-30T09:33:40.019Z</time></trkpt><trkpt lat="48.523476883720825" lon="7.328358485976342"><ele>232.6</ele><time>2026-04-30T09:33:41.019Z</time></trkpt><trkpt lat="48.52356925800689" lon="7.328350439899262"><ele>232.0</ele><time>2026-04-30T09:33:42.019Z</time></trkpt><trkpt lat="48.523658391094656" lon="7.32834708778756"><ele>232.39999999999998</ele><time>2026-04-30T09:33:43.019Z</time></trkpt><trkpt lat="48.52374547615993" lon="7.328335764270951"><ele>232.79999999999998</ele><time>2026-04-30T09:33:44.019Z</time></trkpt><trkpt lat="48.52383390395794" lon="7.328329662450535"><ele>233.2</ele><time>2026-04-30T09:33:45.019Z</time></trkpt><trkpt lat="48.52391845158063" lon="7.328340821479803"><ele>233.6</ele><time>2026-04-30T09:33:46.019Z</time></trkpt><trkpt lat="48.524025232235815" lon="7.328353788818975"><ele>234.0</ele><time>2026-04-30T09:33:47.019Z</time></trkpt><trkpt lat="48.52412927749858" lon="7.328354363180993"><ele>234.0</ele><time>2026-04-30T09:33:48.019Z</time></trkpt><trkpt lat="48.524234529829606" lon="7.328350991764598"><ele>234.0</ele><time>2026-04-30T09:33:49.019Z</time></trkpt><trkpt lat="48.52433018525749" lon="7.328352804228089"><ele>234.0</ele><time>2026-04-30T09:33:50.019Z</time></trkpt><trkpt lat="48.52443040305611" lon="7.328340219236004"><ele>234.0</ele><time>2026-04-30T09:33:51.019Z</time></trkpt><trkpt lat="48.524503488502184" lon="7.328328205459211"><ele>234.0</ele><time>2026-04-30T09:33:52.019Z</time></trkpt><trkpt lat="48.52457520691724" lon="7.328326799182381"><ele>234.0</ele><time>2026-04-30T09:33:53.019Z</time></trkpt><trkpt lat="48.524654261811904" lon="7.328323933087418"><ele>234.2</ele><time>2026-04-30T09:33:54.019Z</time></trkpt><trkpt lat="48.5247469909292" lon="7.328328951580478"><ele>234.39999999999998</ele><time>2026-04-30T09:33:55.019Z</time></trkpt><trkpt lat="48.524847605249775" lon="7.328336099667246"><ele>234.6</ele><time>2026-04-30T09:33:56.019Z</time></trkpt><trkpt lat="48.5249519363477" lon="7.3283516148051655"><ele>234.8</ele><time>2026-04-30T09:33:57.019Z</time></trkpt><trkpt lat="48.52505609856577" lon="7.3283654936393265"><ele>235.0</ele><time>2026-04-30T09:33:58.019Z</time></trkpt><trkpt lat="48.52516616425751" lon="7.328383575767339"><ele>234.99999999999997</ele><time>2026-04-30T09:33:59.019Z</time></trkpt><trkpt lat="48.52525836646419" lon="7.328400069122386"><ele>235.0</ele><time>2026-04-30T09:34:00.019Z</time></trkpt><trkpt lat="48.525342650779955" lon="7.328417317544852"><ele>235.0</ele><time>2026-04-30T09:34:01.019Z</time></trkpt><trkpt lat="48.52540987561539" lon="7.328438602262097"><ele>235.0</ele><time>2026-04-30T09:34:02.019Z</time></trkpt><trkpt lat="48.525478368845576" lon="7.328473812921369"><ele>234.99999999999997</ele><time>2026-04-30T09:34:03.019Z</time></trkpt><trkpt lat="48.52554680263031" lon="7.328530565869153"><ele>235.0</ele><time>2026-04-30T09:34:04.019Z</time></trkpt><trkpt lat="48.52560849587321" lon="7.328591210275686"><ele>235.4</ele><time>2026-04-30T09:34:05.019Z</time></trkpt><trkpt lat="48.52569905330853" lon="7.328666723997183"><ele>235.8</ele><time>2026-04-30T09:34:06.019Z</time></trkpt><trkpt lat="48.52579388822451" lon="7.328708634327478"><ele>236.2</ele><time>2026-04-30T09:34:07.019Z</time></trkpt><trkpt lat="48.5258860667668" lon="7.328734581496911"><ele>236.6</ele><time>2026-04-30T09:34:08.019Z</time></trkpt><trkpt lat="48.52597159927134" lon="7.3287764184028825"><ele>237.0</ele><time>2026-04-30T09:34:10.019Z</time></trkpt><trkpt lat="48.52603471792857" lon="7.328813041946304"><ele>237.0</ele><time>2026-04-30T09:34:21.019Z</time></trkpt><trkpt lat="48.5260759737566" lon="7.328926313783495"><ele>237.0</ele><time>2026-04-30T09:34:23.019Z</time></trkpt><trkpt lat="48.52604997837736" lon="7.32904635772786"><ele>237.0</ele><time>2026-04-30T09:34:24.019Z</time></trkpt><trkpt lat="48.52601990582392" lon="7.329208154068764"><ele>237.0</ele><time>2026-04-30T09:34:25.019Z</time></trkpt><trkpt lat="48.52599500198391" lon="7.329384127813767"><ele>237.0</ele><time>2026-04-30T09:34:26.019Z</time></trkpt><trkpt lat="48.52598348037349" lon="7.329577497387433"><ele>236.75</ele><time>2026-04-30T09:34:27.02Z</time></trkpt><trkpt lat="48.525975594836716" lon="7.329777085177255"><ele>236.5</ele><time>2026-04-30T09:34:28.021Z</time></trkpt><trkpt lat="48.52597089997872" lon="7.329972855872161"><ele>236.25</ele><time>2026-04-30T09:34:29.021Z</time></trkpt><trkpt lat="48.52596259576323" lon="7.330164255201555"><ele>236.0</ele><time>2026-04-30T09:34:30.021Z</time></trkpt><trkpt lat="48.52595310800197" lon="7.330359628145916"><ele>236.0</ele><time>2026-04-30T09:34:31.021Z</time></trkpt><trkpt lat="48.52595023439792" lon="7.330557745942201"><ele>236.0</ele><time>2026-04-30T09:34:32.021Z</time></trkpt><trkpt lat="48.52594789395329" lon="7.3307517981669825"><ele>236.0</ele><time>2026-04-30T09:34:33.021Z</time></trkpt><trkpt lat="48.525944212499404" lon="7.330943069749061"><ele>236.0</ele><time>2026-04-30T09:34:34.021Z</time></trkpt><trkpt lat="48.52594045422096" lon="7.331134164349083"><ele>236.25</ele><time>2026-04-30T09:34:35.021Z</time></trkpt><trkpt lat="48.525941953968974" lon="7.331328194378259"><ele>236.5</ele><time>2026-04-30T09:34:36.021Z</time></trkpt><trkpt lat="48.52592674569302" lon="7.331518117187683"><ele>236.75</ele><time>2026-04-30T09:34:37.02Z</time></trkpt><trkpt lat="48.525942383415035" lon="7.3317041596328885"><ele>237.0</ele><time>2026-04-30T09:34:38.02Z</time></trkpt><trkpt lat="48.525958429934896" lon="7.33188074917566"><ele>237.0</ele><time>2026-04-30T09:34:39.021Z</time></trkpt><trkpt lat="48.525982976337836" lon="7.332062892674377"><ele>237.0</ele><time>2026-04-30T09:34:40.021Z</time></trkpt><trkpt lat="48.52600733160308" lon="7.332249064527313"><ele>237.0</ele><time>2026-04-30T09:34:41.021Z</time></trkpt><trkpt lat="48.526042174577746" lon="7.332438294398483"><ele>237.0</ele><time>2026-04-30T09:34:42.021Z</time></trkpt><trkpt lat="48.52608272433203" lon="7.332624057490851"><ele>237.0</ele><time>2026-04-30T09:34:43.021Z</time></trkpt><trkpt lat="48.52613563046433" lon="7.332810182892996"><ele>237.0</ele><time>2026-04-30T09:34:44.021Z</time></trkpt><trkpt lat="48.526186586742824" lon="7.332997943236832"><ele>237.0</ele><time>2026-04-30T09:34:45.021Z</time></trkpt><trkpt lat="48.52624446790751" lon="7.333187049557242"><ele>237.0</ele><time>2026-04-30T09:34:46.021Z</time></trkpt><trkpt lat="48.5262997882522" lon="7.333367712389366"><ele>237.5</ele><time>2026-04-30T09:34:47.021Z</time></trkpt><trkpt lat="48.5263464633418" lon="7.333545290804527"><ele>238.0</ele><time>2026-04-30T09:34:48.021Z</time></trkpt><trkpt lat="48.52637558839067" lon="7.333737935524175"><ele>238.5</ele><time>2026-04-30T09:34:49.021Z</time></trkpt><trkpt lat="48.526396121283106" lon="7.333918839149519"><ele>239.0</ele><time>2026-04-30T09:34:50.021Z</time></trkpt><trkpt lat="48.5264135434038" lon="7.334109031437229"><ele>239.0</ele><time>2026-04-30T09:34:51.021Z</time></trkpt><trkpt lat="48.526435905068205" lon="7.33429517023963"><ele>239.0</ele><time>2026-04-30T09:34:52.021Z</time></trkpt><trkpt lat="48.52645484658633" lon="7.334497995557654"><ele>239.0</ele><time>2026-04-30T09:34:53.021Z</time></trkpt><trkpt lat="48.5264728994173" lon="7.3346884784980695"><ele>239.0</ele><time>2026-04-30T09:34:54.021Z</time></trkpt><trkpt lat="48.52649299458188" lon="7.334871811351178"><ele>239.0</ele><time>2026-04-30T09:34:55.021Z</time></trkpt><trkpt lat="48.526514025132705" lon="7.335051997582176"><ele>239.0</ele><time>2026-04-30T09:34:56.021Z</time></trkpt><trkpt lat="48.5265321743047" lon="7.335231404883969"><ele>239.0</ele><time>2026-04-30T09:34:57.021Z</time></trkpt><trkpt lat="48.526554942696016" lon="7.335411681779909"><ele>239.0</ele><time>2026-04-30T09:34:58.021Z</time></trkpt><trkpt lat="48.526577938035196" lon="7.335573399246058"><ele>238.79999999999998</ele><time>2026-04-30T09:34:59.021Z</time></trkpt><trkpt lat="48.52660134947398" lon="7.3357239873859506"><ele>238.59999999999997</ele><time>2026-04-30T09:35:00.021Z</time></trkpt><trkpt lat="48.52662868891461" lon="7.335876382397505"><ele>238.4</ele><time>2026-04-30T09:35:01.021Z</time></trkpt><trkpt lat="48.526655831976875" lon="7.336035902343171"><ele>238.2</ele><time>2026-04-30T09:35:02.021Z</time></trkpt><trkpt lat="48.52668162724563" lon="7.336223917350018"><ele>238.0</ele><time>2026-04-30T09:35:03.021Z</time></trkpt><trkpt lat="48.526716134804865" lon="7.336422641463156"><ele>238.0</ele><time>2026-04-30T09:35:04.021Z</time></trkpt><trkpt lat="48.52675656925244" lon="7.336636569226438"><ele>238.0</ele><time>2026-04-30T09:35:05.021Z</time></trkpt><trkpt lat="48.52679527546881" lon="7.336855679270041"><ele>238.0</ele><time>2026-04-30T09:35:06.021Z</time></trkpt><trkpt lat="48.52683199437904" lon="7.337082881132534"><ele>238.25</ele><time>2026-04-30T09:35:07.021Z</time></trkpt><trkpt lat="48.526864947414644" lon="7.337288460196495"><ele>238.5</ele><time>2026-04-30T09:35:08.021Z</time></trkpt><trkpt lat="48.52688174382304" lon="7.33748785821665"><ele>238.75</ele><time>2026-04-30T09:35:09.021Z</time></trkpt><trkpt lat="48.52688676703094" lon="7.337680231244582"><ele>239.0</ele><time>2026-04-30T09:35:10.021Z</time></trkpt><trkpt lat="48.526886046868" lon="7.337877586875163"><ele>238.75</ele><time>2026-04-30T09:35:11.021Z</time></trkpt><trkpt lat="48.526879673946766" lon="7.338071369297424"><ele>238.5</ele><time>2026-04-30T09:35:12.021Z</time></trkpt><trkpt lat="48.52686469572562" lon="7.338278435180362"><ele>238.25</ele><time>2026-04-30T09:35:13.021Z</time></trkpt><trkpt lat="48.52684739615262" lon="7.338481593161469"><ele>238.0</ele><time>2026-04-30T09:35:14.021Z</time></trkpt><trkpt lat="48.52683238318585" lon="7.338702357321344"><ele>238.0</ele><time>2026-04-30T09:35:15.02Z</time></trkpt><trkpt lat="48.5268216252179" lon="7.33891440198154"><ele>238.0</ele><time>2026-04-30T09:35:16.02Z</time></trkpt><trkpt lat="48.526818828950454" lon="7.339105761889078"><ele>238.0</ele><time>2026-04-30T09:35:17.02Z</time></trkpt><trkpt lat="48.52680211022226" lon="7.339284611307915"><ele>238.0</ele><time>2026-04-30T09:35:18.02Z</time></trkpt><trkpt lat="48.526795896914365" lon="7.339445020517682"><ele>238.0</ele><time>2026-04-30T09:35:19.02Z</time></trkpt><trkpt lat="48.5268007740922" lon="7.339609350245836"><ele>238.0</ele><time>2026-04-30T09:35:20.02Z</time></trkpt><trkpt lat="48.52680531866603" lon="7.339772540988321"><ele>238.0</ele><time>2026-04-30T09:35:21.02Z</time></trkpt><trkpt lat="48.526812743651284" lon="7.33994653006822"><ele>238.0</ele><time>2026-04-30T09:35:22.02Z</time></trkpt><trkpt lat="48.526823009415295" lon="7.340107751036795"><ele>238.0</ele><time>2026-04-30T09:35:23.02Z</time></trkpt><trkpt lat="48.526833621173246" lon="7.340266178052579"><ele>238.0</ele><time>2026-04-30T09:35:24.02Z</time></trkpt><trkpt lat="48.52684020687704" lon="7.340419866470226"><ele>238.0</ele><time>2026-04-30T09:35:25.02Z</time></trkpt><trkpt lat="48.52684795760886" lon="7.340566014132349"><ele>238.0</ele><time>2026-04-30T09:35:26.02Z</time></trkpt><trkpt lat="48.52685248556391" lon="7.340714946797774"><ele>238.0</ele><time>2026-04-30T09:35:27.02Z</time></trkpt><trkpt lat="48.52684520788959" lon="7.340882703676994"><ele>238.0</ele><time>2026-04-30T09:35:28.02Z</time></trkpt><trkpt lat="48.526840076358255" lon="7.341065783740752"><ele>238.0</ele><time>2026-04-30T09:35:29.02Z</time></trkpt><trkpt lat="48.52682250649321" lon="7.341258930545187"><ele>238.0</ele><time>2026-04-30T09:35:30.02Z</time></trkpt><trkpt lat="48.52680266287808" lon="7.341482286267489"><ele>238.0</ele><time>2026-04-30T09:35:31.02Z</time></trkpt><trkpt lat="48.52677822678947" lon="7.3417192717078175"><ele>238.0</ele><time>2026-04-30T09:35:32.02Z</time></trkpt><trkpt lat="48.52675362268687" lon="7.341953186642383"><ele>238.0</ele><time>2026-04-30T09:35:33.02Z</time></trkpt><trkpt lat="48.526732743397616" lon="7.342177002173253"><ele>238.0</ele><time>2026-04-30T09:35:34.02Z</time></trkpt><trkpt lat="48.52672081032831" lon="7.34238514512379"><ele>238.0</ele><time>2026-04-30T09:35:35.02Z</time></trkpt><trkpt lat="48.526713141734554" lon="7.342590948915468"><ele>238.0</ele><time>2026-04-30T09:35:36.02Z</time></trkpt><trkpt lat="48.52671125177064" lon="7.342801703066754"><ele>238.0</ele><time>2026-04-30T09:35:37.02Z</time></trkpt><trkpt lat="48.526712388363165" lon="7.343000526591114"><ele>238.0</ele><time>2026-04-30T09:35:38.02Z</time></trkpt><trkpt lat="48.526714508064494" lon="7.343181545830605"><ele>238.0</ele><time>2026-04-30T09:35:39.02Z</time></trkpt><trkpt lat="48.52671870710625" lon="7.34335489984484"><ele>238.0</ele><time>2026-04-30T09:35:40.02Z</time></trkpt><trkpt lat="48.52671981265301" lon="7.343516197044769"><ele>238.0</ele><time>2026-04-30T09:35:41.02Z</time></trkpt><trkpt lat="48.52671744030494" lon="7.343690234942806"><ele>238.0</ele><time>2026-04-30T09:35:42.02Z</time></trkpt><trkpt lat="48.52672048988835" lon="7.34387107502102"><ele>238.0</ele><time>2026-04-30T09:35:43.02Z</time></trkpt><trkpt lat="48.52671744039767" lon="7.344070257849264"><ele>238.0</ele><time>2026-04-30T09:35:44.02Z</time></trkpt><trkpt lat="48.526719649598604" lon="7.3442745871480835"><ele>238.0</ele><time>2026-04-30T09:35:45.02Z</time></trkpt><trkpt lat="48.52671107282787" lon="7.344488508700214"><ele>238.0</ele><time>2026-04-30T09:35:46.02Z</time></trkpt><trkpt lat="48.52668317644965" lon="7.344698223406955"><ele>238.0</ele><time>2026-04-30T09:35:47.02Z</time></trkpt><trkpt lat="48.52664069548828" lon="7.344896980640992"><ele>238.0</ele><time>2026-04-30T09:35:48.02Z</time></trkpt><trkpt lat="48.526583501736724" lon="7.345078782519199"><ele>237.8</ele><time>2026-04-30T09:35:49.02Z</time></trkpt><trkpt lat="48.52651513617491" lon="7.345233989793264"><ele>237.60000000000002</ele><time>2026-04-30T09:35:50.02Z</time></trkpt><trkpt lat="48.52645807556344" lon="7.345362142192666"><ele>237.39999999999998</ele><time>2026-04-30T09:35:51.02Z</time></trkpt><trkpt lat="48.5263962895772" lon="7.345494401632422"><ele>237.2</ele><time>2026-04-30T09:35:52.02Z</time></trkpt><trkpt lat="48.52634439591635" lon="7.34561576109678"><ele>237.0</ele><time>2026-04-30T09:35:53.02Z</time></trkpt><trkpt lat="48.52629563064442" lon="7.345745806694394"><ele>237.0</ele><time>2026-04-30T09:35:54.02Z</time></trkpt><trkpt lat="48.52624657235431" lon="7.345874199177165"><ele>237.0</ele><time>2026-04-30T09:35:55.02Z</time></trkpt><trkpt lat="48.52619945079707" lon="7.3459980914813165"><ele>237.0</ele><time>2026-04-30T09:35:56.02Z</time></trkpt><trkpt lat="48.52615664612857" lon="7.346119996974139"><ele>237.0</ele><time>2026-04-30T09:35:57.02Z</time></trkpt><trkpt lat="48.52611910022217" lon="7.346228091715015"><ele>237.0</ele><time>2026-04-30T09:35:58.02Z</time></trkpt><trkpt lat="48.52607955761269" lon="7.346329765806965"><ele>237.0</ele><time>2026-04-30T09:35:59.02Z</time></trkpt><trkpt lat="48.52602952474488" lon="7.346423661897935"><ele>236.2</ele><time>2026-04-30T09:36:00.02Z</time></trkpt><trkpt lat="48.52597459645357" lon="7.3465038240570175"><ele>235.39999999999998</ele><time>2026-04-30T09:36:01.02Z</time></trkpt><trkpt lat="48.5259187885511" lon="7.346583146733144"><ele>234.60000000000002</ele><time>2026-04-30T09:36:02.02Z</time></trkpt><trkpt lat="48.525855276915486" lon="7.346695509863859"><ele>233.8</ele><time>2026-04-30T09:36:03.02Z</time></trkpt><trkpt lat="48.52580042148552" lon="7.346842972587184"><ele>233.0</ele><time>2026-04-30T09:36:04.02Z</time></trkpt><trkpt lat="48.525744403023914" lon="7.347000564727961"><ele>233.0</ele><time>2026-04-30T09:36:05.02Z</time></trkpt><trkpt lat="48.525678211914254" lon="7.347176499803035"><ele>233.0</ele><time>2026-04-30T09:36:06.02Z</time></trkpt><trkpt lat="48.525610402625404" lon="7.347384576517349"><ele>233.0</ele><time>2026-04-30T09:36:07.02Z</time></trkpt><trkpt lat="48.52553242797704" lon="7.347594651656273"><ele>233.0</ele><time>2026-04-30T09:36:08.02Z</time></trkpt><trkpt lat="48.525452913801885" lon="7.34780899461568"><ele>231.33333333333334</ele><time>2026-04-30T09:36:09.02Z</time></trkpt><trkpt lat="48.525370325499196" lon="7.34802040719486"><ele>229.66666666666669</ele><time>2026-04-30T09:36:10.02Z</time></trkpt><trkpt lat="48.52529296837292" lon="7.348237333457382"><ele>228.0</ele><time>2026-04-30T09:36:11.02Z</time></trkpt><trkpt lat="48.52521910231524" lon="7.348446521950832"><ele>228.0</ele><time>2026-04-30T09:36:12.02Z</time></trkpt><trkpt lat="48.52516657149854" lon="7.348673293423868"><ele>228.0</ele><time>2026-04-30T09:36:13.02Z</time></trkpt><trkpt lat="48.525130729448556" lon="7.348922391692742"><ele>228.0</ele><time>2026-04-30T09:36:14.02Z</time></trkpt><trkpt lat="48.525088987685855" lon="7.349163265249826"><ele>228.0</ele><time>2026-04-30T09:36:15.02Z</time></trkpt><trkpt lat="48.52504591142699" lon="7.349411723050016"><ele>228.0</ele><time>2026-04-30T09:36:16.02Z</time></trkpt><trkpt lat="48.524999260811796" lon="7.349643036978579"><ele>228.0</ele><time>2026-04-30T09:36:17.02Z</time></trkpt><trkpt lat="48.524949835103946" lon="7.349906163391894"><ele>228.33333333333331</ele><time>2026-04-30T09:36:18.02Z</time></trkpt><trkpt lat="48.52490071309324" lon="7.35018339078527"><ele>228.66666666666666</ele><time>2026-04-30T09:36:19.02Z</time></trkpt><trkpt lat="48.52485034161676" lon="7.350452474201179"><ele>229.0</ele><time>2026-04-30T09:36:20.02Z</time></trkpt><trkpt lat="48.52481045234596" lon="7.35070460877404"><ele>229.5</ele><time>2026-04-30T09:36:21.02Z</time></trkpt><trkpt lat="48.524767914080535" lon="7.350931764802426"><ele>230.0</ele><time>2026-04-30T09:36:22.02Z</time></trkpt><trkpt lat="48.52473527654493" lon="7.3511460972816955"><ele>230.5</ele><time>2026-04-30T09:36:23.02Z</time></trkpt><trkpt lat="48.52471035816743" lon="7.351347817955462"><ele>231.0</ele><time>2026-04-30T09:36:24.02Z</time></trkpt><trkpt lat="48.524696075710814" lon="7.351542343647778"><ele>230.8</ele><time>2026-04-30T09:36:25.02Z</time></trkpt><trkpt lat="48.52468443130411" lon="7.35171034038794"><ele>230.60000000000002</ele><time>2026-04-30T09:36:26.02Z</time></trkpt><trkpt lat="48.52466267061037" lon="7.351855130730377"><ele>230.4</ele><time>2026-04-30T09:36:27.02Z</time></trkpt><trkpt lat="48.524651198155205" lon="7.35197270314462"><ele>230.2</ele><time>2026-04-30T09:36:28.02Z</time></trkpt><trkpt lat="48.52459806968355" lon="7.352093704967243"><ele>230.0</ele><time>2026-04-30T09:36:30.02Z</time></trkpt><trkpt lat="48.524501230901876" lon="7.35212707214388"><ele>230.0</ele><time>2026-04-30T09:36:32.02Z</time></trkpt><trkpt lat="48.524389661282086" lon="7.352149567474542"><ele>230.0</ele><time>2026-04-30T09:36:34.022Z</time></trkpt><trkpt lat="48.52431741174869" lon="7.352173502740376"><ele>230.0</ele><time>2026-04-30T09:36:35.022Z</time></trkpt><trkpt lat="48.524242635178986" lon="7.352164956578932"><ele>230.0</ele><time>2026-04-30T09:36:36.022Z</time></trkpt><trkpt lat="48.5241240279706" lon="7.352170099734514"><ele>230.0</ele><time>2026-04-30T09:36:38.021Z</time></trkpt><trkpt lat="48.524047391630994" lon="7.352132337807055"><ele>230.0</ele><time>2026-04-30T09:36:40.022Z</time></trkpt><trkpt lat="48.52401482497027" lon="7.351919515606563"><ele>230.0</ele><time>2026-04-30T09:36:42.022Z</time></trkpt><trkpt lat="48.52400752271435" lon="7.351789931979649"><ele>230.0</ele><time>2026-04-30T09:36:43.022Z</time></trkpt><trkpt lat="48.52400729130018" lon="7.351648984373132"><ele>230.0</ele><time>2026-04-30T09:36:44.022Z</time></trkpt><trkpt lat="48.524011487891975" lon="7.351524331032851"><ele>230.0</ele><time>2026-04-30T09:36:45.022Z</time></trkpt><trkpt lat="48.5239982383957" lon="7.351409217607667"><ele>230.16666666666669</ele><time>2026-04-30T09:36:46.022Z</time></trkpt><trkpt lat="48.52391117398914" lon="7.351297192028186"><ele>230.33333333333334</ele><time>2026-04-30T09:36:48.022Z</time></trkpt><trkpt lat="48.52384734931281" lon="7.35127622027215"><ele>230.5</ele><time>2026-04-30T09:36:49.022Z</time></trkpt><trkpt lat="48.52377279885578" lon="7.351301376152455"><ele>230.66666666666669</ele><time>2026-04-30T09:36:50.022Z</time></trkpt><trkpt lat="48.5236912689011" lon="7.3513329610401765"><ele>230.83333333333334</ele><time>2026-04-30T09:36:51.022Z</time></trkpt><trkpt lat="48.52359553043292" lon="7.351351096690417"><ele>231.0</ele><time>2026-04-30T09:36:52.022Z</time></trkpt><trkpt lat="48.5235048309165" lon="7.35137036814523"><ele>231.4</ele><time>2026-04-30T09:36:53.022Z</time></trkpt><trkpt lat="48.5234355060848" lon="7.35139805790506"><ele>231.8</ele><time>2026-04-30T09:36:54.022Z</time></trkpt><trkpt lat="48.52334782181298" lon="7.3514172107753515"><ele>232.20000000000002</ele><time>2026-04-30T09:36:56.022Z</time></trkpt><trkpt lat="48.52320219742328" lon="7.351457799515836"><ele>232.60000000000002</ele><time>2026-04-30T09:36:58.022Z</time></trkpt><trkpt lat="48.5231150398514" lon="7.351443496639675"><ele>233.0</ele><time>2026-04-30T09:36:59.022Z</time></trkpt><trkpt lat="48.52304014544219" lon="7.3514037694017755"><ele>232.8</ele><time>2026-04-30T09:37:00.022Z</time></trkpt><trkpt lat="48.52298398186186" lon="7.351350811576637"><ele>232.60000000000002</ele><time>2026-04-30T09:37:01.022Z</time></trkpt><trkpt lat="48.52297244920427" lon="7.351196874048242"><ele>232.39999999999998</ele><time>2026-04-30T09:37:03.022Z</time></trkpt><trkpt lat="48.52298755495995" lon="7.3511031271364455"><ele>232.2</ele><time>2026-04-30T09:37:04.022Z</time></trkpt><trkpt lat="48.52303063728561" lon="7.350969936802266"><ele>232.0</ele><time>2026-04-30T09:37:05.022Z</time></trkpt><trkpt lat="48.52309036646942" lon="7.350750961201091"><ele>231.0</ele><time>2026-04-30T09:37:06.022Z</time></trkpt><trkpt lat="48.523155704587225" lon="7.350459042795118"><ele>230.0</ele><time>2026-04-30T09:37:07.022Z</time></trkpt><trkpt lat="48.523211343662105" lon="7.3501342697598115"><ele>229.0</ele><time>2026-04-30T09:37:08.022Z</time></trkpt><trkpt lat="48.5232581681135" lon="7.349820533145854"><ele>228.33333333333331</ele><time>2026-04-30T09:37:09.022Z</time></trkpt><trkpt lat="48.523278042882744" lon="7.349543657533149"><ele>227.66666666666669</ele><time>2026-04-30T09:37:10.022Z</time></trkpt><trkpt lat="48.52330755597866" lon="7.349259064955109"><ele>227.0</ele><time>2026-04-30T09:37:11.022Z</time></trkpt><trkpt lat="48.523323210426156" lon="7.3489227832469215"><ele>226.0</ele><time>2026-04-30T09:37:12.022Z</time></trkpt><trkpt lat="48.52333294671786" lon="7.3485946730766445"><ele>225.0</ele><time>2026-04-30T09:37:13.022Z</time></trkpt><trkpt lat="48.523340546816975" lon="7.348238500519712"><ele>226.0</ele><time>2026-04-30T09:37:14.022Z</time></trkpt><trkpt lat="48.523341956469736" lon="7.347887823985167"><ele>227.0</ele><time>2026-04-30T09:37:15.022Z</time></trkpt><trkpt lat="48.52333315616247" lon="7.347517249539385"><ele>227.5</ele><time>2026-04-30T09:37:16.022Z</time></trkpt><trkpt lat="48.52332511059834" lon="7.347159788475923"><ele>228.0</ele><time>2026-04-30T09:37:17.022Z</time></trkpt><trkpt lat="48.523315708270346" lon="7.346813930230169"><ele>228.0</ele><time>2026-04-30T09:37:18.022Z</time></trkpt><trkpt lat="48.52330333337516" lon="7.346464754101951"><ele>228.0</ele><time>2026-04-30T09:37:19.022Z</time></trkpt><trkpt lat="48.523291358806375" lon="7.346120349301553"><ele>227.66666666666669</ele><time>2026-04-30T09:37:20.022Z</time></trkpt><trkpt lat="48.523275122668466" lon="7.34580519517356"><ele>227.33333333333334</ele><time>2026-04-30T09:37:21.022Z</time></trkpt><trkpt lat="48.523246603556345" lon="7.345494688129717"><ele>227.0</ele><time>2026-04-30T09:37:22.021Z</time></trkpt><trkpt lat="48.52321652833734" lon="7.345161951474146"><ele>227.0</ele><time>2026-04-30T09:37:23.021Z</time></trkpt><trkpt lat="48.52318657936739" lon="7.34482827852905"><ele>227.0</ele><time>2026-04-30T09:37:24.021Z</time></trkpt><trkpt lat="48.52315415533765" lon="7.344492255524694"><ele>227.0</ele><time>2026-04-30T09:37:25.021Z</time></trkpt><trkpt lat="48.52312075569821" lon="7.344152700896784"><ele>228.0</ele><time>2026-04-30T09:37:26.021Z</time></trkpt><trkpt lat="48.52309177415525" lon="7.343793128207147"><ele>229.0</ele><time>2026-04-30T09:37:27.021Z</time></trkpt><trkpt lat="48.52305719485003" lon="7.343410888541322"><ele>228.5</ele><time>2026-04-30T09:37:28.021Z</time></trkpt><trkpt lat="48.52302714654385" lon="7.343042488283383"><ele>228.0</ele><time>2026-04-30T09:37:29.021Z</time></trkpt><trkpt lat="48.52300412712544" lon="7.342680143862802"><ele>228.0</ele><time>2026-04-30T09:37:30.021Z</time></trkpt><trkpt lat="48.52297292424056" lon="7.342343695565351"><ele>228.0</ele><time>2026-04-30T09:37:31.021Z</time></trkpt><trkpt lat="48.52294611075094" lon="7.341999822184891"><ele>228.0</ele><time>2026-04-30T09:37:32.021Z</time></trkpt><trkpt lat="48.52292054773661" lon="7.341656944697081"><ele>228.0</ele><time>2026-04-30T09:37:33.021Z</time></trkpt><trkpt lat="48.52289211265913" lon="7.341357056672216"><ele>228.0</ele><time>2026-04-30T09:37:34.021Z</time></trkpt><trkpt lat="48.52285820828765" lon="7.341065285443011"><ele>228.0</ele><time>2026-04-30T09:37:35.021Z</time></trkpt><trkpt lat="48.522817344566455" lon="7.3407693230815445"><ele>228.0</ele><time>2026-04-30T09:37:36.021Z</time></trkpt><trkpt lat="48.522787554655224" lon="7.340494464525501"><ele>228.0</ele><time>2026-04-30T09:37:37.021Z</time></trkpt><trkpt lat="48.522760573482785" lon="7.340236733582105"><ele>228.25</ele><time>2026-04-30T09:37:38.021Z</time></trkpt><trkpt lat="48.52273998917297" lon="7.3400122213551375"><ele>228.5</ele><time>2026-04-30T09:37:39.021Z</time></trkpt><trkpt lat="48.52272355866278" lon="7.339815621460767"><ele>228.75</ele><time>2026-04-30T09:37:40.021Z</time></trkpt><trkpt lat="48.522704817558605" lon="7.339628013434354"><ele>229.0</ele><time>2026-04-30T09:37:41.021Z</time></trkpt><trkpt lat="48.52269333166476" lon="7.339453946482009"><ele>229.0</ele><time>2026-04-30T09:37:42.021Z</time></trkpt><trkpt lat="48.52268682866766" lon="7.33930420036312"><ele>228.99999999999997</ele><time>2026-04-30T09:37:43.021Z</time></trkpt><trkpt lat="48.52267946148582" lon="7.339161067534863"><ele>228.99999999999997</ele><time>2026-04-30T09:37:44.021Z</time></trkpt><trkpt lat="48.52267426998913" lon="7.339027290729079"><ele>229.0</ele><time>2026-04-30T09:37:45.021Z</time></trkpt><trkpt lat="48.52266642807046" lon="7.338911924125344"><ele>229.0</ele><time>2026-04-30T09:37:46.021Z</time></trkpt><trkpt lat="48.52267797365195" lon="7.338760323240014"><ele>229.0</ele><time>2026-04-30T09:37:48.021Z</time></trkpt><trkpt lat="48.52267289027479" lon="7.3388781960939795"><ele>229.0</ele><time>2026-04-30T09:37:53.021Z</time></trkpt><trkpt lat="48.52269231422918" lon="7.339022923935753"><ele>229.0</ele><time>2026-04-30T09:37:54.021Z</time></trkpt><trkpt lat="48.5227054604074" lon="7.339209353479176"><ele>229.0</ele><time>2026-04-30T09:37:55.021Z</time></trkpt><trkpt lat="48.52272149931409" lon="7.339512962027997"><ele>229.0</ele><time>2026-04-30T09:37:56.021Z</time></trkpt><trkpt lat="48.522747878568076" lon="7.339855841666492"><ele>229.0</ele><time>2026-04-30T09:37:57.021Z</time></trkpt><trkpt lat="48.52277873426932" lon="7.34020855230655"><ele>228.5</ele><time>2026-04-30T09:37:58.021Z</time></trkpt><trkpt lat="48.52281664614866" lon="7.340564824345155"><ele>228.0</ele><time>2026-04-30T09:37:59.021Z</time></trkpt><trkpt lat="48.52285942988851" lon="7.340930172341825"><ele>228.0</ele><time>2026-04-30T09:38:00.021Z</time></trkpt><trkpt lat="48.52291464925751" lon="7.341311200491386"><ele>228.0</ele><time>2026-04-30T09:38:01.021Z</time></trkpt><trkpt lat="48.522958550895744" lon="7.341707905336807"><ele>228.0</ele><time>2026-04-30T09:38:02.021Z</time></trkpt><trkpt lat="48.522990970220576" lon="7.342103150610159"><ele>228.0</ele><time>2026-04-30T09:38:03.021Z</time></trkpt><trkpt lat="48.523016402716436" lon="7.342503599894477"><ele>228.0</ele><time>2026-04-30T09:38:04.021Z</time></trkpt><trkpt lat="48.523041875209124" lon="7.342902800963828"><ele>228.0</ele><time>2026-04-30T09:38:05.021Z</time></trkpt><trkpt lat="48.523072784014325" lon="7.343312364979603"><ele>228.5</ele><time>2026-04-30T09:38:06.021Z</time></trkpt><trkpt lat="48.52310672998394" lon="7.3437100573243015"><ele>229.0</ele><time>2026-04-30T09:38:07.021Z</time></trkpt><trkpt lat="48.523135096970584" lon="7.344104162749072"><ele>228.0</ele><time>2026-04-30T09:38:08.021Z</time></trkpt><trkpt lat="48.523164160974225" lon="7.3445053582641275"><ele>227.0</ele><time>2026-04-30T09:38:09.021Z</time></trkpt><trkpt lat="48.523196927345474" lon="7.34489804570376"><ele>227.0</ele><time>2026-04-30T09:38:10.021Z</time></trkpt><trkpt lat="48.52323354733366" lon="7.345292424040603"><ele>227.0</ele><time>2026-04-30T09:38:11.021Z</time></trkpt><trkpt lat="48.52325692931481" lon="7.345666443868984"><ele>227.0</ele><time>2026-04-30T09:38:12.021Z</time></trkpt><trkpt lat="48.52329027122372" lon="7.346052761974289"><ele>227.0</ele><time>2026-04-30T09:38:13.021Z</time></trkpt><trkpt lat="48.523318846589156" lon="7.346419013312978"><ele>227.5</ele><time>2026-04-30T09:38:14.021Z</time></trkpt><trkpt lat="48.52333466099123" lon="7.346766351820662"><ele>228.0</ele><time>2026-04-30T09:38:15.021Z</time></trkpt><trkpt lat="48.523347125676864" lon="7.347112880910643"><ele>227.5</ele><time>2026-04-30T09:38:16.021Z</time></trkpt><trkpt lat="48.52335784636936" lon="7.347437961907991"><ele>227.0</ele><time>2026-04-30T09:38:17.021Z</time></trkpt><trkpt lat="48.523359521757655" lon="7.347793833550707"><ele>226.33333333333334</ele><time>2026-04-30T09:38:18.021Z</time></trkpt><trkpt lat="48.5233660642279" lon="7.348125955129681"><ele>225.66666666666669</ele><time>2026-04-30T09:38:19.021Z</time></trkpt><trkpt lat="48.52336113971676" lon="7.3484609984976474"><ele>225.0</ele><time>2026-04-30T09:38:20.021Z</time></trkpt><trkpt lat="48.52335237112158" lon="7.348795267772753"><ele>225.66666666666669</ele><time>2026-04-30T09:38:21.021Z</time></trkpt><trkpt lat="48.52333469877823" lon="7.349129680313775"><ele>226.33333333333334</ele><time>2026-04-30T09:38:22.021Z</time></trkpt><trkpt lat="48.523305885330345" lon="7.349438186916815"><ele>227.0</ele><time>2026-04-30T09:38:23.021Z</time></trkpt><trkpt lat="48.52327733099197" lon="7.349730527579821"><ele>227.66666666666669</ele><time>2026-04-30T09:38:24.021Z</time></trkpt><trkpt lat="48.523243891584805" lon="7.35002825458835"><ele>228.33333333333331</ele><time>2026-04-30T09:38:25.021Z</time></trkpt><trkpt lat="48.52319721196305" lon="7.350304569191629"><ele>229.0</ele><time>2026-04-30T09:38:26.021Z</time></trkpt><trkpt lat="48.52314826568364" lon="7.35057984711606"><ele>229.75</ele><time>2026-04-30T09:38:27.021Z</time></trkpt><trkpt lat="48.52310286776081" lon="7.350815170160525"><ele>230.5</ele><time>2026-04-30T09:38:28.021Z</time></trkpt><trkpt lat="48.52305813115177" lon="7.351012802967672"><ele>231.25</ele><time>2026-04-30T09:38:29.021Z</time></trkpt><trkpt lat="48.52302070925572" lon="7.351165424307134"><ele>232.0</ele><time>2026-04-30T09:38:30.021Z</time></trkpt><trkpt lat="48.52297499018745" lon="7.351276157098526"><ele>232.0</ele><time>2026-04-30T09:38:31.021Z</time></trkpt><trkpt lat="48.522949006734244" lon="7.351364083597008"><ele>232.0</ele><time>2026-04-30T09:38:33.021Z</time></trkpt><trkpt lat="48.52305841364328" lon="7.351458717548058"><ele>232.0</ele><time>2026-04-30T09:38:35.021Z</time></trkpt><trkpt lat="48.52314864154727" lon="7.351473494683366"><ele>232.0</ele><time>2026-04-30T09:38:36.021Z</time></trkpt><trkpt lat="48.52323258476143" lon="7.351515687710081"><ele>232.0</ele><time>2026-04-30T09:38:45.023Z</time></trkpt><trkpt lat="48.5231898072795" lon="7.3517701638941455"><ele>232.33333333333331</ele><time>2026-04-30T09:38:47.023Z</time></trkpt><trkpt lat="48.5231305520824" lon="7.351974655257614"><ele>232.66666666666669</ele><time>2026-04-30T09:38:48.023Z</time></trkpt><trkpt lat="48.52304710270921" lon="7.352263053507271"><ele>233.0</ele><time>2026-04-30T09:38:49.022Z</time></trkpt><trkpt lat="48.52293483958605" lon="7.352597432005418"><ele>231.5</ele><time>2026-04-30T09:38:50.022Z</time></trkpt><trkpt lat="48.52281209491625" lon="7.352928487682432"><ele>230.0</ele><time>2026-04-30T09:38:51.023Z</time></trkpt><trkpt lat="48.52269845039667" lon="7.353247094226035"><ele>228.66666666666669</ele><time>2026-04-30T09:38:52.023Z</time></trkpt><trkpt lat="48.52258501648778" lon="7.353521646113393"><ele>227.33333333333331</ele><time>2026-04-30T09:38:53.023Z</time></trkpt><trkpt lat="48.52247612600438" lon="7.353772972104906"><ele>226.0</ele><time>2026-04-30T09:38:54.023Z</time></trkpt><trkpt lat="48.52236637416702" lon="7.354012136887455"><ele>225.66666666666666</ele><time>2026-04-30T09:38:55.023Z</time></trkpt><trkpt lat="48.52225123324181" lon="7.3542661580896285"><ele>225.33333333333331</ele><time>2026-04-30T09:38:56.023Z</time></trkpt><trkpt lat="48.52211731103888" lon="7.3545394107702515"><ele>225.0</ele><time>2026-04-30T09:38:57.023Z</time></trkpt><trkpt lat="48.52198796637238" lon="7.354786551493118"><ele>225.0</ele><time>2026-04-30T09:38:58.023Z</time></trkpt><trkpt lat="48.521866881106426" lon="7.35500271106656"><ele>225.0</ele><time>2026-04-30T09:38:59.023Z</time></trkpt><trkpt lat="48.52174282328752" lon="7.355211497276631"><ele>225.0</ele><time>2026-04-30T09:39:00.023Z</time></trkpt><trkpt lat="48.52161785951276" lon="7.35542896496024"><ele>224.66666666666669</ele><time>2026-04-30T09:39:01.023Z</time></trkpt><trkpt lat="48.521506086375574" lon="7.355622899856138"><ele>224.33333333333334</ele><time>2026-04-30T09:39:02.023Z</time></trkpt><trkpt lat="48.52139207443553" lon="7.355821809718601"><ele>224.0</ele><time>2026-04-30T09:39:03.023Z</time></trkpt><trkpt lat="48.521285342947984" lon="7.356022547205525"><ele>223.66666666666669</ele><time>2026-04-30T09:39:04.023Z</time></trkpt><trkpt lat="48.521175027354886" lon="7.356225693661154"><ele>223.33333333333331</ele><time>2026-04-30T09:39:05.023Z</time></trkpt><trkpt lat="48.52106376078963" lon="7.356450726149288"><ele>223.0</ele><time>2026-04-30T09:39:06.023Z</time></trkpt><trkpt lat="48.52095491626424" lon="7.356658988982845"><ele>223.0</ele><time>2026-04-30T09:39:07.023Z</time></trkpt><trkpt lat="48.5208492922231" lon="7.3568870252452205"><ele>223.0</ele><time>2026-04-30T09:39:08.023Z</time></trkpt><trkpt lat="48.52074884367682" lon="7.3571252530074025"><ele>223.0</ele><time>2026-04-30T09:39:09.023Z</time></trkpt><trkpt lat="48.52065252578127" lon="7.357376856340768"><ele>222.66666666666666</ele><time>2026-04-30T09:39:10.023Z</time></trkpt><trkpt lat="48.52056317680728" lon="7.357632801982542"><ele>222.33333333333331</ele><time>2026-04-30T09:39:11.023Z</time></trkpt><trkpt lat="48.5204713553273" lon="7.3579028915031826"><ele>222.0</ele><time>2026-04-30T09:39:12.023Z</time></trkpt><trkpt lat="48.520380200624864" lon="7.358186450899592"><ele>222.0</ele><time>2026-04-30T09:39:13.023Z</time></trkpt><trkpt lat="48.52031478685535" lon="7.35844878457797"><ele>222.0</ele><time>2026-04-30T09:39:14.023Z</time></trkpt><trkpt lat="48.52025028636" lon="7.358727961721109"><ele>222.0</ele><time>2026-04-30T09:39:15.023Z</time></trkpt><trkpt lat="48.52018950456612" lon="7.359012872297821"><ele>222.33333333333331</ele><time>2026-04-30T09:39:16.023Z</time></trkpt><trkpt lat="48.52013862589258" lon="7.359305031324721"><ele>222.66666666666666</ele><time>2026-04-30T09:39:17.023Z</time></trkpt><trkpt lat="48.52009283863751" lon="7.3595881467974404"><ele>223.0</ele><time>2026-04-30T09:39:18.023Z</time></trkpt><trkpt lat="48.52005624033432" lon="7.3598580122329045"><ele>223.0</ele><time>2026-04-30T09:39:19.023Z</time></trkpt><trkpt lat="48.52002073761855" lon="7.360125873123346"><ele>223.0</ele><time>2026-04-30T09:39:20.023Z</time></trkpt><trkpt lat="48.51999433507357" lon="7.360388396050065"><ele>223.0</ele><time>2026-04-30T09:39:21.023Z</time></trkpt><trkpt lat="48.51997954005248" lon="7.360655843933102"><ele>223.0</ele><time>2026-04-30T09:39:22.023Z</time></trkpt><trkpt lat="48.519966823804744" lon="7.360922134706561"><ele>223.0</ele><time>2026-04-30T09:39:23.023Z</time></trkpt><trkpt lat="48.51996259256964" lon="7.361202516227734"><ele>223.0</ele><time>2026-04-30T09:39:24.023Z</time></trkpt><trkpt lat="48.51996587831604" lon="7.361484151416226"><ele>222.66666666666666</ele><time>2026-04-30T09:39:25.023Z</time></trkpt><trkpt lat="48.519970771709225" lon="7.361761318028821"><ele>222.33333333333331</ele><time>2026-04-30T09:39:26.023Z</time></trkpt><trkpt lat="48.519983986248604" lon="7.36204137858514"><ele>222.0</ele><time>2026-04-30T09:39:27.023Z</time></trkpt><trkpt lat="48.52000565079783" lon="7.362327122964081"><ele>222.0</ele><time>2026-04-30T09:39:28.023Z</time></trkpt><trkpt lat="48.52003432418355" lon="7.362609825421476"><ele>222.0</ele><time>2026-04-30T09:39:29.023Z</time></trkpt><trkpt lat="48.520067633719705" lon="7.362908129920712"><ele>222.0</ele><time>2026-04-30T09:39:30.023Z</time></trkpt><trkpt lat="48.52010799061687" lon="7.363229886976388"><ele>221.66666666666669</ele><time>2026-04-30T09:39:31.023Z</time></trkpt><trkpt lat="48.52016040545974" lon="7.363531450174863"><ele>221.33333333333334</ele><time>2026-04-30T09:39:32.023Z</time></trkpt><trkpt lat="48.52022027938132" lon="7.363810488377647"><ele>221.0</ele><time>2026-04-30T09:39:33.023Z</time></trkpt><trkpt lat="48.5202779565838" lon="7.3640642799675575"><ele>220.66666666666669</ele><time>2026-04-30T09:39:34.023Z</time></trkpt><trkpt lat="48.52034205998083" lon="7.364311772273408"><ele>220.33333333333331</ele><time>2026-04-30T09:39:35.023Z</time></trkpt><trkpt lat="48.5204072962387" lon="7.364558885373491"><ele>220.0</ele><time>2026-04-30T09:39:36.023Z</time></trkpt><trkpt lat="48.520482075897775" lon="7.364802451292838"><ele>220.0</ele><time>2026-04-30T09:39:37.023Z</time></trkpt><trkpt lat="48.520569977458614" lon="7.365050189413459"><ele>220.0</ele><time>2026-04-30T09:39:38.023Z</time></trkpt><trkpt lat="48.52066010951448" lon="7.365309044667001"><ele>220.0</ele><time>2026-04-30T09:39:39.023Z</time></trkpt><trkpt lat="48.520752974623186" lon="7.3655625194271375"><ele>220.0</ele><time>2026-04-30T09:39:40.023Z</time></trkpt><trkpt lat="48.520858780052" lon="7.365816636261831"><ele>220.0</ele><time>2026-04-30T09:39:41.023Z</time></trkpt><trkpt lat="48.520963791516735" lon="7.366063258227606"><ele>220.0</ele><time>2026-04-30T09:39:42.023Z</time></trkpt><trkpt lat="48.52107900238698" lon="7.366300119294776"><ele>220.33333333333331</ele><time>2026-04-30T09:39:43.023Z</time></trkpt><trkpt lat="48.52120107796103" lon="7.366531368108983"><ele>220.66666666666669</ele><time>2026-04-30T09:39:44.023Z</time></trkpt><trkpt lat="48.52132367727476" lon="7.3667600234575366"><ele>221.0</ele><time>2026-04-30T09:39:45.023Z</time></trkpt><trkpt lat="48.52145475090757" lon="7.366976245600109"><ele>221.66666666666669</ele><time>2026-04-30T09:39:46.023Z</time></trkpt><trkpt lat="48.521590405445025" lon="7.367189939735445"><ele>222.33333333333331</ele><time>2026-04-30T09:39:47.023Z</time></trkpt><trkpt lat="48.52172632087502" lon="7.367397930991488"><ele>223.0</ele><time>2026-04-30T09:39:48.023Z</time></trkpt><trkpt lat="48.521839226215256" lon="7.3676255464305225"><ele>223.0</ele><time>2026-04-30T09:39:49.023Z</time></trkpt><trkpt lat="48.52198077286019" lon="7.367839899071424"><ele>223.0</ele><time>2026-04-30T09:39:50.023Z</time></trkpt><trkpt lat="48.522102957562936" lon="7.368078201819373"><ele>223.0</ele><time>2026-04-30T09:39:51.023Z</time></trkpt><trkpt lat="48.522235763840946" lon="7.3683128821352355"><ele>223.0</ele><time>2026-04-30T09:39:52.023Z</time></trkpt><trkpt lat="48.52237235942623" lon="7.368546347166377"><ele>223.0</ele><time>2026-04-30T09:39:53.023Z</time></trkpt><trkpt lat="48.52250207294903" lon="7.36878539639214"><ele>223.0</ele><time>2026-04-30T09:39:54.023Z</time></trkpt><trkpt lat="48.52263761976725" lon="7.369022023270684"><ele>222.33333333333331</ele><time>2026-04-30T09:39:55.023Z</time></trkpt><trkpt lat="48.522773163062126" lon="7.369251129911689"><ele>221.66666666666669</ele><time>2026-04-30T09:39:56.023Z</time></trkpt><trkpt lat="48.522909905549504" lon="7.369496478309111"><ele>221.0</ele><time>2026-04-30T09:39:57.023Z</time></trkpt><trkpt lat="48.52304157836424" lon="7.369749655133688"><ele>220.66666666666669</ele><time>2026-04-30T09:39:58.023Z</time></trkpt><trkpt lat="48.52317189503864" lon="7.369993910085678"><ele>220.33333333333331</ele><time>2026-04-30T09:39:59.023Z</time></trkpt><trkpt lat="48.52331086937386" lon="7.370236256916393"><ele>220.0</ele><time>2026-04-30T09:40:00.023Z</time></trkpt><trkpt lat="48.5234528002809" lon="7.370480495575458"><ele>220.0</ele><time>2026-04-30T09:40:01.023Z</time></trkpt><trkpt lat="48.52359595510265" lon="7.370730797945632"><ele>220.0</ele><time>2026-04-30T09:40:02.023Z</time></trkpt><trkpt lat="48.52374091269035" lon="7.370971952421717"><ele>220.0</ele><time>2026-04-30T09:40:03.023Z</time></trkpt><trkpt lat="48.52388078448073" lon="7.3712157279351445"><ele>219.33333333333331</ele><time>2026-04-30T09:40:04.023Z</time></trkpt><trkpt lat="48.524018156765706" lon="7.371447247552425"><ele>218.66666666666669</ele><time>2026-04-30T09:40:05.023Z</time></trkpt><trkpt lat="48.5241611826083" lon="7.37167273409387"><ele>218.0</ele><time>2026-04-30T09:40:06.023Z</time></trkpt><trkpt lat="48.524291377370744" lon="7.371901406921025"><ele>218.0</ele><time>2026-04-30T09:40:07.023Z</time></trkpt><trkpt lat="48.52442733176257" lon="7.372127765128943"><ele>218.0</ele><time>2026-04-30T09:40:08.023Z</time></trkpt><trkpt lat="48.524555638134515" lon="7.372355621910203"><ele>218.0</ele><time>2026-04-30T09:40:09.022Z</time></trkpt><trkpt lat="48.52468448894256" lon="7.37258407591108"><ele>218.0</ele><time>2026-04-30T09:40:10.022Z</time></trkpt><trkpt lat="48.5248166592807" lon="7.372806651591842"><ele>218.0</ele><time>2026-04-30T09:40:11.022Z</time></trkpt><trkpt lat="48.52495221650182" lon="7.373035188349567"><ele>218.0</ele><time>2026-04-30T09:40:12.022Z</time></trkpt><trkpt lat="48.52507934103838" lon="7.373263157904821"><ele>218.0</ele><time>2026-04-30T09:40:13.022Z</time></trkpt><trkpt lat="48.525201896578515" lon="7.373491169765819"><ele>218.0</ele><time>2026-04-30T09:40:14.022Z</time></trkpt><trkpt lat="48.52533119450131" lon="7.373720205590932"><ele>218.0</ele><time>2026-04-30T09:40:15.022Z</time></trkpt><trkpt lat="48.525459081142614" lon="7.373937921030291"><ele>219.66666666666669</ele><time>2026-04-30T09:40:16.022Z</time></trkpt><trkpt lat="48.525596782732265" lon="7.374169106290426"><ele>221.33333333333331</ele><time>2026-04-30T09:40:17.022Z</time></trkpt><trkpt lat="48.52573835674608" lon="7.374400854768043"><ele>223.0</ele><time>2026-04-30T09:40:18.022Z</time></trkpt><trkpt lat="48.52588657278224" lon="7.374640368278389"><ele>221.33333333333331</ele><time>2026-04-30T09:40:19.022Z</time></trkpt><trkpt lat="48.52603543990501" lon="7.374884375585415"><ele>219.66666666666669</ele><time>2026-04-30T09:40:20.022Z</time></trkpt><trkpt lat="48.52618178733084" lon="7.375121768659241"><ele>218.0</ele><time>2026-04-30T09:40:21.022Z</time></trkpt><trkpt lat="48.52633162870525" lon="7.375360605308328"><ele>217.66666666666669</ele><time>2026-04-30T09:40:22.022Z</time></trkpt><trkpt lat="48.526487070511514" lon="7.375606946510228"><ele>217.33333333333331</ele><time>2026-04-30T09:40:23.022Z</time></trkpt><trkpt lat="48.52664522618612" lon="7.375841255009197"><ele>217.0</ele><time>2026-04-30T09:40:24.022Z</time></trkpt><trkpt lat="48.52680132615895" lon="7.376067581813514"><ele>217.0</ele><time>2026-04-30T09:40:25.022Z</time></trkpt><trkpt lat="48.526951894764636" lon="7.3762907952106795"><ele>217.0</ele><time>2026-04-30T09:40:26.022Z</time></trkpt><trkpt lat="48.52710137373311" lon="7.3765112884399215"><ele>217.0</ele><time>2026-04-30T09:40:27.022Z</time></trkpt><trkpt lat="48.527253330442775" lon="7.376726239927639"><ele>216.66666666666666</ele><time>2026-04-30T09:40:28.022Z</time></trkpt><trkpt lat="48.527395090671654" lon="7.37693946563501"><ele>216.33333333333331</ele><time>2026-04-30T09:40:29.022Z</time></trkpt><trkpt lat="48.5275371232025" lon="7.377151441146063"><ele>216.0</ele><time>2026-04-30T09:40:30.022Z</time></trkpt><trkpt lat="48.52766864854023" lon="7.377365591499024"><ele>215.33333333333331</ele><time>2026-04-30T09:40:31.022Z</time></trkpt><trkpt lat="48.52779877265501" lon="7.377579153596749"><ele>214.66666666666666</ele><time>2026-04-30T09:40:32.022Z</time></trkpt><trkpt lat="48.52792763974707" lon="7.377785397307178"><ele>214.0</ele><time>2026-04-30T09:40:33.022Z</time></trkpt><trkpt lat="48.52805800064648" lon="7.377993115428692"><ele>213.33333333333331</ele><time>2026-04-30T09:40:34.022Z</time></trkpt><trkpt lat="48.52819122640732" lon="7.378198921886232"><ele>212.66666666666669</ele><time>2026-04-30T09:40:35.022Z</time></trkpt><trkpt lat="48.528324131501975" lon="7.378400545922509"><ele>212.0</ele><time>2026-04-30T09:40:36.022Z</time></trkpt><trkpt lat="48.528450923987165" lon="7.378587032842971"><ele>212.0</ele><time>2026-04-30T09:40:37.022Z</time></trkpt><trkpt lat="48.5285757425899" lon="7.3787831533163795"><ele>212.0</ele><time>2026-04-30T09:40:38.022Z</time></trkpt><trkpt lat="48.528708083045096" lon="7.378975513950681"><ele>212.0</ele><time>2026-04-30T09:40:39.022Z</time></trkpt><trkpt lat="48.52883186928916" lon="7.379163222794774"><ele>213.66666666666669</ele><time>2026-04-30T09:40:40.022Z</time></trkpt><trkpt lat="48.52895291196711" lon="7.379332191448455"><ele>215.33333333333331</ele><time>2026-04-30T09:40:41.022Z</time></trkpt><trkpt lat="48.529070509000036" lon="7.379496926517972"><ele>217.0</ele><time>2026-04-30T09:40:42.022Z</time></trkpt><trkpt lat="48.52918866179659" lon="7.379675099787841"><ele>216.75</ele><time>2026-04-30T09:40:43.022Z</time></trkpt><trkpt lat="48.529301579698824" lon="7.379845062172402"><ele>216.5</ele><time>2026-04-30T09:40:44.022Z</time></trkpt><trkpt lat="48.52940186202287" lon="7.380000997474684"><ele>216.25</ele><time>2026-04-30T09:40:45.024Z</time></trkpt><trkpt lat="48.529494422170636" lon="7.380139413914732"><ele>216.0</ele><time>2026-04-30T09:40:46.024Z</time></trkpt><trkpt lat="48.529572204417946" lon="7.380253523345963"><ele>216.0</ele><time>2026-04-30T09:40:47.024Z</time></trkpt><trkpt lat="48.52963845096038" lon="7.38035089703066"><ele>216.0</ele><time>2026-04-30T09:40:48.024Z</time></trkpt><trkpt lat="48.52968363356465" lon="7.380437163716385"><ele>216.0</ele><time>2026-04-30T09:40:49.023Z</time></trkpt><trkpt lat="48.52972050310137" lon="7.380521753574237"><ele>216.0</ele><time>2026-04-30T09:40:50.023Z</time></trkpt><trkpt lat="48.529727899565515" lon="7.380619515219781"><ele>216.0</ele><time>2026-04-30T09:40:51.025Z</time></trkpt><trkpt lat="48.52969946501674" lon="7.380725100188408"><ele>216.0</ele><time>2026-04-30T09:40:52.024Z</time></trkpt><trkpt lat="48.529671270656216" lon="7.380825438016162"><ele>216.0</ele><time>2026-04-30T09:40:53.024Z</time></trkpt><trkpt lat="48.52967954790252" lon="7.3809601622122045"><ele>215.8</ele><time>2026-04-30T09:40:54.024Z</time></trkpt><trkpt lat="48.529715509330934" lon="7.381084485488029"><ele>215.60000000000002</ele><time>2026-04-30T09:40:55.024Z</time></trkpt><trkpt lat="48.52978039921179" lon="7.3811846199391855"><ele>215.4</ele><time>2026-04-30T09:40:56.024Z</time></trkpt><trkpt lat="48.529868233852234" lon="7.381246410314384"><ele>215.2</ele><time>2026-04-30T09:40:57.024Z</time></trkpt><trkpt lat="48.52996679858744" lon="7.381281432288501"><ele>215.0</ele><time>2026-04-30T09:40:58.024Z</time></trkpt><trkpt lat="48.530073774625606" lon="7.381303292405057"><ele>215.0</ele><time>2026-04-30T09:40:59.024Z</time></trkpt><trkpt lat="48.53017302980822" lon="7.381288185802368"><ele>215.0</ele><time>2026-04-30T09:41:00.024Z</time></trkpt><trkpt lat="48.53026002087597" lon="7.381226229817981"><ele>215.0</ele><time>2026-04-30T09:41:01.024Z</time></trkpt><trkpt lat="48.530314665447996" lon="7.381107151153158"><ele>215.0</ele><time>2026-04-30T09:41:02.024Z</time></trkpt><trkpt lat="48.53034670811299" lon="7.380918153621656"><ele>215.0</ele><time>2026-04-30T09:41:03.024Z</time></trkpt><trkpt lat="48.530385838308426" lon="7.38071472759097"><ele>215.0</ele><time>2026-04-30T09:41:04.024Z</time></trkpt><trkpt lat="48.53045543885335" lon="7.380546113227605"><ele>215.0</ele><time>2026-04-30T09:41:05.024Z</time></trkpt><trkpt lat="48.53056668265684" lon="7.380460769911191"><ele>215.0</ele><time>2026-04-30T09:41:06.024Z</time></trkpt><trkpt lat="48.53070607694075" lon="7.380421196611835"><ele>215.0</ele><time>2026-04-30T09:41:07.024Z</time></trkpt><trkpt lat="48.53086684329519" lon="7.380368846565411"><ele>215.0</ele><time>2026-04-30T09:41:08.024Z</time></trkpt><trkpt lat="48.53100810432161" lon="7.380319193583283"><ele>215.0</ele><time>2026-04-30T09:41:09.024Z</time></trkpt><trkpt lat="48.531112170595705" lon="7.380263977178532"><ele>215.0</ele><time>2026-04-30T09:41:10.024Z</time></trkpt><trkpt lat="48.53120075531889" lon="7.38022013207626"><ele>215.0</ele><time>2026-04-30T09:41:11.024Z</time></trkpt><trkpt lat="48.53126485917681" lon="7.380201593875153"><ele>215.0</ele><time>2026-04-30T09:41:12.024Z</time></trkpt><trkpt lat="48.531314696954915" lon="7.380279567822335"><ele>214.8</ele><time>2026-04-30T09:41:14.024Z</time></trkpt><trkpt lat="48.53135436867085" lon="7.3804837381736785"><ele>214.6</ele><time>2026-04-30T09:41:16.024Z</time></trkpt><trkpt lat="48.53139830109365" lon="7.380629450880598"><ele>214.39999999999998</ele><time>2026-04-30T09:41:17.024Z</time></trkpt><trkpt lat="48.5314467101674" lon="7.380744386920728"><ele>214.2</ele><time>2026-04-30T09:41:18.024Z</time></trkpt><trkpt lat="48.53151381544121" lon="7.380808444768953"><ele>214.0</ele><time>2026-04-30T09:41:19.024Z</time></trkpt><trkpt lat="48.531573423885725" lon="7.3808505801704145"><ele>213.75</ele><time>2026-04-30T09:41:20.024Z</time></trkpt><trkpt lat="48.53167943114009" lon="7.380910899426579"><ele>213.5</ele><time>2026-04-30T09:41:22.024Z</time></trkpt><trkpt lat="48.53177753791962" lon="7.381006824452963"><ele>213.25</ele><time>2026-04-30T09:41:24.024Z</time></trkpt><trkpt lat="48.5318516853699" lon="7.38113154128945"><ele>213.0</ele><time>2026-04-30T09:41:26.024Z</time></trkpt><trkpt lat="48.53193869314862" lon="7.381238075499465"><ele>213.0</ele><time>2026-04-30T09:41:28.024Z</time></trkpt><trkpt lat="48.53199869611878" lon="7.381281823764425"><ele>213.0</ele><time>2026-04-30T09:41:29.024Z</time></trkpt><trkpt lat="48.53209646013277" lon="7.3813332487860785"><ele>213.0</ele><time>2026-04-30T09:41:31.024Z</time></trkpt><trkpt lat="48.53215519760487" lon="7.38141635533419"><ele>213.0</ele><time>2026-04-30T09:41:33.024Z</time></trkpt><trkpt lat="48.53225959592041" lon="7.38151983160633"><ele>213.0</ele><time>2026-04-30T09:41:35.024Z</time></trkpt><trkpt lat="48.532334864554535" lon="7.3815233447794695"><ele>212.99999999999997</ele><time>2026-04-30T09:41:36.024Z</time></trkpt><trkpt lat="48.53240668360818" lon="7.381488535868008"><ele>213.0</ele><time>2026-04-30T09:41:37.024Z</time></trkpt><trkpt lat="48.532468117174346" lon="7.381467559737552"><ele>213.0</ele><time>2026-04-30T09:41:38.024Z</time></trkpt><trkpt lat="48.53253851924235" lon="7.381482787689127"><ele>213.0</ele><time>2026-04-30T09:41:39.024Z</time></trkpt><trkpt lat="48.532591916006936" lon="7.381544517303179"><ele>213.0</ele><time>2026-04-30T09:41:40.024Z</time></trkpt><trkpt lat="48.532638360931" lon="7.38163036611773"><ele>212.99999999999997</ele><time>2026-04-30T09:41:41.024Z</time></trkpt><trkpt lat="48.5326923269434" lon="7.381711274061284"><ele>213.0</ele><time>2026-04-30T09:41:42.024Z</time></trkpt><trkpt lat="48.53275099016992" lon="7.381795168267306"><ele>213.0</ele><time>2026-04-30T09:41:43.024Z</time></trkpt><trkpt lat="48.53282192511416" lon="7.38185898307766"><ele>213.0</ele><time>2026-04-30T09:41:44.024Z</time></trkpt><trkpt lat="48.53287285491555" lon="7.381951355548885"><ele>213.0</ele><time>2026-04-30T09:41:45.024Z</time></trkpt><trkpt lat="48.53290544807187" lon="7.382096306718458"><ele>213.0</ele><time>2026-04-30T09:41:46.024Z</time></trkpt><trkpt lat="48.532950092737025" lon="7.382295118422444"><ele>213.0</ele><time>2026-04-30T09:41:47.024Z</time></trkpt><trkpt lat="48.533024893006825" lon="7.382538980958737"><ele>212.5</ele><time>2026-04-30T09:41:48.024Z</time></trkpt><trkpt lat="48.53308976452188" lon="7.3827537876762275"><ele>212.0</ele><time>2026-04-30T09:41:49.024Z</time></trkpt><trkpt lat="48.53312950807477" lon="7.382936980238652"><ele>211.5</ele><time>2026-04-30T09:41:50.024Z</time></trkpt><trkpt lat="48.53316993745496" lon="7.383108113183401"><ele>211.0</ele><time>2026-04-30T09:41:51.024Z</time></trkpt><trkpt lat="48.5332038194319" lon="7.383274009067176"><ele>211.0</ele><time>2026-04-30T09:41:52.024Z</time></trkpt><trkpt lat="48.53323691969049" lon="7.383421664841695"><ele>211.0</ele><time>2026-04-30T09:41:53.024Z</time></trkpt><trkpt lat="48.53325863694348" lon="7.383571237549129"><ele>211.0</ele><time>2026-04-30T09:41:54.024Z</time></trkpt><trkpt lat="48.533281079461155" lon="7.383694875287554"><ele>211.0</ele><time>2026-04-30T09:41:55.024Z</time></trkpt><trkpt lat="48.533307822009846" lon="7.383827102556632"><ele>211.0</ele><time>2026-04-30T09:41:56.024Z</time></trkpt><trkpt lat="48.53333391701245" lon="7.383969601242032"><ele>210.83333333333331</ele><time>2026-04-30T09:41:57.024Z</time></trkpt><trkpt lat="48.53334903360133" lon="7.3840827397404025"><ele>210.66666666666666</ele><time>2026-04-30T09:41:58.024Z</time></trkpt><trkpt lat="48.53337103340377" lon="7.384255031810069"><ele>210.5</ele><time>2026-04-30T09:42:00.024Z</time></trkpt><trkpt lat="48.53338828917604" lon="7.384348100436194"><ele>210.33333333333331</ele><time>2026-04-30T09:42:01.024Z</time></trkpt><trkpt lat="48.53339820170867" lon="7.384462641799183"><ele>210.16666666666666</ele><time>2026-04-30T09:42:02.024Z</time></trkpt><trkpt lat="48.53339615564296" lon="7.384569491018501"><ele>210.0</ele><time>2026-04-30T09:42:03.024Z</time></trkpt><trkpt lat="48.5333811483492" lon="7.384689753508897"><ele>209.6</ele><time>2026-04-30T09:42:04.024Z</time></trkpt><trkpt lat="48.53336431904403" lon="7.384826966315549"><ele>209.2</ele><time>2026-04-30T09:42:05.024Z</time></trkpt><trkpt lat="48.533347218750386" lon="7.3849596742661126"><ele>208.8</ele><time>2026-04-30T09:42:06.024Z</time></trkpt><trkpt lat="48.533337948473424" lon="7.385101182330326"><ele>208.4</ele><time>2026-04-30T09:42:07.024Z</time></trkpt><trkpt lat="48.53334310286028" lon="7.3852489891288275"><ele>208.0</ele><time>2026-04-30T09:42:08.024Z</time></trkpt><trkpt lat="48.53335944676005" lon="7.385393653644363"><ele>208.4</ele><time>2026-04-30T09:42:09.024Z</time></trkpt><trkpt lat="48.53338178613244" lon="7.385531033098603"><ele>208.8</ele><time>2026-04-30T09:42:10.024Z</time></trkpt><trkpt lat="48.53340914397378" lon="7.3856758415452575"><ele>209.2</ele><time>2026-04-30T09:42:11.024Z</time></trkpt><trkpt lat="48.53344209101899" lon="7.385824362579179"><ele>209.6</ele><time>2026-04-30T09:42:12.024Z</time></trkpt><trkpt lat="48.53345714834148" lon="7.38598734684761"><ele>210.0</ele><time>2026-04-30T09:42:13.024Z</time></trkpt><trkpt lat="48.533478310660776" lon="7.386145044118466"><ele>210.0</ele><time>2026-04-30T09:42:14.024Z</time></trkpt><trkpt lat="48.53348999022221" lon="7.386353483693419"><ele>210.0</ele><time>2026-04-30T09:42:15.024Z</time></trkpt><trkpt lat="48.53352652285576" lon="7.386568864738114"><ele>210.0</ele><time>2026-04-30T09:42:16.024Z</time></trkpt><trkpt lat="48.53356094981779" lon="7.386738810010283"><ele>210.0</ele><time>2026-04-30T09:42:17.024Z</time></trkpt><trkpt lat="48.53360226521201" lon="7.386927683586445"><ele>210.0</ele><time>2026-04-30T09:42:18.024Z</time></trkpt><trkpt lat="48.53365184551942" lon="7.387124094729652"><ele>210.0</ele><time>2026-04-30T09:42:19.024Z</time></trkpt><trkpt lat="48.5336897814464" lon="7.387352078764088"><ele>210.0</ele><time>2026-04-30T09:42:20.024Z</time></trkpt><trkpt lat="48.533708784712424" lon="7.3876087386044835"><ele>210.0</ele><time>2026-04-30T09:42:21.024Z</time></trkpt><trkpt lat="48.53371889888275" lon="7.387850645483095"><ele>210.0</ele><time>2026-04-30T09:42:22.024Z</time></trkpt><trkpt lat="48.533726685963025" lon="7.388110008128065"><ele>210.0</ele><time>2026-04-30T09:42:23.024Z</time></trkpt><trkpt lat="48.53372528513818" lon="7.388428394734881"><ele>210.33333333333331</ele><time>2026-04-30T09:42:24.024Z</time></trkpt><trkpt lat="48.53373483513668" lon="7.388720043683531"><ele>210.66666666666666</ele><time>2026-04-30T09:42:25.024Z</time></trkpt><trkpt lat="48.53373653470807" lon="7.388975406207078"><ele>211.0</ele><time>2026-04-30T09:42:26.024Z</time></trkpt><trkpt lat="48.53373746661406" lon="7.389212484389958"><ele>211.0</ele><time>2026-04-30T09:42:27.024Z</time></trkpt><trkpt lat="48.53373699457837" lon="7.389439013298026"><ele>211.0</ele><time>2026-04-30T09:42:28.024Z</time></trkpt><trkpt lat="48.53373847182539" lon="7.3896709932690285"><ele>211.0</ele><time>2026-04-30T09:42:29.024Z</time></trkpt><trkpt lat="48.533724650437016" lon="7.389905435383679"><ele>210.66666666666666</ele><time>2026-04-30T09:42:30.024Z</time></trkpt><trkpt lat="48.533711380315644" lon="7.3901485959383475"><ele>210.33333333333331</ele><time>2026-04-30T09:42:31.024Z</time></trkpt><trkpt lat="48.53370196789261" lon="7.390394986660468"><ele>210.0</ele><time>2026-04-30T09:42:32.024Z</time></trkpt><trkpt lat="48.53368277492719" lon="7.390608885302961"><ele>209.5</ele><time>2026-04-30T09:42:33.024Z</time></trkpt><trkpt lat="48.53367753731856" lon="7.390753232433373"><ele>209.0</ele><time>2026-04-30T09:42:34.024Z</time></trkpt><trkpt lat="48.533667855525664" lon="7.390882174169523"><ele>208.5</ele><time>2026-04-30T09:42:35.024Z</time></trkpt><trkpt lat="48.53365921744475" lon="7.39097987339046"><ele>208.0</ele><time>2026-04-30T09:42:36.024Z</time></trkpt><trkpt lat="48.53366659182502" lon="7.391079846978243"><ele>207.5</ele><time>2026-04-30T09:42:37.023Z</time></trkpt><trkpt lat="48.53368974639705" lon="7.391239937666246"><ele>207.0</ele><time>2026-04-30T09:42:38.023Z</time></trkpt><trkpt lat="48.53371428856169" lon="7.391415084574645"><ele>207.66666666666666</ele><time>2026-04-30T09:42:39.023Z</time></trkpt><trkpt lat="48.533728268994224" lon="7.3915506187077185"><ele>208.33333333333331</ele><time>2026-04-30T09:42:40.023Z</time></trkpt><trkpt lat="48.53373650068358" lon="7.391659984123908"><ele>209.0</ele><time>2026-04-30T09:42:41.023Z</time></trkpt><trkpt lat="48.53375553030024" lon="7.391773242921706"><ele>209.66666666666666</ele><time>2026-04-30T09:42:42.023Z</time></trkpt><trkpt lat="48.533775736272126" lon="7.391878389463365"><ele>210.33333333333331</ele><time>2026-04-30T09:42:43.023Z</time></trkpt><trkpt lat="48.533791609882925" lon="7.391974956292205"><ele>211.0</ele><time>2026-04-30T09:42:44.023Z</time></trkpt><trkpt lat="48.53381228721086" lon="7.3921014704153345"><ele>211.20000000000002</ele><time>2026-04-30T09:42:46.023Z</time></trkpt><trkpt lat="48.53382453213493" lon="7.392291417548441"><ele>211.4</ele><time>2026-04-30T09:42:48.023Z</time></trkpt><trkpt lat="48.533828597402305" lon="7.392398189285207"><ele>211.6</ele><time>2026-04-30T09:42:49.023Z</time></trkpt><trkpt lat="48.53384881543252" lon="7.3925021237950785"><ele>211.8</ele><time>2026-04-30T09:42:50.023Z</time></trkpt><trkpt lat="48.53387018445004" lon="7.392606822888285"><ele>212.0</ele><time>2026-04-30T09:42:51.025Z</time></trkpt><trkpt lat="48.533904413641785" lon="7.392771892729684"><ele>212.00000000000003</ele><time>2026-04-30T09:42:53.025Z</time></trkpt><trkpt lat="48.53392076980897" lon="7.392874268514182"><ele>212.0</ele><time>2026-04-30T09:42:55.025Z</time></trkpt><trkpt lat="48.533963368156044" lon="7.3929577959504575"><ele>212.0</ele><time>2026-04-30T09:42:57.025Z</time></trkpt><trkpt lat="48.53401182490737" lon="7.3930269294257345"><ele>212.0</ele><time>2026-04-30T09:42:58.026Z</time></trkpt><trkpt lat="48.53405592364802" lon="7.393124335425387"><ele>212.00000000000003</ele><time>2026-04-30T09:42:59.026Z</time></trkpt><trkpt lat="48.534076586330656" lon="7.393243504464168"><ele>212.0</ele><time>2026-04-30T09:43:00.025Z</time></trkpt><trkpt lat="48.53408780129653" lon="7.39343741955877"><ele>211.0</ele><time>2026-04-30T09:43:01.025Z</time></trkpt><trkpt lat="48.53411342621663" lon="7.39369502630777"><ele>210.0</ele><time>2026-04-30T09:43:02.025Z</time></trkpt><trkpt lat="48.53413720446498" lon="7.393966401826273"><ele>209.0</ele><time>2026-04-30T09:43:03.025Z</time></trkpt><trkpt lat="48.53415434674514" lon="7.394201399070767"><ele>209.0</ele><time>2026-04-30T09:43:04.025Z</time></trkpt><trkpt lat="48.53416735914643" lon="7.39443593303761"><ele>209.0</ele><time>2026-04-30T09:43:05.025Z</time></trkpt><trkpt lat="48.53418304607527" lon="7.3946841703412485"><ele>209.0</ele><time>2026-04-30T09:43:06.025Z</time></trkpt><trkpt lat="48.534197630148554" lon="7.3949274349175615"><ele>208.0</ele><time>2026-04-30T09:43:07.025Z</time></trkpt><trkpt lat="48.534216959651104" lon="7.395151001800091"><ele>207.0</ele><time>2026-04-30T09:43:08.025Z</time></trkpt><trkpt lat="48.53423657283618" lon="7.3953859569356215"><ele>206.0</ele><time>2026-04-30T09:43:09.025Z</time></trkpt><trkpt lat="48.53426215907995" lon="7.3956187968986296"><ele>205.66666666666669</ele><time>2026-04-30T09:43:10.025Z</time></trkpt><trkpt lat="48.53428778836969" lon="7.395863062620727"><ele>205.33333333333331</ele><time>2026-04-30T09:43:11.025Z</time></trkpt><trkpt lat="48.53431456435438" lon="7.396103004067947"><ele>205.0</ele><time>2026-04-30T09:43:12.025Z</time></trkpt><trkpt lat="48.53434482514656" lon="7.3963851276294275"><ele>205.0</ele><time>2026-04-30T09:43:13.025Z</time></trkpt><trkpt lat="48.534380634682215" lon="7.396668192150561"><ele>205.0</ele><time>2026-04-30T09:43:14.025Z</time></trkpt><trkpt lat="48.534421463814596" lon="7.39696619699471"><ele>205.0</ele><time>2026-04-30T09:43:15.025Z</time></trkpt><trkpt lat="48.534469381553436" lon="7.397248186820217"><ele>204.66666666666666</ele><time>2026-04-30T09:43:16.025Z</time></trkpt><trkpt lat="48.53451643685241" lon="7.39751158821603"><ele>204.33333333333331</ele><time>2026-04-30T09:43:17.025Z</time></trkpt><trkpt lat="48.53455438074391" lon="7.397793394803014"><ele>204.0</ele><time>2026-04-30T09:43:18.025Z</time></trkpt><trkpt lat="48.53459066692752" lon="7.398103966253565"><ele>204.33333333333331</ele><time>2026-04-30T09:43:19.025Z</time></trkpt><trkpt lat="48.534627187438595" lon="7.398399275048874"><ele>204.66666666666666</ele><time>2026-04-30T09:43:20.025Z</time></trkpt><trkpt lat="48.53465988304039" lon="7.398694116241199"><ele>205.0</ele><time>2026-04-30T09:43:21.025Z</time></trkpt><trkpt lat="48.53469059953846" lon="7.398996886765938"><ele>205.0</ele><time>2026-04-30T09:43:22.025Z</time></trkpt><trkpt lat="48.534722621041844" lon="7.399285415155676"><ele>205.0</ele><time>2026-04-30T09:43:23.025Z</time></trkpt><trkpt lat="48.534749163530314" lon="7.399576235462244"><ele>205.0</ele><time>2026-04-30T09:43:24.025Z</time></trkpt><trkpt lat="48.53477397016977" lon="7.3998452909026184"><ele>205.0</ele><time>2026-04-30T09:43:25.025Z</time></trkpt><trkpt lat="48.53482185927706" lon="7.400068486239971"><ele>205.0</ele><time>2026-04-30T09:43:26.025Z</time></trkpt><trkpt lat="48.53487664167044" lon="7.400296698160048"><ele>205.0</ele><time>2026-04-30T09:43:27.025Z</time></trkpt><trkpt lat="48.534935776864145" lon="7.400520672134066"><ele>205.0</ele><time>2026-04-30T09:43:28.025Z</time></trkpt><trkpt lat="48.53498636398953" lon="7.40073718801679"><ele>205.0</ele><time>2026-04-30T09:43:29.025Z</time></trkpt><trkpt lat="48.5350447432836" lon="7.400939013988449"><ele>205.0</ele><time>2026-04-30T09:43:30.025Z</time></trkpt><trkpt lat="48.53509067962841" lon="7.401130828139273"><ele>205.0</ele><time>2026-04-30T09:43:31.025Z</time></trkpt><trkpt lat="48.535138135823225" lon="7.4013261759620335"><ele>204.75</ele><time>2026-04-30T09:43:32.025Z</time></trkpt><trkpt lat="48.53518483375082" lon="7.401515023381527"><ele>204.5</ele><time>2026-04-30T09:43:33.025Z</time></trkpt><trkpt lat="48.535224277624394" lon="7.40169762901152"><ele>204.25</ele><time>2026-04-30T09:43:34.025Z</time></trkpt><trkpt lat="48.53525587313101" lon="7.401866594590422"><ele>204.0</ele><time>2026-04-30T09:43:35.025Z</time></trkpt><trkpt lat="48.535282535908195" lon="7.402005920597198"><ele>204.0</ele><time>2026-04-30T09:43:36.025Z</time></trkpt><trkpt lat="48.535307666252095" lon="7.4021464853707695"><ele>204.0</ele><time>2026-04-30T09:43:37.025Z</time></trkpt><trkpt lat="48.535331789459036" lon="7.402300830600111"><ele>204.0</ele><time>2026-04-30T09:43:38.025Z</time></trkpt><trkpt lat="48.535357800292815" lon="7.402451467529949"><ele>204.0</ele><time>2026-04-30T09:43:39.025Z</time></trkpt><trkpt lat="48.535382610974146" lon="7.402599631996172"><ele>204.0</ele><time>2026-04-30T09:43:40.025Z</time></trkpt><trkpt lat="48.53541361846002" lon="7.4027442845809555"><ele>204.0</ele><time>2026-04-30T09:43:41.025Z</time></trkpt><trkpt lat="48.535446563326566" lon="7.402887224960385"><ele>204.0</ele><time>2026-04-30T09:43:42.025Z</time></trkpt><trkpt lat="48.53547499065306" lon="7.403036824988162"><ele>204.0</ele><time>2026-04-30T09:43:43.025Z</time></trkpt><trkpt lat="48.535498655889526" lon="7.403187359510619"><ele>204.0</ele><time>2026-04-30T09:43:44.025Z</time></trkpt><trkpt lat="48.535520061225746" lon="7.4033279428315515"><ele>204.0</ele><time>2026-04-30T09:43:45.025Z</time></trkpt><trkpt lat="48.5355425721075" lon="7.40345773913996"><ele>204.0</ele><time>2026-04-30T09:43:46.025Z</time></trkpt><trkpt lat="48.53555440153091" lon="7.403594216715869"><ele>204.0</ele><time>2026-04-30T09:43:47.025Z</time></trkpt><trkpt lat="48.53556856854513" lon="7.403723587631614"><ele>204.0</ele><time>2026-04-30T09:43:48.025Z</time></trkpt><trkpt lat="48.53558816052477" lon="7.403854378864786"><ele>204.0</ele><time>2026-04-30T09:43:49.025Z</time></trkpt><trkpt lat="48.535613343787546" lon="7.404002002636355"><ele>204.0</ele><time>2026-04-30T09:43:50.025Z</time></trkpt><trkpt lat="48.53563682725825" lon="7.404145670871973"><ele>204.0</ele><time>2026-04-30T09:43:51.025Z</time></trkpt><trkpt lat="48.53565327729601" lon="7.404284936774384"><ele>204.0</ele><time>2026-04-30T09:43:52.025Z</time></trkpt><trkpt lat="48.53568325414573" lon="7.404414393764591"><ele>204.0</ele><time>2026-04-30T09:43:53.025Z</time></trkpt><trkpt lat="48.53571655875966" lon="7.404542919621633"><ele>204.0</ele><time>2026-04-30T09:43:54.025Z</time></trkpt><trkpt lat="48.53574436069138" lon="7.4047237004226725"><ele>204.0</ele><time>2026-04-30T09:43:55.025Z</time></trkpt><trkpt lat="48.53578090830549" lon="7.404937008724482"><ele>204.0</ele><time>2026-04-30T09:43:56.025Z</time></trkpt><trkpt lat="48.53581662890722" lon="7.405193583544931"><ele>204.0</ele><time>2026-04-30T09:43:57.025Z</time></trkpt><trkpt lat="48.535864099785364" lon="7.40546256616969"><ele>204.0</ele><time>2026-04-30T09:43:58.025Z</time></trkpt><trkpt lat="48.535915353985416" lon="7.405747882486962"><ele>204.0</ele><time>2026-04-30T09:43:59.025Z</time></trkpt><trkpt lat="48.53596098473841" lon="7.406064416047295"><ele>204.0</ele><time>2026-04-30T09:44:00.024Z</time></trkpt><trkpt lat="48.53600217552831" lon="7.406403558324375"><ele>204.0</ele><time>2026-04-30T09:44:01.024Z</time></trkpt><trkpt lat="48.53605145152343" lon="7.406759462114583"><ele>203.33333333333331</ele><time>2026-04-30T09:44:02.024Z</time></trkpt><trkpt lat="48.53610123263937" lon="7.40707718524895"><ele>202.66666666666666</ele><time>2026-04-30T09:44:03.024Z</time></trkpt><trkpt lat="48.53613929350099" lon="7.407366530798218"><ele>202.0</ele><time>2026-04-30T09:44:04.024Z</time></trkpt><trkpt lat="48.53617518029638" lon="7.407621002663903"><ele>202.0</ele><time>2026-04-30T09:44:05.024Z</time></trkpt><trkpt lat="48.5362108311283" lon="7.407860515287246"><ele>202.0</ele><time>2026-04-30T09:44:06.024Z</time></trkpt><trkpt lat="48.536244246398816" lon="7.4080784410172615"><ele>202.0</ele><time>2026-04-30T09:44:07.024Z</time></trkpt><trkpt lat="48.536284364716614" lon="7.408269663413566"><ele>202.0</ele><time>2026-04-30T09:44:08.024Z</time></trkpt><trkpt lat="48.53631502199233" lon="7.408432499040517"><ele>201.8</ele><time>2026-04-30T09:44:09.024Z</time></trkpt><trkpt lat="48.53635935313549" lon="7.408577884510737"><ele>201.6</ele><time>2026-04-30T09:44:10.024Z</time></trkpt><trkpt lat="48.53642478128071" lon="7.4087201558684646"><ele>201.4</ele><time>2026-04-30T09:44:11.024Z</time></trkpt><trkpt lat="48.536478994253876" lon="7.4088529089174395"><ele>201.20000000000002</ele><time>2026-04-30T09:44:12.024Z</time></trkpt><trkpt lat="48.53650204525838" lon="7.408996242119213"><ele>201.0</ele><time>2026-04-30T09:44:13.024Z</time></trkpt><trkpt lat="48.536517681388425" lon="7.409152661999417"><ele>201.0</ele><time>2026-04-30T09:44:14.024Z</time></trkpt><trkpt lat="48.536514872162876" lon="7.409290421061644"><ele>201.0</ele><time>2026-04-30T09:44:15.024Z</time></trkpt><trkpt lat="48.536496550610316" lon="7.409406911828375"><ele>201.0</ele><time>2026-04-30T09:44:16.024Z</time></trkpt><trkpt lat="48.5364712001309" lon="7.409507653625619"><ele>201.0</ele><time>2026-04-30T09:44:17.024Z</time></trkpt><trkpt lat="48.53647145304868" lon="7.40962623830019"><ele>201.0</ele><time>2026-04-30T09:44:18.024Z</time></trkpt><trkpt lat="48.53648963416759" lon="7.409762831464928"><ele>201.0</ele><time>2026-04-30T09:44:19.024Z</time></trkpt><trkpt lat="48.536523549630836" lon="7.4099360107254935"><ele>201.0</ele><time>2026-04-30T09:44:20.024Z</time></trkpt><trkpt lat="48.53655185481928" lon="7.410113246535805"><ele>201.0</ele><time>2026-04-30T09:44:21.024Z</time></trkpt><trkpt lat="48.53657790549174" lon="7.410281311209609"><ele>201.0</ele><time>2026-04-30T09:44:22.024Z</time></trkpt><trkpt lat="48.536611062352456" lon="7.410433972722646"><ele>201.0</ele><time>2026-04-30T09:44:23.024Z</time></trkpt><trkpt lat="48.536636242544816" lon="7.410616273037932"><ele>201.0</ele><time>2026-04-30T09:44:24.024Z</time></trkpt><trkpt lat="48.5366694434433" lon="7.4107848740641735"><ele>201.0</ele><time>2026-04-30T09:44:25.024Z</time></trkpt><trkpt lat="48.53670596699055" lon="7.410966842116863"><ele>201.0</ele><time>2026-04-30T09:44:26.024Z</time></trkpt><trkpt lat="48.53673119620286" lon="7.411126857438226"><ele>201.0</ele><time>2026-04-30T09:44:27.024Z</time></trkpt><trkpt lat="48.53675837335355" lon="7.411292176391391"><ele>201.0</ele><time>2026-04-30T09:44:28.024Z</time></trkpt><trkpt lat="48.53677689889063" lon="7.41146279078865"><ele>201.0</ele><time>2026-04-30T09:44:29.024Z</time></trkpt><trkpt lat="48.53680293391944" lon="7.411651847724642"><ele>201.0</ele><time>2026-04-30T09:44:30.024Z</time></trkpt><trkpt lat="48.53683356344009" lon="7.411819391404258"><ele>201.0</ele><time>2026-04-30T09:44:31.024Z</time></trkpt><trkpt lat="48.53686188652629" lon="7.41199043223206"><ele>201.25</ele><time>2026-04-30T09:44:32.024Z</time></trkpt><trkpt lat="48.536884850333244" lon="7.412160585634808"><ele>201.5</ele><time>2026-04-30T09:44:33.024Z</time></trkpt><trkpt lat="48.536903435369126" lon="7.412337864472824"><ele>201.75</ele><time>2026-04-30T09:44:34.024Z</time></trkpt><trkpt lat="48.536933546642246" lon="7.412535282337552"><ele>202.0</ele><time>2026-04-30T09:44:35.024Z</time></trkpt><trkpt lat="48.53697368078768" lon="7.4127387539985845"><ele>202.0</ele><time>2026-04-30T09:44:36.024Z</time></trkpt><trkpt lat="48.53701178841242" lon="7.412947261617307"><ele>202.0</ele><time>2026-04-30T09:44:37.024Z</time></trkpt><trkpt lat="48.537043330392834" lon="7.413147843114643"><ele>202.0</ele><time>2026-04-30T09:44:38.024Z</time></trkpt><trkpt lat="48.537075150152994" lon="7.413313872637089"><ele>202.0</ele><time>2026-04-30T09:44:39.024Z</time></trkpt><trkpt lat="48.537131439581856" lon="7.413486714494799"><ele>201.66666666666666</ele><time>2026-04-30T09:44:40.024Z</time></trkpt><trkpt lat="48.53720341473144" lon="7.413673073765682"><ele>201.33333333333331</ele><time>2026-04-30T09:44:41.024Z</time></trkpt><trkpt lat="48.53729461941669" lon="7.413873027572643"><ele>201.0</ele><time>2026-04-30T09:44:42.024Z</time></trkpt><trkpt lat="48.53738254512155" lon="7.414121166652356"><ele>201.0</ele><time>2026-04-30T09:44:43.024Z</time></trkpt><trkpt lat="48.53747377104799" lon="7.414366666608971"><ele>201.0</ele><time>2026-04-30T09:44:44.024Z</time></trkpt><trkpt lat="48.53756251613571" lon="7.4145928937955095"><ele>201.0</ele><time>2026-04-30T09:44:45.024Z</time></trkpt><trkpt lat="48.53765611463543" lon="7.41481239666463"><ele>201.0</ele><time>2026-04-30T09:44:46.024Z</time></trkpt><trkpt lat="48.537746389733385" lon="7.4150228326276375"><ele>201.0</ele><time>2026-04-30T09:44:47.024Z</time></trkpt><trkpt lat="48.5378310655078" lon="7.415243290422112"><ele>201.0</ele><time>2026-04-30T09:44:48.024Z</time></trkpt><trkpt lat="48.53790546738661" lon="7.41543115182136"><ele>200.75</ele><time>2026-04-30T09:44:49.024Z</time></trkpt><trkpt lat="48.53797352862376" lon="7.415609510089469"><ele>200.5</ele><time>2026-04-30T09:44:50.024Z</time></trkpt><trkpt lat="48.53802599763651" lon="7.415799563984306"><ele>200.25</ele><time>2026-04-30T09:44:51.024Z</time></trkpt><trkpt lat="48.538067939178774" lon="7.415993721016254"><ele>200.0</ele><time>2026-04-30T09:44:52.024Z</time></trkpt><trkpt lat="48.538099348820786" lon="7.416217146453879"><ele>200.33333333333334</ele><time>2026-04-30T09:44:53.024Z</time></trkpt><trkpt lat="48.53811683014752" lon="7.416458956765153"><ele>200.66666666666669</ele><time>2026-04-30T09:44:54.024Z</time></trkpt><trkpt lat="48.53813379175179" lon="7.416714334032838"><ele>201.0</ele><time>2026-04-30T09:44:55.024Z</time></trkpt><trkpt lat="48.53814035647018" lon="7.41700837209998"><ele>201.0</ele><time>2026-04-30T09:44:56.024Z</time></trkpt><trkpt lat="48.53815946502022" lon="7.417323456184587"><ele>201.0</ele><time>2026-04-30T09:44:57.027Z</time></trkpt><trkpt lat="48.53817080839613" lon="7.417600496703353"><ele>201.0</ele><time>2026-04-30T09:44:58.026Z</time></trkpt><trkpt lat="48.53818730629257" lon="7.417856324491399"><ele>201.66666666666669</ele><time>2026-04-30T09:44:59.026Z</time></trkpt><trkpt lat="48.53820592502875" lon="7.418130244189589"><ele>202.33333333333334</ele><time>2026-04-30T09:45:00.026Z</time></trkpt><trkpt lat="48.53822445274071" lon="7.418405566438603"><ele>203.0</ele><time>2026-04-30T09:45:01.026Z</time></trkpt><trkpt lat="48.538232151381315" lon="7.4186380662758395"><ele>202.75</ele><time>2026-04-30T09:45:02.026Z</time></trkpt><trkpt lat="48.53825195288781" lon="7.418852366565119"><ele>202.5</ele><time>2026-04-30T09:45:03.027Z</time></trkpt><trkpt lat="48.53826707149302" lon="7.419048515826569"><ele>202.25</ele><time>2026-04-30T09:45:04.026Z</time></trkpt><trkpt lat="48.53827546583821" lon="7.419216106656673"><ele>202.0</ele><time>2026-04-30T09:45:05.026Z</time></trkpt><trkpt lat="48.53828077961215" lon="7.419361806691054"><ele>202.0</ele><time>2026-04-30T09:45:06.027Z</time></trkpt><trkpt lat="48.53828770860107" lon="7.419501852175241"><ele>202.0</ele><time>2026-04-30T09:45:07.026Z</time></trkpt><trkpt lat="48.5383039877375" lon="7.419657175439883"><ele>202.0</ele><time>2026-04-30T09:45:08.026Z</time></trkpt><trkpt lat="48.53831773358053" lon="7.41983654137021"><ele>202.0</ele><time>2026-04-30T09:45:09.027Z</time></trkpt><trkpt lat="48.538317408324296" lon="7.420042212824061"><ele>201.5</ele><time>2026-04-30T09:45:10.026Z</time></trkpt><trkpt lat="48.53830871622262" lon="7.420270491985008"><ele>201.0</ele><time>2026-04-30T09:45:11.026Z</time></trkpt><trkpt lat="48.53829945609404" lon="7.4204898464534255"><ele>200.5</ele><time>2026-04-30T09:45:12.026Z</time></trkpt><trkpt lat="48.538283325335584" lon="7.4207109671325435"><ele>200.0</ele><time>2026-04-30T09:45:13.026Z</time></trkpt><trkpt lat="48.53827528310726" lon="7.420921572351695"><ele>200.0</ele><time>2026-04-30T09:45:14.026Z</time></trkpt><trkpt lat="48.53827234498524" lon="7.421125975259967"><ele>200.0</ele><time>2026-04-30T09:45:15.026Z</time></trkpt><trkpt lat="48.53826792303782" lon="7.421306640515284"><ele>200.0</ele><time>2026-04-30T09:45:16.026Z</time></trkpt><trkpt lat="48.53825854395395" lon="7.42147801701002"><ele>200.0</ele><time>2026-04-30T09:45:17.026Z</time></trkpt><trkpt lat="48.53824773354346" lon="7.421645949597008"><ele>199.75</ele><time>2026-04-30T09:45:18.026Z</time></trkpt><trkpt lat="48.5382419649059" lon="7.4218239209574675"><ele>199.5</ele><time>2026-04-30T09:45:19.026Z</time></trkpt><trkpt lat="48.538234126883154" lon="7.422011933521831"><ele>199.25</ele><time>2026-04-30T09:45:20.026Z</time></trkpt><trkpt lat="48.53822963514322" lon="7.4221997230399905"><ele>199.0</ele><time>2026-04-30T09:45:21.026Z</time></trkpt><trkpt lat="48.53822282430767" lon="7.422391667803166"><ele>198.75</ele><time>2026-04-30T09:45:22.026Z</time></trkpt><trkpt lat="48.53821365280647" lon="7.422576072942243"><ele>198.5</ele><time>2026-04-30T09:45:23.026Z</time></trkpt><trkpt lat="48.53820929074017" lon="7.4227564307851495"><ele>198.25</ele><time>2026-04-30T09:45:24.026Z</time></trkpt><trkpt lat="48.53821153858165" lon="7.422933597726972"><ele>198.0</ele><time>2026-04-30T09:45:25.026Z</time></trkpt><trkpt lat="48.53821622470412" lon="7.423109060530924"><ele>197.75</ele><time>2026-04-30T09:45:26.026Z</time></trkpt><trkpt lat="48.53821938514026" lon="7.423282898538912"><ele>197.5</ele><time>2026-04-30T09:45:27.026Z</time></trkpt><trkpt lat="48.53823454924687" lon="7.4234585120547045"><ele>197.25</ele><time>2026-04-30T09:45:28.026Z</time></trkpt><trkpt lat="48.53824795498651" lon="7.423628463516"><ele>197.0</ele><time>2026-04-30T09:45:29.026Z</time></trkpt><trkpt lat="48.53826281997878" lon="7.423787025466861"><ele>196.75</ele><time>2026-04-30T09:45:30.026Z</time></trkpt><trkpt lat="48.53827731927361" lon="7.423957515387496"><ele>196.5</ele><time>2026-04-30T09:45:31.026Z</time></trkpt><trkpt lat="48.53829610166657" lon="7.424143340728336"><ele>196.25</ele><time>2026-04-30T09:45:32.026Z</time></trkpt><trkpt lat="48.5383192813736" lon="7.424332542101921"><ele>196.0</ele><time>2026-04-30T09:45:33.026Z</time></trkpt><trkpt lat="48.53833872386755" lon="7.424497465547416"><ele>195.99999999999997</ele><time>2026-04-30T09:45:34.026Z</time></trkpt><trkpt lat="48.53835509323896" lon="7.4246549087739915"><ele>196.0</ele><time>2026-04-30T09:45:35.026Z</time></trkpt><trkpt lat="48.53836596833038" lon="7.424781907295914"><ele>196.0</ele><time>2026-04-30T09:45:36.026Z</time></trkpt><trkpt lat="48.53836851798068" lon="7.424908439010483"><ele>196.0</ele><time>2026-04-30T09:45:37.026Z</time></trkpt><trkpt lat="48.53836208619495" lon="7.425037393188475"><ele>195.99999999999997</ele><time>2026-04-30T09:45:39.026Z</time></trkpt><trkpt lat="48.53835266561252" lon="7.425167419388169"><ele>196.0</ele><time>2026-04-30T09:45:41.026Z</time></trkpt><trkpt lat="48.53847369012311" lon="7.425226781785213"><ele>196.0</ele><time>2026-04-30T09:45:42.026Z</time></trkpt><trkpt lat="48.53856836928248" lon="7.425219434886774"><ele>196.0</ele><time>2026-04-30T09:45:43.026Z</time></trkpt><trkpt lat="48.538666051261835" lon="7.4252231647729"><ele>196.0</ele><time>2026-04-30T09:45:44.026Z</time></trkpt><trkpt lat="48.538775519953624" lon="7.425239022248189"><ele>196.0</ele><time>2026-04-30T09:45:45.026Z</time></trkpt><trkpt lat="48.538872885597584" lon="7.425252567542328"><ele>196.0</ele><time>2026-04-30T09:45:46.026Z</time></trkpt><trkpt lat="48.53897280923498" lon="7.425274703398407"><ele>195.99999999999997</ele><time>2026-04-30T09:45:47.026Z</time></trkpt><trkpt lat="48.53906206148385" lon="7.425296635157723"><ele>196.0</ele><time>2026-04-30T09:45:48.026Z</time></trkpt><trkpt lat="48.53915642989651" lon="7.425309492094774"><ele>196.0</ele><time>2026-04-30T09:45:49.026Z</time></trkpt><trkpt lat="48.539231621899944" lon="7.425313550441936"><ele>196.0</ele><time>2026-04-30T09:45:50.026Z</time></trkpt><trkpt lat="48.53931309778065" lon="7.425315360084663"><ele>195.99999999999997</ele><time>2026-04-30T09:45:51.026Z</time></trkpt><trkpt lat="48.5393818538382" lon="7.425311502278883"><ele>196.0</ele><time>2026-04-30T09:45:52.026Z</time></trkpt><trkpt lat="48.53947267120546" lon="7.425302237351648"><ele>196.0</ele><time>2026-04-30T09:45:53.026Z</time></trkpt><trkpt lat="48.539572945245666" lon="7.425294683207155"><ele>196.0</ele><time>2026-04-30T09:45:54.025Z</time></trkpt><trkpt lat="48.53967863023131" lon="7.425296302416681"><ele>196.0</ele><time>2026-04-30T09:45:55.025Z</time></trkpt><trkpt lat="48.539779455030576" lon="7.425301077345823"><ele>196.0</ele><time>2026-04-30T09:45:56.025Z</time></trkpt><trkpt lat="48.53987861194387" lon="7.425299942286796"><ele>196.0</ele><time>2026-04-30T09:45:57.025Z</time></trkpt><trkpt lat="48.53999186973672" lon="7.42529184231545"><ele>195.99999999999997</ele><time>2026-04-30T09:45:58.025Z</time></trkpt><trkpt lat="48.540096367252936" lon="7.425284860191961"><ele>196.0</ele><time>2026-04-30T09:45:59.025Z</time></trkpt><trkpt lat="48.5401874791141" lon="7.425286980305907"><ele>196.0</ele><time>2026-04-30T09:46:00.025Z</time></trkpt><trkpt lat="48.540266215390844" lon="7.42528636234597"><ele>196.0</ele><time>2026-04-30T09:46:01.025Z</time></trkpt><trkpt lat="48.54034233092876" lon="7.425293372908537"><ele>195.99999999999997</ele><time>2026-04-30T09:46:02.025Z</time></trkpt><trkpt lat="48.54041484633408" lon="7.425289473761528"><ele>196.0</ele><time>2026-04-30T09:46:03.025Z</time></trkpt><trkpt lat="48.540483916588315" lon="7.425287663320398"><ele>195.99999999999997</ele><time>2026-04-30T09:46:04.025Z</time></trkpt><trkpt lat="48.54057502383671" lon="7.425297932641234"><ele>196.0</ele><time>2026-04-30T09:46:06.025Z</time></trkpt><trkpt lat="48.540558878262786" lon="7.425390718016775"><ele>196.0</ele><time>2026-04-30T09:46:08.025Z</time></trkpt><trkpt lat="48.54047786773407" lon="7.425468051419864"><ele>196.0</ele><time>2026-04-30T09:46:10.025Z</time></trkpt><trkpt lat="48.54041333007479" lon="7.425528794504492"><ele>195.99999999999997</ele><time>2026-04-30T09:46:11.025Z</time></trkpt><trkpt lat="48.54033557376293" lon="7.4256116588162095"><ele>196.0</ele><time>2026-04-30T09:46:12.025Z</time></trkpt><trkpt lat="48.54025238772539" lon="7.425715759565757"><ele>196.20000000000002</ele><time>2026-04-30T09:46:13.025Z</time></trkpt><trkpt lat="48.540196237337206" lon="7.425819830118091"><ele>196.4</ele><time>2026-04-30T09:46:14.025Z</time></trkpt><trkpt lat="48.540169509784945" lon="7.425927463561519"><ele>196.6</ele><time>2026-04-30T09:46:15.025Z</time></trkpt><trkpt lat="48.540171579853585" lon="7.4260430112975335"><ele>196.8</ele><time>2026-04-30T09:46:16.025Z</time></trkpt><trkpt lat="48.540178211667694" lon="7.426179720726272"><ele>197.0</ele><time>2026-04-30T09:46:17.025Z</time></trkpt><trkpt lat="48.54020216406688" lon="7.426370997893938"><ele>197.0</ele><time>2026-04-30T09:46:18.025Z</time></trkpt><trkpt lat="48.540210923407024" lon="7.426578030720378"><ele>197.0</ele><time>2026-04-30T09:46:19.025Z</time></trkpt><trkpt lat="48.54019959588667" lon="7.426745163102957"><ele>197.0</ele><time>2026-04-30T09:46:20.025Z</time></trkpt><trkpt lat="48.54018166435317" lon="7.4268803191937725"><ele>197.0</ele><time>2026-04-30T09:46:21.025Z</time></trkpt><trkpt lat="48.54016901814708" lon="7.427009597926534"><ele>197.0</ele><time>2026-04-30T09:46:22.025Z</time></trkpt><trkpt lat="48.540144671128324" lon="7.427166125970256"><ele>196.66666666666669</ele><time>2026-04-30T09:46:23.025Z</time></trkpt><trkpt lat="48.54010031686669" lon="7.427354021556219"><ele>196.33333333333331</ele><time>2026-04-30T09:46:24.025Z</time></trkpt><trkpt lat="48.5400203914082" lon="7.427577926005895"><ele>196.0</ele><time>2026-04-30T09:46:25.025Z</time></trkpt><trkpt lat="48.53994789284014" lon="7.427791443675222"><ele>196.0</ele><time>2026-04-30T09:46:26.025Z</time></trkpt><trkpt lat="48.539883413563636" lon="7.427960037768188"><ele>196.0</ele><time>2026-04-30T09:46:27.025Z</time></trkpt><trkpt lat="48.53981570084294" lon="7.42809653873809"><ele>196.0</ele><time>2026-04-30T09:46:28.025Z</time></trkpt><trkpt lat="48.5397457537956" lon="7.428222755784501"><ele>196.0</ele><time>2026-04-30T09:46:29.025Z</time></trkpt><trkpt lat="48.53967282924094" lon="7.42832549334742"><ele>196.0</ele><time>2026-04-30T09:46:30.025Z</time></trkpt><trkpt lat="48.53962590396027" lon="7.428426452682189"><ele>196.0</ele><time>2026-04-30T09:46:31.025Z</time></trkpt><trkpt lat="48.53958462482791" lon="7.428614738673102"><ele>196.0</ele><time>2026-04-30T09:46:33.025Z</time></trkpt><trkpt lat="48.539574441383486" lon="7.4287828612488225"><ele>196.0</ele><time>2026-04-30T09:46:34.025Z</time></trkpt><trkpt lat="48.539565232479404" lon="7.428987315369694"><ele>196.0</ele><time>2026-04-30T09:46:35.025Z</time></trkpt><trkpt lat="48.53955208263513" lon="7.429141827266952"><ele>196.0</ele><time>2026-04-30T09:46:36.025Z</time></trkpt><trkpt lat="48.53950030791355" lon="7.429256273198053"><ele>196.0</ele><time>2026-04-30T09:46:38.025Z</time></trkpt><trkpt lat="48.53936420385388" lon="7.4292830211159915"><ele>196.0</ele><time>2026-04-30T09:46:40.025Z</time></trkpt><trkpt lat="48.53925451910248" lon="7.4292984625077265"><ele>196.0</ele><time>2026-04-30T09:46:41.025Z</time></trkpt><trkpt lat="48.53915894304486" lon="7.429331605832479"><ele>196.20000000000002</ele><time>2026-04-30T09:46:42.025Z</time></trkpt><trkpt lat="48.53908443160338" lon="7.429428802631512"><ele>196.4</ele><time>2026-04-30T09:46:43.025Z</time></trkpt><trkpt lat="48.53902585926154" lon="7.429527464195567"><ele>196.6</ele><time>2026-04-30T09:46:44.025Z</time></trkpt><trkpt lat="48.53899500177476" lon="7.42962793385497"><ele>196.8</ele><time>2026-04-30T09:46:45.025Z</time></trkpt><trkpt lat="48.538993444475736" lon="7.429752912267712"><ele>197.0</ele><time>2026-04-30T09:46:46.025Z</time></trkpt><trkpt lat="48.53901591979173" lon="7.42993304622809"><ele>196.0</ele><time>2026-04-30T09:46:47.025Z</time></trkpt><trkpt lat="48.539054580161064" lon="7.430152140020009"><ele>195.0</ele><time>2026-04-30T09:46:48.025Z</time></trkpt><trkpt lat="48.5390793280559" lon="7.430393574675645"><ele>194.0</ele><time>2026-04-30T09:46:49.025Z</time></trkpt><trkpt lat="48.539104326841574" lon="7.430641659228269"><ele>193.66666666666669</ele><time>2026-04-30T09:46:50.025Z</time></trkpt><trkpt lat="48.53911052835212" lon="7.430946771102394"><ele>193.33333333333331</ele><time>2026-04-30T09:46:51.025Z</time></trkpt><trkpt lat="48.53912517061318" lon="7.431246026662904"><ele>193.0</ele><time>2026-04-30T09:46:52.025Z</time></trkpt><trkpt lat="48.5391182917743" lon="7.431493139972617"><ele>193.33333333333331</ele><time>2026-04-30T09:46:53.025Z</time></trkpt><trkpt lat="48.53910296943486" lon="7.4317270780094775"><ele>193.66666666666669</ele><time>2026-04-30T09:46:54.025Z</time></trkpt><trkpt lat="48.53910619468612" lon="7.43196137375605"><ele>194.0</ele><time>2026-04-30T09:46:55.025Z</time></trkpt><trkpt lat="48.539098809990726" lon="7.43219617289962"><ele>194.0</ele><time>2026-04-30T09:46:56.025Z</time></trkpt><trkpt lat="48.539077007440675" lon="7.43242663047296"><ele>194.0</ele><time>2026-04-30T09:46:57.025Z</time></trkpt><trkpt lat="48.539053678339585" lon="7.4326208694771445"><ele>194.0</ele><time>2026-04-30T09:46:58.025Z</time></trkpt><trkpt lat="48.539038840509804" lon="7.432779247148262"><ele>194.0</ele><time>2026-04-30T09:46:59.025Z</time></trkpt><trkpt lat="48.53902350789005" lon="7.432892456572354"><ele>194.16666666666669</ele><time>2026-04-30T09:47:00.025Z</time></trkpt><trkpt lat="48.53901079776911" lon="7.433005980903921"><ele>194.33333333333334</ele><time>2026-04-30T09:47:02.025Z</time></trkpt><trkpt lat="48.53907201387984" lon="7.433059862741901"><ele>194.5</ele><time>2026-04-30T09:47:04.027Z</time></trkpt><trkpt lat="48.539142546450286" lon="7.43307751577201"><ele>194.66666666666669</ele><time>2026-04-30T09:47:05.027Z</time></trkpt><trkpt lat="48.539232691607445" lon="7.4331220846285815"><ele>194.83333333333334</ele><time>2026-04-30T09:47:06.028Z</time></trkpt><trkpt lat="48.53935200139697" lon="7.433189703811747"><ele>195.0</ele><time>2026-04-30T09:47:07.027Z</time></trkpt><trkpt lat="48.539479606247504" lon="7.433278844249874"><ele>195.6</ele><time>2026-04-30T09:47:08.027Z</time></trkpt><trkpt lat="48.53960289918364" lon="7.433340743532153"><ele>196.2</ele><time>2026-04-30T09:47:09.028Z</time></trkpt><trkpt lat="48.53972032307074" lon="7.433383932726309"><ele>196.8</ele><time>2026-04-30T09:47:10.028Z</time></trkpt><trkpt lat="48.53980003468209" lon="7.433429579434454"><ele>197.4</ele><time>2026-04-30T09:47:11.028Z</time></trkpt><trkpt lat="48.5398880583932" lon="7.433467240629335"><ele>198.0</ele><time>2026-04-30T09:47:12.027Z</time></trkpt><trkpt lat="48.53997778162583" lon="7.433505408540791"><ele>198.0</ele><time>2026-04-30T09:47:13.028Z</time></trkpt><trkpt lat="48.5400812200041" lon="7.433561889876707"><ele>198.0</ele><time>2026-04-30T09:47:14.028Z</time></trkpt><trkpt lat="48.54021858265163" lon="7.433589293454815"><ele>198.0</ele><time>2026-04-30T09:47:15.028Z</time></trkpt><trkpt lat="48.54032859489113" lon="7.433629805411013"><ele>198.0</ele><time>2026-04-30T09:47:16.027Z</time></trkpt><trkpt lat="48.54044159888953" lon="7.433659784310551"><ele>197.60000000000002</ele><time>2026-04-30T09:47:17.027Z</time></trkpt><trkpt lat="48.54054937854489" lon="7.433683171567426"><ele>197.20000000000002</ele><time>2026-04-30T09:47:18.027Z</time></trkpt><trkpt lat="48.540655424675286" lon="7.4337034926121675"><ele>196.8</ele><time>2026-04-30T09:47:19.027Z</time></trkpt><trkpt lat="48.5407625772351" lon="7.433721995190233"><ele>196.4</ele><time>2026-04-30T09:47:20.027Z</time></trkpt><trkpt lat="48.54085711519886" lon="7.433747303366757"><ele>196.0</ele><time>2026-04-30T09:47:21.027Z</time></trkpt><trkpt lat="48.54094445982737" lon="7.43378349434182"><ele>196.0</ele><time>2026-04-30T09:47:22.027Z</time></trkpt><trkpt lat="48.541053928750266" lon="7.433815285481302"><ele>196.0</ele><time>2026-04-30T09:47:23.027Z</time></trkpt><trkpt lat="48.54114718281002" lon="7.433844741858597"><ele>196.0</ele><time>2026-04-30T09:47:24.027Z</time></trkpt><trkpt lat="48.54124084710196" lon="7.4338818329992264"><ele>196.0</ele><time>2026-04-30T09:47:25.027Z</time></trkpt><trkpt lat="48.54134393240672" lon="7.433906014220343"><ele>196.0</ele><time>2026-04-30T09:47:26.027Z</time></trkpt><trkpt lat="48.54144239575428" lon="7.433942886872778"><ele>196.4</ele><time>2026-04-30T09:47:27.027Z</time></trkpt><trkpt lat="48.541550369111455" lon="7.433979173699413"><ele>196.8</ele><time>2026-04-30T09:47:28.027Z</time></trkpt><trkpt lat="48.54165860529845" lon="7.434016782632269"><ele>197.20000000000002</ele><time>2026-04-30T09:47:29.027Z</time></trkpt><trkpt lat="48.5417514510402" lon="7.434064373879587"><ele>197.60000000000002</ele><time>2026-04-30T09:47:30.027Z</time></trkpt><trkpt lat="48.54184862261876" lon="7.434086846417173"><ele>198.0</ele><time>2026-04-30T09:47:31.027Z</time></trkpt><trkpt lat="48.54194045186497" lon="7.434103573802435"><ele>198.0</ele><time>2026-04-30T09:47:32.027Z</time></trkpt><trkpt lat="48.542030040812115" lon="7.434116728612708"><ele>198.0</ele><time>2026-04-30T09:47:33.027Z</time></trkpt><trkpt lat="48.542121884011166" lon="7.434130032342563"><ele>198.0</ele><time>2026-04-30T09:47:34.027Z</time></trkpt><trkpt lat="48.54221378847939" lon="7.4341325421838835"><ele>198.0</ele><time>2026-04-30T09:47:35.027Z</time></trkpt><trkpt lat="48.54231817016749" lon="7.434145660015036"><ele>198.0</ele><time>2026-04-30T09:47:36.027Z</time></trkpt><trkpt lat="48.542426396307924" lon="7.434162339259834"><ele>198.2</ele><time>2026-04-30T09:47:37.027Z</time></trkpt><trkpt lat="48.54251715010713" lon="7.434167312876467"><ele>198.4</ele><time>2026-04-30T09:47:38.027Z</time></trkpt><trkpt lat="48.54260125711359" lon="7.434178871339995"><ele>198.6</ele><time>2026-04-30T09:47:39.027Z</time></trkpt><trkpt lat="48.54266423746928" lon="7.434195997347704"><ele>198.79999999999998</ele><time>2026-04-30T09:47:44.027Z</time></trkpt><trkpt lat="48.54273455391473" lon="7.43402067983549"><ele>199.0</ele><time>2026-04-30T09:47:46.027Z</time></trkpt><trkpt lat="48.54274183092067" lon="7.43385575605533"><ele>199.0</ele><time>2026-04-30T09:47:47.027Z</time></trkpt><trkpt lat="48.542757318569166" lon="7.433633062967482"><ele>199.0</ele><time>2026-04-30T09:47:48.027Z</time></trkpt><trkpt lat="48.542779724633675" lon="7.43336454364463"><ele>199.0</ele><time>2026-04-30T09:47:49.027Z</time></trkpt><trkpt lat="48.542788194934516" lon="7.4331332746385135"><ele>199.25</ele><time>2026-04-30T09:47:50.027Z</time></trkpt><trkpt lat="48.5427970804671" lon="7.432938835142622"><ele>199.5</ele><time>2026-04-30T09:47:51.027Z</time></trkpt><trkpt lat="48.542812833804774" lon="7.4327605642612005"><ele>199.75</ele><time>2026-04-30T09:47:52.027Z</time></trkpt><trkpt lat="48.54282602419836" lon="7.4325940091545775"><ele>200.0</ele><time>2026-04-30T09:47:53.027Z</time></trkpt><trkpt lat="48.542852303337234" lon="7.4324233029161055"><ele>200.0</ele><time>2026-04-30T09:47:54.027Z</time></trkpt><trkpt lat="48.54288024314506" lon="7.432248913825448"><ele>200.0</ele><time>2026-04-30T09:47:55.027Z</time></trkpt><trkpt lat="48.54290460910672" lon="7.432060771792763"><ele>200.0</ele><time>2026-04-30T09:47:56.027Z</time></trkpt><trkpt lat="48.54293160687398" lon="7.4318703691129775"><ele>200.0</ele><time>2026-04-30T09:47:57.027Z</time></trkpt><trkpt lat="48.54295088964666" lon="7.431697790357314"><ele>202.0</ele><time>2026-04-30T09:47:58.027Z</time></trkpt><trkpt lat="48.54297042805462" lon="7.431532536017922"><ele>204.0</ele><time>2026-04-30T09:47:59.027Z</time></trkpt><trkpt lat="48.542987763693525" lon="7.431375628846279"><ele>206.0</ele><time>2026-04-30T09:48:00.027Z</time></trkpt><trkpt lat="48.54299811204075" lon="7.431224826758759"><ele>208.0</ele><time>2026-04-30T09:48:01.027Z</time></trkpt><trkpt lat="48.542993368479074" lon="7.431076962197802"><ele>210.0</ele><time>2026-04-30T09:48:02.027Z</time></trkpt><trkpt lat="48.54298705639967" lon="7.430922521086298"><ele>210.4</ele><time>2026-04-30T09:48:03.027Z</time></trkpt><trkpt lat="48.54297768557903" lon="7.430786887387642"><ele>210.8</ele><time>2026-04-30T09:48:04.027Z</time></trkpt><trkpt lat="48.542973741191716" lon="7.430644111887195"><ele>211.2</ele><time>2026-04-30T09:48:05.027Z</time></trkpt><trkpt lat="48.54295778073802" lon="7.430476384304506"><ele>211.6</ele><time>2026-04-30T09:48:06.027Z</time></trkpt><trkpt lat="48.542943122736744" lon="7.430323015461083"><ele>212.0</ele><time>2026-04-30T09:48:07.027Z</time></trkpt><trkpt lat="48.5429183238794" lon="7.430158026831384"><ele>212.2</ele><time>2026-04-30T09:48:08.027Z</time></trkpt><trkpt lat="48.54290914976295" lon="7.4300013799835725"><ele>212.39999999999998</ele><time>2026-04-30T09:48:09.027Z</time></trkpt><trkpt lat="48.54290130749548" lon="7.429833052482179"><ele>212.60000000000002</ele><time>2026-04-30T09:48:10.027Z</time></trkpt><trkpt lat="48.54290391221817" lon="7.429663046710126"><ele>212.8</ele><time>2026-04-30T09:48:11.027Z</time></trkpt><trkpt lat="48.54289364544338" lon="7.429482669563553"><ele>213.0</ele><time>2026-04-30T09:48:12.027Z</time></trkpt><trkpt lat="48.542893155560705" lon="7.429323371901308"><ele>213.0</ele><time>2026-04-30T09:48:13.027Z</time></trkpt><trkpt lat="48.542886808257535" lon="7.429164646654192"><ele>213.0</ele><time>2026-04-30T09:48:14.027Z</time></trkpt><trkpt lat="48.54287471440872" lon="7.429041393180026"><ele>213.0</ele><time>2026-04-30T09:48:15.027Z</time></trkpt><trkpt lat="48.54286413814558" lon="7.428921758695556"><ele>213.0</ele><time>2026-04-30T09:48:16.027Z</time></trkpt><trkpt lat="48.54283799071888" lon="7.428788504127338"><ele>213.0</ele><time>2026-04-30T09:48:17.027Z</time></trkpt><trkpt lat="48.542819245201336" lon="7.428666760100978"><ele>213.0</ele><time>2026-04-30T09:48:18.027Z</time></trkpt><trkpt lat="48.54280010103579" lon="7.428531999993173"><ele>210.8</ele><time>2026-04-30T09:48:19.027Z</time></trkpt><trkpt lat="48.542781037387876" lon="7.428379028932134"><ele>208.60000000000002</ele><time>2026-04-30T09:48:20.027Z</time></trkpt><trkpt lat="48.54275741816371" lon="7.428221293894922"><ele>206.39999999999998</ele><time>2026-04-30T09:48:21.027Z</time></trkpt><trkpt lat="48.54272302149651" lon="7.428091945004902"><ele>204.2</ele><time>2026-04-30T09:48:22.027Z</time></trkpt><trkpt lat="48.542691909723914" lon="7.427953448482854"><ele>202.0</ele><time>2026-04-30T09:48:23.027Z</time></trkpt><trkpt lat="48.54266052227663" lon="7.427819244611501"><ele>202.0</ele><time>2026-04-30T09:48:24.027Z</time></trkpt><trkpt lat="48.5426240416011" lon="7.427692527682886"><ele>202.0</ele><time>2026-04-30T09:48:25.027Z</time></trkpt><trkpt lat="48.542591173349024" lon="7.427541580529072"><ele>202.0</ele><time>2026-04-30T09:48:27.027Z</time></trkpt><trkpt lat="48.5426109535556" lon="7.42741661174738"><ele>202.0</ele><time>2026-04-30T09:48:30.027Z</time></trkpt><trkpt lat="48.54268129901297" lon="7.427387525922902"><ele>202.0</ele><time>2026-04-30T09:48:32.027Z</time></trkpt><trkpt lat="48.542790662787596" lon="7.427409424363234"><ele>204.39999999999998</ele><time>2026-04-30T09:48:34.027Z</time></trkpt><trkpt lat="48.54291455958839" lon="7.427447351630352"><ele>206.79999999999998</ele><time>2026-04-30T09:48:36.027Z</time></trkpt><trkpt lat="48.54297483376644" lon="7.427512092063538"><ele>209.2</ele><time>2026-04-30T09:48:37.027Z</time></trkpt><trkpt lat="48.543039799718926" lon="7.42759193700099"><ele>211.6</ele><time>2026-04-30T09:48:38.027Z</time></trkpt><trkpt lat="48.5430921676527" lon="7.4276836135663356"><ele>214.0</ele><time>2026-04-30T09:48:39.027Z</time></trkpt><trkpt lat="48.54314606953468" lon="7.427785127754168"><ele>214.00000000000003</ele><time>2026-04-30T09:48:40.027Z</time></trkpt><trkpt lat="48.543198368692124" lon="7.427881050387907"><ele>214.0</ele><time>2026-04-30T09:48:41.027Z</time></trkpt><trkpt lat="48.543215166630986" lon="7.4279841054744065"><ele>214.0</ele><time>2026-04-30T09:48:42.027Z</time></trkpt><trkpt lat="48.543244588439876" lon="7.428097064821514"><ele>214.0</ele><time>2026-04-30T09:48:43.027Z</time></trkpt><trkpt lat="48.54328621785125" lon="7.428185818176407"><ele>214.0</ele><time>2026-04-30T09:48:44.027Z</time></trkpt><trkpt lat="48.54333006925152" lon="7.428258349414384"><ele>214.00000000000003</ele><time>2026-04-30T09:48:45.027Z</time></trkpt><trkpt lat="48.54338791665368" lon="7.428327095629134"><ele>214.0</ele><time>2026-04-30T09:48:46.027Z</time></trkpt><trkpt lat="48.54345633763374" lon="7.428378108823977"><ele>213.79999999999998</ele><time>2026-04-30T09:48:47.027Z</time></trkpt><trkpt lat="48.54352301571837" lon="7.4284375412833255"><ele>213.59999999999997</ele><time>2026-04-30T09:48:48.027Z</time></trkpt><trkpt lat="48.54358537333154" lon="7.4284916679970205"><ele>213.4</ele><time>2026-04-30T09:48:49.027Z</time></trkpt><trkpt lat="48.54370802219832" lon="7.428593399972939"><ele>213.2</ele><time>2026-04-30T09:48:51.027Z</time></trkpt><trkpt lat="48.54376399611321" lon="7.428671402078393"><ele>213.0</ele><time>2026-04-30T09:48:52.027Z</time></trkpt><trkpt lat="48.5438511808751" lon="7.42881673611033"><ele>216.28571428571428</ele><time>2026-04-30T09:48:54.027Z</time></trkpt><trkpt lat="48.54389645332792" lon="7.428920756148103"><ele>219.57142857142856</ele><time>2026-04-30T09:48:55.027Z</time></trkpt><trkpt lat="48.54394235588601" lon="7.429017369480824"><ele>222.85714285714283</ele><time>2026-04-30T09:48:56.027Z</time></trkpt><trkpt lat="48.54397713062983" lon="7.429107119935974"><ele>226.14285714285714</ele><time>2026-04-30T09:48:57.027Z</time></trkpt><trkpt lat="48.54402196759014" lon="7.4291922069466425"><ele>229.42857142857144</ele><time>2026-04-30T09:48:58.027Z</time></trkpt><trkpt lat="48.5440724520374" lon="7.42926900452016"><ele>232.7142857142857</ele><time>2026-04-30T09:48:59.027Z</time></trkpt><trkpt lat="48.544122479434016" lon="7.42934945148455"><ele>236.0</ele><time>2026-04-30T09:49:00.027Z</time></trkpt><trkpt lat="48.544177444562756" lon="7.429402702218429"><ele>236.0</ele><time>2026-04-30T09:49:01.027Z</time></trkpt><trkpt lat="48.54428608012094" lon="7.429499784866582"><ele>236.0</ele><time>2026-04-30T09:49:03.027Z</time></trkpt><trkpt lat="48.54438017303071" lon="7.429624200026719"><ele>236.0</ele><time>2026-04-30T09:49:04.027Z</time></trkpt><trkpt lat="48.544493992978246" lon="7.42972721831023"><ele>236.0</ele><time>2026-04-30T09:49:05.027Z</time></trkpt><trkpt lat="48.544594225158946" lon="7.429790591599859"><ele>238.33333333333334</ele><time>2026-04-30T09:49:06.027Z</time></trkpt><trkpt lat="48.544674397745545" lon="7.42986142443972"><ele>240.66666666666669</ele><time>2026-04-30T09:49:07.027Z</time></trkpt><trkpt lat="48.54475090268056" lon="7.429936510090784"><ele>243.0</ele><time>2026-04-30T09:49:08.027Z</time></trkpt><trkpt lat="48.54482701055633" lon="7.430014809177252"><ele>245.33333333333331</ele><time>2026-04-30T09:49:09.029Z</time></trkpt><trkpt lat="48.544863869138375" lon="7.430114802029827"><ele>247.66666666666666</ele><time>2026-04-30T09:49:10.029Z</time></trkpt><trkpt lat="48.54488877184342" lon="7.430229531604927"><ele>250.0</ele><time>2026-04-30T09:49:11.029Z</time></trkpt><trkpt lat="48.54493046903222" lon="7.430404482790693"><ele>250.0</ele><time>2026-04-30T09:49:12.028Z</time></trkpt><trkpt lat="48.54497289245693" lon="7.430608299306598"><ele>250.0</ele><time>2026-04-30T09:49:13.029Z</time></trkpt><trkpt lat="48.54502994727745" lon="7.43083135789456"><ele>250.0</ele><time>2026-04-30T09:49:14.029Z</time></trkpt><trkpt lat="48.545071181982266" lon="7.431019683232162"><ele>250.0</ele><time>2026-04-30T09:49:15.029Z</time></trkpt><trkpt lat="48.5451083381171" lon="7.43117552260245"><ele>249.99999999999997</ele><time>2026-04-30T09:49:16.029Z</time></trkpt><trkpt lat="48.54513500679598" lon="7.431284270260218"><ele>250.0</ele><time>2026-04-30T09:49:17.029Z</time></trkpt><trkpt lat="48.54515607573836" lon="7.431379683739284"><ele>250.0</ele><time>2026-04-30T09:49:18.029Z</time></trkpt><trkpt lat="48.545198939341915" lon="7.431528083190627"><ele>250.0</ele><time>2026-04-30T09:49:20.028Z</time></trkpt><trkpt lat="48.545230432900155" lon="7.431617124389448"><ele>249.99999999999997</ele><time>2026-04-30T09:49:21.029Z</time></trkpt><trkpt lat="48.54529022396404" lon="7.431725127326873"><ele>250.0</ele><time>2026-04-30T09:49:22.029Z</time></trkpt><trkpt lat="48.545366126835276" lon="7.43187352656364"><ele>252.5</ele><time>2026-04-30T09:49:23.029Z</time></trkpt><trkpt lat="48.5454537888817" lon="7.43199678597649"><ele>255.0</ele><time>2026-04-30T09:49:24.029Z</time></trkpt><trkpt lat="48.54555599879563" lon="7.432156298637021"><ele>257.5</ele><time>2026-04-30T09:49:25.029Z</time></trkpt><trkpt lat="48.545676896889574" lon="7.432298753187827"><ele>260.0</ele><time>2026-04-30T09:49:26.029Z</time></trkpt><trkpt lat="48.54582831805775" lon="7.432448444770193"><ele>260.0</ele><time>2026-04-30T09:49:27.029Z</time></trkpt><trkpt lat="48.54597740753654" lon="7.432579018765571"><ele>260.0</ele><time>2026-04-30T09:49:28.029Z</time></trkpt><trkpt lat="48.54613313359315" lon="7.4327048034999"><ele>260.0</ele><time>2026-04-30T09:49:29.029Z</time></trkpt><trkpt lat="48.54625762319725" lon="7.4328350009433795"><ele>264.25</ele><time>2026-04-30T09:49:30.029Z</time></trkpt><trkpt lat="48.54635886347208" lon="7.432972762682466"><ele>268.5</ele><time>2026-04-30T09:49:31.029Z</time></trkpt><trkpt lat="48.54647153669649" lon="7.433132577184731"><ele>272.75</ele><time>2026-04-30T09:49:32.029Z</time></trkpt><trkpt lat="48.546590064346645" lon="7.43328571383759"><ele>277.0</ele><time>2026-04-30T09:49:33.029Z</time></trkpt><trkpt lat="48.546698694332974" lon="7.433427188542105"><ele>277.0</ele><time>2026-04-30T09:49:34.029Z</time></trkpt><trkpt lat="48.54677798876555" lon="7.433522998818274"><ele>277.0</ele><time>2026-04-30T09:49:35.029Z</time></trkpt><trkpt lat="48.54683462854734" lon="7.433652828683304"><ele>277.0</ele><time>2026-04-30T09:49:36.029Z</time></trkpt><trkpt lat="48.54689783288953" lon="7.433794857780645"><ele>277.0</ele><time>2026-04-30T09:49:37.029Z</time></trkpt><trkpt lat="48.54692815784277" lon="7.433985454343459"><ele>277.0</ele><time>2026-04-30T09:49:38.029Z</time></trkpt><trkpt lat="48.54697434267023" lon="7.434140227843423"><ele>276.66666666666663</ele><time>2026-04-30T09:49:39.029Z</time></trkpt><trkpt lat="48.547013255472834" lon="7.4342677219327955"><ele>276.3333333333333</ele><time>2026-04-30T09:49:40.029Z</time></trkpt><trkpt lat="48.54705700388325" lon="7.434372582845158"><ele>276.0</ele><time>2026-04-30T09:49:41.029Z</time></trkpt><trkpt lat="48.54709970183708" lon="7.434483607842726"><ele>275.6666666666667</ele><time>2026-04-30T09:49:42.029Z</time></trkpt><trkpt lat="48.54715233177568" lon="7.434573951999021"><ele>275.33333333333337</ele><time>2026-04-30T09:49:43.029Z</time></trkpt><trkpt lat="48.54718856835304" lon="7.434684267769572"><ele>275.0</ele><time>2026-04-30T09:49:44.029Z</time></trkpt><trkpt lat="48.547244707004715" lon="7.434769149595966"><ele>277.8</ele><time>2026-04-30T09:49:45.029Z</time></trkpt><trkpt lat="48.547311108302125" lon="7.434843811044624"><ele>280.6</ele><time>2026-04-30T09:49:46.029Z</time></trkpt><trkpt lat="48.54739479866304" lon="7.434925360630634"><ele>283.4</ele><time>2026-04-30T09:49:47.029Z</time></trkpt><trkpt lat="48.547502786550176" lon="7.435006375889749"><ele>286.2</ele><time>2026-04-30T09:49:48.029Z</time></trkpt><trkpt lat="48.54759010009131" lon="7.4351114218812855"><ele>289.0</ele><time>2026-04-30T09:49:49.029Z</time></trkpt><trkpt lat="48.54765440288178" lon="7.435198981410946"><ele>289.0</ele><time>2026-04-30T09:49:50.029Z</time></trkpt><trkpt lat="48.54772643328008" lon="7.435263889521063"><ele>289.0</ele><time>2026-04-30T09:49:51.029Z</time></trkpt><trkpt lat="48.54782942241144" lon="7.435333325298197"><ele>289.0</ele><time>2026-04-30T09:49:53.029Z</time></trkpt><trkpt lat="48.54789751122851" lon="7.435378085289784"><ele>289.0</ele><time>2026-04-30T09:49:54.029Z</time></trkpt><trkpt lat="48.54799576282841" lon="7.435384296255611"><ele>289.0</ele><time>2026-04-30T09:49:55.029Z</time></trkpt><trkpt lat="48.548081321686496" lon="7.435360169258089"><ele>293.0</ele><time>2026-04-30T09:49:56.029Z</time></trkpt><trkpt lat="48.54819262980455" lon="7.435307966048854"><ele>297.0</ele><time>2026-04-30T09:49:57.029Z</time></trkpt><trkpt lat="48.548315487865665" lon="7.435221916206215"><ele>301.0</ele><time>2026-04-30T09:49:58.029Z</time></trkpt><trkpt lat="48.54847344121046" lon="7.435104550202038"><ele>305.0</ele><time>2026-04-30T09:49:59.029Z</time></trkpt><trkpt lat="48.548662848469725" lon="7.434986263124895"><ele>305.33333333333337</ele><time>2026-04-30T09:50:00.029Z</time></trkpt><trkpt lat="48.54883780778921" lon="7.434874981007353"><ele>305.6666666666667</ele><time>2026-04-30T09:50:01.029Z</time></trkpt><trkpt lat="48.54899457543034" lon="7.434800741128813"><ele>306.0</ele><time>2026-04-30T09:50:02.029Z</time></trkpt><trkpt lat="48.549145808350744" lon="7.434756394471479"><ele>306.0</ele><time>2026-04-30T09:50:03.029Z</time></trkpt><trkpt lat="48.549297416119146" lon="7.434711456198453"><ele>306.0</ele><time>2026-04-30T09:50:04.029Z</time></trkpt><trkpt lat="48.54945560681183" lon="7.434671392497154"><ele>306.0</ele><time>2026-04-30T09:50:05.029Z</time></trkpt><trkpt lat="48.549620837316894" lon="7.4346392492182085"><ele>306.75</ele><time>2026-04-30T09:50:06.029Z</time></trkpt><trkpt lat="48.54973202319709" lon="7.434616854254895"><ele>307.5</ele><time>2026-04-30T09:50:07.029Z</time></trkpt><trkpt lat="48.54981104800682" lon="7.434595678995569"><ele>308.25</ele><time>2026-04-30T09:50:08.029Z</time></trkpt><trkpt lat="48.54993832160101" lon="7.434501307563909"><ele>309.0</ele><time>2026-04-30T09:50:10.029Z</time></trkpt><trkpt lat="48.55001874563472" lon="7.4343616708985225"><ele>309.0</ele><time>2026-04-30T09:50:11.029Z</time></trkpt><trkpt lat="48.55009431599713" lon="7.434175622787154"><ele>309.0</ele><time>2026-04-30T09:50:12.029Z</time></trkpt><trkpt lat="48.550170430647476" lon="7.433968229649542"><ele>309.0</ele><time>2026-04-30T09:50:13.029Z</time></trkpt><trkpt lat="48.5502452980966" lon="7.433803481372646"><ele>309.0</ele><time>2026-04-30T09:50:14.029Z</time></trkpt><trkpt lat="48.550289597844156" lon="7.433698195398407"><ele>309.4</ele><time>2026-04-30T09:50:15.029Z</time></trkpt><trkpt lat="48.55032707798888" lon="7.433578967220575"><ele>309.79999999999995</ele><time>2026-04-30T09:50:17.029Z</time></trkpt><trkpt lat="48.55044819544772" lon="7.433649717690394"><ele>310.20000000000005</ele><time>2026-04-30T09:50:20.029Z</time></trkpt><trkpt lat="48.55051001541168" lon="7.4337251571668475"><ele>310.6</ele><time>2026-04-30T09:50:21.029Z</time></trkpt><trkpt lat="48.550564873441566" lon="7.433823889130994"><ele>311.0</ele><time>2026-04-30T09:50:22.029Z</time></trkpt><trkpt lat="48.550642943330054" lon="7.434010101466594"><ele>310.0</ele><time>2026-04-30T09:50:23.029Z</time></trkpt><trkpt lat="48.55071778291885" lon="7.434242491508302"><ele>309.0</ele><time>2026-04-30T09:50:24.029Z</time></trkpt><trkpt lat="48.55081032604758" lon="7.43446554219755"><ele>308.0</ele><time>2026-04-30T09:50:25.029Z</time></trkpt><trkpt lat="48.550898393240104" lon="7.434662012939358"><ele>308.0</ele><time>2026-04-30T09:50:26.029Z</time></trkpt><trkpt lat="48.5509825497088" lon="7.434820390738651"><ele>308.0</ele><time>2026-04-30T09:50:27.029Z</time></trkpt><trkpt lat="48.55107768633115" lon="7.434974676329671"><ele>308.0</ele><time>2026-04-30T09:50:28.029Z</time></trkpt><trkpt lat="48.55117224952374" lon="7.435107825172566"><ele>308.0</ele><time>2026-04-30T09:50:29.029Z</time></trkpt><trkpt lat="48.55126621438301" lon="7.435232967504029"><ele>308.25</ele><time>2026-04-30T09:50:30.029Z</time></trkpt><trkpt lat="48.55136121622467" lon="7.435369096340933"><ele>308.5</ele><time>2026-04-30T09:50:31.029Z</time></trkpt><trkpt lat="48.55145462176429" lon="7.43548273438708"><ele>308.75</ele><time>2026-04-30T09:50:32.029Z</time></trkpt><trkpt lat="48.55155118604853" lon="7.4355773049300105"><ele>309.0</ele><time>2026-04-30T09:50:33.029Z</time></trkpt><trkpt lat="48.55166550076674" lon="7.435654000195603"><ele>309.4</ele><time>2026-04-30T09:50:34.029Z</time></trkpt><trkpt lat="48.55176737760165" lon="7.43571066079565"><ele>309.79999999999995</ele><time>2026-04-30T09:50:35.029Z</time></trkpt><trkpt lat="48.55187645070063" lon="7.435770233028869"><ele>310.20000000000005</ele><time>2026-04-30T09:50:36.029Z</time></trkpt><trkpt lat="48.5519626084518" lon="7.435843958333254"><ele>310.6</ele><time>2026-04-30T09:50:37.029Z</time></trkpt><trkpt lat="48.552037353973866" lon="7.435921855175842"><ele>311.0</ele><time>2026-04-30T09:50:38.029Z</time></trkpt><trkpt lat="48.55210039640576" lon="7.4359715762411565"><ele>311.8</ele><time>2026-04-30T09:50:39.029Z</time></trkpt><trkpt lat="48.552176478092235" lon="7.43602037848593"><ele>312.6</ele><time>2026-04-30T09:50:40.029Z</time></trkpt><trkpt lat="48.5522642204768" lon="7.436054241294628"><ele>313.4</ele><time>2026-04-30T09:50:41.029Z</time></trkpt><trkpt lat="48.55236661998014" lon="7.436068027372298"><ele>314.2</ele><time>2026-04-30T09:50:42.029Z</time></trkpt><trkpt lat="48.552457101613314" lon="7.4360932439836605"><ele>315.0</ele><time>2026-04-30T09:50:43.029Z</time></trkpt><trkpt lat="48.552567264404786" lon="7.4361202322455435"><ele>315.0</ele><time>2026-04-30T09:50:44.029Z</time></trkpt><trkpt lat="48.55268293010919" lon="7.436163609986698"><ele>315.0</ele><time>2026-04-30T09:50:45.029Z</time></trkpt><trkpt lat="48.55280813703325" lon="7.436217592710073"><ele>315.0</ele><time>2026-04-30T09:50:46.029Z</time></trkpt><trkpt lat="48.5529355716447" lon="7.436280950315265"><ele>315.0</ele><time>2026-04-30T09:50:47.029Z</time></trkpt><trkpt lat="48.55305796209865" lon="7.436344094805218"><ele>315.75</ele><time>2026-04-30T09:50:48.029Z</time></trkpt><trkpt lat="48.55317772331921" lon="7.436400121094451"><ele>316.5</ele><time>2026-04-30T09:50:49.029Z</time></trkpt><trkpt lat="48.55330023618949" lon="7.436451299268"><ele>317.25</ele><time>2026-04-30T09:50:50.029Z</time></trkpt><trkpt lat="48.553428250542495" lon="7.436481630757728"><ele>318.0</ele><time>2026-04-30T09:50:51.029Z</time></trkpt><trkpt lat="48.553554356531194" lon="7.436492432762106"><ele>318.0</ele><time>2026-04-30T09:50:52.029Z</time></trkpt><trkpt lat="48.553695899481646" lon="7.436493143268247"><ele>318.0</ele><time>2026-04-30T09:50:53.029Z</time></trkpt><trkpt lat="48.553833288999954" lon="7.43649264216812"><ele>318.0</ele><time>2026-04-30T09:50:54.029Z</time></trkpt><trkpt lat="48.55396871936622" lon="7.436519213806276"><ele>318.0</ele><time>2026-04-30T09:50:55.029Z</time></trkpt><trkpt lat="48.55409195966564" lon="7.436593773028974"><ele>319.0</ele><time>2026-04-30T09:50:56.029Z</time></trkpt><trkpt lat="48.554219321478335" lon="7.436667949865915"><ele>320.0</ele><time>2026-04-30T09:50:57.029Z</time></trkpt><trkpt lat="48.554351569272896" lon="7.436707690851066"><ele>321.0</ele><time>2026-04-30T09:50:58.029Z</time></trkpt><trkpt lat="48.55450354999029" lon="7.4367280745586415"><ele>322.0</ele><time>2026-04-30T09:50:59.029Z</time></trkpt><trkpt lat="48.554640710031535" lon="7.436761200193286"><ele>322.0</ele><time>2026-04-30T09:51:00.029Z</time></trkpt><trkpt lat="48.55475504575159" lon="7.436819406670666"><ele>322.0</ele><time>2026-04-30T09:51:01.029Z</time></trkpt><trkpt lat="48.55484005699339" lon="7.436858856702458"><ele>322.0</ele><time>2026-04-30T09:51:02.029Z</time></trkpt><trkpt lat="48.55492616500648" lon="7.436877165346662"><ele>322.0</ele><time>2026-04-30T09:51:03.029Z</time></trkpt><trkpt lat="48.555032523881245" lon="7.436855708544589"><ele>322.0</ele><time>2026-04-30T09:51:04.029Z</time></trkpt><trkpt lat="48.55515169718109" lon="7.436840646825872"><ele>322.0</ele><time>2026-04-30T09:51:05.029Z</time></trkpt><trkpt lat="48.55525328407622" lon="7.436879608344597"><ele>322.0</ele><time>2026-04-30T09:51:06.029Z</time></trkpt><trkpt lat="48.55535024958418" lon="7.4369735021117656"><ele>322.0</ele><time>2026-04-30T09:51:07.029Z</time></trkpt><trkpt lat="48.55547848480242" lon="7.437088851924112"><ele>322.0</ele><time>2026-04-30T09:51:08.029Z</time></trkpt><trkpt lat="48.55565617601999" lon="7.437218652115298"><ele>321.3333333333333</ele><time>2026-04-30T09:51:09.029Z</time></trkpt><trkpt lat="48.55582845175669" lon="7.43731833537759"><ele>320.6666666666667</ele><time>2026-04-30T09:51:10.029Z</time></trkpt><trkpt lat="48.55600104399179" lon="7.437398815893953"><ele>320.0</ele><time>2026-04-30T09:51:11.029Z</time></trkpt><trkpt lat="48.55615185753318" lon="7.437471000487632"><ele>317.5</ele><time>2026-04-30T09:51:12.029Z</time></trkpt><trkpt lat="48.55626743015374" lon="7.437558292552852"><ele>315.0</ele><time>2026-04-30T09:51:13.029Z</time></trkpt><trkpt lat="48.55637718588103" lon="7.437659128805735"><ele>312.5</ele><time>2026-04-30T09:51:14.029Z</time></trkpt><trkpt lat="48.55651353987755" lon="7.437741654664898"><ele>310.0</ele><time>2026-04-30T09:51:15.03Z</time></trkpt><trkpt lat="48.556657777637454" lon="7.437805378824619"><ele>310.0</ele><time>2026-04-30T09:51:16.03Z</time></trkpt><trkpt lat="48.55678799402716" lon="7.43787524209171"><ele>310.0</ele><time>2026-04-30T09:51:17.03Z</time></trkpt><trkpt lat="48.556905627308396" lon="7.4379473168341645"><ele>310.0</ele><time>2026-04-30T09:51:18.03Z</time></trkpt><trkpt lat="48.55702580785062" lon="7.437984647427715"><ele>310.0</ele><time>2026-04-30T09:51:19.03Z</time></trkpt><trkpt lat="48.55718517247428" lon="7.438007661653639"><ele>308.5</ele><time>2026-04-30T09:51:20.03Z</time></trkpt><trkpt lat="48.55733610285236" lon="7.438060355157522"><ele>307.0</ele><time>2026-04-30T09:51:21.03Z</time></trkpt><trkpt lat="48.55747290622222" lon="7.438132331767647"><ele>305.5</ele><time>2026-04-30T09:51:22.03Z</time></trkpt><trkpt lat="48.55758779041362" lon="7.438199478181296"><ele>304.0</ele><time>2026-04-30T09:51:23.03Z</time></trkpt><trkpt lat="48.55769327767341" lon="7.438222590505305"><ele>304.0</ele><time>2026-04-30T09:51:24.03Z</time></trkpt><trkpt lat="48.557810594155164" lon="7.438218625675747"><ele>304.0</ele><time>2026-04-30T09:51:25.03Z</time></trkpt><trkpt lat="48.55793474394672" lon="7.438208395542579"><ele>304.0</ele><time>2026-04-30T09:51:26.03Z</time></trkpt><trkpt lat="48.55805565231726" lon="7.438230457765208"><ele>304.0</ele><time>2026-04-30T09:51:27.03Z</time></trkpt><trkpt lat="48.55817708308458" lon="7.438277159450832"><ele>299.66666666666663</ele><time>2026-04-30T09:51:28.03Z</time></trkpt><trkpt lat="48.55832797282228" lon="7.43832766215577"><ele>295.3333333333333</ele><time>2026-04-30T09:51:29.03Z</time></trkpt><trkpt lat="48.55852248632588" lon="7.438375428750473"><ele>291.0</ele><time>2026-04-30T09:51:30.03Z</time></trkpt><trkpt lat="48.55872196113607" lon="7.43839353877253"><ele>288.0</ele><time>2026-04-30T09:51:31.03Z</time></trkpt><trkpt lat="48.55891022342123" lon="7.4383909736792635"><ele>285.0</ele><time>2026-04-30T09:51:32.03Z</time></trkpt><trkpt lat="48.55907189143876" lon="7.438416777222264"><ele>282.0</ele><time>2026-04-30T09:51:33.03Z</time></trkpt><trkpt lat="48.55923347456186" lon="7.438469205874595"><ele>282.0</ele><time>2026-04-30T09:51:34.03Z</time></trkpt><trkpt lat="48.55940894453714" lon="7.438514792348071"><ele>282.0</ele><time>2026-04-30T09:51:35.03Z</time></trkpt><trkpt lat="48.559587917761995" lon="7.438548917927797"><ele>282.0</ele><time>2026-04-30T09:51:36.03Z</time></trkpt><trkpt lat="48.559743623002916" lon="7.438584735487638"><ele>280.75</ele><time>2026-04-30T09:51:37.03Z</time></trkpt><trkpt lat="48.55988453777822" lon="7.4386253189641485"><ele>279.5</ele><time>2026-04-30T09:51:38.03Z</time></trkpt><trkpt lat="48.560019395460245" lon="7.43867705648901"><ele>278.25</ele><time>2026-04-30T09:51:39.03Z</time></trkpt><trkpt lat="48.560153226822" lon="7.438740185415433"><ele>277.0</ele><time>2026-04-30T09:51:40.03Z</time></trkpt><trkpt lat="48.56029857631254" lon="7.438795539938731"><ele>276.0</ele><time>2026-04-30T09:51:41.03Z</time></trkpt><trkpt lat="48.56043047844884" lon="7.438864448644781"><ele>275.0</ele><time>2026-04-30T09:51:42.03Z</time></trkpt><trkpt lat="48.56056578771429" lon="7.4389571618560275"><ele>274.0</ele><time>2026-04-30T09:51:43.03Z</time></trkpt><trkpt lat="48.56072290768014" lon="7.439077447701129"><ele>274.0</ele><time>2026-04-30T09:51:44.03Z</time></trkpt><trkpt lat="48.56090019075579" lon="7.4392039657559454"><ele>274.0</ele><time>2026-04-30T09:51:45.03Z</time></trkpt><trkpt lat="48.56107820439916" lon="7.439319411811719"><ele>274.0</ele><time>2026-04-30T09:51:46.03Z</time></trkpt><trkpt lat="48.56122934349442" lon="7.4394453428815135"><ele>273.0</ele><time>2026-04-30T09:51:47.03Z</time></trkpt><trkpt lat="48.56138335424568" lon="7.439599585876517"><ele>272.0</ele><time>2026-04-30T09:51:48.03Z</time></trkpt><trkpt lat="48.56154994224242" lon="7.439756262333219"><ele>271.0</ele><time>2026-04-30T09:51:49.03Z</time></trkpt><trkpt lat="48.5617106487655" lon="7.439874725113329"><ele>271.0</ele><time>2026-04-30T09:51:50.03Z</time></trkpt><trkpt lat="48.561846381989085" lon="7.439978219352176"><ele>271.0</ele><time>2026-04-30T09:51:51.03Z</time></trkpt><trkpt lat="48.561969779166944" lon="7.440077152847211"><ele>271.0</ele><time>2026-04-30T09:51:52.03Z</time></trkpt><trkpt lat="48.562089231173765" lon="7.440154854692404"><ele>271.0</ele><time>2026-04-30T09:51:53.03Z</time></trkpt><trkpt lat="48.562202725363186" lon="7.440221168801265"><ele>270.2</ele><time>2026-04-30T09:51:54.03Z</time></trkpt><trkpt lat="48.56231863774097" lon="7.440263050724065"><ele>269.40000000000003</ele><time>2026-04-30T09:51:55.03Z</time></trkpt><trkpt lat="48.56243267041298" lon="7.440274939315511"><ele>268.6</ele><time>2026-04-30T09:51:56.03Z</time></trkpt><trkpt lat="48.56253421298201" lon="7.440271355500369"><ele>267.8</ele><time>2026-04-30T09:51:57.03Z</time></trkpt><trkpt lat="48.562633307400944" lon="7.440253351444786"><ele>267.0</ele><time>2026-04-30T09:51:58.03Z</time></trkpt><trkpt lat="48.562726955191884" lon="7.440238764148687"><ele>267.0</ele><time>2026-04-30T09:51:59.03Z</time></trkpt><trkpt lat="48.56281239172329" lon="7.440226166970767"><ele>267.0</ele><time>2026-04-30T09:52:00.03Z</time></trkpt><trkpt lat="48.562891671493276" lon="7.440227004935137"><ele>267.0</ele><time>2026-04-30T09:52:01.03Z</time></trkpt><trkpt lat="48.56296882516888" lon="7.440250092379668"><ele>267.0</ele><time>2026-04-30T09:52:02.03Z</time></trkpt><trkpt lat="48.56303563998947" lon="7.440284570542351"><ele>267.0</ele><time>2026-04-30T09:52:03.03Z</time></trkpt><trkpt lat="48.563094538983385" lon="7.440325226932155"><ele>267.0</ele><time>2026-04-30T09:52:04.03Z</time></trkpt><trkpt lat="48.563200359938904" lon="7.440391176926207"><ele>266.0</ele><time>2026-04-30T09:52:06.03Z</time></trkpt><trkpt lat="48.56328209168566" lon="7.440440461924262"><ele>265.0</ele><time>2026-04-30T09:52:08.03Z</time></trkpt><trkpt lat="48.5632181964612" lon="7.4404207029029"><ele>264.0</ele><time>2026-04-30T09:52:55.03Z</time></trkpt><trkpt lat="48.5632638297453" lon="7.440537414179906"><ele>263.0</ele><time>2026-04-30T09:53:15.03Z</time></trkpt><trkpt lat="48.56332850940009" lon="7.440670251152032"><ele>262.0</ele><time>2026-04-30T09:53:16.03Z</time></trkpt><trkpt lat="48.56342188095792" lon="7.440848864729149"><ele>261.66666666666663</ele><time>2026-04-30T09:53:17.03Z</time></trkpt><trkpt lat="48.56352684973914" lon="7.441046829721534"><ele>261.3333333333333</ele><time>2026-04-30T09:53:18.03Z</time></trkpt><trkpt lat="48.5636216944229" lon="7.441249672052442"><ele>261.0</ele><time>2026-04-30T09:53:19.03Z</time></trkpt><trkpt lat="48.56370225500899" lon="7.441464127402422"><ele>258.75</ele><time>2026-04-30T09:53:20.03Z</time></trkpt><trkpt lat="48.56375545279341" lon="7.441709619777178"><ele>256.5</ele><time>2026-04-30T09:53:21.031Z</time></trkpt><trkpt lat="48.563800030840156" lon="7.441908231523827"><ele>254.25</ele><time>2026-04-30T09:53:22.031Z</time></trkpt><trkpt lat="48.563828679900645" lon="7.442068110878577"><ele>252.0</ele><time>2026-04-30T09:53:23.031Z</time></trkpt><trkpt lat="48.563862027290995" lon="7.4422800655465835"><ele>250.66666666666669</ele><time>2026-04-30T09:53:24.031Z</time></trkpt><trkpt lat="48.563895448241006" lon="7.442510881208564"><ele>249.33333333333334</ele><time>2026-04-30T09:53:25.031Z</time></trkpt><trkpt lat="48.563931814179206" lon="7.442737686314895"><ele>248.0</ele><time>2026-04-30T09:53:26.031Z</time></trkpt><trkpt lat="48.56398817001701" lon="7.442963420954216"><ele>246.75</ele><time>2026-04-30T09:53:27.031Z</time></trkpt><trkpt lat="48.56402313941218" lon="7.4431671055215"><ele>245.5</ele><time>2026-04-30T09:53:28.03Z</time></trkpt><trkpt lat="48.56406023685251" lon="7.443373286938377"><ele>244.25</ele><time>2026-04-30T09:53:29.03Z</time></trkpt><trkpt lat="48.56410894840268" lon="7.443547665328628"><ele>243.0</ele><time>2026-04-30T09:53:30.03Z</time></trkpt><trkpt lat="48.56412974961417" lon="7.443742698521673"><ele>241.5</ele><time>2026-04-30T09:53:31.031Z</time></trkpt><trkpt lat="48.56415352284298" lon="7.443926353094831"><ele>240.0</ele><time>2026-04-30T09:53:32.031Z</time></trkpt><trkpt lat="48.56417446476738" lon="7.4441000722660835"><ele>238.5</ele><time>2026-04-30T09:53:33.031Z</time></trkpt><trkpt lat="48.56419565765469" lon="7.444270434114921"><ele>237.0</ele><time>2026-04-30T09:53:34.031Z</time></trkpt><trkpt lat="48.56423077548231" lon="7.444448728349281"><ele>236.25</ele><time>2026-04-30T09:53:35.031Z</time></trkpt><trkpt lat="48.564252385707384" lon="7.444643720124433"><ele>235.5</ele><time>2026-04-30T09:53:36.031Z</time></trkpt><trkpt lat="48.56428164274928" lon="7.444846417828218"><ele>234.75</ele><time>2026-04-30T09:53:37.031Z</time></trkpt><trkpt lat="48.56428976088719" lon="7.445060370435749"><ele>234.0</ele><time>2026-04-30T09:53:38.031Z</time></trkpt><trkpt lat="48.56430992154454" lon="7.445254262828947"><ele>234.0</ele><time>2026-04-30T09:53:39.031Z</time></trkpt><trkpt lat="48.564344319292395" lon="7.44545080901752"><ele>234.0</ele><time>2026-04-30T09:53:40.031Z</time></trkpt><trkpt lat="48.56437102117682" lon="7.44562276508116"><ele>234.0</ele><time>2026-04-30T09:53:41.031Z</time></trkpt><trkpt lat="48.56440177167572" lon="7.445798166156795"><ele>234.0</ele><time>2026-04-30T09:53:42.031Z</time></trkpt><trkpt lat="48.56444303042763" lon="7.44596756662317"><ele>233.0</ele><time>2026-04-30T09:53:43.031Z</time></trkpt><trkpt lat="48.564484793313916" lon="7.446138055975813"><ele>232.0</ele><time>2026-04-30T09:53:44.031Z</time></trkpt><trkpt lat="48.56450894494004" lon="7.446320531873629"><ele>231.0</ele><time>2026-04-30T09:53:45.031Z</time></trkpt><trkpt lat="48.56454852264779" lon="7.446496531957146"><ele>230.0</ele><time>2026-04-30T09:53:46.031Z</time></trkpt><trkpt lat="48.564591968995316" lon="7.44667672108423"><ele>228.25</ele><time>2026-04-30T09:53:47.031Z</time></trkpt><trkpt lat="48.56464497649374" lon="7.446837609035136"><ele>226.5</ele><time>2026-04-30T09:53:48.031Z</time></trkpt><trkpt lat="48.56468788452051" lon="7.447009492773755"><ele>224.75</ele><time>2026-04-30T09:53:49.031Z</time></trkpt><trkpt lat="48.56473780862959" lon="7.4471802203353175"><ele>223.0</ele><time>2026-04-30T09:53:50.031Z</time></trkpt><trkpt lat="48.56479027928061" lon="7.447347890690012"><ele>221.75</ele><time>2026-04-30T09:53:51.031Z</time></trkpt><trkpt lat="48.564842551894564" lon="7.447515408228653"><ele>220.5</ele><time>2026-04-30T09:53:52.031Z</time></trkpt><trkpt lat="48.56489827835944" lon="7.44768124573811"><ele>219.25</ele><time>2026-04-30T09:53:53.031Z</time></trkpt><trkpt lat="48.56495877661374" lon="7.447843013166666"><ele>218.0</ele><time>2026-04-30T09:53:54.031Z</time></trkpt><trkpt lat="48.56502855163659" lon="7.448003116474047"><ele>218.0</ele><time>2026-04-30T09:53:55.031Z</time></trkpt><trkpt lat="48.565106880559064" lon="7.448174215745011"><ele>218.0</ele><time>2026-04-30T09:53:56.031Z</time></trkpt><trkpt lat="48.565182671197334" lon="7.448332464533089"><ele>218.0</ele><time>2026-04-30T09:53:57.031Z</time></trkpt><trkpt lat="48.56526123595796" lon="7.448496219023649"><ele>218.0</ele><time>2026-04-30T09:53:58.031Z</time></trkpt><trkpt lat="48.56533968953951" lon="7.44866118094213"><ele>216.75</ele><time>2026-04-30T09:53:59.031Z</time></trkpt><trkpt lat="48.56541886350797" lon="7.448825210042041"><ele>215.5</ele><time>2026-04-30T09:54:00.031Z</time></trkpt><trkpt lat="48.56547716770089" lon="7.449001166883985"><ele>214.25</ele><time>2026-04-30T09:54:01.031Z</time></trkpt><trkpt lat="48.56554239506841" lon="7.449168468619231"><ele>213.0</ele><time>2026-04-30T09:54:02.031Z</time></trkpt><trkpt lat="48.56560227639494" lon="7.449330793283565"><ele>213.0</ele><time>2026-04-30T09:54:03.031Z</time></trkpt><trkpt lat="48.565660393891854" lon="7.4495083892010685"><ele>213.0</ele><time>2026-04-30T09:54:04.031Z</time></trkpt><trkpt lat="48.565708203319126" lon="7.44967646857729"><ele>213.0</ele><time>2026-04-30T09:54:05.031Z</time></trkpt><trkpt lat="48.56576117748686" lon="7.449861554719796"><ele>213.0</ele><time>2026-04-30T09:54:06.031Z</time></trkpt><trkpt lat="48.56582671862504" lon="7.450042326513614"><ele>212.75</ele><time>2026-04-30T09:54:07.031Z</time></trkpt><trkpt lat="48.565878095518904" lon="7.450241717784242"><ele>212.5</ele><time>2026-04-30T09:54:08.031Z</time></trkpt><trkpt lat="48.565935758407505" lon="7.450443206756539"><ele>212.25</ele><time>2026-04-30T09:54:09.031Z</time></trkpt><trkpt lat="48.565993221710755" lon="7.450647427512014"><ele>212.0</ele><time>2026-04-30T09:54:10.031Z</time></trkpt><trkpt lat="48.566048248511336" lon="7.45085009350256"><ele>212.0</ele><time>2026-04-30T09:54:11.031Z</time></trkpt><trkpt lat="48.56609220035518" lon="7.4510740664705155"><ele>212.0</ele><time>2026-04-30T09:54:12.031Z</time></trkpt><trkpt lat="48.56615216403778" lon="7.4512917746163945"><ele>212.0</ele><time>2026-04-30T09:54:13.031Z</time></trkpt><trkpt lat="48.566213265272495" lon="7.451522765129458"><ele>208.66666666666669</ele><time>2026-04-30T09:54:14.031Z</time></trkpt><trkpt lat="48.56627393706879" lon="7.451758842391891"><ele>205.33333333333331</ele><time>2026-04-30T09:54:15.031Z</time></trkpt><trkpt lat="48.56633583278819" lon="7.451999773673097"><ele>202.0</ele><time>2026-04-30T09:54:16.031Z</time></trkpt><trkpt lat="48.566398624314516" lon="7.452242374734839"><ele>202.0</ele><time>2026-04-30T09:54:17.031Z</time></trkpt><trkpt lat="48.56645981146464" lon="7.452476703512053"><ele>202.0</ele><time>2026-04-30T09:54:18.031Z</time></trkpt><trkpt lat="48.56652282614621" lon="7.452718031190788"><ele>202.0</ele><time>2026-04-30T09:54:19.031Z</time></trkpt><trkpt lat="48.56658503035698" lon="7.4529521692314535"><ele>201.0</ele><time>2026-04-30T09:54:20.031Z</time></trkpt><trkpt lat="48.56664931623269" lon="7.453193920349615"><ele>200.0</ele><time>2026-04-30T09:54:21.031Z</time></trkpt><trkpt lat="48.566727922184526" lon="7.453421576744914"><ele>199.0</ele><time>2026-04-30T09:54:22.031Z</time></trkpt><trkpt lat="48.566793751907134" lon="7.453662371448018"><ele>199.66666666666666</ele><time>2026-04-30T09:54:23.031Z</time></trkpt><trkpt lat="48.56685782124954" lon="7.453897947757598"><ele>200.33333333333331</ele><time>2026-04-30T09:54:24.031Z</time></trkpt><trkpt lat="48.566919657174" lon="7.454117388088954"><ele>201.0</ele><time>2026-04-30T09:54:25.031Z</time></trkpt><trkpt lat="48.56697591990314" lon="7.454318930284015"><ele>201.0</ele><time>2026-04-30T09:54:26.031Z</time></trkpt><trkpt lat="48.567016747911545" lon="7.454521654980456"><ele>201.0</ele><time>2026-04-30T09:54:27.031Z</time></trkpt><trkpt lat="48.56708179119487" lon="7.454695228291593"><ele>201.0</ele><time>2026-04-30T09:54:28.031Z</time></trkpt><trkpt lat="48.567129802855554" lon="7.454864605602248"><ele>201.0</ele><time>2026-04-30T09:54:29.031Z</time></trkpt><trkpt lat="48.56718003813724" lon="7.455024443838335"><ele>201.25</ele><time>2026-04-30T09:54:30.031Z</time></trkpt><trkpt lat="48.56722057965984" lon="7.455195805654354"><ele>201.5</ele><time>2026-04-30T09:54:31.031Z</time></trkpt><trkpt lat="48.56729538263521" lon="7.455351331945104"><ele>201.75</ele><time>2026-04-30T09:54:32.031Z</time></trkpt><trkpt lat="48.56735600902017" lon="7.455511792224145"><ele>202.0</ele><time>2026-04-30T09:54:33.031Z</time></trkpt><trkpt lat="48.567413363927336" lon="7.455661436214485"><ele>202.0</ele><time>2026-04-30T09:54:34.031Z</time></trkpt><trkpt lat="48.56747350309946" lon="7.455796895765798"><ele>202.0</ele><time>2026-04-30T09:54:35.031Z</time></trkpt><trkpt lat="48.56753534191473" lon="7.455929997014577"><ele>202.0</ele><time>2026-04-30T09:54:36.031Z</time></trkpt><trkpt lat="48.56757917421391" lon="7.456079470091109"><ele>202.0</ele><time>2026-04-30T09:54:37.031Z</time></trkpt><trkpt lat="48.567640202571326" lon="7.45622800672123"><ele>202.0</ele><time>2026-04-30T09:54:38.031Z</time></trkpt><trkpt lat="48.567721111903516" lon="7.456380635615692"><ele>200.33333333333331</ele><time>2026-04-30T09:54:39.031Z</time></trkpt><trkpt lat="48.567791969364535" lon="7.456566073361162"><ele>198.66666666666669</ele><time>2026-04-30T09:54:40.031Z</time></trkpt><trkpt lat="48.567871019171" lon="7.456770167858673"><ele>197.0</ele><time>2026-04-30T09:54:41.031Z</time></trkpt><trkpt lat="48.56795059011262" lon="7.456970135043883"><ele>197.5</ele><time>2026-04-30T09:54:42.031Z</time></trkpt><trkpt lat="48.56800683264839" lon="7.457167607101971"><ele>198.0</ele><time>2026-04-30T09:54:43.031Z</time></trkpt><trkpt lat="48.56807391980002" lon="7.457349493167557"><ele>198.5</ele><time>2026-04-30T09:54:44.031Z</time></trkpt><trkpt lat="48.568119989242334" lon="7.457476169837562"><ele>199.0</ele><time>2026-04-30T09:54:45.031Z</time></trkpt><trkpt lat="48.56817669453655" lon="7.457634842358838"><ele>199.0</ele><time>2026-04-30T09:54:46.031Z</time></trkpt><trkpt lat="48.5682329678412" lon="7.4578025209830505"><ele>199.0</ele><time>2026-04-30T09:54:47.031Z</time></trkpt><trkpt lat="48.568280256571974" lon="7.4579497136597"><ele>199.0</ele><time>2026-04-30T09:54:48.031Z</time></trkpt><trkpt lat="48.568362087449714" lon="7.458132918187233"><ele>199.0</ele><time>2026-04-30T09:54:49.031Z</time></trkpt><trkpt lat="48.56841987670327" lon="7.45828540026786"><ele>200.25</ele><time>2026-04-30T09:54:50.031Z</time></trkpt><trkpt lat="48.56848353602503" lon="7.458434208579821"><ele>201.5</ele><time>2026-04-30T09:54:51.031Z</time></trkpt><trkpt lat="48.568554304165" lon="7.458582893203247"><ele>202.75</ele><time>2026-04-30T09:54:52.031Z</time></trkpt><trkpt lat="48.56862456575785" lon="7.4587331232511085"><ele>204.0</ele><time>2026-04-30T09:54:53.031Z</time></trkpt><trkpt lat="48.56869248197695" lon="7.458875261097192"><ele>202.79999999999998</ele><time>2026-04-30T09:54:54.031Z</time></trkpt><trkpt lat="48.56876006788403" lon="7.459009451983241"><ele>201.6</ele><time>2026-04-30T09:54:55.031Z</time></trkpt><trkpt lat="48.56882534923525" lon="7.459138679421433"><ele>200.4</ele><time>2026-04-30T09:54:56.031Z</time></trkpt><trkpt lat="48.56887767663034" lon="7.459278437992999"><ele>199.2</ele><time>2026-04-30T09:54:57.031Z</time></trkpt><trkpt lat="48.568928335269696" lon="7.459428972629329"><ele>198.0</ele><time>2026-04-30T09:54:58.031Z</time></trkpt><trkpt lat="48.568975424869585" lon="7.459585505124787"><ele>198.5</ele><time>2026-04-30T09:54:59.031Z</time></trkpt><trkpt lat="48.569050547725475" lon="7.459760561774841"><ele>199.0</ele><time>2026-04-30T09:55:00.03Z</time></trkpt><trkpt lat="48.56910023579698" lon="7.459932106689333"><ele>199.5</ele><time>2026-04-30T09:55:01.03Z</time></trkpt><trkpt lat="48.569155660895944" lon="7.460106573869295"><ele>200.0</ele><time>2026-04-30T09:55:02.03Z</time></trkpt><trkpt lat="48.56921241854655" lon="7.460286860263276"><ele>201.25</ele><time>2026-04-30T09:55:03.03Z</time></trkpt><trkpt lat="48.56928753475155" lon="7.460476303942798"><ele>202.5</ele><time>2026-04-30T09:55:04.03Z</time></trkpt><trkpt lat="48.5693583742368" lon="7.4606775066705335"><ele>203.75</ele><time>2026-04-30T09:55:05.03Z</time></trkpt><trkpt lat="48.56941939679456" lon="7.460873515466473"><ele>205.0</ele><time>2026-04-30T09:55:06.03Z</time></trkpt><trkpt lat="48.56948475199791" lon="7.461060919950792"><ele>203.75</ele><time>2026-04-30T09:55:07.03Z</time></trkpt><trkpt lat="48.5695356634485" lon="7.4612498372079665"><ele>202.5</ele><time>2026-04-30T09:55:08.03Z</time></trkpt><trkpt lat="48.5695891880124" lon="7.46143706451536"><ele>201.25</ele><time>2026-04-30T09:55:09.03Z</time></trkpt><trkpt lat="48.56964451963151" lon="7.4616198921343075"><ele>200.0</ele><time>2026-04-30T09:55:10.03Z</time></trkpt><trkpt lat="48.5696843802022" lon="7.461801441360849"><ele>200.0</ele><time>2026-04-30T09:55:11.03Z</time></trkpt><trkpt lat="48.569731401182906" lon="7.461988205487978"><ele>200.0</ele><time>2026-04-30T09:55:12.03Z</time></trkpt><trkpt lat="48.569775567980194" lon="7.462178585324166"><ele>200.0</ele><time>2026-04-30T09:55:13.03Z</time></trkpt><trkpt lat="48.56981920050624" lon="7.462378010683426"><ele>200.0</ele><time>2026-04-30T09:55:14.03Z</time></trkpt><trkpt lat="48.569862635550855" lon="7.462584539961079"><ele>201.25</ele><time>2026-04-30T09:55:15.03Z</time></trkpt><trkpt lat="48.56991184874157" lon="7.4627865223819905"><ele>202.5</ele><time>2026-04-30T09:55:16.03Z</time></trkpt><trkpt lat="48.56996361837054" lon="7.462985749308571"><ele>203.75</ele><time>2026-04-30T09:55:17.03Z</time></trkpt><trkpt lat="48.57001577969292" lon="7.46318065444917"><ele>205.0</ele><time>2026-04-30T09:55:18.03Z</time></trkpt><trkpt lat="48.57007494800364" lon="7.463376227572107"><ele>206.25</ele><time>2026-04-30T09:55:19.03Z</time></trkpt><trkpt lat="48.570134950587814" lon="7.46356686162583"><ele>207.5</ele><time>2026-04-30T09:55:20.03Z</time></trkpt><trkpt lat="48.5701942233592" lon="7.463746146545001"><ele>208.75</ele><time>2026-04-30T09:55:21.03Z</time></trkpt><trkpt lat="48.57025815473764" lon="7.46391318463869"><ele>210.0</ele><time>2026-04-30T09:55:22.03Z</time></trkpt><trkpt lat="48.570327852330145" lon="7.464076701491537"><ele>210.6</ele><time>2026-04-30T09:55:23.03Z</time></trkpt><trkpt lat="48.57039287679677" lon="7.464235887239156"><ele>211.2</ele><time>2026-04-30T09:55:24.03Z</time></trkpt><trkpt lat="48.570442591363445" lon="7.464368380841977"><ele>211.8</ele><time>2026-04-30T09:55:25.03Z</time></trkpt><trkpt lat="48.57048605051636" lon="7.464480988450872"><ele>212.4</ele><time>2026-04-30T09:55:26.03Z</time></trkpt><trkpt lat="48.57052773787677" lon="7.464582601387073"><ele>213.0</ele><time>2026-04-30T09:55:27.032Z</time></trkpt><trkpt lat="48.57055264685227" lon="7.464685177583114"><ele>213.0</ele><time>2026-04-30T09:55:28.032Z</time></trkpt><trkpt lat="48.570577498584676" lon="7.464793925439064"><ele>213.0</ele><time>2026-04-30T09:55:29.032Z</time></trkpt><trkpt lat="48.57061235770039" lon="7.464912751365675"><ele>213.0</ele><time>2026-04-30T09:55:30.031Z</time></trkpt><trkpt lat="48.570637613905504" lon="7.465038340329622"><ele>213.0</ele><time>2026-04-30T09:55:31.031Z</time></trkpt><trkpt lat="48.570664718754884" lon="7.465163915147077"><ele>213.0</ele><time>2026-04-30T09:55:32.031Z</time></trkpt><trkpt lat="48.57068925575166" lon="7.465269631886474"><ele>213.0</ele><time>2026-04-30T09:55:33.032Z</time></trkpt><trkpt lat="48.57072766913369" lon="7.465377562067811"><ele>213.16666666666666</ele><time>2026-04-30T09:55:34.031Z</time></trkpt><trkpt lat="48.5707553584597" lon="7.46548535247579"><ele>213.33333333333331</ele><time>2026-04-30T09:55:35.031Z</time></trkpt><trkpt lat="48.57078703084853" lon="7.4655929890325545"><ele>213.5</ele><time>2026-04-30T09:55:36.032Z</time></trkpt><trkpt lat="48.570818362962626" lon="7.465715654319261"><ele>213.66666666666666</ele><time>2026-04-30T09:55:37.031Z</time></trkpt><trkpt lat="48.57084153960457" lon="7.465849833737626"><ele>213.83333333333331</ele><time>2026-04-30T09:55:38.031Z</time></trkpt><trkpt lat="48.570862460740344" lon="7.466003741312622"><ele>214.0</ele><time>2026-04-30T09:55:39.031Z</time></trkpt><trkpt lat="48.57088893280579" lon="7.466169771948945"><ele>213.99999999999997</ele><time>2026-04-30T09:55:40.031Z</time></trkpt><trkpt lat="48.57091455809814" lon="7.466310258027578"><ele>214.0</ele><time>2026-04-30T09:55:41.031Z</time></trkpt><trkpt lat="48.57094643630785" lon="7.466433397759154"><ele>214.0</ele><time>2026-04-30T09:55:42.031Z</time></trkpt><trkpt lat="48.570957396953716" lon="7.466544145080213"><ele>214.0</ele><time>2026-04-30T09:55:43.031Z</time></trkpt><trkpt lat="48.57096296027442" lon="7.4666418759493265"><ele>213.99999999999997</ele><time>2026-04-30T09:55:44.031Z</time></trkpt><trkpt lat="48.570980291710406" lon="7.466738449550084"><ele>214.0</ele><time>2026-04-30T09:55:46.031Z</time></trkpt><trkpt lat="48.571054296832706" lon="7.466895608091744"><ele>213.99999999999997</ele><time>2026-04-30T09:55:48.031Z</time></trkpt><trkpt lat="48.571130055535555" lon="7.4669480541721525"><ele>214.0</ele><time>2026-04-30T09:55:50.031Z</time></trkpt><trkpt lat="48.57119386187558" lon="7.466913793351172"><ele>214.0</ele><time>2026-04-30T09:55:51.031Z</time></trkpt><trkpt lat="48.571279924220626" lon="7.466874189313802"><ele>214.0</ele><time>2026-04-30T09:55:52.031Z</time></trkpt><trkpt lat="48.571360035811125" lon="7.4668142154399435"><ele>213.99999999999997</ele><time>2026-04-30T09:55:53.031Z</time></trkpt><trkpt lat="48.57142971694221" lon="7.466753628220703"><ele>214.0</ele><time>2026-04-30T09:55:54.031Z</time></trkpt><trkpt lat="48.57151081296549" lon="7.4666815315953885"><ele>212.49999999999997</ele><time>2026-04-30T09:55:55.031Z</time></trkpt><trkpt lat="48.57161814812193" lon="7.46663905363824"><ele>211.0</ele><time>2026-04-30T09:55:56.031Z</time></trkpt><trkpt lat="48.57172020395176" lon="7.4666108675452065"><ele>209.5</ele><time>2026-04-30T09:55:57.031Z</time></trkpt><trkpt lat="48.571796893912385" lon="7.4665810119651015"><ele>208.0</ele><time>2026-04-30T09:55:58.031Z</time></trkpt><trkpt lat="48.571870414092714" lon="7.466547631318752"><ele>206.49999999999997</ele><time>2026-04-30T09:55:59.031Z</time></trkpt><trkpt lat="48.57194504054946" lon="7.466516484705965"><ele>205.0</ele><time>2026-04-30T09:56:00.031Z</time></trkpt><trkpt lat="48.57201126382343" lon="7.466489004036813"><ele>202.75</ele><time>2026-04-30T09:56:01.031Z</time></trkpt><trkpt lat="48.57217389988194" lon="7.466613589292784"><ele>200.5</ele><time>2026-04-30T09:56:05.031Z</time></trkpt><trkpt lat="48.57219651680931" lon="7.46676670823239"><ele>198.25</ele><time>2026-04-30T09:56:06.031Z</time></trkpt><trkpt lat="48.57221544218059" lon="7.46693913136267"><ele>196.0</ele><time>2026-04-30T09:56:07.031Z</time></trkpt><trkpt lat="48.57222407175807" lon="7.467120429288829"><ele>195.99999999999997</ele><time>2026-04-30T09:56:08.031Z</time></trkpt><trkpt lat="48.572251448774274" lon="7.467241018566662"><ele>196.0</ele><time>2026-04-30T09:56:09.031Z</time></trkpt><trkpt lat="48.572265209547986" lon="7.467355764825609"><ele>196.0</ele><time>2026-04-30T09:56:11.031Z</time></trkpt><trkpt lat="48.57230114125161" lon="7.467462898704586"><ele>196.0</ele><time>2026-04-30T09:56:12.031Z</time></trkpt><trkpt lat="48.572330100109184" lon="7.467602483097343"><ele>195.99999999999997</ele><time>2026-04-30T09:56:13.031Z</time></trkpt><trkpt lat="48.57234704188936" lon="7.467741354125059"><ele>196.0</ele><time>2026-04-30T09:56:14.031Z</time></trkpt><trkpt lat="48.57237419336191" lon="7.467880941178924"><ele>196.16666666666666</ele><time>2026-04-30T09:56:15.031Z</time></trkpt><trkpt lat="48.572391561891685" lon="7.46801010066304"><ele>196.33333333333331</ele><time>2026-04-30T09:56:16.031Z</time></trkpt><trkpt lat="48.57241637994657" lon="7.468135297595642"><ele>196.5</ele><time>2026-04-30T09:56:17.031Z</time></trkpt><trkpt lat="48.5724369109007" lon="7.468261782700041"><ele>196.66666666666669</ele><time>2026-04-30T09:56:18.031Z</time></trkpt><trkpt lat="48.572462408447635" lon="7.4683752086374815"><ele>196.83333333333334</ele><time>2026-04-30T09:56:19.031Z</time></trkpt><trkpt lat="48.57249176073628" lon="7.4684870219670705"><ele>197.0</ele><time>2026-04-30T09:56:20.031Z</time></trkpt><trkpt lat="48.572505864944304" lon="7.468617225888225"><ele>197.0</ele><time>2026-04-30T09:56:21.031Z</time></trkpt><trkpt lat="48.572495492754896" lon="7.468765700736265"><ele>197.0</ele><time>2026-04-30T09:56:22.031Z</time></trkpt><trkpt lat="48.572492378544574" lon="7.468927682767497"><ele>197.0</ele><time>2026-04-30T09:56:23.031Z</time></trkpt><trkpt lat="48.57249602216119" lon="7.469074678244648"><ele>197.0</ele><time>2026-04-30T09:56:24.031Z</time></trkpt><trkpt lat="48.57250041046182" lon="7.469208460418916"><ele>197.0</ele><time>2026-04-30T09:56:25.031Z</time></trkpt><trkpt lat="48.572499321410604" lon="7.469341239421482"><ele>197.2</ele><time>2026-04-30T09:56:26.031Z</time></trkpt><trkpt lat="48.57249930050541" lon="7.469475555607857"><ele>197.39999999999998</ele><time>2026-04-30T09:56:27.031Z</time></trkpt><trkpt lat="48.572506783758115" lon="7.4696133460136105"><ele>197.60000000000002</ele><time>2026-04-30T09:56:28.031Z</time></trkpt><trkpt lat="48.57250878978057" lon="7.469753189346457"><ele>197.8</ele><time>2026-04-30T09:56:29.031Z</time></trkpt><trkpt lat="48.57251573731474" lon="7.469897844244362"><ele>198.0</ele><time>2026-04-30T09:56:30.031Z</time></trkpt><trkpt lat="48.57252344889349" lon="7.470044085663421"><ele>197.60000000000002</ele><time>2026-04-30T09:56:31.031Z</time></trkpt><trkpt lat="48.572536190728684" lon="7.4701855704693"><ele>197.20000000000002</ele><time>2026-04-30T09:56:32.031Z</time></trkpt><trkpt lat="48.572554211788166" lon="7.470343324007173"><ele>196.8</ele><time>2026-04-30T09:56:33.031Z</time></trkpt><trkpt lat="48.572571470091475" lon="7.47051234689815"><ele>196.4</ele><time>2026-04-30T09:56:34.031Z</time></trkpt><trkpt lat="48.57258398061839" lon="7.470691817784628"><ele>196.0</ele><time>2026-04-30T09:56:35.031Z</time></trkpt><trkpt lat="48.57259806198557" lon="7.470866945835113"><ele>195.25</ele><time>2026-04-30T09:56:36.031Z</time></trkpt><trkpt lat="48.57261664971353" lon="7.47104968418766"><ele>194.5</ele><time>2026-04-30T09:56:37.031Z</time></trkpt><trkpt lat="48.572634288688455" lon="7.471238502174909"><ele>193.75</ele><time>2026-04-30T09:56:38.031Z</time></trkpt><trkpt lat="48.57264960432127" lon="7.47143626032956"><ele>193.0</ele><time>2026-04-30T09:56:39.031Z</time></trkpt><trkpt lat="48.57265776062357" lon="7.471644587655912"><ele>192.75</ele><time>2026-04-30T09:56:40.031Z</time></trkpt><trkpt lat="48.572676528705536" lon="7.471862646403578"><ele>192.5</ele><time>2026-04-30T09:56:41.031Z</time></trkpt><trkpt lat="48.57268944003496" lon="7.472079229000404"><ele>192.25</ele><time>2026-04-30T09:56:42.031Z</time></trkpt><trkpt lat="48.57270639346642" lon="7.472304582215851"><ele>192.0</ele><time>2026-04-30T09:56:43.031Z</time></trkpt><trkpt lat="48.57272238111021" lon="7.472536226605228"><ele>191.66666666666666</ele><time>2026-04-30T09:56:44.031Z</time></trkpt><trkpt lat="48.572739248297204" lon="7.472772194962159"><ele>191.33333333333331</ele><time>2026-04-30T09:56:45.031Z</time></trkpt><trkpt lat="48.57275698928888" lon="7.473012250042047"><ele>191.0</ele><time>2026-04-30T09:56:46.031Z</time></trkpt><trkpt lat="48.57277300894145" lon="7.473246540468242"><ele>191.0</ele><time>2026-04-30T09:56:47.031Z</time></trkpt><trkpt lat="48.572791197664586" lon="7.473477319346945"><ele>191.0</ele><time>2026-04-30T09:56:48.031Z</time></trkpt><trkpt lat="48.572808748047485" lon="7.473683333017309"><ele>191.0</ele><time>2026-04-30T09:56:49.031Z</time></trkpt><trkpt lat="48.572826830656055" lon="7.473876475522698"><ele>191.0</ele><time>2026-04-30T09:56:50.031Z</time></trkpt><trkpt lat="48.57283993891297" lon="7.47407041834948"><ele>191.4</ele><time>2026-04-30T09:56:51.031Z</time></trkpt><trkpt lat="48.57285532120508" lon="7.474250383815962"><ele>191.8</ele><time>2026-04-30T09:56:52.031Z</time></trkpt><trkpt lat="48.572873107921396" lon="7.474429511630296"><ele>192.20000000000002</ele><time>2026-04-30T09:56:53.031Z</time></trkpt><trkpt lat="48.57288886882917" lon="7.474576357725103"><ele>192.60000000000002</ele><time>2026-04-30T09:56:54.031Z</time></trkpt><trkpt lat="48.57289385383883" lon="7.474718932140698"><ele>193.0</ele><time>2026-04-30T09:56:55.031Z</time></trkpt><trkpt lat="48.57289576294095" lon="7.474882847565002"><ele>190.5</ele><time>2026-04-30T09:56:56.031Z</time></trkpt><trkpt lat="48.57290482518385" lon="7.475061510404462"><ele>188.0</ele><time>2026-04-30T09:56:57.031Z</time></trkpt><trkpt lat="48.57291557938798" lon="7.475245675439728"><ele>185.5</ele><time>2026-04-30T09:56:58.031Z</time></trkpt><trkpt lat="48.57292930048898" lon="7.475441156414287"><ele>183.0</ele><time>2026-04-30T09:56:59.031Z</time></trkpt><trkpt lat="48.57295023821203" lon="7.475650565492148"><ele>183.0</ele><time>2026-04-30T09:57:00.031Z</time></trkpt><trkpt lat="48.57296258031399" lon="7.475849552251426"><ele>183.0</ele><time>2026-04-30T09:57:01.031Z</time></trkpt><trkpt lat="48.572978443154334" lon="7.476092116027005"><ele>183.0</ele><time>2026-04-30T09:57:02.031Z</time></trkpt><trkpt lat="48.57300762318353" lon="7.476397921123999"><ele>183.5</ele><time>2026-04-30T09:57:03.031Z</time></trkpt><trkpt lat="48.57303848324162" lon="7.476733493798331"><ele>184.0</ele><time>2026-04-30T09:57:04.031Z</time></trkpt><trkpt lat="48.57307207829882" lon="7.477095632953343"><ele>185.0</ele><time>2026-04-30T09:57:05.031Z</time></trkpt><trkpt lat="48.573108560971434" lon="7.477469648692909"><ele>186.0</ele><time>2026-04-30T09:57:06.031Z</time></trkpt><trkpt lat="48.57314990721519" lon="7.477848499611732"><ele>187.5</ele><time>2026-04-30T09:57:07.031Z</time></trkpt><trkpt lat="48.573208296164886" lon="7.4782187882919695"><ele>189.0</ele><time>2026-04-30T09:57:08.031Z</time></trkpt><trkpt lat="48.57327192942437" lon="7.47855348897599"><ele>189.33333333333334</ele><time>2026-04-30T09:57:09.031Z</time></trkpt><trkpt lat="48.57333960184008" lon="7.478826315755332"><ele>189.66666666666669</ele><time>2026-04-30T09:57:10.031Z</time></trkpt><trkpt lat="48.57339490323921" lon="7.4790351386176015"><ele>190.0</ele><time>2026-04-30T09:57:11.031Z</time></trkpt><trkpt lat="48.57344086064763" lon="7.4792302354510225"><ele>190.0</ele><time>2026-04-30T09:57:12.031Z</time></trkpt><trkpt lat="48.57348114490677" lon="7.47940569476809"><ele>190.0</ele><time>2026-04-30T09:57:13.031Z</time></trkpt><trkpt lat="48.573495499217884" lon="7.479508051236028"><ele>190.0</ele><time>2026-04-30T09:57:14.031Z</time></trkpt><trkpt lat="48.57348488442965" lon="7.479317916326915"><ele>190.0</ele><time>2026-04-30T09:57:20.031Z</time></trkpt><trkpt lat="48.57344383717628" lon="7.4791422374324865"><ele>190.0</ele><time>2026-04-30T09:57:21.031Z</time></trkpt><trkpt lat="48.573406949744395" lon="7.4789310883886015"><ele>189.83333333333334</ele><time>2026-04-30T09:57:22.031Z</time></trkpt><trkpt lat="48.57336451062877" lon="7.4787583446728805"><ele>189.66666666666669</ele><time>2026-04-30T09:57:23.031Z</time></trkpt><trkpt lat="48.57333427273351" lon="7.478634113137279"><ele>189.5</ele><time>2026-04-30T09:57:24.031Z</time></trkpt><trkpt lat="48.5732883053688" lon="7.478566466074814"><ele>189.33333333333334</ele><time>2026-04-30T09:57:26.031Z</time></trkpt><trkpt lat="48.573226885656894" lon="7.478599383537763"><ele>189.16666666666666</ele><time>2026-04-30T09:57:27.031Z</time></trkpt><trkpt lat="48.573153508699725" lon="7.478658214541343"><ele>189.0</ele><time>2026-04-30T09:57:28.031Z</time></trkpt><trkpt lat="48.57302765088876" lon="7.478704301010629"><ele>189.0</ele><time>2026-04-30T09:57:29.031Z</time></trkpt><trkpt lat="48.57288964738944" lon="7.478737043748218"><ele>189.0</ele><time>2026-04-30T09:57:30.031Z</time></trkpt><trkpt lat="48.57274046330833" lon="7.47878701758261"><ele>189.0</ele><time>2026-04-30T09:57:31.031Z</time></trkpt><trkpt lat="48.572579083297335" lon="7.478834726519115"><ele>192.33333333333331</ele><time>2026-04-30T09:57:32.031Z</time></trkpt><trkpt lat="48.57241297688523" lon="7.478886150852087"><ele>195.66666666666666</ele><time>2026-04-30T09:57:33.033Z</time></trkpt><trkpt lat="48.572248709228745" lon="7.478942244484299"><ele>199.0</ele><time>2026-04-30T09:57:34.032Z</time></trkpt><trkpt lat="48.57211176507174" lon="7.478986792687527"><ele>201.75</ele><time>2026-04-30T09:57:35.032Z</time></trkpt><trkpt lat="48.57199451587566" lon="7.479033054839775"><ele>204.5</ele><time>2026-04-30T09:57:36.033Z</time></trkpt><trkpt lat="48.57189442721329" lon="7.4791067361316514"><ele>207.25</ele><time>2026-04-30T09:57:37.032Z</time></trkpt><trkpt lat="48.57180366452672" lon="7.479219414219959"><ele>210.0</ele><time>2026-04-30T09:57:38.032Z</time></trkpt><trkpt lat="48.571698471283355" lon="7.479311987117582"><ele>210.0</ele><time>2026-04-30T09:57:39.033Z</time></trkpt><trkpt lat="48.571572183666866" lon="7.479334632505746"><ele>210.0</ele><time>2026-04-30T09:57:40.033Z</time></trkpt><trkpt lat="48.571420696848556" lon="7.479328329162237"><ele>210.0</ele><time>2026-04-30T09:57:41.033Z</time></trkpt><trkpt lat="48.57126555046631" lon="7.47933768375614"><ele>210.0</ele><time>2026-04-30T09:57:42.033Z</time></trkpt><trkpt lat="48.57112549080862" lon="7.479377860023634"><ele>212.0</ele><time>2026-04-30T09:57:43.033Z</time></trkpt><trkpt lat="48.57101324712563" lon="7.479393875718528"><ele>214.0</ele><time>2026-04-30T09:57:44.033Z</time></trkpt><trkpt lat="48.570902602970854" lon="7.479394167450378"><ele>216.0</ele><time>2026-04-30T09:57:45.033Z</time></trkpt><trkpt lat="48.57081567128299" lon="7.479389526890632"><ele>218.0</ele><time>2026-04-30T09:57:46.033Z</time></trkpt><trkpt lat="48.570747893603865" lon="7.479381880826052"><ele>220.0</ele><time>2026-04-30T09:57:48.033Z</time></trkpt><trkpt lat="48.570688715329865" lon="7.4792828254729935"><ele>220.0</ele><time>2026-04-30T09:57:52.033Z</time></trkpt><trkpt lat="48.57065761215085" lon="7.479162594325766"><ele>220.0</ele><time>2026-04-30T09:57:57.033Z</time></trkpt><trkpt lat="48.57061731848136" lon="7.478995994446571"><ele>220.0</ele><time>2026-04-30T09:57:59.033Z</time></trkpt><trkpt lat="48.570582401267814" lon="7.478901709849661"><ele>220.0</ele><time>2026-04-30T09:58:01.033Z</time></trkpt><trkpt lat="48.5705780102369" lon="7.4789973455025685"><ele>220.0</ele><time>2026-04-30T09:58:04.033Z</time></trkpt><trkpt lat="48.57067594383676" lon="7.47917270798086"><ele>220.0</ele><time>2026-04-30T09:58:06.033Z</time></trkpt><trkpt lat="48.57071652015096" lon="7.479308476553159"><ele>220.0</ele><time>2026-04-30T09:58:07.033Z</time></trkpt><trkpt lat="48.570751292686175" lon="7.479446088505379"><ele>220.0</ele><time>2026-04-30T09:58:08.033Z</time></trkpt><trkpt lat="48.57079548322214" lon="7.479609259530804"><ele>220.0</ele><time>2026-04-30T09:58:09.033Z</time></trkpt><trkpt lat="48.57083935583735" lon="7.479805804249907"><ele>219.0</ele><time>2026-04-30T09:58:10.033Z</time></trkpt><trkpt lat="48.57089262805221" lon="7.480040810554551"><ele>218.0</ele><time>2026-04-30T09:58:11.033Z</time></trkpt><trkpt lat="48.57095479668826" lon="7.480286870481455"><ele>217.0</ele><time>2026-04-30T09:58:12.033Z</time></trkpt><trkpt lat="48.57102020568086" lon="7.4805253026355425"><ele>216.25</ele><time>2026-04-30T09:58:13.033Z</time></trkpt><trkpt lat="48.57108195665191" lon="7.480742812115764"><ele>215.5</ele><time>2026-04-30T09:58:14.033Z</time></trkpt><trkpt lat="48.571134605725746" lon="7.480943670262841"><ele>214.75</ele><time>2026-04-30T09:58:15.033Z</time></trkpt><trkpt lat="48.57117547271781" lon="7.481131329821064"><ele>214.0</ele><time>2026-04-30T09:58:16.033Z</time></trkpt><trkpt lat="48.57121452254497" lon="7.481310409059074"><ele>214.0</ele><time>2026-04-30T09:58:17.033Z</time></trkpt><trkpt lat="48.57124992586105" lon="7.48147796937079"><ele>213.99999999999997</ele><time>2026-04-30T09:58:18.033Z</time></trkpt><trkpt lat="48.5712840453675" lon="7.481638215723851"><ele>213.99999999999997</ele><time>2026-04-30T09:58:19.033Z</time></trkpt><trkpt lat="48.57131412779476" lon="7.481792456249893"><ele>214.0</ele><time>2026-04-30T09:58:20.033Z</time></trkpt><trkpt lat="48.57134096547343" lon="7.481933392608706"><ele>214.0</ele><time>2026-04-30T09:58:21.033Z</time></trkpt><trkpt lat="48.57137037072948" lon="7.4820700855630005"><ele>213.2</ele><time>2026-04-30T09:58:22.033Z</time></trkpt><trkpt lat="48.571400143717405" lon="7.482189524032077"><ele>212.39999999999998</ele><time>2026-04-30T09:58:23.033Z</time></trkpt><trkpt lat="48.57142742109589" lon="7.482281899397925"><ele>211.6</ele><time>2026-04-30T09:58:24.033Z</time></trkpt><trkpt lat="48.57146884201624" lon="7.482412939781493"><ele>210.8</ele><time>2026-04-30T09:58:26.033Z</time></trkpt><trkpt lat="48.571542270376746" lon="7.48251663419573"><ele>210.0</ele><time>2026-04-30T09:58:28.033Z</time></trkpt><trkpt lat="48.57164277396195" lon="7.482658520207594"><ele>210.0</ele><time>2026-04-30T09:58:30.033Z</time></trkpt><trkpt lat="48.57168140104065" lon="7.482769982153309"><ele>210.0</ele><time>2026-04-30T09:58:31.033Z</time></trkpt><trkpt lat="48.57171185545095" lon="7.4828875829399495"><ele>210.0</ele><time>2026-04-30T09:58:32.033Z</time></trkpt><trkpt lat="48.571738901953815" lon="7.482996950359146"><ele>210.0</ele><time>2026-04-30T09:58:33.033Z</time></trkpt><trkpt lat="48.57174520535299" lon="7.483092921583554"><ele>210.0</ele><time>2026-04-30T09:58:34.033Z</time></trkpt><trkpt lat="48.571703812609414" lon="7.483301586135348"><ele>208.5</ele><time>2026-04-30T09:58:36.033Z</time></trkpt><trkpt lat="48.57166856933806" lon="7.483417131562791"><ele>207.0</ele><time>2026-04-30T09:58:37.033Z</time></trkpt><trkpt lat="48.57163691644222" lon="7.4835312193549095"><ele>205.5</ele><time>2026-04-30T09:58:38.033Z</time></trkpt><trkpt lat="48.57161301968408" lon="7.4836421183701685"><ele>204.0</ele><time>2026-04-30T09:58:39.033Z</time></trkpt><trkpt lat="48.571591389545524" lon="7.48376727372284"><ele>202.5</ele><time>2026-04-30T09:58:40.033Z</time></trkpt><trkpt lat="48.57155937354446" lon="7.483889380469536"><ele>201.0</ele><time>2026-04-30T09:58:41.033Z</time></trkpt><trkpt lat="48.57151801873058" lon="7.483997986028751"><ele>199.5</ele><time>2026-04-30T09:58:42.033Z</time></trkpt><trkpt lat="48.57147014914775" lon="7.48410056335596"><ele>198.0</ele><time>2026-04-30T09:58:43.033Z</time></trkpt><trkpt lat="48.57142158481433" lon="7.484192723659397"><ele>196.5</ele><time>2026-04-30T09:58:44.033Z</time></trkpt><trkpt lat="48.57136514827831" lon="7.484264426291627"><ele>195.0</ele><time>2026-04-30T09:58:45.033Z</time></trkpt><trkpt lat="48.571304234185824" lon="7.4843131185261935"><ele>193.5</ele><time>2026-04-30T09:58:46.033Z</time></trkpt><trkpt lat="48.57123277523468" lon="7.484361305196793"><ele>192.0</ele><time>2026-04-30T09:58:47.033Z</time></trkpt><trkpt lat="48.57115348695761" lon="7.484411933309244"><ele>191.66666666666666</ele><time>2026-04-30T09:58:48.033Z</time></trkpt><trkpt lat="48.57108019515453" lon="7.484470049978426"><ele>191.33333333333334</ele><time>2026-04-30T09:58:49.033Z</time></trkpt><trkpt lat="48.57100775740531" lon="7.4845271615440305"><ele>191.0</ele><time>2026-04-30T09:58:50.033Z</time></trkpt><trkpt lat="48.5709386707945" lon="7.484586511143102"><ele>190.66666666666669</ele><time>2026-04-30T09:58:51.033Z</time></trkpt><trkpt lat="48.57086412838938" lon="7.484649190432595"><ele>190.33333333333334</ele><time>2026-04-30T09:58:52.033Z</time></trkpt><trkpt lat="48.5707939238446" lon="7.484707707129915"><ele>190.0</ele><time>2026-04-30T09:58:53.033Z</time></trkpt><trkpt lat="48.57069752990833" lon="7.484780665589853"><ele>190.6</ele><time>2026-04-30T09:58:55.033Z</time></trkpt><trkpt lat="48.57063947765764" lon="7.4850201589152725"><ele>191.2</ele><time>2026-04-30T09:59:02.033Z</time></trkpt><trkpt lat="48.57058341201676" lon="7.485113285834018"><ele>191.8</ele><time>2026-04-30T09:59:03.033Z</time></trkpt><trkpt lat="48.57052373475825" lon="7.485174108502188"><ele>192.4</ele><time>2026-04-30T09:59:04.033Z</time></trkpt><trkpt lat="48.57046163188491" lon="7.485213595063547"><ele>193.0</ele><time>2026-04-30T09:59:05.033Z</time></trkpt><trkpt lat="48.57033586201856" lon="7.485288067827452"><ele>193.00000000000003</ele><time>2026-04-30T09:59:07.033Z</time></trkpt><trkpt lat="48.57027646498622" lon="7.485339716753862"><ele>193.0</ele><time>2026-04-30T09:59:08.033Z</time></trkpt><trkpt lat="48.57021653952755" lon="7.48538146822505"><ele>193.0</ele><time>2026-04-30T09:59:09.033Z</time></trkpt><trkpt lat="48.57015219876782" lon="7.4854365270397105"><ele>193.0</ele><time>2026-04-30T09:59:10.033Z</time></trkpt><trkpt lat="48.57008811099075" lon="7.485480897815622"><ele>193.0</ele><time>2026-04-30T09:59:11.033Z</time></trkpt><trkpt lat="48.57002030344402" lon="7.485534769638136"><ele>193.00000000000003</ele><time>2026-04-30T09:59:12.033Z</time></trkpt><trkpt lat="48.569954139907566" lon="7.485593487324594"><ele>193.0</ele><time>2026-04-30T09:59:13.033Z</time></trkpt><trkpt lat="48.56988545333204" lon="7.485662364224091"><ele>193.33333333333331</ele><time>2026-04-30T09:59:14.033Z</time></trkpt><trkpt lat="48.56980956282908" lon="7.485722591350946"><ele>193.66666666666666</ele><time>2026-04-30T09:59:15.033Z</time></trkpt><trkpt lat="48.569736535465985" lon="7.485776420465087"><ele>194.0</ele><time>2026-04-30T09:59:16.033Z</time></trkpt><trkpt lat="48.569659088003874" lon="7.485835172777646"><ele>194.33333333333331</ele><time>2026-04-30T09:59:17.033Z</time></trkpt><trkpt lat="48.5695909986261" lon="7.485883653173435"><ele>194.66666666666666</ele><time>2026-04-30T09:59:18.033Z</time></trkpt><trkpt lat="48.56951491279892" lon="7.48591238733507"><ele>195.0</ele><time>2026-04-30T09:59:19.033Z</time></trkpt><trkpt lat="48.56943571903163" lon="7.48594473346739"><ele>197.0</ele><time>2026-04-30T09:59:20.033Z</time></trkpt><trkpt lat="48.56936036871369" lon="7.485972514595564"><ele>199.0</ele><time>2026-04-30T09:59:21.033Z</time></trkpt><trkpt lat="48.56928484902347" lon="7.486002074956002"><ele>201.0</ele><time>2026-04-30T09:59:22.033Z</time></trkpt><trkpt lat="48.56920553447876" lon="7.486030015959499"><ele>203.0</ele><time>2026-04-30T09:59:23.033Z</time></trkpt><trkpt lat="48.56913059078218" lon="7.486062342506709"><ele>205.0</ele><time>2026-04-30T09:59:24.033Z</time></trkpt><trkpt lat="48.56905245363908" lon="7.486090683793921"><ele>207.0</ele><time>2026-04-30T09:59:25.033Z</time></trkpt><trkpt lat="48.568976374821226" lon="7.486099589585957"><ele>207.0</ele><time>2026-04-30T09:59:26.033Z</time></trkpt><trkpt lat="48.568894115099354" lon="7.486076973175824"><ele>207.0</ele><time>2026-04-30T09:59:27.033Z</time></trkpt><trkpt lat="48.5688014280167" lon="7.486013627921261"><ele>207.0</ele><time>2026-04-30T09:59:28.033Z</time></trkpt><trkpt lat="48.56870028468088" lon="7.485968972342982"><ele>207.0</ele><time>2026-04-30T09:59:29.033Z</time></trkpt><trkpt lat="48.5685872410946" lon="7.485929581955811"><ele>207.0</ele><time>2026-04-30T09:59:30.033Z</time></trkpt><trkpt lat="48.56847243783807" lon="7.485879504636256"><ele>210.0</ele><time>2026-04-30T09:59:31.033Z</time></trkpt><trkpt lat="48.56835218007956" lon="7.485818763756918"><ele>213.0</ele><time>2026-04-30T09:59:32.032Z</time></trkpt><trkpt lat="48.568227529967494" lon="7.485740052900236"><ele>216.0</ele><time>2026-04-30T09:59:33.032Z</time></trkpt><trkpt lat="48.56808763583049" lon="7.485648423128593"><ele>219.0</ele><time>2026-04-30T09:59:34.032Z</time></trkpt><trkpt lat="48.567951752474684" lon="7.48554836757507"><ele>222.0</ele><time>2026-04-30T09:59:35.032Z</time></trkpt><trkpt lat="48.567816684513296" lon="7.485434300257457"><ele>225.0</ele><time>2026-04-30T09:59:36.032Z</time></trkpt><trkpt lat="48.56768864761278" lon="7.485313675040095"><ele>228.0</ele><time>2026-04-30T09:59:37.032Z</time></trkpt><trkpt lat="48.56755139026013" lon="7.48519928222669"><ele>229.0</ele><time>2026-04-30T09:59:38.032Z</time></trkpt><trkpt lat="48.56740760254783" lon="7.485101202425157"><ele>230.0</ele><time>2026-04-30T09:59:39.034Z</time></trkpt><trkpt lat="48.56727323164577" lon="7.48502262130989"><ele>231.0</ele><time>2026-04-30T09:59:40.034Z</time></trkpt><trkpt lat="48.56717183223097" lon="7.484967430162688"><ele>232.0</ele><time>2026-04-30T09:59:41.034Z</time></trkpt><trkpt lat="48.56710083183288" lon="7.48489017041196"><ele>232.0</ele><time>2026-04-30T09:59:42.034Z</time></trkpt><trkpt lat="48.56705272131615" lon="7.484782220057897"><ele>232.0</ele><time>2026-04-30T09:59:43.034Z</time></trkpt><trkpt lat="48.567016853897464" lon="7.484642068450807"><ele>232.0</ele><time>2026-04-30T09:59:44.034Z</time></trkpt><trkpt lat="48.56697765283616" lon="7.484489335290771"><ele>232.0</ele><time>2026-04-30T09:59:45.034Z</time></trkpt><trkpt lat="48.56691789836746" lon="7.484398861337392"><ele>232.0</ele><time>2026-04-30T09:59:46.034Z</time></trkpt><trkpt lat="48.566829431209364" lon="7.484351650987907"><ele>234.25</ele><time>2026-04-30T09:59:47.034Z</time></trkpt><trkpt lat="48.56670910643366" lon="7.484304523882666"><ele>236.5</ele><time>2026-04-30T09:59:48.033Z</time></trkpt><trkpt lat="48.566586480971274" lon="7.484244617059845"><ele>238.75</ele><time>2026-04-30T09:59:49.034Z</time></trkpt><trkpt lat="48.56645333027148" lon="7.484159494883093"><ele>241.0</ele><time>2026-04-30T09:59:50.034Z</time></trkpt><trkpt lat="48.56632083611649" lon="7.484079815039358"><ele>242.75</ele><time>2026-04-30T09:59:51.034Z</time></trkpt><trkpt lat="48.56619434436704" lon="7.48400431404274"><ele>244.5</ele><time>2026-04-30T09:59:52.034Z</time></trkpt><trkpt lat="48.56607313347179" lon="7.483931003176212"><ele>246.25</ele><time>2026-04-30T09:59:53.034Z</time></trkpt><trkpt lat="48.56594740838495" lon="7.483852376456406"><ele>248.0</ele><time>2026-04-30T09:59:54.034Z</time></trkpt><trkpt lat="48.56586143641534" lon="7.483796713897566"><ele>248.0</ele><time>2026-04-30T09:59:55.034Z</time></trkpt><trkpt lat="48.56578581730867" lon="7.483749505742426"><ele>248.0</ele><time>2026-04-30T09:59:56.034Z</time></trkpt><trkpt lat="48.56570709045343" lon="7.483704185385839"><ele>248.0</ele><time>2026-04-30T09:59:58.034Z</time></trkpt><trkpt lat="48.5657685834344" lon="7.483815172311188"><ele>248.0</ele><time>2026-04-30T10:00:03.034Z</time></trkpt><trkpt lat="48.56585246360475" lon="7.483851169534853"><ele>248.0</ele><time>2026-04-30T10:00:04.034Z</time></trkpt><trkpt lat="48.56596536541443" lon="7.483872884093884"><ele>248.0</ele><time>2026-04-30T10:00:05.034Z</time></trkpt><trkpt lat="48.56608255118931" lon="7.483918379773258"><ele>248.0</ele><time>2026-04-30T10:00:06.034Z</time></trkpt><trkpt lat="48.56621593933431" lon="7.484001123937082"><ele>248.0</ele><time>2026-04-30T10:00:07.034Z</time></trkpt><trkpt lat="48.566350476108006" lon="7.484086069323145"><ele>248.0</ele><time>2026-04-30T10:00:08.034Z</time></trkpt><trkpt lat="48.56647995703634" lon="7.484166488157899"><ele>246.83333333333334</ele><time>2026-04-30T10:00:09.034Z</time></trkpt><trkpt lat="48.566570029178614" lon="7.484221140476263"><ele>245.66666666666669</ele><time>2026-04-30T10:00:10.034Z</time></trkpt><trkpt lat="48.56664001183549" lon="7.484255700749684"><ele>244.5</ele><time>2026-04-30T10:00:12.034Z</time></trkpt><trkpt lat="48.56656813057981" lon="7.484278326895467"><ele>243.33333333333331</ele><time>2026-04-30T10:00:17.034Z</time></trkpt><trkpt lat="48.566481047128235" lon="7.48433694305303"><ele>242.16666666666666</ele><time>2026-04-30T10:00:19.034Z</time></trkpt><trkpt lat="48.56641275980595" lon="7.484427278179276"><ele>241.0</ele><time>2026-04-30T10:00:20.034Z</time></trkpt><trkpt lat="48.5663399583802" lon="7.48453291553771"><ele>240.60000000000002</ele><time>2026-04-30T10:00:21.034Z</time></trkpt><trkpt lat="48.5662656139254" lon="7.484633587753456"><ele>240.20000000000002</ele><time>2026-04-30T10:00:22.034Z</time></trkpt><trkpt lat="48.566207697033505" lon="7.484710318341822"><ele>239.79999999999998</ele><time>2026-04-30T10:00:23.034Z</time></trkpt><trkpt lat="48.56615849506885" lon="7.484773365242425"><ele>239.39999999999998</ele><time>2026-04-30T10:00:24.034Z</time></trkpt><trkpt lat="48.566111290478545" lon="7.484853847925452"><ele>239.0</ele><time>2026-04-30T10:00:27.034Z</time></trkpt><trkpt lat="48.56619327901114" lon="7.485021704668087"><ele>238.79999999999998</ele><time>2026-04-30T10:00:29.034Z</time></trkpt><trkpt lat="48.56625452330791" lon="7.4850862854461475"><ele>238.59999999999997</ele><time>2026-04-30T10:00:30.034Z</time></trkpt><trkpt lat="48.56631126432695" lon="7.485171587584088"><ele>238.4</ele><time>2026-04-30T10:00:31.034Z</time></trkpt><trkpt lat="48.56638243506331" lon="7.485283342365048"><ele>238.2</ele><time>2026-04-30T10:00:32.034Z</time></trkpt><trkpt lat="48.566460925864995" lon="7.48541721361579"><ele>238.0</ele><time>2026-04-30T10:00:33.034Z</time></trkpt><trkpt lat="48.56654160593184" lon="7.485563067528884"><ele>236.75</ele><time>2026-04-30T10:00:34.034Z</time></trkpt><trkpt lat="48.56663178008344" lon="7.485719299017847"><ele>235.5</ele><time>2026-04-30T10:00:35.034Z</time></trkpt><trkpt lat="48.566718175833124" lon="7.485870728419573"><ele>234.25</ele><time>2026-04-30T10:00:36.034Z</time></trkpt><trkpt lat="48.56679590383806" lon="7.486009734942719"><ele>233.0</ele><time>2026-04-30T10:00:37.034Z</time></trkpt><trkpt lat="48.566868064002726" lon="7.4861427659119295"><ele>231.4</ele><time>2026-04-30T10:00:38.034Z</time></trkpt><trkpt lat="48.56693196336045" lon="7.4862658424116"><ele>229.8</ele><time>2026-04-30T10:00:39.034Z</time></trkpt><trkpt lat="48.56699568207379" lon="7.486385700049053"><ele>228.2</ele><time>2026-04-30T10:00:40.034Z</time></trkpt><trkpt lat="48.56705644038967" lon="7.486482178784256"><ele>226.6</ele><time>2026-04-30T10:00:41.034Z</time></trkpt><trkpt lat="48.5671273550327" lon="7.486566291700744"><ele>225.0</ele><time>2026-04-30T10:00:42.034Z</time></trkpt><trkpt lat="48.567214545930874" lon="7.486643618035937"><ele>224.75</ele><time>2026-04-30T10:00:43.034Z</time></trkpt><trkpt lat="48.56733619445888" lon="7.486719924590164"><ele>224.5</ele><time>2026-04-30T10:00:44.034Z</time></trkpt><trkpt lat="48.56745927082771" lon="7.486812166097314"><ele>224.25</ele><time>2026-04-30T10:00:45.034Z</time></trkpt><trkpt lat="48.56755816722397" lon="7.486887092494894"><ele>224.0</ele><time>2026-04-30T10:00:46.034Z</time></trkpt><trkpt lat="48.56763155558304" lon="7.486940014606248"><ele>224.0</ele><time>2026-04-30T10:00:47.034Z</time></trkpt><trkpt lat="48.567694043796465" lon="7.4870009110632"><ele>224.0</ele><time>2026-04-30T10:00:49.034Z</time></trkpt><trkpt lat="48.56775692210785" lon="7.487040326215511"><ele>224.0</ele><time>2026-04-30T10:10:32.011Z</time></trkpt><trkpt lat="48.56781953282761" lon="7.487083173344668"><ele>224.0</ele><time>2026-04-30T10:10:36.011Z</time></trkpt><trkpt lat="48.56788084477667" lon="7.487118801244234"><ele>224.0</ele><time>2026-04-30T10:10:44.011Z</time></trkpt><trkpt lat="48.56795312416857" lon="7.487159002165258"><ele>224.0</ele><time>2026-04-30T10:10:47.011Z</time></trkpt><trkpt lat="48.56803665061017" lon="7.487190224285788"><ele>224.0</ele><time>2026-04-30T10:10:49.011Z</time></trkpt><trkpt lat="48.568124399114076" lon="7.48722372865231"><ele>221.6</ele><time>2026-04-30T10:10:51.011Z</time></trkpt><trkpt lat="48.56823483633227" lon="7.487293507593585"><ele>219.2</ele><time>2026-04-30T10:10:53.011Z</time></trkpt><trkpt lat="48.56834293681634" lon="7.487390240977188"><ele>216.79999999999998</ele><time>2026-04-30T10:10:55.011Z</time></trkpt><trkpt lat="48.568422409447784" lon="7.487411292902229"><ele>214.39999999999998</ele><time>2026-04-30T10:10:56.011Z</time></trkpt><trkpt lat="48.56849864492422" lon="7.4874443606459815"><ele>212.0</ele><time>2026-04-30T10:10:57.011Z</time></trkpt><trkpt lat="48.568588059833665" lon="7.487475813145223"><ele>212.0</ele><time>2026-04-30T10:10:58.011Z</time></trkpt><trkpt lat="48.56867205287958" lon="7.487512630025034"><ele>212.0</ele><time>2026-04-30T10:10:59.011Z</time></trkpt><trkpt lat="48.568776069051346" lon="7.487549542093738"><ele>212.0</ele><time>2026-04-30T10:11:00.011Z</time></trkpt><trkpt lat="48.56890759925054" lon="7.487589020187374"><ele>212.0</ele><time>2026-04-30T10:11:01.011Z</time></trkpt><trkpt lat="48.56900600507758" lon="7.487620716637425"><ele>212.0</ele><time>2026-04-30T10:11:02.011Z</time></trkpt><trkpt lat="48.56909403348597" lon="7.487646124582897"><ele>210.71428571428572</ele><time>2026-04-30T10:11:03.011Z</time></trkpt><trkpt lat="48.569163915100525" lon="7.487671585876187"><ele>209.42857142857142</ele><time>2026-04-30T10:11:04.011Z</time></trkpt><trkpt lat="48.5692350555546" lon="7.487699482914373"><ele>208.14285714285714</ele><time>2026-04-30T10:11:05.011Z</time></trkpt><trkpt lat="48.56931016914829" lon="7.4877048673834885"><ele>206.85714285714286</ele><time>2026-04-30T10:11:06.011Z</time></trkpt><trkpt lat="48.569377475252615" lon="7.487716653634877"><ele>205.57142857142856</ele><time>2026-04-30T10:11:07.011Z</time></trkpt><trkpt lat="48.56945500387778" lon="7.487734777845826"><ele>204.28571428571428</ele><time>2026-04-30T10:11:08.011Z</time></trkpt><trkpt lat="48.56952625095864" lon="7.487743475319254"><ele>203.0</ele><time>2026-04-30T10:11:09.011Z</time></trkpt><trkpt lat="48.56960799136304" lon="7.487765277153296"><ele>201.0</ele><time>2026-04-30T10:11:11.011Z</time></trkpt><trkpt lat="48.569715159315685" lon="7.4878758765373"><ele>199.0</ele><time>2026-04-30T10:11:13.011Z</time></trkpt><trkpt lat="48.569773376195144" lon="7.487945019230379"><ele>197.0</ele><time>2026-04-30T10:11:14.011Z</time></trkpt><trkpt lat="48.56982444339969" lon="7.488014395978592"><ele>195.0</ele><time>2026-04-30T10:11:15.011Z</time></trkpt><trkpt lat="48.569885343544954" lon="7.488120389818595"><ele>193.0</ele><time>2026-04-30T10:11:17.011Z</time></trkpt><trkpt lat="48.56998552530732" lon="7.488244422294705"><ele>191.4</ele><time>2026-04-30T10:11:19.011Z</time></trkpt><trkpt lat="48.570052902870756" lon="7.488318771146986"><ele>189.8</ele><time>2026-04-30T10:11:20.011Z</time></trkpt><trkpt lat="48.57012305777658" lon="7.488404887921"><ele>188.2</ele><time>2026-04-30T10:11:21.011Z</time></trkpt><trkpt lat="48.57019401972029" lon="7.488487338652696"><ele>186.6</ele><time>2026-04-30T10:11:22.011Z</time></trkpt><trkpt lat="48.57026771237902" lon="7.488585332710145"><ele>185.0</ele><time>2026-04-30T10:11:23.011Z</time></trkpt><trkpt lat="48.57034364554135" lon="7.488680401079246"><ele>182.6</ele><time>2026-04-30T10:11:24.011Z</time></trkpt><trkpt lat="48.57041727725254" lon="7.488773792869925"><ele>180.2</ele><time>2026-04-30T10:11:25.011Z</time></trkpt><trkpt lat="48.57047927648629" lon="7.488851656662302"><ele>177.8</ele><time>2026-04-30T10:11:26.011Z</time></trkpt><trkpt lat="48.57053330181134" lon="7.488916858781717"><ele>175.4</ele><time>2026-04-30T10:11:27.011Z</time></trkpt><trkpt lat="48.57060031613497" lon="7.489000514811849"><ele>173.0</ele><time>2026-04-30T10:11:29.011Z</time></trkpt><trkpt lat="48.57051607908663" lon="7.489281322242887"><ele>173.0</ele><time>2026-04-30T10:11:56.01Z</time></trkpt><trkpt lat="48.57044889213406" lon="7.489362135567441"><ele>173.0</ele><time>2026-04-30T10:11:57.01Z</time></trkpt><trkpt lat="48.57038236056846" lon="7.489448583112101"><ele>173.0</ele><time>2026-04-30T10:11:58.01Z</time></trkpt><trkpt lat="48.57030919691632" lon="7.489541364488755"><ele>173.0</ele><time>2026-04-30T10:11:59.01Z</time></trkpt><trkpt lat="48.570237358881556" lon="7.489625383782776"><ele>173.0</ele><time>2026-04-30T10:12:00.01Z</time></trkpt><trkpt lat="48.57015648364265" lon="7.489722409055529"><ele>172.8</ele><time>2026-04-30T10:12:01.01Z</time></trkpt><trkpt lat="48.57007076499933" lon="7.4898242607586685"><ele>172.60000000000002</ele><time>2026-04-30T10:12:02.01Z</time></trkpt><trkpt lat="48.56998528440037" lon="7.489929224750843"><ele>172.39999999999998</ele><time>2026-04-30T10:12:03.01Z</time></trkpt><trkpt lat="48.56990408689292" lon="7.49003290457276"><ele>172.2</ele><time>2026-04-30T10:12:04.01Z</time></trkpt><trkpt lat="48.56982813668939" lon="7.490125669342593"><ele>172.0</ele><time>2026-04-30T10:12:05.01Z</time></trkpt><trkpt lat="48.56975441848987" lon="7.490224556256163"><ele>172.0</ele><time>2026-04-30T10:12:06.01Z</time></trkpt><trkpt lat="48.5696720342838" lon="7.490331904308311"><ele>172.0</ele><time>2026-04-30T10:12:07.01Z</time></trkpt><trkpt lat="48.56958721381705" lon="7.490438123649579"><ele>172.0</ele><time>2026-04-30T10:12:08.01Z</time></trkpt><trkpt lat="48.56950424292751" lon="7.490538258820052"><ele>172.0</ele><time>2026-04-30T10:12:09.01Z</time></trkpt><trkpt lat="48.56941304333591" lon="7.490645684908418"><ele>172.0</ele><time>2026-04-30T10:12:10.01Z</time></trkpt><trkpt lat="48.56932359685914" lon="7.490744779330598"><ele>172.2</ele><time>2026-04-30T10:12:11.01Z</time></trkpt><trkpt lat="48.569227659020704" lon="7.490864110779246"><ele>172.39999999999998</ele><time>2026-04-30T10:12:12.01Z</time></trkpt><trkpt lat="48.56914416217832" lon="7.49097584454088"><ele>172.60000000000002</ele><time>2026-04-30T10:12:13.01Z</time></trkpt><trkpt lat="48.569065505838054" lon="7.491082452811577"><ele>172.8</ele><time>2026-04-30T10:12:14.01Z</time></trkpt><trkpt lat="48.5689977094352" lon="7.491171817368976"><ele>173.0</ele><time>2026-04-30T10:12:15.01Z</time></trkpt><trkpt lat="48.56892991054741" lon="7.491253340182424"><ele>173.0</ele><time>2026-04-30T10:12:16.01Z</time></trkpt><trkpt lat="48.56886224319575" lon="7.491346542535819"><ele>173.0</ele><time>2026-04-30T10:12:17.01Z</time></trkpt><trkpt lat="48.568786733544016" lon="7.491445329831497"><ele>173.0</ele><time>2026-04-30T10:12:18.01Z</time></trkpt><trkpt lat="48.568709304004926" lon="7.491538358723669"><ele>173.0</ele><time>2026-04-30T10:12:19.01Z</time></trkpt><trkpt lat="48.56863296162419" lon="7.4916307625868805"><ele>173.0</ele><time>2026-04-30T10:12:20.01Z</time></trkpt><trkpt lat="48.56855721918062" lon="7.491718032665853"><ele>173.16666666666666</ele><time>2026-04-30T10:12:21.01Z</time></trkpt><trkpt lat="48.568480978541146" lon="7.491801159869735"><ele>173.33333333333331</ele><time>2026-04-30T10:12:22.01Z</time></trkpt><trkpt lat="48.56841281150683" lon="7.491882716315752"><ele>173.5</ele><time>2026-04-30T10:12:23.01Z</time></trkpt><trkpt lat="48.56834830719639" lon="7.491971086952325"><ele>173.66666666666666</ele><time>2026-04-30T10:12:24.01Z</time></trkpt><trkpt lat="48.568282257013315" lon="7.492054582115733"><ele>173.83333333333334</ele><time>2026-04-30T10:12:25.01Z</time></trkpt><trkpt lat="48.568224859641006" lon="7.492127557881809"><ele>174.0</ele><time>2026-04-30T10:12:26.01Z</time></trkpt><trkpt lat="48.56815879510831" lon="7.49220656019528"><ele>174.2</ele><time>2026-04-30T10:12:27.01Z</time></trkpt><trkpt lat="48.56809608945004" lon="7.492287049629613"><ele>174.39999999999998</ele><time>2026-04-30T10:12:28.01Z</time></trkpt><trkpt lat="48.568022503104224" lon="7.492377378315905"><ele>174.6</ele><time>2026-04-30T10:12:29.01Z</time></trkpt><trkpt lat="48.56793720072861" lon="7.4924945751110785"><ele>174.8</ele><time>2026-04-30T10:12:30.01Z</time></trkpt><trkpt lat="48.56785364421933" lon="7.492628071200048"><ele>175.0</ele><time>2026-04-30T10:12:31.01Z</time></trkpt><trkpt lat="48.56776131469628" lon="7.492780669451404"><ele>174.0</ele><time>2026-04-30T10:12:32.01Z</time></trkpt><trkpt lat="48.5676601671484" lon="7.49292703683888"><ele>173.0</ele><time>2026-04-30T10:12:33.01Z</time></trkpt><trkpt lat="48.567541803938504" lon="7.4930583042970715"><ele>172.0</ele><time>2026-04-30T10:12:34.01Z</time></trkpt><trkpt lat="48.56739986602053" lon="7.4931570108040315"><ele>171.0</ele><time>2026-04-30T10:12:35.01Z</time></trkpt><trkpt lat="48.56725129553802" lon="7.493307151066538"><ele>171.0</ele><time>2026-04-30T10:12:36.01Z</time></trkpt><trkpt lat="48.56709030069355" lon="7.493511788473281"><ele>171.0</ele><time>2026-04-30T10:12:37.01Z</time></trkpt><trkpt lat="48.56692289157091" lon="7.493743359667355"><ele>171.0</ele><time>2026-04-30T10:12:38.01Z</time></trkpt><trkpt lat="48.56673575839852" lon="7.493972400530689"><ele>170.5</ele><time>2026-04-30T10:12:39.01Z</time></trkpt><trkpt lat="48.566525992827444" lon="7.494211595043581"><ele>170.0</ele><time>2026-04-30T10:12:40.01Z</time></trkpt><trkpt lat="48.56631618198356" lon="7.4944374563570015"><ele>171.0</ele><time>2026-04-30T10:12:41.01Z</time></trkpt><trkpt lat="48.56611644689656" lon="7.494638315418675"><ele>172.0</ele><time>2026-04-30T10:12:42.01Z</time></trkpt><trkpt lat="48.56590823182516" lon="7.494837237808859"><ele>172.0</ele><time>2026-04-30T10:12:43.01Z</time></trkpt><trkpt lat="48.56570492610408" lon="7.495029523860303"><ele>172.0</ele><time>2026-04-30T10:12:44.01Z</time></trkpt><trkpt lat="48.56550903430238" lon="7.495214237840508"><ele>171.66666666666669</ele><time>2026-04-30T10:12:45.01Z</time></trkpt><trkpt lat="48.5653176238962" lon="7.4953827143049745"><ele>171.33333333333334</ele><time>2026-04-30T10:12:46.01Z</time></trkpt><trkpt lat="48.565134827573665" lon="7.49555273610934"><ele>171.0</ele><time>2026-04-30T10:12:47.01Z</time></trkpt><trkpt lat="48.56494795274626" lon="7.4957128991101145"><ele>171.0</ele><time>2026-04-30T10:12:48.01Z</time></trkpt><trkpt lat="48.564758800714685" lon="7.495864317451168"><ele>171.0</ele><time>2026-04-30T10:12:49.01Z</time></trkpt><trkpt lat="48.56456831740982" lon="7.496004590325573"><ele>171.0</ele><time>2026-04-30T10:12:50.01Z</time></trkpt><trkpt lat="48.56437947581169" lon="7.496133232735765"><ele>171.33333333333334</ele><time>2026-04-30T10:12:51.01Z</time></trkpt><trkpt lat="48.564195932744575" lon="7.4962553460359755"><ele>171.66666666666669</ele><time>2026-04-30T10:12:52.01Z</time></trkpt><trkpt lat="48.56401880140214" lon="7.496370465084159"><ele>172.0</ele><time>2026-04-30T10:12:53.01Z</time></trkpt><trkpt lat="48.56385364567526" lon="7.496467454188633"><ele>172.0</ele><time>2026-04-30T10:12:54.01Z</time></trkpt><trkpt lat="48.563701771564965" lon="7.496542020457703"><ele>172.0</ele><time>2026-04-30T10:12:55.01Z</time></trkpt><trkpt lat="48.5635550880187" lon="7.496637470052946"><ele>172.0</ele><time>2026-04-30T10:12:56.01Z</time></trkpt><trkpt lat="48.56341818107625" lon="7.496717959216659"><ele>173.0</ele><time>2026-04-30T10:12:57.01Z</time></trkpt><trkpt lat="48.563280580815494" lon="7.496804251894419"><ele>174.0</ele><time>2026-04-30T10:12:58.01Z</time></trkpt><trkpt lat="48.56315387790515" lon="7.496883928126344"><ele>175.0</ele><time>2026-04-30T10:12:59.01Z</time></trkpt><trkpt lat="48.563020588617306" lon="7.496967761030147"><ele>176.0</ele><time>2026-04-30T10:13:00.01Z</time></trkpt><trkpt lat="48.56288372412485" lon="7.49702977369868"><ele>176.25</ele><time>2026-04-30T10:13:01.01Z</time></trkpt><trkpt lat="48.562756850679335" lon="7.497088880171349"><ele>176.5</ele><time>2026-04-30T10:13:02.01Z</time></trkpt><trkpt lat="48.56264001270845" lon="7.4971584823680635"><ele>176.75</ele><time>2026-04-30T10:13:03.01Z</time></trkpt><trkpt lat="48.56252524059604" lon="7.4972262133877745"><ele>177.0</ele><time>2026-04-30T10:13:04.01Z</time></trkpt><trkpt lat="48.562406218326295" lon="7.497299919274864"><ele>177.0</ele><time>2026-04-30T10:13:05.01Z</time></trkpt><trkpt lat="48.56227751525092" lon="7.497368932555354"><ele>177.0</ele><time>2026-04-30T10:13:06.01Z</time></trkpt><trkpt lat="48.562140936495254" lon="7.497455936633525"><ele>177.0</ele><time>2026-04-30T10:13:07.01Z</time></trkpt><trkpt lat="48.5619988323866" lon="7.497537549977292"><ele>177.0</ele><time>2026-04-30T10:13:08.01Z</time></trkpt><trkpt lat="48.561870610683975" lon="7.4976059531271035"><ele>177.25</ele><time>2026-04-30T10:13:09.01Z</time></trkpt><trkpt lat="48.56175447394598" lon="7.497675366549573"><ele>177.5</ele><time>2026-04-30T10:13:10.01Z</time></trkpt><trkpt lat="48.56164481790784" lon="7.497738255011552"><ele>177.75</ele><time>2026-04-30T10:13:11.01Z</time></trkpt><trkpt lat="48.5615378253014" lon="7.497801983771006"><ele>178.0</ele><time>2026-04-30T10:13:12.01Z</time></trkpt><trkpt lat="48.56143924681117" lon="7.497854667734104"><ele>178.0</ele><time>2026-04-30T10:13:13.01Z</time></trkpt><trkpt lat="48.56135129326428" lon="7.497911520631635"><ele>178.0</ele><time>2026-04-30T10:13:14.01Z</time></trkpt><trkpt lat="48.561279552491555" lon="7.4978966038484"><ele>178.0</ele><time>2026-04-30T10:13:15.01Z</time></trkpt><trkpt lat="48.56120763454976" lon="7.497912500409605"><ele>178.0</ele><time>2026-04-30T10:13:16.01Z</time></trkpt><trkpt lat="48.56113812715255" lon="7.497914202648633"><ele>178.0</ele><time>2026-04-30T10:13:17.01Z</time></trkpt><trkpt lat="48.56103473663167" lon="7.497948332654479"><ele>178.0</ele><time>2026-04-30T10:13:19.01Z</time></trkpt><trkpt lat="48.56105759031582" lon="7.49822965336078"><ele>177.75</ele><time>2026-04-30T10:13:22.01Z</time></trkpt><trkpt lat="48.56108754083524" lon="7.49837380161709"><ele>177.5</ele><time>2026-04-30T10:13:23.01Z</time></trkpt><trkpt lat="48.56111724239473" lon="7.498540512559659"><ele>177.25</ele><time>2026-04-30T10:13:24.01Z</time></trkpt><trkpt lat="48.561158793539214" lon="7.498719283102491"><ele>177.0</ele><time>2026-04-30T10:13:25.01Z</time></trkpt><trkpt lat="48.56119836986959" lon="7.498888108044835"><ele>176.16666666666666</ele><time>2026-04-30T10:13:26.01Z</time></trkpt><trkpt lat="48.56123577854448" lon="7.499046226260366"><ele>175.33333333333334</ele><time>2026-04-30T10:13:27.01Z</time></trkpt><trkpt lat="48.561269772011435" lon="7.499175475389987"><ele>174.5</ele><time>2026-04-30T10:13:28.01Z</time></trkpt><trkpt lat="48.561284048989826" lon="7.499288595753785"><ele>173.66666666666669</ele><time>2026-04-30T10:13:29.01Z</time></trkpt><trkpt lat="48.561301754200805" lon="7.49940111401299"><ele>172.83333333333334</ele><time>2026-04-30T10:13:30.01Z</time></trkpt><trkpt lat="48.561328823372385" lon="7.4994910772931975"><ele>172.0</ele><time>2026-04-30T10:13:31.01Z</time></trkpt><trkpt lat="48.561360584653315" lon="7.499641779447891"><ele>171.83333333333334</ele><time>2026-04-30T10:13:33.01Z</time></trkpt><trkpt lat="48.56139450674421" lon="7.499808709672501"><ele>171.66666666666669</ele><time>2026-04-30T10:13:35.01Z</time></trkpt><trkpt lat="48.56141797232297" lon="7.499904020246697"><ele>171.5</ele><time>2026-04-30T10:13:36.01Z</time></trkpt><trkpt lat="48.56144084557656" lon="7.5000079328574625"><ele>171.33333333333334</ele><time>2026-04-30T10:13:37.01Z</time></trkpt><trkpt lat="48.56146403056291" lon="7.500129981714628"><ele>171.16666666666666</ele><time>2026-04-30T10:13:38.01Z</time></trkpt><trkpt lat="48.56149317251869" lon="7.500251006161218"><ele>171.0</ele><time>2026-04-30T10:13:39.01Z</time></trkpt><trkpt lat="48.56152745965933" lon="7.500366160643401"><ele>170.83333333333334</ele><time>2026-04-30T10:13:40.01Z</time></trkpt><trkpt lat="48.561561993988015" lon="7.50048478508041"><ele>170.66666666666666</ele><time>2026-04-30T10:13:41.01Z</time></trkpt><trkpt lat="48.56159683984093" lon="7.500608124950063"><ele>170.5</ele><time>2026-04-30T10:13:42.01Z</time></trkpt><trkpt lat="48.561632516198976" lon="7.500731327753456"><ele>170.33333333333331</ele><time>2026-04-30T10:13:43.01Z</time></trkpt><trkpt lat="48.56168091504712" lon="7.5008466969614895"><ele>170.16666666666666</ele><time>2026-04-30T10:13:44.01Z</time></trkpt><trkpt lat="48.561725088375795" lon="7.5009614796731565"><ele>170.0</ele><time>2026-04-30T10:13:45.01Z</time></trkpt><trkpt lat="48.56177395699981" lon="7.501078155879345"><ele>170.0</ele><time>2026-04-30T10:13:46.01Z</time></trkpt><trkpt lat="48.56182525100674" lon="7.501177268457597"><ele>170.0</ele><time>2026-04-30T10:13:47.01Z</time></trkpt><trkpt lat="48.56186657858831" lon="7.501249888844586"><ele>170.0</ele><time>2026-04-30T10:13:48.01Z</time></trkpt><trkpt lat="48.561932891889576" lon="7.501361697563934"><ele>170.0</ele><time>2026-04-30T10:13:50.009Z</time></trkpt><trkpt lat="48.561899017228264" lon="7.501553463273066"><ele>170.0</ele><time>2026-04-30T10:13:52.009Z</time></trkpt><trkpt lat="48.56183516364242" lon="7.501684948943726"><ele>170.0</ele><time>2026-04-30T10:13:53.009Z</time></trkpt><trkpt lat="48.561777604594845" lon="7.501824364471551"><ele>170.0</ele><time>2026-04-30T10:13:54.009Z</time></trkpt><trkpt lat="48.56173063276429" lon="7.501967434514954"><ele>170.0</ele><time>2026-04-30T10:13:55.009Z</time></trkpt><trkpt lat="48.56167904258597" lon="7.502089347092954"><ele>170.0</ele><time>2026-04-30T10:13:56.009Z</time></trkpt><trkpt lat="48.561634753541846" lon="7.502201805518136"><ele>170.0</ele><time>2026-04-30T10:13:57.009Z</time></trkpt><trkpt lat="48.561596161616784" lon="7.5023000930110095"><ele>170.0</ele><time>2026-04-30T10:13:58.009Z</time></trkpt><trkpt lat="48.56154928855931" lon="7.502391767365325"><ele>170.0</ele><time>2026-04-30T10:13:59.009Z</time></trkpt><trkpt lat="48.56150513939946" lon="7.502501219339421"><ele>170.0</ele><time>2026-04-30T10:14:00.009Z</time></trkpt><trkpt lat="48.56146286468271" lon="7.502629318803198"><ele>170.0</ele><time>2026-04-30T10:14:01.009Z</time></trkpt><trkpt lat="48.56141218047284" lon="7.502753343825522"><ele>170.0</ele><time>2026-04-30T10:14:02.009Z</time></trkpt><trkpt lat="48.5613519699326" lon="7.502873391633732"><ele>170.0</ele><time>2026-04-30T10:14:03.009Z</time></trkpt><trkpt lat="48.56128525842897" lon="7.502993987764266"><ele>170.0</ele><time>2026-04-30T10:14:04.009Z</time></trkpt><trkpt lat="48.56119722839663" lon="7.503117280342392"><ele>170.0</ele><time>2026-04-30T10:14:05.009Z</time></trkpt><trkpt lat="48.56110959523181" lon="7.503244921425192"><ele>170.0</ele><time>2026-04-30T10:14:06.009Z</time></trkpt><trkpt lat="48.56104914107227" lon="7.503360368319849"><ele>170.0</ele><time>2026-04-30T10:14:07.009Z</time></trkpt><trkpt lat="48.56097819300834" lon="7.503477810293698"><ele>170.2</ele><time>2026-04-30T10:14:08.009Z</time></trkpt><trkpt lat="48.560922801997414" lon="7.503594851660078"><ele>170.4</ele><time>2026-04-30T10:14:09.009Z</time></trkpt><trkpt lat="48.560885862717264" lon="7.503722733559569"><ele>170.60000000000002</ele><time>2026-04-30T10:14:10.009Z</time></trkpt><trkpt lat="48.56085692223297" lon="7.503877877248704"><ele>170.8</ele><time>2026-04-30T10:14:11.009Z</time></trkpt><trkpt lat="48.56084499221346" lon="7.504056439298487"><ele>171.0</ele><time>2026-04-30T10:14:12.009Z</time></trkpt><trkpt lat="48.56083251559112" lon="7.504242961753709"><ele>171.0</ele><time>2026-04-30T10:14:13.009Z</time></trkpt><trkpt lat="48.56080592210328" lon="7.5044418957336925"><ele>171.0</ele><time>2026-04-30T10:14:14.009Z</time></trkpt><trkpt lat="48.56077681026581" lon="7.5046158341011635"><ele>171.0</ele><time>2026-04-30T10:14:15.009Z</time></trkpt><trkpt lat="48.56075266748818" lon="7.504774034867407"><ele>171.0</ele><time>2026-04-30T10:14:16.009Z</time></trkpt><trkpt lat="48.56072586774863" lon="7.504946150012352"><ele>170.5</ele><time>2026-04-30T10:14:17.009Z</time></trkpt><trkpt lat="48.56070308146062" lon="7.5051313329874025"><ele>170.0</ele><time>2026-04-30T10:14:18.009Z</time></trkpt><trkpt lat="48.56068216348453" lon="7.5053175845774565"><ele>169.5</ele><time>2026-04-30T10:14:19.009Z</time></trkpt><trkpt lat="48.56067003403625" lon="7.505495076455829"><ele>169.0</ele><time>2026-04-30T10:14:20.009Z</time></trkpt><trkpt lat="48.560669130042946" lon="7.5056580117441465"><ele>169.0</ele><time>2026-04-30T10:14:21.01Z</time></trkpt><trkpt lat="48.56067905174688" lon="7.5058054954353794"><ele>169.0</ele><time>2026-04-30T10:14:22.01Z</time></trkpt><trkpt lat="48.56069252410282" lon="7.505938529802575"><ele>169.0</ele><time>2026-04-30T10:14:23.01Z</time></trkpt><trkpt lat="48.56070795792075" lon="7.506070549283947"><ele>169.0</ele><time>2026-04-30T10:14:24.01Z</time></trkpt><trkpt lat="48.560725951254106" lon="7.506188626190949"><ele>169.0</ele><time>2026-04-30T10:14:25.01Z</time></trkpt><trkpt lat="48.56075096025944" lon="7.506316644233239"><ele>169.0</ele><time>2026-04-30T10:14:26.01Z</time></trkpt><trkpt lat="48.56078142767571" lon="7.506449827419065"><ele>169.25</ele><time>2026-04-30T10:14:27.01Z</time></trkpt><trkpt lat="48.560807783499776" lon="7.506599272295802"><ele>169.5</ele><time>2026-04-30T10:14:28.009Z</time></trkpt><trkpt lat="48.560846071212" lon="7.506769581490687"><ele>169.75</ele><time>2026-04-30T10:14:29.009Z</time></trkpt><trkpt lat="48.560884713254204" lon="7.5069632316482275"><ele>170.0</ele><time>2026-04-30T10:14:30.01Z</time></trkpt><trkpt lat="48.56092721641655" lon="7.507165341305786"><ele>170.25</ele><time>2026-04-30T10:14:31.01Z</time></trkpt><trkpt lat="48.56097957655068" lon="7.507363365974984"><ele>170.5</ele><time>2026-04-30T10:14:32.01Z</time></trkpt><trkpt lat="48.561036227947284" lon="7.5075542472444825"><ele>170.75</ele><time>2026-04-30T10:14:33.009Z</time></trkpt><trkpt lat="48.56109381282916" lon="7.5077188097310925"><ele>171.0</ele><time>2026-04-30T10:14:34.01Z</time></trkpt><trkpt lat="48.561146645462564" lon="7.50786844235281"><ele>170.75</ele><time>2026-04-30T10:14:35.01Z</time></trkpt><trkpt lat="48.56119886410436" lon="7.508016907135978"><ele>170.5</ele><time>2026-04-30T10:14:36.01Z</time></trkpt><trkpt lat="48.56126819976498" lon="7.508172101029415"><ele>170.25</ele><time>2026-04-30T10:14:37.01Z</time></trkpt><trkpt lat="48.56131788058564" lon="7.5083475571126455"><ele>170.0</ele><time>2026-04-30T10:14:38.01Z</time></trkpt><trkpt lat="48.56133120093582" lon="7.508545048565343"><ele>169.8</ele><time>2026-04-30T10:14:39.01Z</time></trkpt><trkpt lat="48.561317223918856" lon="7.508746681330174"><ele>169.6</ele><time>2026-04-30T10:14:40.01Z</time></trkpt><trkpt lat="48.561341273871236" lon="7.5089303174610285"><ele>169.39999999999998</ele><time>2026-04-30T10:14:41.01Z</time></trkpt><trkpt lat="48.56135826922739" lon="7.509078791425066"><ele>169.2</ele><time>2026-04-30T10:14:42.01Z</time></trkpt><trkpt lat="48.561370205520184" lon="7.5092155866034895"><ele>169.0</ele><time>2026-04-30T10:14:43.01Z</time></trkpt><trkpt lat="48.5613480633311" lon="7.50934057274834"><ele>169.0</ele><time>2026-04-30T10:14:44.01Z</time></trkpt><trkpt lat="48.561309448455056" lon="7.5095118112104515"><ele>169.0</ele><time>2026-04-30T10:14:45.01Z</time></trkpt><trkpt lat="48.561267389338035" lon="7.509756595415237"><ele>169.0</ele><time>2026-04-30T10:14:46.01Z</time></trkpt><trkpt lat="48.56120514219318" lon="7.510027092712099"><ele>169.0</ele><time>2026-04-30T10:14:47.01Z</time></trkpt><trkpt lat="48.561142021001515" lon="7.510303344647118"><ele>169.0</ele><time>2026-04-30T10:14:48.01Z</time></trkpt><trkpt lat="48.561071161932404" lon="7.510582790778068"><ele>169.0</ele><time>2026-04-30T10:14:49.01Z</time></trkpt><trkpt lat="48.560991790185675" lon="7.510866540612935"><ele>168.66666666666669</ele><time>2026-04-30T10:14:50.01Z</time></trkpt><trkpt lat="48.560903727329965" lon="7.5111278262739525"><ele>168.33333333333334</ele><time>2026-04-30T10:14:51.01Z</time></trkpt><trkpt lat="48.56081507887471" lon="7.511354863184863"><ele>168.0</ele><time>2026-04-30T10:14:52.01Z</time></trkpt><trkpt lat="48.56074812394927" lon="7.511585194830171"><ele>167.66666666666666</ele><time>2026-04-30T10:14:53.01Z</time></trkpt><trkpt lat="48.56069128870517" lon="7.511830165499118"><ele>167.33333333333331</ele><time>2026-04-30T10:14:54.01Z</time></trkpt><trkpt lat="48.56065252469274" lon="7.512096379100776"><ele>167.0</ele><time>2026-04-30T10:14:55.01Z</time></trkpt><trkpt lat="48.56061216683406" lon="7.51239481908054"><ele>166.33333333333331</ele><time>2026-04-30T10:14:56.01Z</time></trkpt><trkpt lat="48.560566021129716" lon="7.512722969398981"><ele>165.66666666666666</ele><time>2026-04-30T10:14:57.01Z</time></trkpt><trkpt lat="48.560508166020135" lon="7.5130073851200745"><ele>165.0</ele><time>2026-04-30T10:14:58.01Z</time></trkpt><trkpt lat="48.56047623100101" lon="7.513303228405368"><ele>164.66666666666666</ele><time>2026-04-30T10:14:59.01Z</time></trkpt><trkpt lat="48.5604784937636" lon="7.513607645537218"><ele>164.33333333333331</ele><time>2026-04-30T10:15:00.01Z</time></trkpt><trkpt lat="48.5604758924071" lon="7.513929879099665"><ele>164.0</ele><time>2026-04-30T10:15:01.01Z</time></trkpt><trkpt lat="48.56051114166874" lon="7.514266514878807"><ele>164.0</ele><time>2026-04-30T10:15:02.01Z</time></trkpt><trkpt lat="48.56050502532742" lon="7.514577860746064"><ele>164.0</ele><time>2026-04-30T10:15:03.01Z</time></trkpt><trkpt lat="48.56049746849666" lon="7.514855319345969"><ele>164.0</ele><time>2026-04-30T10:15:04.01Z</time></trkpt><trkpt lat="48.56052237843981" lon="7.515120979458073"><ele>164.0</ele><time>2026-04-30T10:15:05.01Z</time></trkpt><trkpt lat="48.560528291186685" lon="7.515369345386447"><ele>164.0</ele><time>2026-04-30T10:15:06.01Z</time></trkpt><trkpt lat="48.560530375421926" lon="7.515600234844836"><ele>164.0</ele><time>2026-04-30T10:15:07.01Z</time></trkpt><trkpt lat="48.56055625521455" lon="7.515808989469002"><ele>164.0</ele><time>2026-04-30T10:15:08.01Z</time></trkpt><trkpt lat="48.560577785741145" lon="7.516033283194457"><ele>164.0</ele><time>2026-04-30T10:15:09.01Z</time></trkpt><trkpt lat="48.5606129425786" lon="7.516275798686379"><ele>164.0</ele><time>2026-04-30T10:15:10.01Z</time></trkpt><trkpt lat="48.56065909363072" lon="7.516547144354083"><ele>164.0</ele><time>2026-04-30T10:15:11.01Z</time></trkpt><trkpt lat="48.560711413432564" lon="7.516838757547289"><ele>164.0</ele><time>2026-04-30T10:15:12.01Z</time></trkpt><trkpt lat="48.56076726397901" lon="7.517134571059922"><ele>164.0</ele><time>2026-04-30T10:15:13.01Z</time></trkpt><trkpt lat="48.56082266404839" lon="7.517431335947616"><ele>164.0</ele><time>2026-04-30T10:15:14.01Z</time></trkpt><trkpt lat="48.56088063263293" lon="7.517731410063636"><ele>164.0</ele><time>2026-04-30T10:15:15.01Z</time></trkpt><trkpt lat="48.56093378148868" lon="7.518019941630133"><ele>164.0</ele><time>2026-04-30T10:15:16.01Z</time></trkpt><trkpt lat="48.560988691235465" lon="7.518290543828682"><ele>163.66666666666666</ele><time>2026-04-30T10:15:17.01Z</time></trkpt><trkpt lat="48.56104828297247" lon="7.518553729702002"><ele>163.33333333333334</ele><time>2026-04-30T10:15:18.01Z</time></trkpt><trkpt lat="48.561110413584565" lon="7.5188143621049575"><ele>163.0</ele><time>2026-04-30T10:15:19.01Z</time></trkpt><trkpt lat="48.561173004129984" lon="7.5190791411190645"><ele>162.66666666666669</ele><time>2026-04-30T10:15:20.01Z</time></trkpt><trkpt lat="48.56123997965009" lon="7.5193490089714565"><ele>162.33333333333334</ele><time>2026-04-30T10:15:21.01Z</time></trkpt><trkpt lat="48.56130028721321" lon="7.519607695451974"><ele>162.0</ele><time>2026-04-30T10:15:22.01Z</time></trkpt><trkpt lat="48.56135660156412" lon="7.519870061256557"><ele>162.0</ele><time>2026-04-30T10:15:23.01Z</time></trkpt><trkpt lat="48.561411194177836" lon="7.520143051473412"><ele>162.0</ele><time>2026-04-30T10:15:24.01Z</time></trkpt><trkpt lat="48.56146452291272" lon="7.520422299138396"><ele>162.0</ele><time>2026-04-30T10:15:25.01Z</time></trkpt><trkpt lat="48.56150555466625" lon="7.520708466415991"><ele>162.0</ele><time>2026-04-30T10:15:26.01Z</time></trkpt><trkpt lat="48.56155016522735" lon="7.520997238653354"><ele>162.0</ele><time>2026-04-30T10:15:27.01Z</time></trkpt><trkpt lat="48.56159745917654" lon="7.5212917981895515"><ele>162.0</ele><time>2026-04-30T10:15:28.01Z</time></trkpt><trkpt lat="48.56164325545118" lon="7.5215979049909985"><ele>162.0</ele><time>2026-04-30T10:15:29.01Z</time></trkpt><trkpt lat="48.56168919571566" lon="7.521905007072877"><ele>162.0</ele><time>2026-04-30T10:15:30.01Z</time></trkpt><trkpt lat="48.56173669019623" lon="7.522216011184762"><ele>162.0</ele><time>2026-04-30T10:15:31.01Z</time></trkpt><trkpt lat="48.56179284428399" lon="7.522525891633608"><ele>162.0</ele><time>2026-04-30T10:15:32.01Z</time></trkpt><trkpt lat="48.561862874959516" lon="7.522828074471001"><ele>162.0</ele><time>2026-04-30T10:15:33.01Z</time></trkpt><trkpt lat="48.56194688479553" lon="7.523119879092194"><ele>162.0</ele><time>2026-04-30T10:15:34.01Z</time></trkpt><trkpt lat="48.56204816365517" lon="7.523393573726406"><ele>162.0</ele><time>2026-04-30T10:15:35.01Z</time></trkpt><trkpt lat="48.56214851733388" lon="7.523656223051425"><ele>162.0</ele><time>2026-04-30T10:15:36.01Z</time></trkpt><trkpt lat="48.56223796115908" lon="7.523920810066039"><ele>162.0</ele><time>2026-04-30T10:15:37.01Z</time></trkpt><trkpt lat="48.5623165248267" lon="7.524196195764916"><ele>162.0</ele><time>2026-04-30T10:15:38.01Z</time></trkpt><trkpt lat="48.562395344949486" lon="7.524468652977534"><ele>162.0</ele><time>2026-04-30T10:15:39.01Z</time></trkpt><trkpt lat="48.56246663500462" lon="7.5247276044252915"><ele>162.0</ele><time>2026-04-30T10:15:40.01Z</time></trkpt><trkpt lat="48.56252970436809" lon="7.52496180637775"><ele>162.25</ele><time>2026-04-30T10:15:41.01Z</time></trkpt><trkpt lat="48.562576246785895" lon="7.525167351805964"><ele>162.5</ele><time>2026-04-30T10:15:42.01Z</time></trkpt><trkpt lat="48.56260141488726" lon="7.525358784273397"><ele>162.75</ele><time>2026-04-30T10:15:43.01Z</time></trkpt><trkpt lat="48.5626063901926" lon="7.52554462284769"><ele>163.0</ele><time>2026-04-30T10:15:44.01Z</time></trkpt><trkpt lat="48.5625842512002" lon="7.525714268701886"><ele>163.0</ele><time>2026-04-30T10:15:45.01Z</time></trkpt><trkpt lat="48.56252753665491" lon="7.525894361225734"><ele>163.0</ele><time>2026-04-30T10:15:46.009Z</time></trkpt><trkpt lat="48.56243074185527" lon="7.526078985229282"><ele>163.0</ele><time>2026-04-30T10:15:47.009Z</time></trkpt><trkpt lat="48.562332891144436" lon="7.526287636263929"><ele>163.0</ele><time>2026-04-30T10:15:48.009Z</time></trkpt><trkpt lat="48.562233890168315" lon="7.52655126987377"><ele>163.0</ele><time>2026-04-30T10:15:49.009Z</time></trkpt><trkpt lat="48.562156359721996" lon="7.526852670777773"><ele>163.0</ele><time>2026-04-30T10:15:50.009Z</time></trkpt><trkpt lat="48.56208773427102" lon="7.527183804620145"><ele>163.33333333333334</ele><time>2026-04-30T10:15:51.009Z</time></trkpt><trkpt lat="48.562021642271866" lon="7.527520070144537"><ele>163.66666666666666</ele><time>2026-04-30T10:15:52.009Z</time></trkpt><trkpt lat="48.56196606756582" lon="7.527816028168522"><ele>164.0</ele><time>2026-04-30T10:15:53.009Z</time></trkpt><trkpt lat="48.561918683306786" lon="7.528071001633388"><ele>164.0</ele><time>2026-04-30T10:15:54.009Z</time></trkpt><trkpt lat="48.561877461243846" lon="7.528295434106766"><ele>164.0</ele><time>2026-04-30T10:15:55.009Z</time></trkpt><trkpt lat="48.56184245721345" lon="7.528488745223657"><ele>164.0</ele><time>2026-04-30T10:15:56.009Z</time></trkpt><trkpt lat="48.561827535341024" lon="7.528665947635108"><ele>164.0</ele><time>2026-04-30T10:15:57.009Z</time></trkpt><trkpt lat="48.56183736178655" lon="7.528833757447224"><ele>164.5</ele><time>2026-04-30T10:15:58.009Z</time></trkpt><trkpt lat="48.561868378337614" lon="7.5290002343690094"><ele>165.0</ele><time>2026-04-30T10:15:59.009Z</time></trkpt><trkpt lat="48.56189587186174" lon="7.529172177409347"><ele>165.5</ele><time>2026-04-30T10:16:00.009Z</time></trkpt><trkpt lat="48.56191951326107" lon="7.52935576937622"><ele>166.0</ele><time>2026-04-30T10:16:01.009Z</time></trkpt><trkpt lat="48.5619454461706" lon="7.529537638761694"><ele>166.0</ele><time>2026-04-30T10:16:02.009Z</time></trkpt><trkpt lat="48.56197666317994" lon="7.529706946310178"><ele>166.0</ele><time>2026-04-30T10:16:03.009Z</time></trkpt><trkpt lat="48.56198590199374" lon="7.529827806347278"><ele>166.0</ele><time>2026-04-30T10:16:04.009Z</time></trkpt><trkpt lat="48.56196976478011" lon="7.529967081907532"><ele>166.0</ele><time>2026-04-30T10:16:06.009Z</time></trkpt><trkpt lat="48.56185367959546" lon="7.530233828709086"><ele>166.0</ele><time>2026-04-30T10:16:25.009Z</time></trkpt><trkpt lat="48.561830072809514" lon="7.530330624700412"><ele>166.0</ele><time>2026-04-30T10:16:27.009Z</time></trkpt><trkpt lat="48.56180468827648" lon="7.530428150208703"><ele>166.0</ele><time>2026-04-30T10:16:31.01Z</time></trkpt><trkpt lat="48.56177470159254" lon="7.530574963834406"><ele>166.0</ele><time>2026-04-30T10:16:33.01Z</time></trkpt><trkpt lat="48.561760416219" lon="7.530729889639195"><ele>166.0</ele><time>2026-04-30T10:16:35.009Z</time></trkpt><trkpt lat="48.561726825115144" lon="7.530860444948598"><ele>166.0</ele><time>2026-04-30T10:16:37.009Z</time></trkpt><trkpt lat="48.5616980113884" lon="7.530962573881077"><ele>166.0</ele><time>2026-04-30T10:16:38.009Z</time></trkpt><trkpt lat="48.561616928050995" lon="7.531047149487172"><ele>166.0</ele><time>2026-04-30T10:16:40.009Z</time></trkpt><trkpt lat="48.56154260780476" lon="7.531046082152977"><ele>166.0</ele><time>2026-04-30T10:16:41.009Z</time></trkpt><trkpt lat="48.56145450983546" lon="7.5309900903521605"><ele>166.0</ele><time>2026-04-30T10:16:42.009Z</time></trkpt><trkpt lat="48.5613722539888" lon="7.530942421594848"><ele>166.0</ele><time>2026-04-30T10:16:43.009Z</time></trkpt><trkpt lat="48.561273584924734" lon="7.5309176074302915"><ele>166.0</ele><time>2026-04-30T10:16:44.009Z</time></trkpt><trkpt lat="48.56118959186926" lon="7.530876694898373"><ele>166.0</ele><time>2026-04-30T10:16:45.009Z</time></trkpt><trkpt lat="48.56109631650931" lon="7.530879990527986"><ele>166.0</ele><time>2026-04-30T10:16:47.009Z</time></trkpt><trkpt lat="48.56103062411727" lon="7.531039922688231"><ele>166.0</ele><time>2026-04-30T10:16:49.009Z</time></trkpt><trkpt lat="48.56099103102829" lon="7.5311721616943945"><ele>166.0</ele><time>2026-04-30T10:16:50.009Z</time></trkpt><trkpt lat="48.56092651526849" lon="7.531314052929491"><ele>166.0</ele><time>2026-04-30T10:16:51.009Z</time></trkpt><trkpt lat="48.56086181801348" lon="7.5314241942085305"><ele>166.0</ele><time>2026-04-30T10:16:52.009Z</time></trkpt><trkpt lat="48.5607946204775" lon="7.531550119468823"><ele>166.0</ele><time>2026-04-30T10:16:53.009Z</time></trkpt><trkpt lat="48.560715714418656" lon="7.53167399774726"><ele>166.0</ele><time>2026-04-30T10:16:54.009Z</time></trkpt><trkpt lat="48.56064688609935" lon="7.531796488933517"><ele>166.0</ele><time>2026-04-30T10:16:55.009Z</time></trkpt><trkpt lat="48.56059300077632" lon="7.531905202668042"><ele>166.0</ele><time>2026-04-30T10:16:56.009Z</time></trkpt><trkpt lat="48.56057161300849" lon="7.532012548734113"><ele>166.0</ele><time>2026-04-30T10:16:57.009Z</time></trkpt><trkpt lat="48.560559224932874" lon="7.5321591198959155"><ele>166.0</ele><time>2026-04-30T10:16:58.009Z</time></trkpt><trkpt lat="48.56056994907146" lon="7.532303424410244"><ele>166.0</ele><time>2026-04-30T10:16:59.009Z</time></trkpt><trkpt lat="48.56056453197441" lon="7.532438116262566"><ele>166.0</ele><time>2026-04-30T10:17:00.009Z</time></trkpt><trkpt lat="48.56055412795862" lon="7.532549877674573"><ele>166.0</ele><time>2026-04-30T10:17:01.009Z</time></trkpt><trkpt lat="48.56050841904048" lon="7.532666109357651"><ele>166.25</ele><time>2026-04-30T10:17:03.009Z</time></trkpt><trkpt lat="48.56035165717996" lon="7.532656159959664"><ele>166.5</ele><time>2026-04-30T10:17:05.009Z</time></trkpt><trkpt lat="48.56025820071455" lon="7.532651153223772"><ele>166.75</ele><time>2026-04-30T10:17:06.009Z</time></trkpt><trkpt lat="48.56015789165627" lon="7.5326656185126595"><ele>167.0</ele><time>2026-04-30T10:17:07.009Z</time></trkpt><trkpt lat="48.56005958873506" lon="7.532676933556807"><ele>167.0</ele><time>2026-04-30T10:17:08.009Z</time></trkpt><trkpt lat="48.559954560305435" lon="7.532688198706895"><ele>167.0</ele><time>2026-04-30T10:17:09.009Z</time></trkpt><trkpt lat="48.559849055270206" lon="7.532696041358221"><ele>167.0</ele><time>2026-04-30T10:17:10.009Z</time></trkpt><trkpt lat="48.55974890677374" lon="7.532702444225161"><ele>167.0</ele><time>2026-04-30T10:17:11.009Z</time></trkpt><trkpt lat="48.55963318687016" lon="7.532703906172524"><ele>167.0</ele><time>2026-04-30T10:17:12.009Z</time></trkpt><trkpt lat="48.55952141608257" lon="7.532704049752121"><ele>167.0</ele><time>2026-04-30T10:17:13.009Z</time></trkpt><trkpt lat="48.55940354684622" lon="7.532728702885927"><ele>167.0</ele><time>2026-04-30T10:17:14.009Z</time></trkpt><trkpt lat="48.55929310824384" lon="7.532748016564251"><ele>167.0</ele><time>2026-04-30T10:17:15.009Z</time></trkpt><trkpt lat="48.559174658108596" lon="7.532771312313765"><ele>167.0</ele><time>2026-04-30T10:17:16.009Z</time></trkpt><trkpt lat="48.55905060422361" lon="7.532816938446799"><ele>167.0</ele><time>2026-04-30T10:17:17.009Z</time></trkpt><trkpt lat="48.55891570186369" lon="7.532864429811805"><ele>167.0</ele><time>2026-04-30T10:17:18.009Z</time></trkpt><trkpt lat="48.55879996852811" lon="7.532885869999344"><ele>167.0</ele><time>2026-04-30T10:17:19.009Z</time></trkpt><trkpt lat="48.55869536358624" lon="7.53289663326625"><ele>167.0</ele><time>2026-04-30T10:17:20.009Z</time></trkpt><trkpt lat="48.55859212046307" lon="7.532906359082731"><ele>166.8</ele><time>2026-04-30T10:17:21.009Z</time></trkpt><trkpt lat="48.55849275562904" lon="7.5329098325641795"><ele>166.6</ele><time>2026-04-30T10:17:22.009Z</time></trkpt><trkpt lat="48.55838713858077" lon="7.53290079797316"><ele>166.4</ele><time>2026-04-30T10:17:23.009Z</time></trkpt><trkpt lat="48.55829846608557" lon="7.532867325285225"><ele>166.20000000000002</ele><time>2026-04-30T10:17:24.009Z</time></trkpt><trkpt lat="48.558210573717716" lon="7.532822548335205"><ele>166.0</ele><time>2026-04-30T10:17:25.009Z</time></trkpt><trkpt lat="48.55810958034553" lon="7.532766387480929"><ele>165.75</ele><time>2026-04-30T10:17:26.009Z</time></trkpt><trkpt lat="48.5580038203308" lon="7.532726417391301"><ele>165.5</ele><time>2026-04-30T10:17:27.009Z</time></trkpt><trkpt lat="48.55788909796771" lon="7.532701128891495"><ele>165.25</ele><time>2026-04-30T10:17:28.009Z</time></trkpt><trkpt lat="48.55776831384273" lon="7.532682258407722"><ele>165.0</ele><time>2026-04-30T10:17:29.009Z</time></trkpt><trkpt lat="48.557645050758104" lon="7.5326663503270614"><ele>164.75</ele><time>2026-04-30T10:17:30.009Z</time></trkpt><trkpt lat="48.557523227939754" lon="7.532635165919215"><ele>164.5</ele><time>2026-04-30T10:17:31.009Z</time></trkpt><trkpt lat="48.55739260313107" lon="7.532601021385965"><ele>164.25</ele><time>2026-04-30T10:17:32.009Z</time></trkpt><trkpt lat="48.55726206800755" lon="7.5325686619732615"><ele>164.0</ele><time>2026-04-30T10:17:33.009Z</time></trkpt><trkpt lat="48.55714907834067" lon="7.532541472041747"><ele>164.5</ele><time>2026-04-30T10:17:34.009Z</time></trkpt><trkpt lat="48.55703019450651" lon="7.5325091887272855"><ele>165.0</ele><time>2026-04-30T10:17:35.009Z</time></trkpt><trkpt lat="48.55690322633432" lon="7.532478639870334"><ele>165.5</ele><time>2026-04-30T10:17:36.008Z</time></trkpt><trkpt lat="48.55679286304653" lon="7.532446433640645"><ele>166.0</ele><time>2026-04-30T10:17:37.008Z</time></trkpt><trkpt lat="48.55666814485275" lon="7.532417874899169"><ele>166.0</ele><time>2026-04-30T10:17:38.008Z</time></trkpt><trkpt lat="48.556541525623885" lon="7.532381547285141"><ele>166.0</ele><time>2026-04-30T10:17:39.008Z</time></trkpt><trkpt lat="48.5564150093338" lon="7.532346842516202"><ele>166.0</ele><time>2026-04-30T10:17:40.008Z</time></trkpt><trkpt lat="48.5562941461993" lon="7.532307358796905"><ele>166.0</ele><time>2026-04-30T10:17:41.008Z</time></trkpt><trkpt lat="48.55616625521678" lon="7.5322783414070535"><ele>165.5</ele><time>2026-04-30T10:17:42.008Z</time></trkpt><trkpt lat="48.55603843890414" lon="7.532242066998061"><ele>165.0</ele><time>2026-04-30T10:17:43.008Z</time></trkpt><trkpt lat="48.55591130402423" lon="7.53221404010943"><ele>164.5</ele><time>2026-04-30T10:17:44.008Z</time></trkpt><trkpt lat="48.55578908962864" lon="7.532179070408124"><ele>164.0</ele><time>2026-04-30T10:17:45.008Z</time></trkpt><trkpt lat="48.555668364785056" lon="7.532145471118889"><ele>164.0</ele><time>2026-04-30T10:17:46.008Z</time></trkpt><trkpt lat="48.555555640922364" lon="7.53210425269459"><ele>164.0</ele><time>2026-04-30T10:17:47.008Z</time></trkpt><trkpt lat="48.55543445274323" lon="7.532068260623353"><ele>164.0</ele><time>2026-04-30T10:17:48.008Z</time></trkpt><trkpt lat="48.555307995298456" lon="7.532039265886853"><ele>164.0</ele><time>2026-04-30T10:17:49.008Z</time></trkpt><trkpt lat="48.555200287496696" lon="7.531972589722394"><ele>164.0</ele><time>2026-04-30T10:17:50.008Z</time></trkpt><trkpt lat="48.555087221969636" lon="7.531934774313682"><ele>164.0</ele><time>2026-04-30T10:17:51.008Z</time></trkpt><trkpt lat="48.554968365543516" lon="7.5318979355905595"><ele>164.0</ele><time>2026-04-30T10:17:52.008Z</time></trkpt><trkpt lat="48.5548483670231" lon="7.53186082888574"><ele>164.0</ele><time>2026-04-30T10:17:53.008Z</time></trkpt><trkpt lat="48.55472685590028" lon="7.531829266561676"><ele>164.0</ele><time>2026-04-30T10:17:54.008Z</time></trkpt><trkpt lat="48.554607278961406" lon="7.53180714795173"><ele>164.0</ele><time>2026-04-30T10:17:55.008Z</time></trkpt><trkpt lat="48.554501332472384" lon="7.531786301303412"><ele>164.0</ele><time>2026-04-30T10:17:56.008Z</time></trkpt><trkpt lat="48.554388096352774" lon="7.531788380319705"><ele>164.0</ele><time>2026-04-30T10:17:57.008Z</time></trkpt><trkpt lat="48.55427998319505" lon="7.531810179365278"><ele>163.75</ele><time>2026-04-30T10:17:58.008Z</time></trkpt><trkpt lat="48.55416152119497" lon="7.531850892215659"><ele>163.5</ele><time>2026-04-30T10:17:59.008Z</time></trkpt><trkpt lat="48.55404033376083" lon="7.531905063677181"><ele>163.25</ele><time>2026-04-30T10:18:00.008Z</time></trkpt><trkpt lat="48.55392126716041" lon="7.531968777087064"><ele>163.0</ele><time>2026-04-30T10:18:01.008Z</time></trkpt><trkpt lat="48.55380571540155" lon="7.532039327252502"><ele>163.0</ele><time>2026-04-30T10:18:02.008Z</time></trkpt><trkpt lat="48.55368861009659" lon="7.532103782714634"><ele>163.0</ele><time>2026-04-30T10:18:03.008Z</time></trkpt><trkpt lat="48.553567299525085" lon="7.532172131676126"><ele>163.0</ele><time>2026-04-30T10:18:04.008Z</time></trkpt><trkpt lat="48.55344645254754" lon="7.532235933423993"><ele>163.0</ele><time>2026-04-30T10:18:05.008Z</time></trkpt><trkpt lat="48.55332228557323" lon="7.5322843157910935"><ele>163.0</ele><time>2026-04-30T10:18:06.008Z</time></trkpt><trkpt lat="48.5531988498071" lon="7.53233430898251"><ele>163.0</ele><time>2026-04-30T10:18:07.008Z</time></trkpt><trkpt lat="48.55307821379597" lon="7.532388009356091"><ele>163.0</ele><time>2026-04-30T10:18:08.008Z</time></trkpt><trkpt lat="48.55295782779836" lon="7.532440665694753"><ele>163.0</ele><time>2026-04-30T10:18:09.008Z</time></trkpt><trkpt lat="48.55283353699976" lon="7.5325004826676585"><ele>163.25</ele><time>2026-04-30T10:18:10.008Z</time></trkpt><trkpt lat="48.552708367818326" lon="7.532559020377671"><ele>163.5</ele><time>2026-04-30T10:18:11.008Z</time></trkpt><trkpt lat="48.55258507755048" lon="7.532619603578733"><ele>163.75</ele><time>2026-04-30T10:18:12.008Z</time></trkpt><trkpt lat="48.55246094402284" lon="7.532675927578449"><ele>164.0</ele><time>2026-04-30T10:18:13.008Z</time></trkpt><trkpt lat="48.55233774212154" lon="7.5327305573134575"><ele>164.0</ele><time>2026-04-30T10:18:14.008Z</time></trkpt><trkpt lat="48.55221634833965" lon="7.532784941125435"><ele>164.0</ele><time>2026-04-30T10:18:15.008Z</time></trkpt><trkpt lat="48.552091958279306" lon="7.532839150122139"><ele>164.0</ele><time>2026-04-30T10:18:16.008Z</time></trkpt><trkpt lat="48.551970553152536" lon="7.532892450714852"><ele>164.0</ele><time>2026-04-30T10:18:17.008Z</time></trkpt><trkpt lat="48.55185215544873" lon="7.532935175910584"><ele>163.75</ele><time>2026-04-30T10:18:18.008Z</time></trkpt><trkpt lat="48.55173131742626" lon="7.532983810655285"><ele>163.5</ele><time>2026-04-30T10:18:19.008Z</time></trkpt><trkpt lat="48.5516109453753" lon="7.533034104642558"><ele>163.25</ele><time>2026-04-30T10:18:20.008Z</time></trkpt><trkpt lat="48.55149036082127" lon="7.533070202995228"><ele>163.0</ele><time>2026-04-30T10:18:21.008Z</time></trkpt><trkpt lat="48.551367501195564" lon="7.533087060039122"><ele>163.0</ele><time>2026-04-30T10:18:22.008Z</time></trkpt><trkpt lat="48.55124858563608" lon="7.533097785950731"><ele>163.0</ele><time>2026-04-30T10:18:23.008Z</time></trkpt><trkpt lat="48.551138920952134" lon="7.533098876737771"><ele>163.0</ele><time>2026-04-30T10:18:24.008Z</time></trkpt><trkpt lat="48.551024353918514" lon="7.533102389860074"><ele>163.0</ele><time>2026-04-30T10:18:25.008Z</time></trkpt><trkpt lat="48.55089575615666" lon="7.533116377657819"><ele>163.25</ele><time>2026-04-30T10:18:26.008Z</time></trkpt><trkpt lat="48.550777995294055" lon="7.533142673623655"><ele>163.5</ele><time>2026-04-30T10:18:27.008Z</time></trkpt><trkpt lat="48.550665212972056" lon="7.533155942739614"><ele>163.75</ele><time>2026-04-30T10:18:28.008Z</time></trkpt><trkpt lat="48.55055383968935" lon="7.53316769532719"><ele>164.0</ele><time>2026-04-30T10:18:29.008Z</time></trkpt><trkpt lat="48.5504429059233" lon="7.533180528074659"><ele>164.2</ele><time>2026-04-30T10:18:30.008Z</time></trkpt><trkpt lat="48.55033529300093" lon="7.533164721107309"><ele>164.39999999999998</ele><time>2026-04-30T10:18:31.008Z</time></trkpt><trkpt lat="48.55022605057397" lon="7.533177764410524"><ele>164.6</ele><time>2026-04-30T10:18:32.008Z</time></trkpt><trkpt lat="48.55012164936113" lon="7.533193804868444"><ele>164.8</ele><time>2026-04-30T10:18:33.009Z</time></trkpt><trkpt lat="48.55000090678381" lon="7.53319994267213"><ele>165.0</ele><time>2026-04-30T10:18:34.009Z</time></trkpt><trkpt lat="48.5498821835218" lon="7.533190470561203"><ele>165.0</ele><time>2026-04-30T10:18:35.009Z</time></trkpt><trkpt lat="48.549762339659175" lon="7.53322740440055"><ele>165.0</ele><time>2026-04-30T10:18:36.01Z</time></trkpt><trkpt lat="48.54963582286257" lon="7.533240028893947"><ele>165.0</ele><time>2026-04-30T10:18:37.009Z</time></trkpt><trkpt lat="48.549514213925946" lon="7.533248469044314"><ele>165.0</ele><time>2026-04-30T10:18:38.009Z</time></trkpt><trkpt lat="48.54939333207372" lon="7.533258249324796"><ele>165.25</ele><time>2026-04-30T10:18:39.009Z</time></trkpt><trkpt lat="48.54926602080919" lon="7.533271385621835"><ele>165.5</ele><time>2026-04-30T10:18:40.009Z</time></trkpt><trkpt lat="48.54915134857432" lon="7.533280865193939"><ele>165.75</ele><time>2026-04-30T10:18:41.009Z</time></trkpt><trkpt lat="48.54903990643474" lon="7.533291297368148"><ele>166.0</ele><time>2026-04-30T10:18:42.01Z</time></trkpt><trkpt lat="48.54893643677345" lon="7.533306095442456"><ele>166.0</ele><time>2026-04-30T10:18:43.01Z</time></trkpt><trkpt lat="48.54884759182177" lon="7.533273981281037"><ele>166.0</ele><time>2026-04-30T10:18:44.01Z</time></trkpt><trkpt lat="48.54874284165924" lon="7.533282569473508"><ele>166.0</ele><time>2026-04-30T10:18:45.009Z</time></trkpt><trkpt lat="48.54863455060212" lon="7.53328950667287"><ele>166.0</ele><time>2026-04-30T10:18:46.009Z</time></trkpt><trkpt lat="48.548536807360556" lon="7.533296968389071"><ele>166.0</ele><time>2026-04-30T10:18:47.009Z</time></trkpt><trkpt lat="48.54843801190701" lon="7.533308437422665"><ele>165.60000000000002</ele><time>2026-04-30T10:18:48.008Z</time></trkpt><trkpt lat="48.54834095610486" lon="7.533317521767516"><ele>165.2</ele><time>2026-04-30T10:18:49.008Z</time></trkpt><trkpt lat="48.54824090657064" lon="7.53332176693046"><ele>164.8</ele><time>2026-04-30T10:18:50.008Z</time></trkpt><trkpt lat="48.548141682029076" lon="7.533323473658112"><ele>164.39999999999998</ele><time>2026-04-30T10:18:51.008Z</time></trkpt><trkpt lat="48.54804701956037" lon="7.533301649505461"><ele>164.0</ele><time>2026-04-30T10:18:52.008Z</time></trkpt><trkpt lat="48.54795631005756" lon="7.533265063038636"><ele>164.2</ele><time>2026-04-30T10:18:53.008Z</time></trkpt><trkpt lat="48.54786953559386" lon="7.533215721494866"><ele>164.39999999999998</ele><time>2026-04-30T10:18:54.008Z</time></trkpt><trkpt lat="48.54777231468151" lon="7.533137326685159"><ele>164.6</ele><time>2026-04-30T10:18:55.008Z</time></trkpt><trkpt lat="48.54767194532036" lon="7.533044027400746"><ele>164.8</ele><time>2026-04-30T10:18:56.008Z</time></trkpt><trkpt lat="48.54757326700364" lon="7.532940677514566"><ele>165.0</ele><time>2026-04-30T10:18:57.008Z</time></trkpt><trkpt lat="48.54747707720789" lon="7.532850203228107"><ele>165.0</ele><time>2026-04-30T10:18:58.008Z</time></trkpt><trkpt lat="48.5473753951623" lon="7.5327565303749004"><ele>165.0</ele><time>2026-04-30T10:18:59.008Z</time></trkpt><trkpt lat="48.54727708360001" lon="7.532668459874705"><ele>165.0</ele><time>2026-04-30T10:19:00.008Z</time></trkpt><trkpt lat="48.54718267098962" lon="7.532587729719119"><ele>165.0</ele><time>2026-04-30T10:19:01.008Z</time></trkpt><trkpt lat="48.54709672591463" lon="7.5325181472912695"><ele>165.0</ele><time>2026-04-30T10:19:02.008Z</time></trkpt><trkpt lat="48.54699714083805" lon="7.532455366798415"><ele>165.75</ele><time>2026-04-30T10:19:03.008Z</time></trkpt><trkpt lat="48.54688878751019" lon="7.5324117800304995"><ele>166.5</ele><time>2026-04-30T10:19:04.008Z</time></trkpt><trkpt lat="48.546775894055514" lon="7.532371481436703"><ele>167.25</ele><time>2026-04-30T10:19:05.008Z</time></trkpt><trkpt lat="48.54665646363585" lon="7.532324837243764"><ele>168.0</ele><time>2026-04-30T10:19:06.008Z</time></trkpt><trkpt lat="48.546537248702805" lon="7.532281575651572"><ele>168.0</ele><time>2026-04-30T10:19:07.008Z</time></trkpt><trkpt lat="48.546421142411276" lon="7.532244821799488"><ele>168.0</ele><time>2026-04-30T10:19:08.008Z</time></trkpt><trkpt lat="48.54630474190595" lon="7.5322138978447954"><ele>168.0</ele><time>2026-04-30T10:19:09.008Z</time></trkpt><trkpt lat="48.546193830899654" lon="7.53218585866062"><ele>168.0</ele><time>2026-04-30T10:19:10.008Z</time></trkpt><trkpt lat="48.5460900802943" lon="7.532161429967485"><ele>167.5</ele><time>2026-04-30T10:19:11.008Z</time></trkpt><trkpt lat="48.54598079898787" lon="7.532153831215975"><ele>167.0</ele><time>2026-04-30T10:19:12.008Z</time></trkpt><trkpt lat="48.54586925011051" lon="7.532158705890864"><ele>166.5</ele><time>2026-04-30T10:19:13.008Z</time></trkpt><trkpt lat="48.5457577215433" lon="7.532165944597502"><ele>166.0</ele><time>2026-04-30T10:19:14.008Z</time></trkpt><trkpt lat="48.54563775412136" lon="7.532177684077558"><ele>166.0</ele><time>2026-04-30T10:19:15.008Z</time></trkpt><trkpt lat="48.54551547848564" lon="7.53219259032032"><ele>166.0</ele><time>2026-04-30T10:19:16.008Z</time></trkpt><trkpt lat="48.54539069698661" lon="7.5322092602372726"><ele>166.0</ele><time>2026-04-30T10:19:17.008Z</time></trkpt><trkpt lat="48.5452755403783" lon="7.532224672101862"><ele>166.0</ele><time>2026-04-30T10:19:18.008Z</time></trkpt><trkpt lat="48.54515577195453" lon="7.532240389025799"><ele>166.20000000000002</ele><time>2026-04-30T10:19:19.008Z</time></trkpt><trkpt lat="48.54504194856542" lon="7.532278952180549"><ele>166.4</ele><time>2026-04-30T10:19:20.008Z</time></trkpt><trkpt lat="48.5449317199599" lon="7.532317691042865"><ele>166.6</ele><time>2026-04-30T10:19:21.008Z</time></trkpt><trkpt lat="48.54482858599075" lon="7.532349504237094"><ele>166.8</ele><time>2026-04-30T10:19:22.008Z</time></trkpt><trkpt lat="48.54473676353538" lon="7.532381961792523"><ele>167.0</ele><time>2026-04-30T10:19:23.008Z</time></trkpt><trkpt lat="48.54463363417088" lon="7.532421908471401"><ele>167.0</ele><time>2026-04-30T10:19:24.008Z</time></trkpt><trkpt lat="48.544526805456414" lon="7.532423001132425"><ele>167.0</ele><time>2026-04-30T10:19:25.008Z</time></trkpt><trkpt lat="48.54441860271557" lon="7.532470117322705"><ele>167.0</ele><time>2026-04-30T10:19:26.008Z</time></trkpt><trkpt lat="48.544306856249" lon="7.532517562162478"><ele>167.0</ele><time>2026-04-30T10:19:27.008Z</time></trkpt><trkpt lat="48.54419994749123" lon="7.532560394063234"><ele>167.0</ele><time>2026-04-30T10:19:28.008Z</time></trkpt><trkpt lat="48.54409993441702" lon="7.5325971970922385"><ele>167.0</ele><time>2026-04-30T10:19:29.008Z</time></trkpt><trkpt lat="48.54400890014418" lon="7.532613669361884"><ele>167.0</ele><time>2026-04-30T10:19:30.008Z</time></trkpt><trkpt lat="48.543942781872715" lon="7.532609836564642"><ele>167.0</ele><time>2026-04-30T10:19:31.008Z</time></trkpt><trkpt lat="48.54387651664341" lon="7.532586667472243"><ele>167.0</ele><time>2026-04-30T10:19:32.008Z</time></trkpt><trkpt lat="48.54381761465679" lon="7.5325490683496765"><ele>167.0</ele><time>2026-04-30T10:19:33.008Z</time></trkpt><trkpt lat="48.5437103489703" lon="7.532549640395115"><ele>167.0</ele><time>2026-04-30T10:19:35.008Z</time></trkpt><trkpt lat="48.5436586644932" lon="7.5326193928655405"><ele>166.8</ele><time>2026-04-30T10:19:36.008Z</time></trkpt><trkpt lat="48.543622188255476" lon="7.532726696260288"><ele>166.6</ele><time>2026-04-30T10:19:37.008Z</time></trkpt><trkpt lat="48.54356033245584" lon="7.532846656037282"><ele>166.4</ele><time>2026-04-30T10:19:38.008Z</time></trkpt><trkpt lat="48.54346913191647" lon="7.532943639101771"><ele>166.20000000000002</ele><time>2026-04-30T10:19:39.008Z</time></trkpt><trkpt lat="48.5433548761738" lon="7.533008468387404"><ele>166.0</ele><time>2026-04-30T10:19:40.008Z</time></trkpt><trkpt lat="48.54323367721621" lon="7.5330551270256505"><ele>166.0</ele><time>2026-04-30T10:19:41.008Z</time></trkpt><trkpt lat="48.54313856295915" lon="7.53311267780462"><ele>166.0</ele><time>2026-04-30T10:19:42.008Z</time></trkpt><trkpt lat="48.543087912557304" lon="7.533188673117123"><ele>166.0</ele><time>2026-04-30T10:19:43.008Z</time></trkpt><trkpt lat="48.54303972101075" lon="7.533257543323937"><ele>166.0</ele><time>2026-04-30T10:19:45.008Z</time></trkpt><trkpt lat="48.54297073644002" lon="7.533315413589911"><ele>166.0</ele><time>2026-04-30T10:20:06.008Z</time></trkpt><trkpt lat="48.54288944339178" lon="7.533414441571221"><ele>166.0</ele><time>2026-04-30T10:20:09.008Z</time></trkpt><trkpt lat="48.54279897136076" lon="7.533437960843636"><ele>166.0</ele><time>2026-04-30T10:20:11.008Z</time></trkpt><trkpt lat="48.54269418897254" lon="7.533432021437576"><ele>166.0</ele><time>2026-04-30T10:20:13.008Z</time></trkpt><trkpt lat="48.54261675912637" lon="7.5334393021352275"><ele>166.0</ele><time>2026-04-30T10:20:14.008Z</time></trkpt><trkpt lat="48.5425226270318" lon="7.533451984409653"><ele>166.0</ele><time>2026-04-30T10:20:15.008Z</time></trkpt><trkpt lat="48.54243288461967" lon="7.533455110623505"><ele>166.0</ele><time>2026-04-30T10:20:16.008Z</time></trkpt><trkpt lat="48.542348902829666" lon="7.5334649412865105"><ele>166.0</ele><time>2026-04-30T10:20:17.007Z</time></trkpt><trkpt lat="48.54226978931357" lon="7.533474755782411"><ele>166.0</ele><time>2026-04-30T10:20:18.007Z</time></trkpt><trkpt lat="48.54219309547888" lon="7.533482654786067"><ele>166.0</ele><time>2026-04-30T10:20:19.007Z</time></trkpt><trkpt lat="48.54211273543675" lon="7.533488407346035"><ele>166.0</ele><time>2026-04-30T10:20:20.007Z</time></trkpt><trkpt lat="48.5420228685453" lon="7.533496129052855"><ele>166.0</ele><time>2026-04-30T10:20:21.007Z</time></trkpt><trkpt lat="48.54192145947435" lon="7.533498937337897"><ele>166.0</ele><time>2026-04-30T10:20:22.007Z</time></trkpt><trkpt lat="48.54181513972138" lon="7.533505311829615"><ele>166.25</ele><time>2026-04-30T10:20:23.007Z</time></trkpt><trkpt lat="48.541704097700894" lon="7.533511717355608"><ele>166.5</ele><time>2026-04-30T10:20:24.007Z</time></trkpt><trkpt lat="48.541587454504565" lon="7.53352159513985"><ele>166.75</ele><time>2026-04-30T10:20:25.007Z</time></trkpt><trkpt lat="48.54147524122946" lon="7.533514965198102"><ele>167.0</ele><time>2026-04-30T10:20:26.007Z</time></trkpt><trkpt lat="48.54135766358007" lon="7.533475504131604"><ele>167.0</ele><time>2026-04-30T10:20:27.007Z</time></trkpt><trkpt lat="48.54125239469611" lon="7.533415642353245"><ele>167.0</ele><time>2026-04-30T10:20:28.007Z</time></trkpt><trkpt lat="48.54116001809647" lon="7.533344948951023"><ele>167.0</ele><time>2026-04-30T10:20:29.007Z</time></trkpt><trkpt lat="48.541060868763154" lon="7.5332662642214245"><ele>167.0</ele><time>2026-04-30T10:20:30.007Z</time></trkpt><trkpt lat="48.54096025291985" lon="7.53317335580191"><ele>167.0</ele><time>2026-04-30T10:20:31.007Z</time></trkpt><trkpt lat="48.54087073996656" lon="7.533077207484363"><ele>167.0</ele><time>2026-04-30T10:20:32.007Z</time></trkpt><trkpt lat="48.54078643096087" lon="7.5329751004625525"><ele>167.0</ele><time>2026-04-30T10:20:33.007Z</time></trkpt><trkpt lat="48.54070700667543" lon="7.532851289168777"><ele>167.0</ele><time>2026-04-30T10:20:34.007Z</time></trkpt><trkpt lat="48.54063738673046" lon="7.532702185355691"><ele>167.0</ele><time>2026-04-30T10:20:35.007Z</time></trkpt><trkpt lat="48.540560915761546" lon="7.532539383984824"><ele>166.75</ele><time>2026-04-30T10:20:36.007Z</time></trkpt><trkpt lat="48.540473878321265" lon="7.532358141103418"><ele>166.5</ele><time>2026-04-30T10:20:37.007Z</time></trkpt><trkpt lat="48.540381174566576" lon="7.532172056057952"><ele>166.25</ele><time>2026-04-30T10:20:38.007Z</time></trkpt><trkpt lat="48.54030147526336" lon="7.5320054319184475"><ele>166.0</ele><time>2026-04-30T10:20:39.009Z</time></trkpt><trkpt lat="48.54022362431769" lon="7.531852892880104"><ele>166.60000000000002</ele><time>2026-04-30T10:20:40.009Z</time></trkpt><trkpt lat="48.5401406428649" lon="7.531706477589494"><ele>167.2</ele><time>2026-04-30T10:20:41.009Z</time></trkpt><trkpt lat="48.54005156314052" lon="7.531577427468293"><ele>167.8</ele><time>2026-04-30T10:20:42.009Z</time></trkpt><trkpt lat="48.53997341062765" lon="7.5314740564685385"><ele>168.39999999999998</ele><time>2026-04-30T10:20:43.009Z</time></trkpt><trkpt lat="48.539904506825906" lon="7.531387903152071"><ele>169.0</ele><time>2026-04-30T10:20:44.009Z</time></trkpt><trkpt lat="48.53981733418175" lon="7.531308784245877"><ele>169.0</ele><time>2026-04-30T10:20:45.009Z</time></trkpt><trkpt lat="48.53969939795979" lon="7.5312479678665705"><ele>169.0</ele><time>2026-04-30T10:20:46.009Z</time></trkpt><trkpt lat="48.539545793677625" lon="7.53117874108212"><ele>169.0</ele><time>2026-04-30T10:20:47.009Z</time></trkpt><trkpt lat="48.53937799362817" lon="7.531139814379643"><ele>168.0</ele><time>2026-04-30T10:20:48.009Z</time></trkpt><trkpt lat="48.5392173261138" lon="7.531095105571606"><ele>167.0</ele><time>2026-04-30T10:20:49.009Z</time></trkpt><trkpt lat="48.53906552110549" lon="7.531096955527268"><ele>166.0</ele><time>2026-04-30T10:20:50.009Z</time></trkpt><trkpt lat="48.53892583033268" lon="7.531053266758758"><ele>166.0</ele><time>2026-04-30T10:20:51.009Z</time></trkpt><trkpt lat="48.538796340879344" lon="7.531033510434715"><ele>166.0</ele><time>2026-04-30T10:20:52.009Z</time></trkpt><trkpt lat="48.53866341298881" lon="7.531012610367129"><ele>166.0</ele><time>2026-04-30T10:20:53.009Z</time></trkpt><trkpt lat="48.53852741898207" lon="7.530990278784472"><ele>166.0</ele><time>2026-04-30T10:20:54.009Z</time></trkpt><trkpt lat="48.53838984413211" lon="7.530958448191723"><ele>167.0</ele><time>2026-04-30T10:20:55.009Z</time></trkpt><trkpt lat="48.53824326344077" lon="7.530917306837075"><ele>168.0</ele><time>2026-04-30T10:20:56.009Z</time></trkpt><trkpt lat="48.53808527844043" lon="7.5308756832150925"><ele>169.0</ele><time>2026-04-30T10:20:57.009Z</time></trkpt><trkpt lat="48.53791534574546" lon="7.530838556551069"><ele>168.66666666666669</ele><time>2026-04-30T10:20:58.009Z</time></trkpt><trkpt lat="48.537732912594976" lon="7.53080996985422"><ele>168.33333333333334</ele><time>2026-04-30T10:20:59.009Z</time></trkpt><trkpt lat="48.53754149389771" lon="7.530791755738344"><ele>168.0</ele><time>2026-04-30T10:21:00.009Z</time></trkpt><trkpt lat="48.53734194931712" lon="7.53077060701648"><ele>168.0</ele><time>2026-04-30T10:21:01.009Z</time></trkpt><trkpt lat="48.53713400616281" lon="7.5307373906270305"><ele>168.0</ele><time>2026-04-30T10:21:02.009Z</time></trkpt><trkpt lat="48.53691382241082" lon="7.530690512700611"><ele>168.0</ele><time>2026-04-30T10:21:03.009Z</time></trkpt><trkpt lat="48.53667894518487" lon="7.5306440177704586"><ele>167.0</ele><time>2026-04-30T10:21:04.009Z</time></trkpt><trkpt lat="48.53644800979896" lon="7.530601322289772"><ele>166.0</ele><time>2026-04-30T10:21:05.009Z</time></trkpt><trkpt lat="48.53621368762826" lon="7.530556083496864"><ele>166.0</ele><time>2026-04-30T10:21:06.009Z</time></trkpt><trkpt lat="48.535980316575774" lon="7.530509030604592"><ele>166.0</ele><time>2026-04-30T10:21:07.009Z</time></trkpt><trkpt lat="48.53574063455398" lon="7.530462657505569"><ele>166.0</ele><time>2026-04-30T10:21:08.009Z</time></trkpt><trkpt lat="48.53549761733203" lon="7.530415019385433"><ele>166.0</ele><time>2026-04-30T10:21:09.009Z</time></trkpt><trkpt lat="48.53525483893424" lon="7.530378034060657"><ele>166.5</ele><time>2026-04-30T10:21:10.009Z</time></trkpt><trkpt lat="48.53501509767423" lon="7.53034924748507"><ele>167.0</ele><time>2026-04-30T10:21:11.009Z</time></trkpt><trkpt lat="48.534779546219404" lon="7.5303395935327275"><ele>167.0</ele><time>2026-04-30T10:21:12.009Z</time></trkpt><trkpt lat="48.534545133066956" lon="7.530341888753707"><ele>167.0</ele><time>2026-04-30T10:21:13.009Z</time></trkpt><trkpt lat="48.53431562704475" lon="7.530356367998892"><ele>167.0</ele><time>2026-04-30T10:21:14.009Z</time></trkpt><trkpt lat="48.53408808027104" lon="7.530377482648801"><ele>167.0</ele><time>2026-04-30T10:21:15.009Z</time></trkpt><trkpt lat="48.5338632000622" lon="7.530397510621198"><ele>167.5</ele><time>2026-04-30T10:21:16.009Z</time></trkpt><trkpt lat="48.533637332405064" lon="7.530420695719082"><ele>168.0</ele><time>2026-04-30T10:21:17.009Z</time></trkpt><trkpt lat="48.53340861762829" lon="7.530445284390566"><ele>168.0</ele><time>2026-04-30T10:21:18.009Z</time></trkpt><trkpt lat="48.53318524372305" lon="7.530470199465297"><ele>168.0</ele><time>2026-04-30T10:21:19.009Z</time></trkpt><trkpt lat="48.53296117430723" lon="7.530497134819033"><ele>168.0</ele><time>2026-04-30T10:21:20.009Z</time></trkpt><trkpt lat="48.53274802019721" lon="7.530520143371161"><ele>168.0</ele><time>2026-04-30T10:21:21.009Z</time></trkpt><trkpt lat="48.532550692535445" lon="7.5305429742001"><ele>168.0</ele><time>2026-04-30T10:21:22.009Z</time></trkpt><trkpt lat="48.532369148951325" lon="7.5305493521833755"><ele>168.0</ele><time>2026-04-30T10:21:23.009Z</time></trkpt><trkpt lat="48.53219592202175" lon="7.530534804220722"><ele>167.33333333333334</ele><time>2026-04-30T10:21:24.009Z</time></trkpt><trkpt lat="48.53201535029966" lon="7.530485786572614"><ele>166.66666666666669</ele><time>2026-04-30T10:21:25.009Z</time></trkpt><trkpt lat="48.53183375898013" lon="7.530398774787041"><ele>166.0</ele><time>2026-04-30T10:21:26.009Z</time></trkpt><trkpt lat="48.531660737219056" lon="7.530238898077818"><ele>166.0</ele><time>2026-04-30T10:21:27.009Z</time></trkpt><trkpt lat="48.53148852915788" lon="7.530059331168199"><ele>166.0</ele><time>2026-04-30T10:21:28.009Z</time></trkpt><trkpt lat="48.5313192696425" lon="7.5298540960492995"><ele>166.0</ele><time>2026-04-30T10:21:29.009Z</time></trkpt><trkpt lat="48.53115162618968" lon="7.529680655134773"><ele>166.33333333333334</ele><time>2026-04-30T10:21:30.009Z</time></trkpt><trkpt lat="48.53100748127132" lon="7.529490701839258"><ele>166.66666666666666</ele><time>2026-04-30T10:21:31.009Z</time></trkpt><trkpt lat="48.53087560229795" lon="7.529328634097447"><ele>167.0</ele><time>2026-04-30T10:21:32.009Z</time></trkpt><trkpt lat="48.530750392264224" lon="7.529181055041972"><ele>167.0</ele><time>2026-04-30T10:21:33.009Z</time></trkpt><trkpt lat="48.53063016529206" lon="7.529044668606623"><ele>167.0</ele><time>2026-04-30T10:21:34.009Z</time></trkpt><trkpt lat="48.530523949597004" lon="7.52891358925464"><ele>167.0</ele><time>2026-04-30T10:21:35.009Z</time></trkpt><trkpt lat="48.53042362700749" lon="7.528792938195357"><ele>167.0</ele><time>2026-04-30T10:21:36.009Z</time></trkpt><trkpt lat="48.53032705518387" lon="7.528667537550294"><ele>167.25</ele><time>2026-04-30T10:21:37.009Z</time></trkpt><trkpt lat="48.530229399476234" lon="7.5285242738441385"><ele>167.5</ele><time>2026-04-30T10:21:38.009Z</time></trkpt><trkpt lat="48.53014032656439" lon="7.52839292048704"><ele>167.75</ele><time>2026-04-30T10:21:39.009Z</time></trkpt><trkpt lat="48.530038632994625" lon="7.528270061489608"><ele>168.0</ele><time>2026-04-30T10:21:40.009Z</time></trkpt><trkpt lat="48.52994033407008" lon="7.528155650199357"><ele>168.0</ele><time>2026-04-30T10:21:41.008Z</time></trkpt><trkpt lat="48.529835723730734" lon="7.528044007806301"><ele>168.0</ele><time>2026-04-30T10:21:42.008Z</time></trkpt><trkpt lat="48.52972614708701" lon="7.52793251093003"><ele>168.0</ele><time>2026-04-30T10:21:43.008Z</time></trkpt><trkpt lat="48.52961602469097" lon="7.527823344878464"><ele>168.0</ele><time>2026-04-30T10:21:44.008Z</time></trkpt><trkpt lat="48.529511333223056" lon="7.527720017689437"><ele>168.0</ele><time>2026-04-30T10:21:45.008Z</time></trkpt><trkpt lat="48.5294328593928" lon="7.527594041022557"><ele>168.0</ele><time>2026-04-30T10:21:46.008Z</time></trkpt><trkpt lat="48.529338139444754" lon="7.527488580253245"><ele>168.0</ele><time>2026-04-30T10:21:47.008Z</time></trkpt><trkpt lat="48.529246816180134" lon="7.527357300211802"><ele>168.0</ele><time>2026-04-30T10:21:48.008Z</time></trkpt><trkpt lat="48.529154962806544" lon="7.527229093198074"><ele>168.0</ele><time>2026-04-30T10:21:49.008Z</time></trkpt><trkpt lat="48.52906453076398" lon="7.527115120290999"><ele>168.0</ele><time>2026-04-30T10:21:50.008Z</time></trkpt><trkpt lat="48.52897930820426" lon="7.527012331437169"><ele>168.0</ele><time>2026-04-30T10:21:51.008Z</time></trkpt><trkpt lat="48.52889895404072" lon="7.526910099581857"><ele>168.0</ele><time>2026-04-30T10:21:52.008Z</time></trkpt><trkpt lat="48.52881808032108" lon="7.526819544244335"><ele>168.0</ele><time>2026-04-30T10:21:53.008Z</time></trkpt><trkpt lat="48.52874583104445" lon="7.526729941652631"><ele>168.0</ele><time>2026-04-30T10:21:54.008Z</time></trkpt><trkpt lat="48.528671041742534" lon="7.526634501885145"><ele>168.0</ele><time>2026-04-30T10:21:55.008Z</time></trkpt><trkpt lat="48.5285979706635" lon="7.526547705003051"><ele>168.0</ele><time>2026-04-30T10:21:56.008Z</time></trkpt><trkpt lat="48.52853394948253" lon="7.5264724354010735"><ele>168.0</ele><time>2026-04-30T10:21:57.008Z</time></trkpt><trkpt lat="48.52846985285177" lon="7.526403398435831"><ele>168.0</ele><time>2026-04-30T10:21:58.008Z</time></trkpt><trkpt lat="48.52840821281398" lon="7.5263379226738225"><ele>168.0</ele><time>2026-04-30T10:21:59.008Z</time></trkpt><trkpt lat="48.52834489566753" lon="7.526277719788049"><ele>168.4</ele><time>2026-04-30T10:22:00.008Z</time></trkpt><trkpt lat="48.528280301243036" lon="7.526195982964572"><ele>168.8</ele><time>2026-04-30T10:22:01.008Z</time></trkpt><trkpt lat="48.52819275416937" lon="7.526090034560758"><ele>169.2</ele><time>2026-04-30T10:22:03.008Z</time></trkpt><trkpt lat="48.52812802990337" lon="7.526016024086248"><ele>169.6</ele><time>2026-04-30T10:22:05.008Z</time></trkpt><trkpt lat="48.528080481308706" lon="7.5259515959614"><ele>170.0</ele><time>2026-04-30T10:22:07.008Z</time></trkpt><trkpt lat="48.52796557073721" lon="7.525852809857562"><ele>169.66666666666666</ele><time>2026-04-30T10:22:09.008Z</time></trkpt><trkpt lat="48.527892850222266" lon="7.52579803404199"><ele>169.33333333333331</ele><time>2026-04-30T10:22:10.008Z</time></trkpt><trkpt lat="48.52780934218251" lon="7.525730845700099"><ele>169.0</ele><time>2026-04-30T10:22:11.008Z</time></trkpt><trkpt lat="48.52772962135889" lon="7.525666252091347"><ele>168.66666666666666</ele><time>2026-04-30T10:22:12.008Z</time></trkpt><trkpt lat="48.52765055023663" lon="7.525620593213123"><ele>168.33333333333334</ele><time>2026-04-30T10:22:13.008Z</time></trkpt><trkpt lat="48.52756513968848" lon="7.5255883636666505"><ele>168.0</ele><time>2026-04-30T10:22:14.008Z</time></trkpt><trkpt lat="48.52746636095792" lon="7.525566713477072"><ele>168.0</ele><time>2026-04-30T10:22:15.008Z</time></trkpt><trkpt lat="48.52736696067455" lon="7.525554398166637"><ele>168.0</ele><time>2026-04-30T10:22:16.008Z</time></trkpt><trkpt lat="48.52726260716215" lon="7.525551676236077"><ele>168.0</ele><time>2026-04-30T10:22:17.008Z</time></trkpt><trkpt lat="48.52715285490334" lon="7.52555802019481"><ele>168.0</ele><time>2026-04-30T10:22:18.008Z</time></trkpt><trkpt lat="48.52705210318666" lon="7.525557125076378"><ele>168.0</ele><time>2026-04-30T10:22:19.008Z</time></trkpt><trkpt lat="48.5269435471615" lon="7.525560124892047"><ele>168.5</ele><time>2026-04-30T10:22:20.008Z</time></trkpt><trkpt lat="48.52684263609665" lon="7.525558248430596"><ele>169.0</ele><time>2026-04-30T10:22:21.008Z</time></trkpt><trkpt lat="48.52672187011805" lon="7.525554989488572"><ele>169.5</ele><time>2026-04-30T10:22:22.008Z</time></trkpt><trkpt lat="48.526585022414174" lon="7.52555826539797"><ele>170.0</ele><time>2026-04-30T10:22:23.008Z</time></trkpt><trkpt lat="48.52645829945513" lon="7.5255614463764315"><ele>170.0</ele><time>2026-04-30T10:22:24.008Z</time></trkpt><trkpt lat="48.52632795477321" lon="7.525569518749139"><ele>170.0</ele><time>2026-04-30T10:22:25.008Z</time></trkpt><trkpt lat="48.526193963737164" lon="7.525581756729943"><ele>170.0</ele><time>2026-04-30T10:22:26.008Z</time></trkpt><trkpt lat="48.52606261948071" lon="7.525605126250233"><ele>170.0</ele><time>2026-04-30T10:22:27.008Z</time></trkpt><trkpt lat="48.525933712542695" lon="7.52561541488855"><ele>170.0</ele><time>2026-04-30T10:22:28.008Z</time></trkpt><trkpt lat="48.52580936422403" lon="7.525641804360734"><ele>170.0</ele><time>2026-04-30T10:22:29.008Z</time></trkpt><trkpt lat="48.525679172071655" lon="7.525637683216505"><ele>170.0</ele><time>2026-04-30T10:22:30.008Z</time></trkpt><trkpt lat="48.52555754209285" lon="7.525657322074319"><ele>170.0</ele><time>2026-04-30T10:22:31.008Z</time></trkpt><trkpt lat="48.52543261641426" lon="7.525699938054592"><ele>169.75</ele><time>2026-04-30T10:22:32.008Z</time></trkpt><trkpt lat="48.52530397462802" lon="7.525731300024232"><ele>169.5</ele><time>2026-04-30T10:22:33.008Z</time></trkpt><trkpt lat="48.52517329377152" lon="7.525768724109382"><ele>169.25</ele><time>2026-04-30T10:22:34.008Z</time></trkpt><trkpt lat="48.52504783395066" lon="7.525805890840957"><ele>169.0</ele><time>2026-04-30T10:22:35.008Z</time></trkpt><trkpt lat="48.52492701652841" lon="7.525854954995036"><ele>169.0</ele><time>2026-04-30T10:22:36.008Z</time></trkpt><trkpt lat="48.52480378137268" lon="7.525906396627849"><ele>169.0</ele><time>2026-04-30T10:22:37.008Z</time></trkpt><trkpt lat="48.524677596603155" lon="7.525966260578628"><ele>169.0</ele><time>2026-04-30T10:22:38.008Z</time></trkpt><trkpt lat="48.52456472835481" lon="7.526017128715036"><ele>169.0</ele><time>2026-04-30T10:22:39.008Z</time></trkpt><trkpt lat="48.52444742160769" lon="7.5260731003615735"><ele>169.25</ele><time>2026-04-30T10:22:40.008Z</time></trkpt><trkpt lat="48.524327118970895" lon="7.5260902881651175"><ele>169.5</ele><time>2026-04-30T10:22:41.008Z</time></trkpt><trkpt lat="48.52421473358278" lon="7.526148642615871"><ele>169.75</ele><time>2026-04-30T10:22:42.008Z</time></trkpt><trkpt lat="48.52410579356151" lon="7.526191848047771"><ele>170.0</ele><time>2026-04-30T10:22:43.008Z</time></trkpt><trkpt lat="48.52400022339192" lon="7.526233169615358"><ele>170.2</ele><time>2026-04-30T10:22:44.008Z</time></trkpt><trkpt lat="48.52389754311611" lon="7.526262097145117"><ele>170.4</ele><time>2026-04-30T10:22:45.009Z</time></trkpt><trkpt lat="48.5237981198564" lon="7.526277054931283"><ele>170.60000000000002</ele><time>2026-04-30T10:22:46.008Z</time></trkpt><trkpt lat="48.52369708766893" lon="7.526300168679894"><ele>170.8</ele><time>2026-04-30T10:22:47.008Z</time></trkpt><trkpt lat="48.523590544861136" lon="7.526326475447513"><ele>171.0</ele><time>2026-04-30T10:22:48.009Z</time></trkpt><trkpt lat="48.523488220406534" lon="7.526357932170461"><ele>171.0</ele><time>2026-04-30T10:22:49.008Z</time></trkpt><trkpt lat="48.523388722111626" lon="7.526398300837"><ele>171.0</ele><time>2026-04-30T10:22:50.008Z</time></trkpt><trkpt lat="48.52328516298659" lon="7.526447001847779"><ele>171.0</ele><time>2026-04-30T10:22:51.008Z</time></trkpt><trkpt lat="48.52317877201748" lon="7.526496468925907"><ele>171.0</ele><time>2026-04-30T10:22:52.009Z</time></trkpt><trkpt lat="48.52306568070733" lon="7.526554474897984"><ele>171.0</ele><time>2026-04-30T10:22:53.009Z</time></trkpt><trkpt lat="48.522956960461556" lon="7.526615935943886"><ele>171.33333333333334</ele><time>2026-04-30T10:22:54.009Z</time></trkpt><trkpt lat="48.522865060678654" lon="7.526665143848191"><ele>171.66666666666666</ele><time>2026-04-30T10:22:55.008Z</time></trkpt><trkpt lat="48.52278562172078" lon="7.526702748124715"><ele>172.0</ele><time>2026-04-30T10:22:56.008Z</time></trkpt><trkpt lat="48.52271069973348" lon="7.52673330852665"><ele>172.33333333333331</ele><time>2026-04-30T10:22:57.008Z</time></trkpt><trkpt lat="48.52262483298833" lon="7.526787850716795"><ele>172.66666666666666</ele><time>2026-04-30T10:22:58.008Z</time></trkpt><trkpt lat="48.52255921747669" lon="7.526873936974097"><ele>173.0</ele><time>2026-04-30T10:22:59.008Z</time></trkpt><trkpt lat="48.522514766977565" lon="7.526991511083626"><ele>173.0</ele><time>2026-04-30T10:23:00.008Z</time></trkpt><trkpt lat="48.52247215476314" lon="7.527113946912075"><ele>173.0</ele><time>2026-04-30T10:23:01.008Z</time></trkpt><trkpt lat="48.522415274127475" lon="7.527220694378101"><ele>173.0</ele><time>2026-04-30T10:23:02.008Z</time></trkpt><trkpt lat="48.52233988691107" lon="7.527294310997042"><ele>173.0</ele><time>2026-04-30T10:23:03.008Z</time></trkpt><trkpt lat="48.52227095167621" lon="7.527322942375175"><ele>173.0</ele><time>2026-04-30T10:23:04.008Z</time></trkpt><trkpt lat="48.522190643918975" lon="7.527332186602292"><ele>173.0</ele><time>2026-04-30T10:23:05.008Z</time></trkpt><trkpt lat="48.52210001260327" lon="7.527353088737037"><ele>172.8</ele><time>2026-04-30T10:23:06.008Z</time></trkpt><trkpt lat="48.52199478598765" lon="7.527358001698172"><ele>172.60000000000002</ele><time>2026-04-30T10:23:07.008Z</time></trkpt><trkpt lat="48.52189739825883" lon="7.5274288532023546"><ele>172.39999999999998</ele><time>2026-04-30T10:23:09.008Z</time></trkpt><trkpt lat="48.52186563735168" lon="7.527539136116075"><ele>172.2</ele><time>2026-04-30T10:23:10.008Z</time></trkpt><trkpt lat="48.52184643011341" lon="7.5276925350487796"><ele>172.0</ele><time>2026-04-30T10:23:11.008Z</time></trkpt><trkpt lat="48.52184175026949" lon="7.52788919208939"><ele>172.25</ele><time>2026-04-30T10:23:12.008Z</time></trkpt><trkpt lat="48.52184263933866" lon="7.528078432869003"><ele>172.5</ele><time>2026-04-30T10:23:13.008Z</time></trkpt><trkpt lat="48.52186118832689" lon="7.528259822646328"><ele>172.75</ele><time>2026-04-30T10:23:14.008Z</time></trkpt><trkpt lat="48.52188161356585" lon="7.528416580302601"><ele>173.0</ele><time>2026-04-30T10:23:15.008Z</time></trkpt><trkpt lat="48.52189838487544" lon="7.52856768316391"><ele>173.2</ele><time>2026-04-30T10:23:16.008Z</time></trkpt><trkpt lat="48.52192379056359" lon="7.528727632168448"><ele>173.4</ele><time>2026-04-30T10:23:17.008Z</time></trkpt><trkpt lat="48.521944345481806" lon="7.528889483291281"><ele>173.6</ele><time>2026-04-30T10:23:18.008Z</time></trkpt><trkpt lat="48.521963419663464" lon="7.5290552028586175"><ele>173.79999999999998</ele><time>2026-04-30T10:23:19.008Z</time></trkpt><trkpt lat="48.521983699460485" lon="7.52922228652041"><ele>174.0</ele><time>2026-04-30T10:23:20.008Z</time></trkpt><trkpt lat="48.521999756257145" lon="7.529395335412175"><ele>174.0</ele><time>2026-04-30T10:23:21.008Z</time></trkpt><trkpt lat="48.5220216331833" lon="7.529544203893071"><ele>174.0</ele><time>2026-04-30T10:23:22.008Z</time></trkpt><trkpt lat="48.52201310877228" lon="7.5296518246108715"><ele>174.0</ele><time>2026-04-30T10:23:23.008Z</time></trkpt><trkpt lat="48.52198796415296" lon="7.5297415338949785"><ele>174.0</ele><time>2026-04-30T10:23:24.008Z</time></trkpt><trkpt lat="48.52190886452361" lon="7.52979101090347"><ele>174.0</ele><time>2026-04-30T10:23:25.008Z</time></trkpt><trkpt lat="48.5218172711743" lon="7.529821632404336"><ele>174.0</ele><time>2026-04-30T10:23:26.008Z</time></trkpt><trkpt lat="48.52171094740857" lon="7.529855079558328"><ele>174.0</ele><time>2026-04-30T10:23:27.008Z</time></trkpt><trkpt lat="48.52160516211414" lon="7.529904296407248"><ele>174.0</ele><time>2026-04-30T10:23:28.008Z</time></trkpt><trkpt lat="48.521499320442636" lon="7.529941313833803"><ele>174.0</ele><time>2026-04-30T10:23:29.008Z</time></trkpt><trkpt lat="48.52138153535317" lon="7.529988444219519"><ele>174.0</ele><time>2026-04-30T10:23:30.008Z</time></trkpt><trkpt lat="48.52126986460732" lon="7.530058170364828"><ele>173.83333333333334</ele><time>2026-04-30T10:23:31.008Z</time></trkpt><trkpt lat="48.52117234797046" lon="7.530101222314292"><ele>173.66666666666666</ele><time>2026-04-30T10:23:32.008Z</time></trkpt><trkpt lat="48.52108315440054" lon="7.530144188494441"><ele>173.5</ele><time>2026-04-30T10:23:33.008Z</time></trkpt><trkpt lat="48.52101313290554" lon="7.530172042554594"><ele>173.33333333333331</ele><time>2026-04-30T10:23:34.008Z</time></trkpt><trkpt lat="48.520929752892755" lon="7.530205249454131"><ele>173.16666666666666</ele><time>2026-04-30T10:23:36.008Z</time></trkpt><trkpt lat="48.5208651667492" lon="7.53023833319499"><ele>173.0</ele><time>2026-04-30T10:23:53.008Z</time></trkpt><trkpt lat="48.52076813386464" lon="7.530246920187249"><ele>173.0</ele><time>2026-04-30T10:23:55.008Z</time></trkpt><trkpt lat="48.520700988503826" lon="7.530293759006653"><ele>173.0</ele><time>2026-04-30T10:23:57.008Z</time></trkpt><trkpt lat="48.52068177342026" lon="7.530471484768451"><ele>173.0</ele><time>2026-04-30T10:23:59.008Z</time></trkpt><trkpt lat="48.52068520488789" lon="7.530624497988926"><ele>173.0</ele><time>2026-04-30T10:24:00.008Z</time></trkpt><trkpt lat="48.5207018766071" lon="7.530802416243294"><ele>173.0</ele><time>2026-04-30T10:24:01.008Z</time></trkpt><trkpt lat="48.52070678007385" lon="7.530999338108628"><ele>172.75</ele><time>2026-04-30T10:24:02.008Z</time></trkpt><trkpt lat="48.52071807594745" lon="7.5312124205828885"><ele>172.5</ele><time>2026-04-30T10:24:03.008Z</time></trkpt><trkpt lat="48.52073009899176" lon="7.531428358172512"><ele>172.25</ele><time>2026-04-30T10:24:04.008Z</time></trkpt><trkpt lat="48.52072643149893" lon="7.531636820195169"><ele>172.0</ele><time>2026-04-30T10:24:05.008Z</time></trkpt><trkpt lat="48.52073528054468" lon="7.531829599915036"><ele>171.25</ele><time>2026-04-30T10:24:06.008Z</time></trkpt><trkpt lat="48.520751119938346" lon="7.532030360847921"><ele>170.5</ele><time>2026-04-30T10:24:07.008Z</time></trkpt><trkpt lat="48.52076317566066" lon="7.532235537292367"><ele>169.75</ele><time>2026-04-30T10:24:08.008Z</time></trkpt><trkpt lat="48.52076951301215" lon="7.532448581314981"><ele>169.0</ele><time>2026-04-30T10:24:09.008Z</time></trkpt><trkpt lat="48.52078194761142" lon="7.532677368751963"><ele>168.5</ele><time>2026-04-30T10:24:10.008Z</time></trkpt><trkpt lat="48.52079389852207" lon="7.532922880014565"><ele>168.0</ele><time>2026-04-30T10:24:11.008Z</time></trkpt><trkpt lat="48.520801879211206" lon="7.533161739568742"><ele>167.5</ele><time>2026-04-30T10:24:12.008Z</time></trkpt><trkpt lat="48.52079928913428" lon="7.5333473500801365"><ele>167.0</ele><time>2026-04-30T10:24:13.008Z</time></trkpt><trkpt lat="48.52079827980661" lon="7.533454675081219"><ele>167.0</ele><time>2026-04-30T10:24:14.008Z</time></trkpt><trkpt lat="48.52082501947231" lon="7.533208629155764"><ele>167.0</ele><time>2026-04-30T10:24:22.006Z</time></trkpt><trkpt lat="48.52081640838712" lon="7.532968182819862"><ele>167.0</ele><time>2026-04-30T10:24:23.005Z</time></trkpt><trkpt lat="48.520809842087075" lon="7.532676317172498"><ele>167.66666666666666</ele><time>2026-04-30T10:24:24.005Z</time></trkpt><trkpt lat="48.52079701182898" lon="7.5323741409753815"><ele>168.33333333333334</ele><time>2026-04-30T10:24:25.004Z</time></trkpt><trkpt lat="48.52078361202569" lon="7.532080982313329"><ele>169.0</ele><time>2026-04-30T10:24:26.004Z</time></trkpt><trkpt lat="48.52077293540701" lon="7.531850987127082"><ele>169.0</ele><time>2026-04-30T10:24:27.004Z</time></trkpt><trkpt lat="48.520770596578146" lon="7.531627916490121"><ele>169.0</ele><time>2026-04-30T10:24:28.003Z</time></trkpt><trkpt lat="48.52076757783587" lon="7.53143170871485"><ele>169.0</ele><time>2026-04-30T10:24:29.003Z</time></trkpt><trkpt lat="48.52075497790608" lon="7.531266819491994"><ele>169.0</ele><time>2026-04-30T10:24:30.003Z</time></trkpt><trkpt lat="48.520742457815906" lon="7.531132056687217"><ele>169.6</ele><time>2026-04-30T10:24:31.002Z</time></trkpt><trkpt lat="48.52075972794955" lon="7.531024357495231"><ele>170.2</ele><time>2026-04-30T10:24:32.002Z</time></trkpt><trkpt lat="48.520747579255044" lon="7.530903721801809"><ele>170.79999999999998</ele><time>2026-04-30T10:24:34.001Z</time></trkpt><trkpt lat="48.52062619115011" lon="7.530937608479145"><ele>171.39999999999998</ele><time>2026-04-30T10:24:36.001Z</time></trkpt><trkpt lat="48.52057175089003" lon="7.5310198151803185"><ele>172.0</ele><time>2026-04-30T10:24:37.001Z</time></trkpt><trkpt lat="48.520497740066816" lon="7.5311324170224925"><ele>171.25</ele><time>2026-04-30T10:24:38.001Z</time></trkpt><trkpt lat="48.52042320220426" lon="7.531249605888381"><ele>170.5</ele><time>2026-04-30T10:24:39Z</time></trkpt><trkpt lat="48.52035584199757" lon="7.531392568466551"><ele>169.75</ele><time>2026-04-30T10:24:40Z</time></trkpt><trkpt lat="48.520266945199516" lon="7.531505143038229"><ele>169.0</ele><time>2026-04-30T10:24:41Z</time></trkpt><trkpt lat="48.520184023648994" lon="7.531645919370246"><ele>169.0</ele><time>2026-04-30T10:24:42Z</time></trkpt><trkpt lat="48.520101398985844" lon="7.531786191397994"><ele>169.0</ele><time>2026-04-30T10:24:43Z</time></trkpt><trkpt lat="48.520037596246446" lon="7.531937176038027"><ele>169.0</ele><time>2026-04-30T10:24:44Z</time></trkpt><trkpt lat="48.51996275847978" lon="7.532067175857806"><ele>169.0</ele><time>2026-04-30T10:24:45Z</time></trkpt><trkpt lat="48.51988951029341" lon="7.5321953671327435"><ele>169.0</ele><time>2026-04-30T10:24:45.999Z</time></trkpt><trkpt lat="48.51980854061102" lon="7.532328174825715"><ele>169.0</ele><time>2026-04-30T10:24:46.999Z</time></trkpt><trkpt lat="48.51972206597148" lon="7.53247170600102"><ele>169.0</ele><time>2026-04-30T10:24:47.999Z</time></trkpt><trkpt lat="48.519619535684335" lon="7.532640197782926"><ele>169.0</ele><time>2026-04-30T10:24:48.999Z</time></trkpt><trkpt lat="48.51952234671902" lon="7.53280746019084"><ele>169.0</ele><time>2026-04-30T10:24:49.999Z</time></trkpt><trkpt lat="48.51941792620397" lon="7.5329790528450085"><ele>169.0</ele><time>2026-04-30T10:24:51Z</time></trkpt><trkpt lat="48.51930447600567" lon="7.533162136563086"><ele>169.0</ele><time>2026-04-30T10:24:52.001Z</time></trkpt><trkpt lat="48.51916646350926" lon="7.533346566180769"><ele>169.0</ele><time>2026-04-30T10:24:53Z</time></trkpt><trkpt lat="48.51903785483909" lon="7.533564452869769"><ele>169.0</ele><time>2026-04-30T10:24:54Z</time></trkpt><trkpt lat="48.518890301735006" lon="7.533760771692897"><ele>169.0</ele><time>2026-04-30T10:24:55Z</time></trkpt><trkpt lat="48.51874779475966" lon="7.533956693880982"><ele>168.66666666666669</ele><time>2026-04-30T10:24:56Z</time></trkpt><trkpt lat="48.51859278241569" lon="7.534139522964459"><ele>168.33333333333334</ele><time>2026-04-30T10:24:57Z</time></trkpt><trkpt lat="48.51844336507067" lon="7.5343398802202595"><ele>168.0</ele><time>2026-04-30T10:24:58Z</time></trkpt><trkpt lat="48.51831296677925" lon="7.5345394279118265"><ele>168.25</ele><time>2026-04-30T10:24:59Z</time></trkpt><trkpt lat="48.518184863925974" lon="7.5347042275422895"><ele>168.5</ele><time>2026-04-30T10:25:00Z</time></trkpt><trkpt lat="48.5180719017373" lon="7.534853410363826"><ele>168.75</ele><time>2026-04-30T10:25:01Z</time></trkpt><trkpt lat="48.517972784152605" lon="7.534976750079977"><ele>169.0</ele><time>2026-04-30T10:25:02Z</time></trkpt><trkpt lat="48.51790115913266" lon="7.535072126171652"><ele>169.2</ele><time>2026-04-30T10:25:03Z</time></trkpt><trkpt lat="48.517839283887234" lon="7.535146263294361"><ele>169.39999999999998</ele><time>2026-04-30T10:25:04Z</time></trkpt><trkpt lat="48.517831446210536" lon="7.535290531912018"><ele>169.6</ele><time>2026-04-30T10:25:05Z</time></trkpt><trkpt lat="48.51783721550489" lon="7.535455250719507"><ele>169.8</ele><time>2026-04-30T10:25:06Z</time></trkpt><trkpt lat="48.51785438691963" lon="7.53566186595217"><ele>170.0</ele><time>2026-04-30T10:25:07Z</time></trkpt><trkpt lat="48.517868432886075" lon="7.535886580443835"><ele>169.66666666666666</ele><time>2026-04-30T10:25:08Z</time></trkpt><trkpt lat="48.51788069712165" lon="7.5361399821828865"><ele>169.33333333333334</ele><time>2026-04-30T10:25:09Z</time></trkpt><trkpt lat="48.517892834208816" lon="7.536426261889002"><ele>169.0</ele><time>2026-04-30T10:25:10Z</time></trkpt><trkpt lat="48.51790505135798" lon="7.536750133844849"><ele>168.33333333333334</ele><time>2026-04-30T10:25:11Z</time></trkpt><trkpt lat="48.51791908250137" lon="7.537070255767024"><ele>167.66666666666666</ele><time>2026-04-30T10:25:12Z</time></trkpt><trkpt lat="48.5179299707629" lon="7.5373983075270985"><ele>167.0</ele><time>2026-04-30T10:25:13Z</time></trkpt><trkpt lat="48.51794054374075" lon="7.537745569184047"><ele>166.66666666666666</ele><time>2026-04-30T10:25:14Z</time></trkpt><trkpt lat="48.51795160458859" lon="7.538076106684839"><ele>166.33333333333334</ele><time>2026-04-30T10:25:15Z</time></trkpt><trkpt lat="48.51796498508731" lon="7.538391830304946"><ele>166.0</ele><time>2026-04-30T10:25:16Z</time></trkpt><trkpt lat="48.51797706980635" lon="7.538698044579953"><ele>166.33333333333334</ele><time>2026-04-30T10:25:17Z</time></trkpt><trkpt lat="48.51798857926881" lon="7.538992878579436"><ele>166.66666666666666</ele><time>2026-04-30T10:25:18Z</time></trkpt><trkpt lat="48.517983795316006" lon="7.539280577366442"><ele>167.0</ele><time>2026-04-30T10:25:19Z</time></trkpt><trkpt lat="48.51799355240477" lon="7.539560410964752"><ele>167.0</ele><time>2026-04-30T10:25:20Z</time></trkpt><trkpt lat="48.51800334589029" lon="7.539841288797967"><ele>167.0</ele><time>2026-04-30T10:25:21Z</time></trkpt><trkpt lat="48.51801298445959" lon="7.540117723283695"><ele>167.0</ele><time>2026-04-30T10:25:22Z</time></trkpt><trkpt lat="48.51802300906537" lon="7.540405229367647"><ele>167.0</ele><time>2026-04-30T10:25:23Z</time></trkpt><trkpt lat="48.518033628033734" lon="7.540709781889308"><ele>167.0</ele><time>2026-04-30T10:25:24Z</time></trkpt><trkpt lat="48.51805913472776" lon="7.541017359524584"><ele>167.0</ele><time>2026-04-30T10:25:24.999Z</time></trkpt><trkpt lat="48.51806971026444" lon="7.541331017834292"><ele>167.33333333333331</ele><time>2026-04-30T10:25:25.999Z</time></trkpt><trkpt lat="48.5180819972491" lon="7.54164502688979"><ele>167.66666666666666</ele><time>2026-04-30T10:25:26.999Z</time></trkpt><trkpt lat="48.518094234420445" lon="7.541956745587063"><ele>168.0</ele><time>2026-04-30T10:25:27.999Z</time></trkpt><trkpt lat="48.518107867004495" lon="7.542263015255457"><ele>167.33333333333334</ele><time>2026-04-30T10:25:28.999Z</time></trkpt><trkpt lat="48.518118138724176" lon="7.5425641456647625"><ele>166.66666666666669</ele><time>2026-04-30T10:25:29.999Z</time></trkpt><trkpt lat="48.5181301271059" lon="7.542859096746854"><ele>166.0</ele><time>2026-04-30T10:25:30.999Z</time></trkpt><trkpt lat="48.518140284269826" lon="7.543146948635583"><ele>166.0</ele><time>2026-04-30T10:25:31.999Z</time></trkpt><trkpt lat="48.51813552950096" lon="7.543404984657778"><ele>166.0</ele><time>2026-04-30T10:25:32.999Z</time></trkpt><trkpt lat="48.51814433449935" lon="7.543641180399188"><ele>166.0</ele><time>2026-04-30T10:25:33.999Z</time></trkpt><trkpt lat="48.51815322650677" lon="7.5438797102372614"><ele>166.0</ele><time>2026-04-30T10:25:34.999Z</time></trkpt><trkpt lat="48.518176969037185" lon="7.544113995809335"><ele>166.0</ele><time>2026-04-30T10:25:35.999Z</time></trkpt><trkpt lat="48.51817987333112" lon="7.544356424492391"><ele>166.0</ele><time>2026-04-30T10:25:36.999Z</time></trkpt><trkpt lat="48.51818689625498" lon="7.544604899028864"><ele>166.33333333333334</ele><time>2026-04-30T10:25:37.999Z</time></trkpt><trkpt lat="48.518197425646" lon="7.544860373065361"><ele>166.66666666666666</ele><time>2026-04-30T10:25:38.999Z</time></trkpt><trkpt lat="48.518207859175405" lon="7.545124059812084"><ele>167.0</ele><time>2026-04-30T10:25:39.999Z</time></trkpt><trkpt lat="48.51821986868458" lon="7.545399394978998"><ele>167.0</ele><time>2026-04-30T10:25:40.999Z</time></trkpt><trkpt lat="48.51823035271482" lon="7.545683855230385"><ele>167.0</ele><time>2026-04-30T10:25:41.999Z</time></trkpt><trkpt lat="48.518241293882966" lon="7.545956697272839"><ele>167.0</ele><time>2026-04-30T10:25:42.999Z</time></trkpt><trkpt lat="48.51824935256854" lon="7.546224341064013"><ele>166.33333333333331</ele><time>2026-04-30T10:25:43.999Z</time></trkpt><trkpt lat="48.51825820393522" lon="7.546489500863559"><ele>165.66666666666666</ele><time>2026-04-30T10:25:44.999Z</time></trkpt><trkpt lat="48.51826585534399" lon="7.546753841403217"><ele>165.0</ele><time>2026-04-30T10:25:45.999Z</time></trkpt><trkpt lat="48.518275084581234" lon="7.547008490504887"><ele>164.66666666666666</ele><time>2026-04-30T10:25:46.999Z</time></trkpt><trkpt lat="48.51828361925194" lon="7.547263733581879"><ele>164.33333333333331</ele><time>2026-04-30T10:25:47.999Z</time></trkpt><trkpt lat="48.518297057310356" lon="7.547515838288351"><ele>164.0</ele><time>2026-04-30T10:25:48.999Z</time></trkpt><trkpt lat="48.51831293291299" lon="7.547760307728354"><ele>164.66666666666666</ele><time>2026-04-30T10:25:49.999Z</time></trkpt><trkpt lat="48.51832625935329" lon="7.548012248632777"><ele>165.33333333333334</ele><time>2026-04-30T10:25:50.999Z</time></trkpt><trkpt lat="48.518320743641866" lon="7.548259085907231"><ele>166.0</ele><time>2026-04-30T10:25:51.999Z</time></trkpt><trkpt lat="48.5183299944405" lon="7.548504470679286"><ele>165.33333333333334</ele><time>2026-04-30T10:25:52.999Z</time></trkpt><trkpt lat="48.518339065570366" lon="7.548751693297716"><ele>164.66666666666666</ele><time>2026-04-30T10:25:53.999Z</time></trkpt><trkpt lat="48.518347690724966" lon="7.5489867613505375"><ele>164.0</ele><time>2026-04-30T10:25:54.999Z</time></trkpt><trkpt lat="48.518356278407424" lon="7.549220808165703"><ele>164.0</ele><time>2026-04-30T10:25:55.999Z</time></trkpt><trkpt lat="48.51836464700378" lon="7.549448884063995"><ele>164.0</ele><time>2026-04-30T10:25:56.999Z</time></trkpt><trkpt lat="48.51837282468174" lon="7.549671756748733"><ele>164.0</ele><time>2026-04-30T10:25:57.999Z</time></trkpt><trkpt lat="48.518380929498086" lon="7.549892643706132"><ele>164.0</ele><time>2026-04-30T10:25:58.999Z</time></trkpt><trkpt lat="48.518389677926926" lon="7.550114154131712"><ele>164.0</ele><time>2026-04-30T10:25:59.999Z</time></trkpt><trkpt lat="48.51839912037743" lon="7.550337878331739"><ele>164.0</ele><time>2026-04-30T10:26:00.999Z</time></trkpt><trkpt lat="48.518408462607916" lon="7.5505607850768355"><ele>164.0</ele><time>2026-04-30T10:26:01.999Z</time></trkpt><trkpt lat="48.5184161991927" lon="7.5507652681521895"><ele>164.0</ele><time>2026-04-30T10:26:02.999Z</time></trkpt><trkpt lat="48.51842368731006" lon="7.550963184033235"><ele>164.0</ele><time>2026-04-30T10:26:03.999Z</time></trkpt><trkpt lat="48.51844660163925" lon="7.551157515017579"><ele>164.0</ele><time>2026-04-30T10:26:04.999Z</time></trkpt><trkpt lat="48.51845049725543" lon="7.551357172663266"><ele>164.0</ele><time>2026-04-30T10:26:05.999Z</time></trkpt><trkpt lat="48.51845647914528" lon="7.551562081456744"><ele>164.0</ele><time>2026-04-30T10:26:06.999Z</time></trkpt><trkpt lat="48.518465710531295" lon="7.5517686618114075"><ele>164.0</ele><time>2026-04-30T10:26:07.999Z</time></trkpt><trkpt lat="48.518474819809654" lon="7.5519812730289635"><ele>164.0</ele><time>2026-04-30T10:26:08.999Z</time></trkpt><trkpt lat="48.51846910304672" lon="7.552170087581801"><ele>164.0</ele><time>2026-04-30T10:26:09.999Z</time></trkpt><trkpt lat="48.51847450633381" lon="7.5523378323112675"><ele>164.0</ele><time>2026-04-30T10:26:10.999Z</time></trkpt><trkpt lat="48.51847896251125" lon="7.55247617433379"><ele>164.2</ele><time>2026-04-30T10:26:11.999Z</time></trkpt><trkpt lat="48.51849688926289" lon="7.552576522293672"><ele>164.39999999999998</ele><time>2026-04-30T10:26:12.999Z</time></trkpt><trkpt lat="48.5184805801739" lon="7.552692436025705"><ele>164.6</ele><time>2026-04-30T10:26:14.999Z</time></trkpt><trkpt lat="48.518357079114885" lon="7.552649186295137"><ele>164.8</ele><time>2026-04-30T10:26:15.999Z</time></trkpt><trkpt lat="48.51823939176847" lon="7.55264611543159"><ele>165.0</ele><time>2026-04-30T10:26:16.999Z</time></trkpt><trkpt lat="48.51809119192205" lon="7.5526392619300164"><ele>165.0</ele><time>2026-04-30T10:26:17.999Z</time></trkpt><trkpt lat="48.517902621878875" lon="7.5526305415120945"><ele>165.0</ele><time>2026-04-30T10:26:18.999Z</time></trkpt><trkpt lat="48.5177098800872" lon="7.552621874941577"><ele>165.0</ele><time>2026-04-30T10:26:19.999Z</time></trkpt><trkpt lat="48.51749694141452" lon="7.552613989779116"><ele>165.5</ele><time>2026-04-30T10:26:20.999Z</time></trkpt><trkpt lat="48.51727050886932" lon="7.552605604932331"><ele>166.0</ele><time>2026-04-30T10:26:21.999Z</time></trkpt><trkpt lat="48.51703293781795" lon="7.552595445795433"><ele>166.0</ele><time>2026-04-30T10:26:22.999Z</time></trkpt><trkpt lat="48.516795115036736" lon="7.552584626490331"><ele>166.0</ele><time>2026-04-30T10:26:23.999Z</time></trkpt><trkpt lat="48.51657065253227" lon="7.552574487235812"><ele>166.0</ele><time>2026-04-30T10:26:24.999Z</time></trkpt><trkpt lat="48.51635625748816" lon="7.552565187434877"><ele>166.0</ele><time>2026-04-30T10:26:25.999Z</time></trkpt><trkpt lat="48.516141212476604" lon="7.552555861787543"><ele>166.0</ele><time>2026-04-30T10:26:26.999Z</time></trkpt><trkpt lat="48.51593611230891" lon="7.552544838231043"><ele>166.0</ele><time>2026-04-30T10:26:27.999Z</time></trkpt><trkpt lat="48.51574234476278" lon="7.552527921190035"><ele>166.0</ele><time>2026-04-30T10:26:28.999Z</time></trkpt><trkpt lat="48.51555717747943" lon="7.552509059534897"><ele>166.0</ele><time>2026-04-30T10:26:29.998Z</time></trkpt><trkpt lat="48.51538946663119" lon="7.552491540500477"><ele>166.0</ele><time>2026-04-30T10:26:30.998Z</time></trkpt><trkpt lat="48.51522512380151" lon="7.55250035071372"><ele>166.0</ele><time>2026-04-30T10:26:31.998Z</time></trkpt><trkpt lat="48.51507298417338" lon="7.552484856047401"><ele>166.0</ele><time>2026-04-30T10:26:32.998Z</time></trkpt><trkpt lat="48.51492514630069" lon="7.552477334166895"><ele>166.0</ele><time>2026-04-30T10:26:33.998Z</time></trkpt><trkpt lat="48.51477218322074" lon="7.552466306733124"><ele>166.0</ele><time>2026-04-30T10:26:34.998Z</time></trkpt><trkpt lat="48.51461398174401" lon="7.552449262938996"><ele>166.0</ele><time>2026-04-30T10:26:35.998Z</time></trkpt><trkpt lat="48.51443379553862" lon="7.552437986345997"><ele>166.33333333333334</ele><time>2026-04-30T10:26:36.998Z</time></trkpt><trkpt lat="48.514235368300646" lon="7.552420230610298"><ele>166.66666666666666</ele><time>2026-04-30T10:26:37.998Z</time></trkpt><trkpt lat="48.51401641813568" lon="7.552399567926947"><ele>167.0</ele><time>2026-04-30T10:26:38.998Z</time></trkpt><trkpt lat="48.51379453097041" lon="7.5523750215500085"><ele>167.5</ele><time>2026-04-30T10:26:39.998Z</time></trkpt><trkpt lat="48.513552927634564" lon="7.552346964026629"><ele>168.0</ele><time>2026-04-30T10:26:40.998Z</time></trkpt><trkpt lat="48.51331005948018" lon="7.552323203965565"><ele>168.0</ele><time>2026-04-30T10:26:41.998Z</time></trkpt><trkpt lat="48.513075017720915" lon="7.552304683995369"><ele>168.0</ele><time>2026-04-30T10:26:42.998Z</time></trkpt><trkpt lat="48.512865095699595" lon="7.552287924787848"><ele>168.0</ele><time>2026-04-30T10:26:43.998Z</time></trkpt><trkpt lat="48.512677398532325" lon="7.55226988158363"><ele>168.25</ele><time>2026-04-30T10:26:44.998Z</time></trkpt><trkpt lat="48.51251325394968" lon="7.552251107904712"><ele>168.5</ele><time>2026-04-30T10:26:45.998Z</time></trkpt><trkpt lat="48.512374720751424" lon="7.552209833736078"><ele>168.75</ele><time>2026-04-30T10:26:46.998Z</time></trkpt><trkpt lat="48.51225526820125" lon="7.552198109959763"><ele>169.0</ele><time>2026-04-30T10:26:47.998Z</time></trkpt><trkpt lat="48.5121560383143" lon="7.5521919875083645"><ele>169.0</ele><time>2026-04-30T10:26:48.998Z</time></trkpt><trkpt lat="48.512086736565216" lon="7.552215665797359"><ele>169.0</ele><time>2026-04-30T10:26:49.998Z</time></trkpt><trkpt lat="48.512019331084055" lon="7.552197821256152"><ele>169.0</ele><time>2026-04-30T10:26:54.998Z</time></trkpt><trkpt lat="48.51206481549312" lon="7.552273620107363"><ele>169.0</ele><time>2026-04-30T10:27:49.998Z</time></trkpt><trkpt lat="48.51209114599261" lon="7.552464325418882"><ele>169.0</ele><time>2026-04-30T10:27:51.998Z</time></trkpt><trkpt lat="48.51209204680127" lon="7.552632065269722"><ele>169.0</ele><time>2026-04-30T10:27:52.998Z</time></trkpt><trkpt lat="48.51209087871183" lon="7.552827583513076"><ele>169.0</ele><time>2026-04-30T10:27:53.998Z</time></trkpt><trkpt lat="48.512095125029724" lon="7.553036488913303"><ele>169.0</ele><time>2026-04-30T10:27:54.998Z</time></trkpt><trkpt lat="48.51210178826424" lon="7.553261305202097"><ele>169.0</ele><time>2026-04-30T10:27:55.998Z</time></trkpt><trkpt lat="48.512108004157376" lon="7.553490208215701"><ele>169.0</ele><time>2026-04-30T10:27:56.998Z</time></trkpt><trkpt lat="48.512115812979914" lon="7.553733898137573"><ele>169.0</ele><time>2026-04-30T10:27:57.998Z</time></trkpt><trkpt lat="48.512121145773335" lon="7.553987609256741"><ele>169.0</ele><time>2026-04-30T10:27:58.998Z</time></trkpt><trkpt lat="48.51212563429827" lon="7.554246356843078"><ele>169.0</ele><time>2026-04-30T10:27:59.998Z</time></trkpt><trkpt lat="48.51213073841758" lon="7.55451125080771"><ele>169.33333333333334</ele><time>2026-04-30T10:28:00.998Z</time></trkpt><trkpt lat="48.51213469448086" lon="7.55477324456883"><ele>169.66666666666666</ele><time>2026-04-30T10:28:01.998Z</time></trkpt><trkpt lat="48.51214324534213" lon="7.5550283686800555"><ele>170.0</ele><time>2026-04-30T10:28:02.998Z</time></trkpt><trkpt lat="48.512155245734924" lon="7.555290058685899"><ele>169.66666666666666</ele><time>2026-04-30T10:28:03.998Z</time></trkpt><trkpt lat="48.51217007834409" lon="7.555564347255824"><ele>169.33333333333334</ele><time>2026-04-30T10:28:04.998Z</time></trkpt><trkpt lat="48.512190860456364" lon="7.555836254166006"><ele>169.0</ele><time>2026-04-30T10:28:05.998Z</time></trkpt><trkpt lat="48.51221639005295" lon="7.556109602633853"><ele>169.0</ele><time>2026-04-30T10:28:06.998Z</time></trkpt><trkpt lat="48.51223832882712" lon="7.556389698110443"><ele>169.0</ele><time>2026-04-30T10:28:07.998Z</time></trkpt><trkpt lat="48.51226137650035" lon="7.556660022684487"><ele>169.0</ele><time>2026-04-30T10:28:08.998Z</time></trkpt><trkpt lat="48.51228330614531" lon="7.556931684144263"><ele>168.66666666666669</ele><time>2026-04-30T10:28:09.998Z</time></trkpt><trkpt lat="48.51230703943381" lon="7.557205761939644"><ele>168.33333333333334</ele><time>2026-04-30T10:28:10.998Z</time></trkpt><trkpt lat="48.5123325096905" lon="7.557483298850963"><ele>168.0</ele><time>2026-04-30T10:28:11.998Z</time></trkpt><trkpt lat="48.51235670657941" lon="7.5577588609544115"><ele>168.0</ele><time>2026-04-30T10:28:12.998Z</time></trkpt><trkpt lat="48.51237978728923" lon="7.558037202506694"><ele>168.0</ele><time>2026-04-30T10:28:13.998Z</time></trkpt><trkpt lat="48.512400508232666" lon="7.558317266454882"><ele>168.0</ele><time>2026-04-30T10:28:14.998Z</time></trkpt><trkpt lat="48.512424477066155" lon="7.558604846993103"><ele>168.0</ele><time>2026-04-30T10:28:15.998Z</time></trkpt><trkpt lat="48.51245086040587" lon="7.558890943260369"><ele>168.0</ele><time>2026-04-30T10:28:16.998Z</time></trkpt><trkpt lat="48.512477444370155" lon="7.55917982693194"><ele>168.0</ele><time>2026-04-30T10:28:17.998Z</time></trkpt><trkpt lat="48.51250236400694" lon="7.559467469384412"><ele>168.0</ele><time>2026-04-30T10:28:18.998Z</time></trkpt><trkpt lat="48.512525095050805" lon="7.559759163754574"><ele>168.0</ele><time>2026-04-30T10:28:19.998Z</time></trkpt><trkpt lat="48.51253023792384" lon="7.560053409891602"><ele>168.0</ele><time>2026-04-30T10:28:20.998Z</time></trkpt><trkpt lat="48.51255858523803" lon="7.560349365017694"><ele>167.66666666666666</ele><time>2026-04-30T10:28:21.998Z</time></trkpt><trkpt lat="48.5125837045621" lon="7.560647191781511"><ele>167.33333333333331</ele><time>2026-04-30T10:28:22.998Z</time></trkpt><trkpt lat="48.512610353538285" lon="7.560940547598056"><ele>167.0</ele><time>2026-04-30T10:28:23.998Z</time></trkpt><trkpt lat="48.512635237071855" lon="7.561235274823211"><ele>167.0</ele><time>2026-04-30T10:28:24.997Z</time></trkpt><trkpt lat="48.51266098816673" lon="7.56153130279378"><ele>167.0</ele><time>2026-04-30T10:28:25.997Z</time></trkpt><trkpt lat="48.51268643389346" lon="7.5618291576172565"><ele>167.0</ele><time>2026-04-30T10:28:26.997Z</time></trkpt><trkpt lat="48.51271009860303" lon="7.562126425147095"><ele>167.0</ele><time>2026-04-30T10:28:27.997Z</time></trkpt><trkpt lat="48.51273630008963" lon="7.562428097759008"><ele>167.0</ele><time>2026-04-30T10:28:28.997Z</time></trkpt><trkpt lat="48.512767120256534" lon="7.562734014768814"><ele>167.0</ele><time>2026-04-30T10:28:29.997Z</time></trkpt><trkpt lat="48.512795629206515" lon="7.563039729968723"><ele>167.0</ele><time>2026-04-30T10:28:30.997Z</time></trkpt><trkpt lat="48.51282200399402" lon="7.563345199531185"><ele>167.0</ele><time>2026-04-30T10:28:31.997Z</time></trkpt><trkpt lat="48.51284813541904" lon="7.563647454163012"><ele>167.0</ele><time>2026-04-30T10:28:32.997Z</time></trkpt><trkpt lat="48.512871297747346" lon="7.563948043920901"><ele>167.0</ele><time>2026-04-30T10:28:33.997Z</time></trkpt><trkpt lat="48.51289456179964" lon="7.5642463843146475"><ele>167.0</ele><time>2026-04-30T10:28:34.997Z</time></trkpt><trkpt lat="48.51292111118998" lon="7.564543999753153"><ele>167.0</ele><time>2026-04-30T10:28:35.997Z</time></trkpt><trkpt lat="48.512945189100186" lon="7.5648420855290786"><ele>167.0</ele><time>2026-04-30T10:28:36.997Z</time></trkpt><trkpt lat="48.51297093080141" lon="7.565144873649486"><ele>167.0</ele><time>2026-04-30T10:28:37.997Z</time></trkpt><trkpt lat="48.5129973992916" lon="7.565445685078057"><ele>167.0</ele><time>2026-04-30T10:28:38.997Z</time></trkpt><trkpt lat="48.51302100002425" lon="7.565727995420712"><ele>167.0</ele><time>2026-04-30T10:28:39.997Z</time></trkpt><trkpt lat="48.51304357541845" lon="7.565988027105248"><ele>167.0</ele><time>2026-04-30T10:28:40.997Z</time></trkpt><trkpt lat="48.51306507422822" lon="7.566232408193582"><ele>167.0</ele><time>2026-04-30T10:28:41.997Z</time></trkpt><trkpt lat="48.513083730962556" lon="7.566469322643432"><ele>167.0</ele><time>2026-04-30T10:28:42.997Z</time></trkpt><trkpt lat="48.51310307324199" lon="7.566705462938767"><ele>167.0</ele><time>2026-04-30T10:28:43.997Z</time></trkpt><trkpt lat="48.51312471709691" lon="7.566931914004256"><ele>167.0</ele><time>2026-04-30T10:28:44.997Z</time></trkpt><trkpt lat="48.51314837759375" lon="7.567167134766423"><ele>167.0</ele><time>2026-04-30T10:28:45.997Z</time></trkpt><trkpt lat="48.51317050705508" lon="7.56741450081813"><ele>167.0</ele><time>2026-04-30T10:28:46.997Z</time></trkpt><trkpt lat="48.51318629480778" lon="7.567629594881345"><ele>167.0</ele><time>2026-04-30T10:28:47.997Z</time></trkpt><trkpt lat="48.51319921638498" lon="7.567811409805314"><ele>167.0</ele><time>2026-04-30T10:28:48.997Z</time></trkpt><trkpt lat="48.513216018449256" lon="7.567974125657878"><ele>167.16666666666666</ele><time>2026-04-30T10:28:49.997Z</time></trkpt><trkpt lat="48.51322799445591" lon="7.568102060142594"><ele>167.33333333333331</ele><time>2026-04-30T10:28:50.997Z</time></trkpt><trkpt lat="48.51323768014671" lon="7.568200949926635"><ele>167.5</ele><time>2026-04-30T10:28:51.997Z</time></trkpt><trkpt lat="48.51324661700229" lon="7.568301774635194"><ele>167.66666666666666</ele><time>2026-04-30T10:28:53.997Z</time></trkpt><trkpt lat="48.51323709613392" lon="7.568405121176344"><ele>167.83333333333334</ele><time>2026-04-30T10:28:55.997Z</time></trkpt><trkpt lat="48.513171933173545" lon="7.568475509216622"><ele>168.0</ele><time>2026-04-30T10:28:56.997Z</time></trkpt><trkpt lat="48.51307956232333" lon="7.568468954088343"><ele>168.0</ele><time>2026-04-30T10:28:57.997Z</time></trkpt><trkpt lat="48.51296081291987" lon="7.568520170161689"><ele>168.0</ele><time>2026-04-30T10:28:58.997Z</time></trkpt><trkpt lat="48.51282410617216" lon="7.56859719872291"><ele>168.0</ele><time>2026-04-30T10:28:59.997Z</time></trkpt><trkpt lat="48.51266356201977" lon="7.568662473384307"><ele>168.0</ele><time>2026-04-30T10:29:00.997Z</time></trkpt><trkpt lat="48.51249045582008" lon="7.568732844591707"><ele>167.66666666666666</ele><time>2026-04-30T10:29:01.997Z</time></trkpt><trkpt lat="48.51229459996135" lon="7.568803719081347"><ele>167.33333333333331</ele><time>2026-04-30T10:29:02.998Z</time></trkpt><trkpt lat="48.512083328249666" lon="7.568870063567889"><ele>167.0</ele><time>2026-04-30T10:29:03.998Z</time></trkpt><trkpt lat="48.511866582277854" lon="7.568915974855385"><ele>167.0</ele><time>2026-04-30T10:29:04.998Z</time></trkpt><trkpt lat="48.51164553197431" lon="7.568935305104619"><ele>167.0</ele><time>2026-04-30T10:29:05.998Z</time></trkpt><trkpt lat="48.511415488821974" lon="7.568932483011103"><ele>167.5</ele><time>2026-04-30T10:29:06.998Z</time></trkpt><trkpt lat="48.51117107283754" lon="7.568919938954424"><ele>168.0</ele><time>2026-04-30T10:29:07.998Z</time></trkpt><trkpt lat="48.51092767310149" lon="7.56891769472976"><ele>168.0</ele><time>2026-04-30T10:29:08.998Z</time></trkpt><trkpt lat="48.510686598629405" lon="7.56892239604149"><ele>168.0</ele><time>2026-04-30T10:29:09.998Z</time></trkpt><trkpt lat="48.510444648658556" lon="7.568924284603702"><ele>169.0</ele><time>2026-04-30T10:29:10.998Z</time></trkpt><trkpt lat="48.510203844961545" lon="7.568917200540892"><ele>170.0</ele><time>2026-04-30T10:29:11.998Z</time></trkpt><trkpt lat="48.509960130575486" lon="7.568889924043925"><ele>170.0</ele><time>2026-04-30T10:29:12.998Z</time></trkpt><trkpt lat="48.50971436332073" lon="7.568831898065586"><ele>170.0</ele><time>2026-04-30T10:29:13.998Z</time></trkpt><trkpt lat="48.5094593589251" lon="7.568755561159881"><ele>169.0</ele><time>2026-04-30T10:29:14.998Z</time></trkpt><trkpt lat="48.509191482918084" lon="7.568681913704476"><ele>168.0</ele><time>2026-04-30T10:29:15.998Z</time></trkpt><trkpt lat="48.50891570697688" lon="7.568621922494479"><ele>169.0</ele><time>2026-04-30T10:29:16.998Z</time></trkpt><trkpt lat="48.508653197694194" lon="7.568562551991443"><ele>170.0</ele><time>2026-04-30T10:29:17.998Z</time></trkpt><trkpt lat="48.508405216228276" lon="7.568501680948229"><ele>170.0</ele><time>2026-04-30T10:29:18.998Z</time></trkpt><trkpt lat="48.508164757977546" lon="7.5684446667007546"><ele>170.0</ele><time>2026-04-30T10:29:19.998Z</time></trkpt><trkpt lat="48.507924244322524" lon="7.568387920299366"><ele>171.0</ele><time>2026-04-30T10:29:20.998Z</time></trkpt><trkpt lat="48.50767940574734" lon="7.568332158600647"><ele>172.0</ele><time>2026-04-30T10:29:21.998Z</time></trkpt><trkpt lat="48.507433989959395" lon="7.568281284482002"><ele>172.0</ele><time>2026-04-30T10:29:22.998Z</time></trkpt><trkpt lat="48.50718991957464" lon="7.568233874387848"><ele>172.0</ele><time>2026-04-30T10:29:23.998Z</time></trkpt><trkpt lat="48.50694851372681" lon="7.568190188345711"><ele>172.0</ele><time>2026-04-30T10:29:24.998Z</time></trkpt><trkpt lat="48.506705632321236" lon="7.568154496569879"><ele>172.0</ele><time>2026-04-30T10:29:25.998Z</time></trkpt><trkpt lat="48.5064666290137" lon="7.568120825627981"><ele>173.0</ele><time>2026-04-30T10:29:26.998Z</time></trkpt><trkpt lat="48.50622755275001" lon="7.5681107569783554"><ele>174.0</ele><time>2026-04-30T10:29:27.998Z</time></trkpt><trkpt lat="48.50598438910367" lon="7.568109162228268"><ele>174.0</ele><time>2026-04-30T10:29:28.998Z</time></trkpt><trkpt lat="48.505735872809275" lon="7.568104597740718"><ele>174.0</ele><time>2026-04-30T10:29:29.998Z</time></trkpt><trkpt lat="48.505482872997185" lon="7.568094265189225"><ele>174.0</ele><time>2026-04-30T10:29:30.998Z</time></trkpt><trkpt lat="48.505227401962976" lon="7.56808385596641"><ele>174.0</ele><time>2026-04-30T10:29:31.998Z</time></trkpt><trkpt lat="48.504983967287984" lon="7.568071653974343"><ele>174.0</ele><time>2026-04-30T10:29:32.998Z</time></trkpt><trkpt lat="48.50476477597451" lon="7.568053262999892"><ele>174.0</ele><time>2026-04-30T10:29:33.998Z</time></trkpt><trkpt lat="48.50455165962593" lon="7.567994689913466"><ele>174.0</ele><time>2026-04-30T10:29:34.998Z</time></trkpt><trkpt lat="48.504340061951346" lon="7.567886963326731"><ele>175.0</ele><time>2026-04-30T10:29:35.998Z</time></trkpt><trkpt lat="48.50412273915513" lon="7.567753074910844"><ele>176.0</ele><time>2026-04-30T10:29:36.998Z</time></trkpt><trkpt lat="48.50389533413297" lon="7.567632789244429"><ele>175.0</ele><time>2026-04-30T10:29:37.998Z</time></trkpt><trkpt lat="48.50366770197186" lon="7.567521740445386"><ele>174.0</ele><time>2026-04-30T10:29:38.998Z</time></trkpt><trkpt lat="48.50345725849499" lon="7.567415995401279"><ele>174.0</ele><time>2026-04-30T10:29:39.998Z</time></trkpt><trkpt lat="48.50325268605641" lon="7.56730597007726"><ele>174.0</ele><time>2026-04-30T10:29:40.998Z</time></trkpt><trkpt lat="48.503050119027954" lon="7.567184743821701"><ele>174.0</ele><time>2026-04-30T10:29:41.998Z</time></trkpt><trkpt lat="48.502860853578646" lon="7.56705057553028"><ele>174.0</ele><time>2026-04-30T10:29:42.998Z</time></trkpt><trkpt lat="48.50269665207568" lon="7.566915101658224"><ele>174.0</ele><time>2026-04-30T10:29:43.998Z</time></trkpt><trkpt lat="48.50257696494441" lon="7.566782994151827"><ele>174.0</ele><time>2026-04-30T10:29:44.998Z</time></trkpt><trkpt lat="48.502499899359904" lon="7.5666787431241085"><ele>174.0</ele><time>2026-04-30T10:29:45.998Z</time></trkpt><trkpt lat="48.50242776303612" lon="7.566559593185489"><ele>174.0</ele><time>2026-04-30T10:29:47.998Z</time></trkpt><trkpt lat="48.50235269710189" lon="7.566453742461747"><ele>174.0</ele><time>2026-04-30T10:29:48.998Z</time></trkpt><trkpt lat="48.502250837226825" lon="7.566307793442936"><ele>174.0</ele><time>2026-04-30T10:29:49.998Z</time></trkpt><trkpt lat="48.50214581400939" lon="7.566127790440416"><ele>174.0</ele><time>2026-04-30T10:29:50.998Z</time></trkpt><trkpt lat="48.50203480903044" lon="7.565917756581121"><ele>173.66666666666666</ele><time>2026-04-30T10:29:51.998Z</time></trkpt><trkpt lat="48.50191973751349" lon="7.565691551427246"><ele>173.33333333333331</ele><time>2026-04-30T10:29:52.998Z</time></trkpt><trkpt lat="48.50179401980071" lon="7.565450046496257"><ele>173.0</ele><time>2026-04-30T10:29:53.998Z</time></trkpt><trkpt lat="48.50166657695656" lon="7.565214920768167"><ele>173.0</ele><time>2026-04-30T10:29:54.998Z</time></trkpt><trkpt lat="48.50154596718677" lon="7.565003485098625"><ele>173.0</ele><time>2026-04-30T10:29:55.998Z</time></trkpt><trkpt lat="48.50144185775538" lon="7.564811986032573"><ele>173.0</ele><time>2026-04-30T10:29:56.998Z</time></trkpt><trkpt lat="48.501350953827746" lon="7.564645981496934"><ele>172.60000000000002</ele><time>2026-04-30T10:29:57.998Z</time></trkpt><trkpt lat="48.50125556762338" lon="7.5645281004313265"><ele>172.20000000000002</ele><time>2026-04-30T10:29:58.998Z</time></trkpt><trkpt lat="48.50114814347761" lon="7.564456976097152"><ele>171.8</ele><time>2026-04-30T10:29:59.998Z</time></trkpt><trkpt lat="48.50104974226772" lon="7.564409251709058"><ele>171.4</ele><time>2026-04-30T10:30:00.998Z</time></trkpt><trkpt lat="48.50095938967906" lon="7.564343854944977"><ele>171.0</ele><time>2026-04-30T10:30:01.998Z</time></trkpt><trkpt lat="48.50089636154252" lon="7.564252032460403"><ele>170.60000000000002</ele><time>2026-04-30T10:30:02.998Z</time></trkpt><trkpt lat="48.50082873365013" lon="7.564180728490866"><ele>170.2</ele><time>2026-04-30T10:30:03.998Z</time></trkpt><trkpt lat="48.50074814330188" lon="7.564163879577221"><ele>169.8</ele><time>2026-04-30T10:30:04.998Z</time></trkpt><trkpt lat="48.500662821752115" lon="7.564203143607843"><ele>169.39999999999998</ele><time>2026-04-30T10:30:05.998Z</time></trkpt><trkpt lat="48.50057990652069" lon="7.5642976415287855"><ele>169.0</ele><time>2026-04-30T10:30:06.998Z</time></trkpt><trkpt lat="48.500521100302514" lon="7.564445853876838"><ele>169.25</ele><time>2026-04-30T10:30:07.998Z</time></trkpt><trkpt lat="48.500488503833566" lon="7.5646159573473115"><ele>169.5</ele><time>2026-04-30T10:30:08.998Z</time></trkpt><trkpt lat="48.50042731087926" lon="7.564777718540378"><ele>169.75</ele><time>2026-04-30T10:30:09.998Z</time></trkpt><trkpt lat="48.50034724501349" lon="7.564900425815779"><ele>170.0</ele><time>2026-04-30T10:30:10.998Z</time></trkpt><trkpt lat="48.50026683786593" lon="7.565002025929996"><ele>169.0</ele><time>2026-04-30T10:30:11.998Z</time></trkpt><trkpt lat="48.50019148454397" lon="7.565094108788398"><ele>168.0</ele><time>2026-04-30T10:30:12.998Z</time></trkpt><trkpt lat="48.500119215005476" lon="7.5651781606868775"><ele>167.0</ele><time>2026-04-30T10:30:13.998Z</time></trkpt><trkpt lat="48.500046223666565" lon="7.565261400448343"><ele>166.0</ele><time>2026-04-30T10:30:14.998Z</time></trkpt><trkpt lat="48.499972366626956" lon="7.565349801190865"><ele>165.0</ele><time>2026-04-30T10:30:15.998Z</time></trkpt><trkpt lat="48.499899287769246" lon="7.565437799854862"><ele>164.5</ele><time>2026-04-30T10:30:16.998Z</time></trkpt><trkpt lat="48.499826019203624" lon="7.565522705447175"><ele>164.0</ele><time>2026-04-30T10:30:17.998Z</time></trkpt><trkpt lat="48.49975407574782" lon="7.565601375375157"><ele>163.5</ele><time>2026-04-30T10:30:18.998Z</time></trkpt><trkpt lat="48.49968385341769" lon="7.565680813546261"><ele>163.0</ele><time>2026-04-30T10:30:19.998Z</time></trkpt><trkpt lat="48.49961730286138" lon="7.565746968787624"><ele>162.5</ele><time>2026-04-30T10:30:20.998Z</time></trkpt><trkpt lat="48.49955710032918" lon="7.565796746697482"><ele>162.0</ele><time>2026-04-30T10:30:21.998Z</time></trkpt><trkpt lat="48.499499844008824" lon="7.56584254144372"><ele>161.2</ele><time>2026-04-30T10:30:22.998Z</time></trkpt><trkpt lat="48.49943319068918" lon="7.565880185326628"><ele>160.39999999999998</ele><time>2026-04-30T10:30:23.998Z</time></trkpt><trkpt lat="48.49935553878209" lon="7.565890987306251"><ele>159.60000000000002</ele><time>2026-04-30T10:30:24.998Z</time></trkpt><trkpt lat="48.49928926276667" lon="7.565887089924076"><ele>158.8</ele><time>2026-04-30T10:30:25.997Z</time></trkpt><trkpt lat="48.499177524703406" lon="7.5659434206805045"><ele>158.0</ele><time>2026-04-30T10:30:27.997Z</time></trkpt><trkpt lat="48.499109290335035" lon="7.566102144653764"><ele>157.66666666666666</ele><time>2026-04-30T10:30:29.997Z</time></trkpt><trkpt lat="48.49908911875749" lon="7.5661963450396215"><ele>157.33333333333331</ele><time>2026-04-30T10:30:30.997Z</time></trkpt><trkpt lat="48.499076347864126" lon="7.566303579746358"><ele>157.0</ele><time>2026-04-30T10:30:31.997Z</time></trkpt><trkpt lat="48.49905369834443" lon="7.5664117223348555"><ele>156.66666666666666</ele><time>2026-04-30T10:30:32.997Z</time></trkpt><trkpt lat="48.49901529835736" lon="7.566525002194633"><ele>156.33333333333334</ele><time>2026-04-30T10:30:33.997Z</time></trkpt><trkpt lat="48.498964328722586" lon="7.566622605426626"><ele>156.0</ele><time>2026-04-30T10:30:34.997Z</time></trkpt><trkpt lat="48.49890371718108" lon="7.566725577428941"><ele>156.0</ele><time>2026-04-30T10:30:35.997Z</time></trkpt><trkpt lat="48.49884080168949" lon="7.566822339560691"><ele>156.0</ele><time>2026-04-30T10:30:36.997Z</time></trkpt><trkpt lat="48.49878149055868" lon="7.566903845244607"><ele>156.0</ele><time>2026-04-30T10:30:37.997Z</time></trkpt><trkpt lat="48.498724453875425" lon="7.566988287953177"><ele>156.0</ele><time>2026-04-30T10:30:38.997Z</time></trkpt><trkpt lat="48.498654308971425" lon="7.567072667776591"><ele>156.0</ele><time>2026-04-30T10:30:39.997Z</time></trkpt><trkpt lat="48.49860420832885" lon="7.567157920827646"><ele>156.0</ele><time>2026-04-30T10:30:40.997Z</time></trkpt><trkpt lat="48.4985572700182" lon="7.567251412472142"><ele>155.66666666666666</ele><time>2026-04-30T10:30:41.997Z</time></trkpt><trkpt lat="48.49850081110263" lon="7.567330457623379"><ele>155.33333333333334</ele><time>2026-04-30T10:30:42.997Z</time></trkpt><trkpt lat="48.49844123152582" lon="7.56741214323859"><ele>155.0</ele><time>2026-04-30T10:30:43.997Z</time></trkpt><trkpt lat="48.498390218760214" lon="7.567486653134463"><ele>154.66666666666669</ele><time>2026-04-30T10:30:44.997Z</time></trkpt><trkpt lat="48.49833786111" lon="7.567558211015944"><ele>154.33333333333334</ele><time>2026-04-30T10:30:45.997Z</time></trkpt><trkpt lat="48.498272003422706" lon="7.567658207395738"><ele>154.0</ele><time>2026-04-30T10:30:47.997Z</time></trkpt><trkpt lat="48.49823009450421" lon="7.5677297363101"><ele>154.0</ele><time>2026-04-30T10:30:49.997Z</time></trkpt><trkpt lat="48.49818602346261" lon="7.567798469678497"><ele>154.0</ele><time>2026-04-30T10:30:51.997Z</time></trkpt><trkpt lat="48.49812842153353" lon="7.567881377656699"><ele>154.0</ele><time>2026-04-30T10:30:54.997Z</time></trkpt><trkpt lat="48.498056226774054" lon="7.567979500848911"><ele>154.0</ele><time>2026-04-30T10:30:57.997Z</time></trkpt><trkpt lat="48.49799845042076" lon="7.56806861894957"><ele>154.0</ele><time>2026-04-30T10:30:59.997Z</time></trkpt><trkpt lat="48.497948414129255" lon="7.5681411655985675"><ele>154.0</ele><time>2026-04-30T10:31:01.997Z</time></trkpt><trkpt lat="48.497868065187404" lon="7.568256231355627"><ele>154.2</ele><time>2026-04-30T10:31:03.997Z</time></trkpt><trkpt lat="48.49779169743199" lon="7.568382653592009"><ele>154.4</ele><time>2026-04-30T10:31:05.997Z</time></trkpt><trkpt lat="48.497715084630094" lon="7.5684640508098555"><ele>154.6</ele><time>2026-04-30T10:31:07.997Z</time></trkpt><trkpt lat="48.4975869366688" lon="7.568526975986937"><ele>154.8</ele><time>2026-04-30T10:31:09.998Z</time></trkpt><trkpt lat="48.4975102467045" lon="7.568593905090463"><ele>155.0</ele><time>2026-04-30T10:31:10.998Z</time></trkpt><trkpt lat="48.49743788517725" lon="7.5686740456588995"><ele>155.0</ele><time>2026-04-30T10:31:11.998Z</time></trkpt><trkpt lat="48.497362966205465" lon="7.568751955471329"><ele>155.0</ele><time>2026-04-30T10:31:12.997Z</time></trkpt><trkpt lat="48.49729162327456" lon="7.56883399967988"><ele>155.0</ele><time>2026-04-30T10:31:13.997Z</time></trkpt><trkpt lat="48.49721963809441" lon="7.568915983443341"><ele>155.0</ele><time>2026-04-30T10:31:14.998Z</time></trkpt><trkpt lat="48.49714622294002" lon="7.5689912692741865"><ele>155.0</ele><time>2026-04-30T10:31:15.997Z</time></trkpt><trkpt lat="48.497068100635396" lon="7.569070203824015"><ele>154.8</ele><time>2026-04-30T10:31:16.997Z</time></trkpt><trkpt lat="48.49699353739985" lon="7.569150296979487"><ele>154.6</ele><time>2026-04-30T10:31:17.997Z</time></trkpt><trkpt lat="48.49691674771579" lon="7.5692349204811284"><ele>154.4</ele><time>2026-04-30T10:31:18.997Z</time></trkpt><trkpt lat="48.496831978003755" lon="7.56931160948467"><ele>154.2</ele><time>2026-04-30T10:31:19.997Z</time></trkpt><trkpt lat="48.4967518152298" lon="7.569385665214428"><ele>154.0</ele><time>2026-04-30T10:31:20.998Z</time></trkpt><trkpt lat="48.496672961100046" lon="7.569462968624723"><ele>154.0</ele><time>2026-04-30T10:31:21.997Z</time></trkpt><trkpt lat="48.49660123638923" lon="7.569534198375601"><ele>154.0</ele><time>2026-04-30T10:31:22.997Z</time></trkpt><trkpt lat="48.496525404405936" lon="7.5696131084068075"><ele>154.0</ele><time>2026-04-30T10:31:23.997Z</time></trkpt><trkpt lat="48.49644936514716" lon="7.56967750407161"><ele>154.0</ele><time>2026-04-30T10:31:24.997Z</time></trkpt><trkpt lat="48.49636528504126" lon="7.569738448729454"><ele>154.0</ele><time>2026-04-30T10:31:25.997Z</time></trkpt><trkpt lat="48.49629090191721" lon="7.569814473175276"><ele>154.0</ele><time>2026-04-30T10:31:26.997Z</time></trkpt><trkpt lat="48.49621776909442" lon="7.569883567483765"><ele>153.5</ele><time>2026-04-30T10:31:27.997Z</time></trkpt><trkpt lat="48.49613925659936" lon="7.569952186963884"><ele>153.0</ele><time>2026-04-30T10:31:28.997Z</time></trkpt><trkpt lat="48.49606714813228" lon="7.5700237807192154"><ele>152.5</ele><time>2026-04-30T10:31:29.997Z</time></trkpt><trkpt lat="48.49599059067417" lon="7.570093795242167"><ele>152.0</ele><time>2026-04-30T10:31:30.997Z</time></trkpt><trkpt lat="48.49591777785743" lon="7.570147727482971"><ele>151.5</ele><time>2026-04-30T10:31:31.997Z</time></trkpt><trkpt lat="48.49584354752359" lon="7.570215333580323"><ele>151.0</ele><time>2026-04-30T10:31:32.997Z</time></trkpt><trkpt lat="48.49577618945098" lon="7.570281207966801"><ele>151.0</ele><time>2026-04-30T10:31:33.997Z</time></trkpt><trkpt lat="48.49571969755192" lon="7.570352783860896"><ele>151.0</ele><time>2026-04-30T10:31:34.997Z</time></trkpt><trkpt lat="48.49566836065121" lon="7.5704398996234925"><ele>151.0</ele><time>2026-04-30T10:31:35.997Z</time></trkpt><trkpt lat="48.49563222153006" lon="7.570544242190005"><ele>151.0</ele><time>2026-04-30T10:31:36.997Z</time></trkpt><trkpt lat="48.495609298480446" lon="7.570664952323379"><ele>151.0</ele><time>2026-04-30T10:31:37.997Z</time></trkpt><trkpt lat="48.495584804896474" lon="7.570790430484807"><ele>151.0</ele><time>2026-04-30T10:31:38.997Z</time></trkpt><trkpt lat="48.495548198258" lon="7.570929200509124"><ele>151.2</ele><time>2026-04-30T10:31:39.997Z</time></trkpt><trkpt lat="48.49552106965191" lon="7.571066118103065"><ele>151.39999999999998</ele><time>2026-04-30T10:31:40.997Z</time></trkpt><trkpt lat="48.49548916967605" lon="7.571197974050665"><ele>151.6</ele><time>2026-04-30T10:31:41.997Z</time></trkpt><trkpt lat="48.495452891353324" lon="7.571335997101123"><ele>151.79999999999998</ele><time>2026-04-30T10:31:42.997Z</time></trkpt><trkpt lat="48.49542662719454" lon="7.571463225498028"><ele>152.0</ele><time>2026-04-30T10:31:43.997Z</time></trkpt><trkpt lat="48.495402307181344" lon="7.571577367008366"><ele>152.0</ele><time>2026-04-30T10:31:44.997Z</time></trkpt><trkpt lat="48.49537382352786" lon="7.57168899164166"><ele>152.0</ele><time>2026-04-30T10:31:45.997Z</time></trkpt><trkpt lat="48.495352016092895" lon="7.571794692783983"><ele>152.0</ele><time>2026-04-30T10:31:46.997Z</time></trkpt><trkpt lat="48.49533256053557" lon="7.571900666044957"><ele>152.0</ele><time>2026-04-30T10:31:47.997Z</time></trkpt><trkpt lat="48.49532203446552" lon="7.572005648416262"><ele>152.0</ele><time>2026-04-30T10:31:48.997Z</time></trkpt><trkpt lat="48.49532661429827" lon="7.572115645817023"><ele>152.0</ele><time>2026-04-30T10:31:49.997Z</time></trkpt><trkpt lat="48.49535168576732" lon="7.572216727665656"><ele>152.0</ele><time>2026-04-30T10:31:50.997Z</time></trkpt><trkpt lat="48.49538241230432" lon="7.572317314070662"><ele>152.0</ele><time>2026-04-30T10:31:51.997Z</time></trkpt><trkpt lat="48.495417397544955" lon="7.57242812998427"><ele>152.0</ele><time>2026-04-30T10:31:52.997Z</time></trkpt><trkpt lat="48.49545509831268" lon="7.572530185007798"><ele>152.0</ele><time>2026-04-30T10:31:53.997Z</time></trkpt><trkpt lat="48.49549572673895" lon="7.5726247559451245"><ele>152.0</ele><time>2026-04-30T10:31:54.997Z</time></trkpt><trkpt lat="48.49552994681718" lon="7.572718661113089"><ele>152.0</ele><time>2026-04-30T10:31:55.997Z</time></trkpt><trkpt lat="48.495578560442546" lon="7.5727999456135215"><ele>152.0</ele><time>2026-04-30T10:31:56.997Z</time></trkpt><trkpt lat="48.495624686024435" lon="7.572875705568367"><ele>152.0</ele><time>2026-04-30T10:31:57.997Z</time></trkpt><trkpt lat="48.49568648809551" lon="7.572943400743761"><ele>152.16666666666666</ele><time>2026-04-30T10:31:58.997Z</time></trkpt><trkpt lat="48.49576327772796" lon="7.573003788101414"><ele>152.33333333333331</ele><time>2026-04-30T10:31:59.997Z</time></trkpt><trkpt lat="48.49583996847587" lon="7.573055497318873"><ele>152.5</ele><time>2026-04-30T10:32:00.997Z</time></trkpt><trkpt lat="48.49591426133646" lon="7.573100065283055"><ele>152.66666666666666</ele><time>2026-04-30T10:32:01.997Z</time></trkpt><trkpt lat="48.49598249383426" lon="7.573132441649875"><ele>152.83333333333334</ele><time>2026-04-30T10:32:02.997Z</time></trkpt><trkpt lat="48.49605387763572" lon="7.57317125376394"><ele>153.0</ele><time>2026-04-30T10:32:03.997Z</time></trkpt><trkpt lat="48.4961226015239" lon="7.573217302740799"><ele>153.0</ele><time>2026-04-30T10:32:04.997Z</time></trkpt><trkpt lat="48.496188967340416" lon="7.573269753275676"><ele>153.0</ele><time>2026-04-30T10:32:05.997Z</time></trkpt><trkpt lat="48.49626146623189" lon="7.573332672146121"><ele>153.0</ele><time>2026-04-30T10:32:06.997Z</time></trkpt><trkpt lat="48.496338509474946" lon="7.5733886354995805"><ele>153.0</ele><time>2026-04-30T10:32:07.997Z</time></trkpt><trkpt lat="48.49641089783477" lon="7.573445976874902"><ele>153.0</ele><time>2026-04-30T10:32:08.997Z</time></trkpt><trkpt lat="48.49648566694754" lon="7.57350649253844"><ele>153.0</ele><time>2026-04-30T10:32:09.997Z</time></trkpt><trkpt lat="48.49655211212509" lon="7.573559946250882"><ele>153.0</ele><time>2026-04-30T10:32:10.997Z</time></trkpt><trkpt lat="48.496620142023644" lon="7.57361317995618"><ele>153.0</ele><time>2026-04-30T10:32:11.997Z</time></trkpt><trkpt lat="48.49668184719657" lon="7.573656971165819"><ele>153.0</ele><time>2026-04-30T10:32:12.997Z</time></trkpt><trkpt lat="48.49674247216603" lon="7.573695647595655"><ele>153.0</ele><time>2026-04-30T10:32:13.997Z</time></trkpt><trkpt lat="48.49680253290565" lon="7.573732101644375"><ele>153.0</ele><time>2026-04-30T10:32:14.997Z</time></trkpt><trkpt lat="48.49690302863157" lon="7.573809047507869"><ele>153.0</ele><time>2026-04-30T10:32:16.997Z</time></trkpt><trkpt lat="48.49697060576439" lon="7.573885846313619"><ele>153.0</ele><time>2026-04-30T10:32:18.997Z</time></trkpt><trkpt lat="48.497033813079824" lon="7.573979009999088"><ele>153.0</ele><time>2026-04-30T10:32:20.997Z</time></trkpt><trkpt lat="48.49711047654962" lon="7.5741429362694195"><ele>153.0</ele><time>2026-04-30T10:32:22.997Z</time></trkpt><trkpt lat="48.4971618610308" lon="7.574238546850072"><ele>153.0</ele><time>2026-04-30T10:32:23.997Z</time></trkpt><trkpt lat="48.49721210892676" lon="7.574304702410569"><ele>153.0</ele><time>2026-04-30T10:32:24.997Z</time></trkpt><trkpt lat="48.49726309877274" lon="7.574369487661097"><ele>153.0</ele><time>2026-04-30T10:32:26.997Z</time></trkpt><trkpt lat="48.49727165497444" lon="7.574266262741682"><ele>153.0</ele><time>2026-04-30T10:33:33.997Z</time></trkpt><trkpt lat="48.497222606356765" lon="7.574173632949761"><ele>153.0</ele><time>2026-04-30T10:33:35.997Z</time></trkpt><trkpt lat="48.4971393818349" lon="7.574057343973446"><ele>153.0</ele><time>2026-04-30T10:33:37.997Z</time></trkpt><trkpt lat="48.497068346727225" lon="7.573944433844882"><ele>153.0</ele><time>2026-04-30T10:33:39.997Z</time></trkpt><trkpt lat="48.496996930188864" lon="7.573826297885786"><ele>153.0</ele><time>2026-04-30T10:33:41.997Z</time></trkpt><trkpt lat="48.49691618369126" lon="7.573735110570316"><ele>153.16666666666666</ele><time>2026-04-30T10:33:43.997Z</time></trkpt><trkpt lat="48.49681366438498" lon="7.57367482687494"><ele>153.33333333333334</ele><time>2026-04-30T10:33:45.997Z</time></trkpt><trkpt lat="48.49674608735984" lon="7.573632276718372"><ele>153.5</ele><time>2026-04-30T10:33:46.997Z</time></trkpt><trkpt lat="48.49667585517788" lon="7.57358133978361"><ele>153.66666666666669</ele><time>2026-04-30T10:33:47.997Z</time></trkpt><trkpt lat="48.49660172698662" lon="7.57353561797101"><ele>153.83333333333334</ele><time>2026-04-30T10:33:48.997Z</time></trkpt><trkpt lat="48.49652246763653" lon="7.573482243597413"><ele>154.0</ele><time>2026-04-30T10:33:49.997Z</time></trkpt><trkpt lat="48.49645216252847" lon="7.573426997349738"><ele>154.0</ele><time>2026-04-30T10:33:50.997Z</time></trkpt><trkpt lat="48.49638820862135" lon="7.573369808934036"><ele>154.0</ele><time>2026-04-30T10:33:51.997Z</time></trkpt><trkpt lat="48.49631835283465" lon="7.573318408885512"><ele>154.0</ele><time>2026-04-30T10:33:52.997Z</time></trkpt><trkpt lat="48.4962392466327" lon="7.5732644592009075"><ele>154.0</ele><time>2026-04-30T10:33:53.997Z</time></trkpt><trkpt lat="48.49616885350625" lon="7.573223525827951"><ele>154.0</ele><time>2026-04-30T10:33:54.997Z</time></trkpt><trkpt lat="48.49610197839028" lon="7.5731739254462695"><ele>154.0</ele><time>2026-04-30T10:33:55.997Z</time></trkpt><trkpt lat="48.49603427174665" lon="7.573120610693297"><ele>153.83333333333334</ele><time>2026-04-30T10:33:56.997Z</time></trkpt><trkpt lat="48.4959715022317" lon="7.573081420120216"><ele>153.66666666666669</ele><time>2026-04-30T10:33:57.997Z</time></trkpt><trkpt lat="48.49591112117054" lon="7.573052097902181"><ele>153.5</ele><time>2026-04-30T10:33:58.997Z</time></trkpt><trkpt lat="48.49581737695604" lon="7.573004317258513"><ele>153.33333333333334</ele><time>2026-04-30T10:34:00.996Z</time></trkpt><trkpt lat="48.4957460399662" lon="7.572971753049376"><ele>153.16666666666666</ele><time>2026-04-30T10:34:02.996Z</time></trkpt><trkpt lat="48.49566305833722" lon="7.5730711552358505"><ele>153.0</ele><time>2026-04-30T10:34:04.996Z</time></trkpt><trkpt lat="48.49564613177487" lon="7.573191656260513"><ele>153.0</ele><time>2026-04-30T10:34:05.996Z</time></trkpt><trkpt lat="48.495643134384295" lon="7.5733439787223125"><ele>153.0</ele><time>2026-04-30T10:34:06.996Z</time></trkpt><trkpt lat="48.49564860336514" lon="7.573511298794276"><ele>153.0</ele><time>2026-04-30T10:34:07.996Z</time></trkpt><trkpt lat="48.49565024584381" lon="7.573686002288355"><ele>153.0</ele><time>2026-04-30T10:34:08.996Z</time></trkpt><trkpt lat="48.495656927357146" lon="7.5738573277050225"><ele>153.0</ele><time>2026-04-30T10:34:09.996Z</time></trkpt><trkpt lat="48.49566398782059" lon="7.574012021687703"><ele>152.6</ele><time>2026-04-30T10:34:10.996Z</time></trkpt><trkpt lat="48.49565916568922" lon="7.574148681819969"><ele>152.20000000000002</ele><time>2026-04-30T10:34:11.996Z</time></trkpt><trkpt lat="48.49564549103829" lon="7.574283709593169"><ele>151.8</ele><time>2026-04-30T10:34:12.996Z</time></trkpt><trkpt lat="48.4956132167763" lon="7.5744089849796215"><ele>151.4</ele><time>2026-04-30T10:34:13.996Z</time></trkpt><trkpt lat="48.495568335132184" lon="7.574535319204975"><ele>151.0</ele><time>2026-04-30T10:34:14.996Z</time></trkpt><trkpt lat="48.4955135847046" lon="7.57465124730422"><ele>150.8</ele><time>2026-04-30T10:34:15.996Z</time></trkpt><trkpt lat="48.49544629502404" lon="7.57474259026264"><ele>150.6</ele><time>2026-04-30T10:34:16.996Z</time></trkpt><trkpt lat="48.49536578206802" lon="7.574816364964391"><ele>150.4</ele><time>2026-04-30T10:34:17.996Z</time></trkpt><trkpt lat="48.49527488951415" lon="7.574893073402203"><ele>150.2</ele><time>2026-04-30T10:34:18.996Z</time></trkpt><trkpt lat="48.49517147892492" lon="7.574971721653412"><ele>150.0</ele><time>2026-04-30T10:34:19.996Z</time></trkpt><trkpt lat="48.49506608912658" lon="7.575063135930532"><ele>150.0</ele><time>2026-04-30T10:34:20.996Z</time></trkpt><trkpt lat="48.49496234816384" lon="7.575154699263417"><ele>150.0</ele><time>2026-04-30T10:34:21.996Z</time></trkpt><trkpt lat="48.49486303261599" lon="7.575230885199736"><ele>150.0</ele><time>2026-04-30T10:34:22.996Z</time></trkpt><trkpt lat="48.49478006200936" lon="7.575297489478632"><ele>150.0</ele><time>2026-04-30T10:34:23.996Z</time></trkpt><trkpt lat="48.494712348914945" lon="7.5753535957878695"><ele>150.0</ele><time>2026-04-30T10:34:24.996Z</time></trkpt><trkpt lat="48.494618060099974" lon="7.575440235335891"><ele>150.5</ele><time>2026-04-30T10:34:26.996Z</time></trkpt><trkpt lat="48.49464209115586" lon="7.575615344993139"><ele>151.0</ele><time>2026-04-30T10:34:29.996Z</time></trkpt><trkpt lat="48.49468193852311" lon="7.575759605066362"><ele>151.5</ele><time>2026-04-30T10:34:30.996Z</time></trkpt><trkpt lat="48.494723657177275" lon="7.57593039904819"><ele>152.0</ele><time>2026-04-30T10:34:31.996Z</time></trkpt><trkpt lat="48.49475257891181" lon="7.5760977683580615"><ele>152.2</ele><time>2026-04-30T10:34:32.996Z</time></trkpt><trkpt lat="48.49477578698714" lon="7.576246653392166"><ele>152.39999999999998</ele><time>2026-04-30T10:34:33.996Z</time></trkpt><trkpt lat="48.49479982914009" lon="7.57638233074231"><ele>152.60000000000002</ele><time>2026-04-30T10:34:34.996Z</time></trkpt><trkpt lat="48.49483174758319" lon="7.576527847848536"><ele>152.8</ele><time>2026-04-30T10:34:35.996Z</time></trkpt><trkpt lat="48.4948643960385" lon="7.576690089223074"><ele>153.0</ele><time>2026-04-30T10:34:36.996Z</time></trkpt><trkpt lat="48.49489782495413" lon="7.576855495056086"><ele>152.25</ele><time>2026-04-30T10:34:37.996Z</time></trkpt><trkpt lat="48.494927715878774" lon="7.577045192045973"><ele>151.5</ele><time>2026-04-30T10:34:38.996Z</time></trkpt><trkpt lat="48.49495595533836" lon="7.577235269558045"><ele>150.75</ele><time>2026-04-30T10:34:39.996Z</time></trkpt><trkpt lat="48.49498872893375" lon="7.577423709660931"><ele>150.0</ele><time>2026-04-30T10:34:40.996Z</time></trkpt><trkpt lat="48.495014302070736" lon="7.577606019986919"><ele>150.0</ele><time>2026-04-30T10:34:41.996Z</time></trkpt><trkpt lat="48.4950352953507" lon="7.577790911991169"><ele>150.0</ele><time>2026-04-30T10:34:42.996Z</time></trkpt><trkpt lat="48.4950606839888" lon="7.57796025903514"><ele>150.0</ele><time>2026-04-30T10:34:43.996Z</time></trkpt><trkpt lat="48.49508732685424" lon="7.57811344029982"><ele>150.0</ele><time>2026-04-30T10:34:44.996Z</time></trkpt><trkpt lat="48.49510917763833" lon="7.578260609679586"><ele>150.0</ele><time>2026-04-30T10:34:45.996Z</time></trkpt><trkpt lat="48.495129848382085" lon="7.5784049472874635"><ele>150.0</ele><time>2026-04-30T10:34:46.996Z</time></trkpt><trkpt lat="48.49514911441311" lon="7.578552793170047"><ele>150.0</ele><time>2026-04-30T10:34:47.996Z</time></trkpt><trkpt lat="48.495164342298985" lon="7.578692477831236"><ele>150.0</ele><time>2026-04-30T10:34:48.996Z</time></trkpt><trkpt lat="48.49518185478166" lon="7.5788443148288325"><ele>150.0</ele><time>2026-04-30T10:34:49.996Z</time></trkpt><trkpt lat="48.49519723798689" lon="7.578998591751326"><ele>150.0</ele><time>2026-04-30T10:34:50.996Z</time></trkpt><trkpt lat="48.495223337257734" lon="7.5791530438174615"><ele>150.0</ele><time>2026-04-30T10:34:51.996Z</time></trkpt><trkpt lat="48.49523495247696" lon="7.579295377392694"><ele>150.0</ele><time>2026-04-30T10:34:52.996Z</time></trkpt><trkpt lat="48.49524653856799" lon="7.579436750445114"><ele>150.0</ele><time>2026-04-30T10:34:53.996Z</time></trkpt><trkpt lat="48.49526114113692" lon="7.57956645278713"><ele>150.0</ele><time>2026-04-30T10:34:54.996Z</time></trkpt><trkpt lat="48.49527206312471" lon="7.579700094915862"><ele>150.0</ele><time>2026-04-30T10:34:55.996Z</time></trkpt><trkpt lat="48.495277814109656" lon="7.579822068964184"><ele>150.0</ele><time>2026-04-30T10:34:56.996Z</time></trkpt><trkpt lat="48.495263083714" lon="7.57993108244415"><ele>149.66666666666666</ele><time>2026-04-30T10:34:57.996Z</time></trkpt><trkpt lat="48.49522550892761" lon="7.580018954409275"><ele>149.33333333333334</ele><time>2026-04-30T10:34:58.996Z</time></trkpt><trkpt lat="48.49517410377975" lon="7.580093137423781"><ele>149.0</ele><time>2026-04-30T10:34:59.996Z</time></trkpt><trkpt lat="48.49511962023744" lon="7.580180924970792"><ele>148.66666666666669</ele><time>2026-04-30T10:35:00.996Z</time></trkpt><trkpt lat="48.495069070626336" lon="7.580267042273375"><ele>148.33333333333334</ele><time>2026-04-30T10:35:01.996Z</time></trkpt><trkpt lat="48.495021005964844" lon="7.5803617925007725"><ele>148.0</ele><time>2026-04-30T10:35:02.996Z</time></trkpt><trkpt lat="48.49497548974163" lon="7.580465617907883"><ele>148.0</ele><time>2026-04-30T10:35:03.996Z</time></trkpt><trkpt lat="48.49492879971899" lon="7.580575868881752"><ele>148.0</ele><time>2026-04-30T10:35:04.996Z</time></trkpt><trkpt lat="48.494874213656345" lon="7.580668679160871"><ele>148.0</ele><time>2026-04-30T10:35:05.996Z</time></trkpt><trkpt lat="48.49481432405275" lon="7.580759718743737"><ele>148.0</ele><time>2026-04-30T10:35:06.996Z</time></trkpt><trkpt lat="48.4947510161367" lon="7.580846017658886"><ele>148.0</ele><time>2026-04-30T10:35:07.996Z</time></trkpt><trkpt lat="48.494687909262744" lon="7.580927470037048"><ele>148.0</ele><time>2026-04-30T10:35:08.996Z</time></trkpt><trkpt lat="48.49461855054916" lon="7.581008119059605"><ele>148.0</ele><time>2026-04-30T10:35:09.996Z</time></trkpt><trkpt lat="48.49454693156935" lon="7.581086178337248"><ele>148.0</ele><time>2026-04-30T10:35:10.996Z</time></trkpt><trkpt lat="48.49447416577253" lon="7.581147297297181"><ele>148.0</ele><time>2026-04-30T10:35:11.996Z</time></trkpt><trkpt lat="48.49440063572656" lon="7.581211833058446"><ele>148.0</ele><time>2026-04-30T10:35:12.996Z</time></trkpt><trkpt lat="48.49432957075203" lon="7.581275562599707"><ele>148.0</ele><time>2026-04-30T10:35:13.995Z</time></trkpt><trkpt lat="48.49426570780041" lon="7.58133213991703"><ele>148.0</ele><time>2026-04-30T10:35:14.995Z</time></trkpt><trkpt lat="48.494192887953034" lon="7.581398084962046"><ele>148.0</ele><time>2026-04-30T10:35:16.995Z</time></trkpt><trkpt lat="48.494260748195856" lon="7.581428318369152"><ele>148.0</ele><time>2026-04-30T10:35:19.995Z</time></trkpt><trkpt lat="48.49434979907449" lon="7.581268251003636"><ele>148.0</ele><time>2026-04-30T10:35:21.996Z</time></trkpt><trkpt lat="48.494441266991174" lon="7.581173570273974"><ele>148.0</ele><time>2026-04-30T10:35:22.996Z</time></trkpt><trkpt lat="48.494552506927846" lon="7.581086155798631"><ele>148.0</ele><time>2026-04-30T10:35:23.996Z</time></trkpt><trkpt lat="48.4946561493256" lon="7.580991501809309"><ele>148.0</ele><time>2026-04-30T10:35:24.997Z</time></trkpt><trkpt lat="48.4947496505353" lon="7.580891009403394"><ele>148.0</ele><time>2026-04-30T10:35:25.997Z</time></trkpt><trkpt lat="48.494828446335724" lon="7.580794036495498"><ele>148.0</ele><time>2026-04-30T10:35:26.997Z</time></trkpt><trkpt lat="48.49489621392196" lon="7.58069892291715"><ele>148.0</ele><time>2026-04-30T10:35:27.997Z</time></trkpt><trkpt lat="48.49495351209706" lon="7.580601586652633"><ele>148.0</ele><time>2026-04-30T10:35:28.997Z</time></trkpt><trkpt lat="48.49500704278141" lon="7.58049462187106"><ele>148.0</ele><time>2026-04-30T10:35:29.997Z</time></trkpt><trkpt lat="48.49507050268889" lon="7.5803701563929335"><ele>148.0</ele><time>2026-04-30T10:35:30.997Z</time></trkpt><trkpt lat="48.4951256925787" lon="7.580264015865243"><ele>148.0</ele><time>2026-04-30T10:35:31.997Z</time></trkpt><trkpt lat="48.495177715544465" lon="7.580162902813104"><ele>148.0</ele><time>2026-04-30T10:35:32.997Z</time></trkpt><trkpt lat="48.49522675851478" lon="7.580069493478485"><ele>148.0</ele><time>2026-04-30T10:35:33.997Z</time></trkpt><trkpt lat="48.49526077036962" lon="7.579955653626765"><ele>148.0</ele><time>2026-04-30T10:35:34.997Z</time></trkpt><trkpt lat="48.495288068173856" lon="7.579828953285166"><ele>148.0</ele><time>2026-04-30T10:35:35.997Z</time></trkpt><trkpt lat="48.49529466077397" lon="7.579683785336855"><ele>148.0</ele><time>2026-04-30T10:35:36.997Z</time></trkpt><trkpt lat="48.49527141745061" lon="7.579514218655729"><ele>148.0</ele><time>2026-04-30T10:35:37.997Z</time></trkpt><trkpt lat="48.49524246962067" lon="7.579325548490357"><ele>148.0</ele><time>2026-04-30T10:35:38.997Z</time></trkpt><trkpt lat="48.49522202626825" lon="7.5791362874664125"><ele>148.20000000000002</ele><time>2026-04-30T10:35:39.997Z</time></trkpt><trkpt lat="48.49520269868048" lon="7.57896242096757"><ele>148.4</ele><time>2026-04-30T10:35:40.997Z</time></trkpt><trkpt lat="48.49518466730939" lon="7.578795483886416"><ele>148.60000000000002</ele><time>2026-04-30T10:35:41.997Z</time></trkpt><trkpt lat="48.49516683652097" lon="7.578634200474686"><ele>148.8</ele><time>2026-04-30T10:35:42.997Z</time></trkpt><trkpt lat="48.495147398476526" lon="7.578478215959261"><ele>149.0</ele><time>2026-04-30T10:35:43.997Z</time></trkpt><trkpt lat="48.4951242369612" lon="7.5783225986710105"><ele>149.0</ele><time>2026-04-30T10:35:44.997Z</time></trkpt><trkpt lat="48.495100096189624" lon="7.578159213170399"><ele>149.0</ele><time>2026-04-30T10:35:45.997Z</time></trkpt><trkpt lat="48.495072342533675" lon="7.577989559943317"><ele>149.0</ele><time>2026-04-30T10:35:46.997Z</time></trkpt><trkpt lat="48.49504647449582" lon="7.577818559456859"><ele>149.0</ele><time>2026-04-30T10:35:47.997Z</time></trkpt><trkpt lat="48.495025041130994" lon="7.5776379253520965"><ele>149.25</ele><time>2026-04-30T10:35:48.997Z</time></trkpt><trkpt lat="48.4950013292039" lon="7.577452413911496"><ele>149.5</ele><time>2026-04-30T10:35:49.997Z</time></trkpt><trkpt lat="48.49497232698592" lon="7.577266245125092"><ele>149.75</ele><time>2026-04-30T10:35:50.997Z</time></trkpt><trkpt lat="48.494941380589935" lon="7.577074901900835"><ele>150.0</ele><time>2026-04-30T10:35:51.997Z</time></trkpt><trkpt lat="48.494907612292344" lon="7.576887673220255"><ele>150.5</ele><time>2026-04-30T10:35:52.997Z</time></trkpt><trkpt lat="48.49487089510403" lon="7.5767047771697476"><ele>151.0</ele><time>2026-04-30T10:35:53.996Z</time></trkpt><trkpt lat="48.49483351607775" lon="7.5765128486986"><ele>151.5</ele><time>2026-04-30T10:35:54.996Z</time></trkpt><trkpt lat="48.494797013868634" lon="7.576313786560345"><ele>152.0</ele><time>2026-04-30T10:35:55.996Z</time></trkpt><trkpt lat="48.494764950343736" lon="7.576126736120878"><ele>152.0</ele><time>2026-04-30T10:35:56.996Z</time></trkpt><trkpt lat="48.49474204425259" lon="7.575967397515112"><ele>152.0</ele><time>2026-04-30T10:35:57.996Z</time></trkpt><trkpt lat="48.49471685846706" lon="7.575823556975628"><ele>152.0</ele><time>2026-04-30T10:35:58.996Z</time></trkpt><trkpt lat="48.49468759340575" lon="7.575690779660203"><ele>152.0</ele><time>2026-04-30T10:35:59.996Z</time></trkpt><trkpt lat="48.49466629091512" lon="7.57558089886904"><ele>152.0</ele><time>2026-04-30T10:36:00.996Z</time></trkpt><trkpt lat="48.494662285226866" lon="7.575463187769752"><ele>152.0</ele><time>2026-04-30T10:36:02.996Z</time></trkpt><trkpt lat="48.49473571560619" lon="7.575369059017567"><ele>152.0</ele><time>2026-04-30T10:36:04.996Z</time></trkpt><trkpt lat="48.49480549931531" lon="7.575316305094637"><ele>152.0</ele><time>2026-04-30T10:36:05.996Z</time></trkpt><trkpt lat="48.49489646317848" lon="7.575252310108154"><ele>152.0</ele><time>2026-04-30T10:36:06.996Z</time></trkpt><trkpt lat="48.49499850955603" lon="7.575172507748575"><ele>152.0</ele><time>2026-04-30T10:36:07.996Z</time></trkpt><trkpt lat="48.49510144022033" lon="7.575077961426453"><ele>151.6</ele><time>2026-04-30T10:36:08.996Z</time></trkpt><trkpt lat="48.49520623262361" lon="7.574997770300964"><ele>151.2</ele><time>2026-04-30T10:36:09.996Z</time></trkpt><trkpt lat="48.49530953632496" lon="7.574925826532347"><ele>150.8</ele><time>2026-04-30T10:36:10.996Z</time></trkpt><trkpt lat="48.49540224581648" lon="7.574846473122689"><ele>150.4</ele><time>2026-04-30T10:36:11.996Z</time></trkpt><trkpt lat="48.49549030773691" lon="7.5747605020655415"><ele>150.0</ele><time>2026-04-30T10:36:12.996Z</time></trkpt><trkpt lat="48.495565166450234" lon="7.574642189414653"><ele>150.0</ele><time>2026-04-30T10:36:13.996Z</time></trkpt><trkpt lat="48.49562612914203" lon="7.574523583584313"><ele>150.0</ele><time>2026-04-30T10:36:14.996Z</time></trkpt><trkpt lat="48.495673496042684" lon="7.5743707562849245"><ele>150.0</ele><time>2026-04-30T10:36:15.996Z</time></trkpt><trkpt lat="48.4956984704961" lon="7.574207575112591"><ele>150.0</ele><time>2026-04-30T10:36:16.996Z</time></trkpt><trkpt lat="48.495710310091084" lon="7.5740223477372695"><ele>150.0</ele><time>2026-04-30T10:36:17.996Z</time></trkpt><trkpt lat="48.49569857027541" lon="7.573824066762829"><ele>150.75</ele><time>2026-04-30T10:36:18.996Z</time></trkpt><trkpt lat="48.495683693401126" lon="7.573630354049057"><ele>151.5</ele><time>2026-04-30T10:36:19.996Z</time></trkpt><trkpt lat="48.49568226734842" lon="7.573458449719622"><ele>152.25</ele><time>2026-04-30T10:36:20.996Z</time></trkpt><trkpt lat="48.495677899873854" lon="7.573320272538146"><ele>153.0</ele><time>2026-04-30T10:36:21.996Z</time></trkpt><trkpt lat="48.49571184348783" lon="7.573152012162813"><ele>153.0</ele><time>2026-04-30T10:36:23.996Z</time></trkpt><trkpt lat="48.495749349758" lon="7.573057675087482"><ele>153.0</ele><time>2026-04-30T10:36:25.996Z</time></trkpt><trkpt lat="48.49583529885809" lon="7.573046141513583"><ele>153.0</ele><time>2026-04-30T10:36:27.996Z</time></trkpt><trkpt lat="48.49590165666202" lon="7.573091071790685"><ele>153.0</ele><time>2026-04-30T10:36:28.996Z</time></trkpt><trkpt lat="48.49599784252341" lon="7.573137106784386"><ele>153.0</ele><time>2026-04-30T10:36:30.996Z</time></trkpt><trkpt lat="48.49604208045488" lon="7.573026938475382"><ele>153.0</ele><time>2026-04-30T10:36:33.996Z</time></trkpt><trkpt lat="48.49605055803278" lon="7.5728985660975745"><ele>153.0</ele><time>2026-04-30T10:36:35.996Z</time></trkpt><trkpt lat="48.49598116464941" lon="7.572995813030821"><ele>153.0</ele><time>2026-04-30T10:36:40.996Z</time></trkpt><trkpt lat="48.495916888766565" lon="7.573045152895704"><ele>153.0</ele><time>2026-04-30T10:36:42.996Z</time></trkpt><trkpt lat="48.49579753823334" lon="7.572978058810334"><ele>153.0</ele><time>2026-04-30T10:36:44.996Z</time></trkpt><trkpt lat="48.49572196827777" lon="7.5729289672440965"><ele>153.0</ele><time>2026-04-30T10:36:45.996Z</time></trkpt><trkpt lat="48.49564689912243" lon="7.572854341985515"><ele>153.0</ele><time>2026-04-30T10:36:46.996Z</time></trkpt><trkpt lat="48.495566529851764" lon="7.572750071109312"><ele>153.0</ele><time>2026-04-30T10:36:47.996Z</time></trkpt><trkpt lat="48.495492261757995" lon="7.572625223992315"><ele>153.0</ele><time>2026-04-30T10:36:48.996Z</time></trkpt><trkpt lat="48.495443692073124" lon="7.572482185458645"><ele>153.0</ele><time>2026-04-30T10:36:49.996Z</time></trkpt><trkpt lat="48.49540266467852" lon="7.572333675300938"><ele>153.0</ele><time>2026-04-30T10:36:50.996Z</time></trkpt><trkpt lat="48.495360411878735" lon="7.572191709231546"><ele>153.0</ele><time>2026-04-30T10:36:51.996Z</time></trkpt><trkpt lat="48.49533353893748" lon="7.572060823444019"><ele>153.0</ele><time>2026-04-30T10:36:52.996Z</time></trkpt><trkpt lat="48.4953408119398" lon="7.571924701351038"><ele>153.0</ele><time>2026-04-30T10:36:53.996Z</time></trkpt><trkpt lat="48.49536301887626" lon="7.5717816409416745"><ele>153.0</ele><time>2026-04-30T10:36:54.996Z</time></trkpt><trkpt lat="48.495407667022306" lon="7.57163516838357"><ele>153.0</ele><time>2026-04-30T10:36:55.996Z</time></trkpt><trkpt lat="48.49545197341155" lon="7.571468589198302"><ele>153.0</ele><time>2026-04-30T10:36:56.996Z</time></trkpt><trkpt lat="48.49549517520071" lon="7.57128782493661"><ele>153.0</ele><time>2026-04-30T10:36:57.996Z</time></trkpt><trkpt lat="48.495538212810516" lon="7.571102341645135"><ele>153.0</ele><time>2026-04-30T10:36:58.996Z</time></trkpt><trkpt lat="48.495578815604986" lon="7.570924104869262"><ele>153.0</ele><time>2026-04-30T10:36:59.996Z</time></trkpt><trkpt lat="48.49561410813563" lon="7.570756967136419"><ele>152.8</ele><time>2026-04-30T10:37:00.996Z</time></trkpt><trkpt lat="48.49564496680783" lon="7.570603678051211"><ele>152.60000000000002</ele><time>2026-04-30T10:37:01.996Z</time></trkpt><trkpt lat="48.4956792846354" lon="7.570471674378058"><ele>152.39999999999998</ele><time>2026-04-30T10:37:02.996Z</time></trkpt><trkpt lat="48.49573105836581" lon="7.570370316425615"><ele>152.2</ele><time>2026-04-30T10:37:03.996Z</time></trkpt><trkpt lat="48.49579932258379" lon="7.570289398174304"><ele>152.0</ele><time>2026-04-30T10:37:04.996Z</time></trkpt><trkpt lat="48.49588641213399" lon="7.570221902914797"><ele>151.75</ele><time>2026-04-30T10:37:05.996Z</time></trkpt><trkpt lat="48.49599125955921" lon="7.570137713235033"><ele>151.5</ele><time>2026-04-30T10:37:06.996Z</time></trkpt><trkpt lat="48.496113589697266" lon="7.570032652834109"><ele>151.25</ele><time>2026-04-30T10:37:07.995Z</time></trkpt><trkpt lat="48.49623368615263" lon="7.569923741894688"><ele>151.0</ele><time>2026-04-30T10:37:08.995Z</time></trkpt><trkpt lat="48.49634906427301" lon="7.569817323168605"><ele>151.75</ele><time>2026-04-30T10:37:09.995Z</time></trkpt><trkpt lat="48.49646671993682" lon="7.569707261163493"><ele>152.5</ele><time>2026-04-30T10:37:10.995Z</time></trkpt><trkpt lat="48.49658562166538" lon="7.56959787964083"><ele>153.25</ele><time>2026-04-30T10:37:11.995Z</time></trkpt><trkpt lat="48.49670992486173" lon="7.5694800101566955"><ele>154.0</ele><time>2026-04-30T10:37:12.995Z</time></trkpt><trkpt lat="48.49683295126287" lon="7.5693514062110525"><ele>154.0</ele><time>2026-04-30T10:37:13.995Z</time></trkpt><trkpt lat="48.49694066091039" lon="7.569231297446285"><ele>154.0</ele><time>2026-04-30T10:37:14.995Z</time></trkpt><trkpt lat="48.49703783024328" lon="7.5691271156690725"><ele>154.0</ele><time>2026-04-30T10:37:15.995Z</time></trkpt><trkpt lat="48.497137389308776" lon="7.569027040126846"><ele>154.0</ele><time>2026-04-30T10:37:16.995Z</time></trkpt><trkpt lat="48.497238885502384" lon="7.568925441085812"><ele>154.2</ele><time>2026-04-30T10:37:17.995Z</time></trkpt><trkpt lat="48.4973388253779" lon="7.568829227126739"><ele>154.4</ele><time>2026-04-30T10:37:18.995Z</time></trkpt><trkpt lat="48.49742475376502" lon="7.568730989042664"><ele>154.6</ele><time>2026-04-30T10:37:19.995Z</time></trkpt><trkpt lat="48.49749500885821" lon="7.568653945547599"><ele>154.8</ele><time>2026-04-30T10:37:20.995Z</time></trkpt><trkpt lat="48.49755719632857" lon="7.568607122832566"><ele>155.0</ele><time>2026-04-30T10:37:21.995Z</time></trkpt><trkpt lat="48.497620804715964" lon="7.568558182378695"><ele>155.0</ele><time>2026-04-30T10:37:23.995Z</time></trkpt><trkpt lat="48.49763109922455" lon="7.568382271025781"><ele>155.0</ele><time>2026-04-30T10:37:30.995Z</time></trkpt><trkpt lat="48.49756308618711" lon="7.568280933328225"><ele>155.0</ele><time>2026-04-30T10:37:31.995Z</time></trkpt><trkpt lat="48.497469483499444" lon="7.568195092956531"><ele>155.0</ele><time>2026-04-30T10:37:32.996Z</time></trkpt><trkpt lat="48.49737506393861" lon="7.568091884022811"><ele>155.0</ele><time>2026-04-30T10:37:33.996Z</time></trkpt><trkpt lat="48.49727952259027" lon="7.567978885181473"><ele>154.75</ele><time>2026-04-30T10:37:34.996Z</time></trkpt><trkpt lat="48.49718180028202" lon="7.5678568641173305"><ele>154.5</ele><time>2026-04-30T10:37:35.996Z</time></trkpt><trkpt lat="48.49707825334377" lon="7.567726067273884"><ele>154.25</ele><time>2026-04-30T10:37:36.995Z</time></trkpt><trkpt lat="48.49697098712034" lon="7.567605840333224"><ele>154.0</ele><time>2026-04-30T10:37:37.995Z</time></trkpt><trkpt lat="48.49686923477579" lon="7.5674905750963095"><ele>154.0</ele><time>2026-04-30T10:37:38.996Z</time></trkpt><trkpt lat="48.4967687478114" lon="7.567366795369358"><ele>154.0</ele><time>2026-04-30T10:37:39.995Z</time></trkpt><trkpt lat="48.49666930923196" lon="7.56725160834385"><ele>154.0</ele><time>2026-04-30T10:37:40.995Z</time></trkpt><trkpt lat="48.49658186051862" lon="7.567145447786787"><ele>154.0</ele><time>2026-04-30T10:37:41.995Z</time></trkpt><trkpt lat="48.49649513612749" lon="7.567038786360354"><ele>153.75</ele><time>2026-04-30T10:37:42.995Z</time></trkpt><trkpt lat="48.49641065605807" lon="7.566936844159909"><ele>153.5</ele><time>2026-04-30T10:37:43.995Z</time></trkpt><trkpt lat="48.496317024407325" lon="7.566837745384591"><ele>153.25</ele><time>2026-04-30T10:37:44.995Z</time></trkpt><trkpt lat="48.49622140389005" lon="7.566734965350322"><ele>153.0</ele><time>2026-04-30T10:37:45.995Z</time></trkpt><trkpt lat="48.4961284954603" lon="7.566620468552173"><ele>153.0</ele><time>2026-04-30T10:37:46.995Z</time></trkpt><trkpt lat="48.49602783027242" lon="7.566499688170792"><ele>153.0</ele><time>2026-04-30T10:37:47.995Z</time></trkpt><trkpt lat="48.49592762453499" lon="7.566380766199976"><ele>153.0</ele><time>2026-04-30T10:37:48.995Z</time></trkpt><trkpt lat="48.49583506983299" lon="7.566267134340363"><ele>153.0</ele><time>2026-04-30T10:37:49.995Z</time></trkpt><trkpt lat="48.49575193698511" lon="7.566166683456677"><ele>152.85714285714286</ele><time>2026-04-30T10:37:50.995Z</time></trkpt><trkpt lat="48.495687006383555" lon="7.566079842632053"><ele>152.71428571428572</ele><time>2026-04-30T10:37:51.995Z</time></trkpt><trkpt lat="48.49563784959187" lon="7.565992971271387"><ele>152.57142857142856</ele><time>2026-04-30T10:37:52.995Z</time></trkpt><trkpt lat="48.49561303630586" lon="7.565886855734436"><ele>152.42857142857144</ele><time>2026-04-30T10:37:53.995Z</time></trkpt><trkpt lat="48.49559563584289" lon="7.565788057662466"><ele>152.2857142857143</ele><time>2026-04-30T10:37:54.995Z</time></trkpt><trkpt lat="48.49559338859885" lon="7.565669892251016"><ele>152.14285714285714</ele><time>2026-04-30T10:37:56.995Z</time></trkpt><trkpt lat="48.495645384835136" lon="7.565613810202185"><ele>152.0</ele><time>2026-04-30T10:37:57.995Z</time></trkpt><trkpt lat="48.49572322319261" lon="7.565559677510383"><ele>152.0</ele><time>2026-04-30T10:37:58.995Z</time></trkpt><trkpt lat="48.49582631339773" lon="7.565485876959793"><ele>152.0</ele><time>2026-04-30T10:37:59.995Z</time></trkpt><trkpt lat="48.495915616497506" lon="7.565366940611744"><ele>152.0</ele><time>2026-04-30T10:38:00.995Z</time></trkpt><trkpt lat="48.49599772179447" lon="7.565224895348219"><ele>152.0</ele><time>2026-04-30T10:38:01.995Z</time></trkpt><trkpt lat="48.49607497886605" lon="7.565060016107706"><ele>152.0</ele><time>2026-04-30T10:38:02.995Z</time></trkpt><trkpt lat="48.49615134973719" lon="7.5648970287569135"><ele>152.0</ele><time>2026-04-30T10:38:03.995Z</time></trkpt><trkpt lat="48.496223105025095" lon="7.564748585962462"><ele>152.0</ele><time>2026-04-30T10:38:04.995Z</time></trkpt><trkpt lat="48.49629802211892" lon="7.564621901818661"><ele>152.0</ele><time>2026-04-30T10:38:05.995Z</time></trkpt><trkpt lat="48.4963795017503" lon="7.564524252715507"><ele>151.83333333333331</ele><time>2026-04-30T10:38:06.995Z</time></trkpt><trkpt lat="48.49646357721504" lon="7.564427959149919"><ele>151.66666666666666</ele><time>2026-04-30T10:38:07.995Z</time></trkpt><trkpt lat="48.496539333158964" lon="7.564345057471259"><ele>151.5</ele><time>2026-04-30T10:38:08.995Z</time></trkpt><trkpt lat="48.49658760878955" lon="7.564269086898559"><ele>151.33333333333334</ele><time>2026-04-30T10:38:09.995Z</time></trkpt><trkpt lat="48.49665436589364" lon="7.5642478134840845"><ele>151.16666666666669</ele><time>2026-04-30T10:38:11.995Z</time></trkpt><trkpt lat="48.49654808521609" lon="7.564271400937348"><ele>151.0</ele><time>2026-04-30T10:38:16.995Z</time></trkpt><trkpt lat="48.496480378739605" lon="7.564367242472202"><ele>151.0</ele><time>2026-04-30T10:38:17.995Z</time></trkpt><trkpt lat="48.49640531606072" lon="7.564473470850005"><ele>151.0</ele><time>2026-04-30T10:38:18.995Z</time></trkpt><trkpt lat="48.496323289151526" lon="7.564586091008607"><ele>151.0</ele><time>2026-04-30T10:38:19.995Z</time></trkpt><trkpt lat="48.49623354097869" lon="7.564712052806928"><ele>151.0</ele><time>2026-04-30T10:38:20.995Z</time></trkpt><trkpt lat="48.496145426434495" lon="7.564867773012608"><ele>151.25</ele><time>2026-04-30T10:38:21.995Z</time></trkpt><trkpt lat="48.49606267403627" lon="7.565034646608051"><ele>151.5</ele><time>2026-04-30T10:38:22.995Z</time></trkpt><trkpt lat="48.495976974407995" lon="7.565215929795174"><ele>151.75</ele><time>2026-04-30T10:38:23.995Z</time></trkpt><trkpt lat="48.4958856897598" lon="7.565385567333681"><ele>152.0</ele><time>2026-04-30T10:38:24.995Z</time></trkpt><trkpt lat="48.49580127101554" lon="7.565509944708597"><ele>152.0</ele><time>2026-04-30T10:38:25.995Z</time></trkpt><trkpt lat="48.495718915811175" lon="7.565602335232095"><ele>152.0</ele><time>2026-04-30T10:38:26.995Z</time></trkpt><trkpt lat="48.49563605075012" lon="7.565665394889555"><ele>152.0</ele><time>2026-04-30T10:38:27.995Z</time></trkpt><trkpt lat="48.49556357827509" lon="7.565703221927642"><ele>152.0</ele><time>2026-04-30T10:38:28.995Z</time></trkpt><trkpt lat="48.49549294245309" lon="7.565709883086226"><ele>152.0</ele><time>2026-04-30T10:38:29.995Z</time></trkpt><trkpt lat="48.49538271724231" lon="7.565795727203576"><ele>152.0</ele><time>2026-04-30T10:38:31.995Z</time></trkpt><trkpt lat="48.49535163073914" lon="7.565917499799396"><ele>152.0</ele><time>2026-04-30T10:38:32.995Z</time></trkpt><trkpt lat="48.495367389821794" lon="7.5660415216067545"><ele>152.0</ele><time>2026-04-30T10:38:33.995Z</time></trkpt><trkpt lat="48.49542784602659" lon="7.56611622753961"><ele>152.0</ele><time>2026-04-30T10:38:34.995Z</time></trkpt><trkpt lat="48.4955346148181" lon="7.566136513292782"><ele>152.0</ele><time>2026-04-30T10:38:35.995Z</time></trkpt><trkpt lat="48.495650485068005" lon="7.566148957552915"><ele>152.25</ele><time>2026-04-30T10:38:36.995Z</time></trkpt><trkpt lat="48.49576595477662" lon="7.566217938228271"><ele>152.5</ele><time>2026-04-30T10:38:37.995Z</time></trkpt><trkpt lat="48.49587675459676" lon="7.566346602212338"><ele>152.75</ele><time>2026-04-30T10:38:38.995Z</time></trkpt><trkpt lat="48.495986176874325" lon="7.566503571607494"><ele>153.0</ele><time>2026-04-30T10:38:39.995Z</time></trkpt><trkpt lat="48.49610664576913" lon="7.566659055724648"><ele>153.0</ele><time>2026-04-30T10:38:40.995Z</time></trkpt><trkpt lat="48.49622606839208" lon="7.566785590181405"><ele>153.0</ele><time>2026-04-30T10:38:41.995Z</time></trkpt><trkpt lat="48.49634400697274" lon="7.566923879781683"><ele>153.0</ele><time>2026-04-30T10:38:42.995Z</time></trkpt><trkpt lat="48.49646570875101" lon="7.5670650501217"><ele>153.0</ele><time>2026-04-30T10:38:43.995Z</time></trkpt><trkpt lat="48.49658665725051" lon="7.567206578190399"><ele>153.33333333333334</ele><time>2026-04-30T10:38:44.995Z</time></trkpt><trkpt lat="48.49670206256343" lon="7.567345136300778"><ele>153.66666666666669</ele><time>2026-04-30T10:38:45.995Z</time></trkpt><trkpt lat="48.49682521781968" lon="7.5674829819088965"><ele>154.0</ele><time>2026-04-30T10:38:46.995Z</time></trkpt><trkpt lat="48.49694608859627" lon="7.567625931535182"><ele>154.0</ele><time>2026-04-30T10:38:47.995Z</time></trkpt><trkpt lat="48.497060855736855" lon="7.567761291624026"><ele>154.0</ele><time>2026-04-30T10:38:48.995Z</time></trkpt><trkpt lat="48.497162946868016" lon="7.567883699913206"><ele>154.0</ele><time>2026-04-30T10:38:49.995Z</time></trkpt><trkpt lat="48.49725913802576" lon="7.568003070684473"><ele>154.0</ele><time>2026-04-30T10:38:50.995Z</time></trkpt><trkpt lat="48.49735831765865" lon="7.568121878939184"><ele>154.2</ele><time>2026-04-30T10:38:51.994Z</time></trkpt><trkpt lat="48.49744197436053" lon="7.568232894724363"><ele>154.4</ele><time>2026-04-30T10:38:52.994Z</time></trkpt><trkpt lat="48.49752513937381" lon="7.568331370259523"><ele>154.6</ele><time>2026-04-30T10:38:53.994Z</time></trkpt><trkpt lat="48.497596187198" lon="7.568420041661568"><ele>154.8</ele><time>2026-04-30T10:38:54.994Z</time></trkpt><trkpt lat="48.49764603434831" lon="7.5684901765629435"><ele>155.0</ele><time>2026-04-30T10:38:55.994Z</time></trkpt><trkpt lat="48.49773990325014" lon="7.568541806678929"><ele>155.0</ele><time>2026-04-30T10:38:57.994Z</time></trkpt><trkpt lat="48.49780422743986" lon="7.5684723346206635"><ele>155.0</ele><time>2026-04-30T10:38:58.994Z</time></trkpt><trkpt lat="48.49787597845642" lon="7.568343677923483"><ele>155.0</ele><time>2026-04-30T10:38:59.994Z</time></trkpt><trkpt lat="48.497969383313546" lon="7.568176043934617"><ele>155.0</ele><time>2026-04-30T10:39:00.994Z</time></trkpt><trkpt lat="48.49807991238549" lon="7.567997355271065"><ele>154.66666666666666</ele><time>2026-04-30T10:39:01.994Z</time></trkpt><trkpt lat="48.498217550483815" lon="7.567810529101563"><ele>154.33333333333334</ele><time>2026-04-30T10:39:02.994Z</time></trkpt><trkpt lat="48.498358246336416" lon="7.567616594599606"><ele>154.0</ele><time>2026-04-30T10:39:03.994Z</time></trkpt><trkpt lat="48.49850141164918" lon="7.567395202691309"><ele>154.0</ele><time>2026-04-30T10:39:04.994Z</time></trkpt><trkpt lat="48.49863684780712" lon="7.567177995493657"><ele>154.0</ele><time>2026-04-30T10:39:05.994Z</time></trkpt><trkpt lat="48.49875486797403" lon="7.566996976266309"><ele>154.0</ele><time>2026-04-30T10:39:06.994Z</time></trkpt><trkpt lat="48.498851804603966" lon="7.56684317442093"><ele>154.4</ele><time>2026-04-30T10:39:07.994Z</time></trkpt><trkpt lat="48.49894127030376" lon="7.566707202383997"><ele>154.8</ele><time>2026-04-30T10:39:08.994Z</time></trkpt><trkpt lat="48.499029600600224" lon="7.566605375761133"><ele>155.2</ele><time>2026-04-30T10:39:09.994Z</time></trkpt><trkpt lat="48.4991100077381" lon="7.56652970707885"><ele>155.6</ele><time>2026-04-30T10:39:10.994Z</time></trkpt><trkpt lat="48.4991979124158" lon="7.566472221940696"><ele>156.0</ele><time>2026-04-30T10:39:11.994Z</time></trkpt><trkpt lat="48.4992956535439" lon="7.566449458805217"><ele>156.0</ele><time>2026-04-30T10:39:12.994Z</time></trkpt><trkpt lat="48.499379479984576" lon="7.5664102066922405"><ele>156.0</ele><time>2026-04-30T10:39:13.994Z</time></trkpt><trkpt lat="48.49945087576552" lon="7.566311024782796"><ele>156.0</ele><time>2026-04-30T10:39:14.994Z</time></trkpt><trkpt lat="48.49951313510306" lon="7.566168332377425"><ele>156.0</ele><time>2026-04-30T10:39:15.994Z</time></trkpt><trkpt lat="48.499570869735834" lon="7.565981294253326"><ele>156.0</ele><time>2026-04-30T10:39:16.994Z</time></trkpt><trkpt lat="48.499652104650764" lon="7.565787461782972"><ele>158.0</ele><time>2026-04-30T10:39:17.994Z</time></trkpt><trkpt lat="48.49975789251614" lon="7.565613977549865"><ele>160.0</ele><time>2026-04-30T10:39:18.994Z</time></trkpt><trkpt lat="48.4998911027944" lon="7.565477890626872"><ele>162.0</ele><time>2026-04-30T10:39:19.994Z</time></trkpt><trkpt lat="48.50003548922431" lon="7.565325570430165"><ele>162.75</ele><time>2026-04-30T10:39:20.994Z</time></trkpt><trkpt lat="48.50016696098778" lon="7.565183864548287"><ele>163.5</ele><time>2026-04-30T10:39:21.994Z</time></trkpt><trkpt lat="48.50027209854173" lon="7.565058631930425"><ele>164.25</ele><time>2026-04-30T10:39:22.994Z</time></trkpt><trkpt lat="48.500364100327204" lon="7.564952025173497"><ele>165.0</ele><time>2026-04-30T10:39:23.994Z</time></trkpt><trkpt lat="48.500451067746994" lon="7.564867329640571"><ele>165.83333333333334</ele><time>2026-04-30T10:39:24.994Z</time></trkpt><trkpt lat="48.50053804289105" lon="7.564804413336877"><ele>166.66666666666666</ele><time>2026-04-30T10:39:25.994Z</time></trkpt><trkpt lat="48.500621542128485" lon="7.564758351029187"><ele>167.5</ele><time>2026-04-30T10:39:26.994Z</time></trkpt><trkpt lat="48.500713724458755" lon="7.564737914776763"><ele>168.33333333333331</ele><time>2026-04-30T10:39:27.994Z</time></trkpt><trkpt lat="48.50079769900092" lon="7.564733309538764"><ele>169.16666666666666</ele><time>2026-04-30T10:39:28.994Z</time></trkpt><trkpt lat="48.50086647438096" lon="7.564702159663606"><ele>170.0</ele><time>2026-04-30T10:39:29.994Z</time></trkpt><trkpt lat="48.500931847150554" lon="7.564631058657871"><ele>170.0</ele><time>2026-04-30T10:39:30.994Z</time></trkpt><trkpt lat="48.50101227697003" lon="7.564558744366366"><ele>170.0</ele><time>2026-04-30T10:39:31.994Z</time></trkpt><trkpt lat="48.50111497745189" lon="7.5645311977165575"><ele>170.0</ele><time>2026-04-30T10:39:32.996Z</time></trkpt><trkpt lat="48.50122340000477" lon="7.56459323318584"><ele>170.0</ele><time>2026-04-30T10:39:33.996Z</time></trkpt><trkpt lat="48.50130292391892" lon="7.564678060609244"><ele>170.0</ele><time>2026-04-30T10:39:34.996Z</time></trkpt><trkpt lat="48.50136875847723" lon="7.564780045040468"><ele>170.75</ele><time>2026-04-30T10:39:35.996Z</time></trkpt><trkpt lat="48.50144165607877" lon="7.564895986687469"><ele>171.5</ele><time>2026-04-30T10:39:36.996Z</time></trkpt><trkpt lat="48.50153103210419" lon="7.565031728265815"><ele>172.25</ele><time>2026-04-30T10:39:37.996Z</time></trkpt><trkpt lat="48.50162283039953" lon="7.565194118796762"><ele>173.0</ele><time>2026-04-30T10:39:38.996Z</time></trkpt><trkpt lat="48.50171969140177" lon="7.565381749574178"><ele>173.0</ele><time>2026-04-30T10:39:39.996Z</time></trkpt><trkpt lat="48.50181264093927" lon="7.565569364507583"><ele>173.0</ele><time>2026-04-30T10:39:40.996Z</time></trkpt><trkpt lat="48.50190816530522" lon="7.565746725691056"><ele>173.0</ele><time>2026-04-30T10:39:41.996Z</time></trkpt><trkpt lat="48.50200714094133" lon="7.565925713324548"><ele>173.33333333333331</ele><time>2026-04-30T10:39:42.995Z</time></trkpt><trkpt lat="48.50210017049646" lon="7.566102324208169"><ele>173.66666666666666</ele><time>2026-04-30T10:39:43.995Z</time></trkpt><trkpt lat="48.50219593071405" lon="7.5662785441128975"><ele>174.0</ele><time>2026-04-30T10:39:44.996Z</time></trkpt><trkpt lat="48.50229573065002" lon="7.5664537496272"><ele>174.0</ele><time>2026-04-30T10:39:45.995Z</time></trkpt><trkpt lat="48.50240409729156" lon="7.566620662310121"><ele>174.0</ele><time>2026-04-30T10:39:46.995Z</time></trkpt><trkpt lat="48.502525718761525" lon="7.56677876721086"><ele>174.0</ele><time>2026-04-30T10:39:47.995Z</time></trkpt><trkpt lat="48.50265787192207" lon="7.566917973724884"><ele>174.0</ele><time>2026-04-30T10:39:48.995Z</time></trkpt><trkpt lat="48.502796564451145" lon="7.567045528625954"><ele>174.0</ele><time>2026-04-30T10:39:49.995Z</time></trkpt><trkpt lat="48.50294071768452" lon="7.5671577870620865"><ele>174.0</ele><time>2026-04-30T10:39:50.995Z</time></trkpt><trkpt lat="48.50309024324947" lon="7.567262408213159"><ele>174.0</ele><time>2026-04-30T10:39:51.995Z</time></trkpt><trkpt lat="48.503241776797466" lon="7.567346727498489"><ele>174.0</ele><time>2026-04-30T10:39:52.995Z</time></trkpt><trkpt lat="48.50339693190407" lon="7.567424202444728"><ele>174.0</ele><time>2026-04-30T10:39:53.995Z</time></trkpt><trkpt lat="48.50354871453795" lon="7.567500122147862"><ele>174.0</ele><time>2026-04-30T10:39:54.995Z</time></trkpt><trkpt lat="48.503705966510076" lon="7.567575748560679"><ele>174.0</ele><time>2026-04-30T10:39:55.995Z</time></trkpt><trkpt lat="48.50386027032584" lon="7.567652173218313"><ele>174.0</ele><time>2026-04-30T10:39:56.995Z</time></trkpt><trkpt lat="48.50400886811669" lon="7.567726281886458"><ele>174.33333333333334</ele><time>2026-04-30T10:39:57.995Z</time></trkpt><trkpt lat="48.50415801356306" lon="7.56780118139025"><ele>174.66666666666669</ele><time>2026-04-30T10:39:58.995Z</time></trkpt><trkpt lat="48.50430910687861" lon="7.567881783921425"><ele>175.0</ele><time>2026-04-30T10:39:59.995Z</time></trkpt><trkpt lat="48.504459880086245" lon="7.567962541207787"><ele>174.66666666666669</ele><time>2026-04-30T10:40:00.995Z</time></trkpt><trkpt lat="48.504612564985116" lon="7.568033446653805"><ele>174.33333333333334</ele><time>2026-04-30T10:40:01.995Z</time></trkpt><trkpt lat="48.50476717679855" lon="7.568083820987079"><ele>174.0</ele><time>2026-04-30T10:40:02.995Z</time></trkpt><trkpt lat="48.504924415944885" lon="7.568118244284983"><ele>174.0</ele><time>2026-04-30T10:40:03.995Z</time></trkpt><trkpt lat="48.50508168723634" lon="7.568131043417415"><ele>174.0</ele><time>2026-04-30T10:40:04.995Z</time></trkpt><trkpt lat="48.505254164134364" lon="7.568131082221631"><ele>174.0</ele><time>2026-04-30T10:40:05.995Z</time></trkpt><trkpt lat="48.50543628308725" lon="7.568132970022413"><ele>174.0</ele><time>2026-04-30T10:40:06.995Z</time></trkpt><trkpt lat="48.505628562057794" lon="7.568126661343766"><ele>174.0</ele><time>2026-04-30T10:40:07.995Z</time></trkpt><trkpt lat="48.5058497498876" lon="7.56815118446875"><ele>174.0</ele><time>2026-04-30T10:40:08.995Z</time></trkpt><trkpt lat="48.50609337903946" lon="7.568156454550041"><ele>173.0</ele><time>2026-04-30T10:40:09.995Z</time></trkpt><trkpt lat="48.506340852133796" lon="7.568163685387993"><ele>172.0</ele><time>2026-04-30T10:40:10.995Z</time></trkpt><trkpt lat="48.506599925297934" lon="7.568189318281965"><ele>172.0</ele><time>2026-04-30T10:40:11.995Z</time></trkpt><trkpt lat="48.50686197840578" lon="7.568236893849256"><ele>172.0</ele><time>2026-04-30T10:40:12.995Z</time></trkpt><trkpt lat="48.50711038524917" lon="7.568271760261905"><ele>172.0</ele><time>2026-04-30T10:40:13.995Z</time></trkpt><trkpt lat="48.507349602698376" lon="7.56832538675441"><ele>172.0</ele><time>2026-04-30T10:40:14.995Z</time></trkpt><trkpt lat="48.507583314542124" lon="7.5683693388482345"><ele>172.0</ele><time>2026-04-30T10:40:15.995Z</time></trkpt><trkpt lat="48.507814964869056" lon="7.5684137879596065"><ele>172.0</ele><time>2026-04-30T10:40:16.995Z</time></trkpt><trkpt lat="48.50804193873102" lon="7.5684601256209785"><ele>171.33333333333334</ele><time>2026-04-30T10:40:17.995Z</time></trkpt><trkpt lat="48.50826286292433" lon="7.568511211578754"><ele>170.66666666666666</ele><time>2026-04-30T10:40:18.995Z</time></trkpt><trkpt lat="48.50848003466925" lon="7.568560808257161"><ele>170.0</ele><time>2026-04-30T10:40:19.995Z</time></trkpt><trkpt lat="48.50869672435375" lon="7.568614386431211"><ele>169.66666666666666</ele><time>2026-04-30T10:40:20.995Z</time></trkpt><trkpt lat="48.50891492868435" lon="7.568671929857383"><ele>169.33333333333334</ele><time>2026-04-30T10:40:21.995Z</time></trkpt><trkpt lat="48.509135703577904" lon="7.568728147617184"><ele>169.0</ele><time>2026-04-30T10:40:22.995Z</time></trkpt><trkpt lat="48.509355925894084" lon="7.568781433834994"><ele>169.5</ele><time>2026-04-30T10:40:23.995Z</time></trkpt><trkpt lat="48.509578599062095" lon="7.568831202960102"><ele>170.0</ele><time>2026-04-30T10:40:24.995Z</time></trkpt><trkpt lat="48.5098005963292" lon="7.568882576210577"><ele>170.0</ele><time>2026-04-30T10:40:25.995Z</time></trkpt><trkpt lat="48.51002475879798" lon="7.56893140167188"><ele>170.0</ele><time>2026-04-30T10:40:26.995Z</time></trkpt><trkpt lat="48.51025181581746" lon="7.568969186918825"><ele>169.0</ele><time>2026-04-30T10:40:27.995Z</time></trkpt><trkpt lat="48.51048057396005" lon="7.568983157573113"><ele>168.0</ele><time>2026-04-30T10:40:28.995Z</time></trkpt><trkpt lat="48.510709642936256" lon="7.568974218987244"><ele>168.0</ele><time>2026-04-30T10:40:29.995Z</time></trkpt><trkpt lat="48.51093788303933" lon="7.5689703546246365"><ele>168.0</ele><time>2026-04-30T10:40:30.995Z</time></trkpt><trkpt lat="48.511169037108" lon="7.568969398618145"><ele>167.5</ele><time>2026-04-30T10:40:31.995Z</time></trkpt><trkpt lat="48.5114021669912" lon="7.568966471121501"><ele>167.0</ele><time>2026-04-30T10:40:32.995Z</time></trkpt><trkpt lat="48.511637706261396" lon="7.568959593782957"><ele>167.0</ele><time>2026-04-30T10:40:33.995Z</time></trkpt><trkpt lat="48.51187534871336" lon="7.5689414164234154"><ele>167.0</ele><time>2026-04-30T10:40:34.995Z</time></trkpt><trkpt lat="48.512112350354926" lon="7.568902380751211"><ele>167.0</ele><time>2026-04-30T10:40:35.995Z</time></trkpt><trkpt lat="48.512344122486425" lon="7.56883851158521"><ele>167.0</ele><time>2026-04-30T10:40:36.995Z</time></trkpt><trkpt lat="48.512570326341994" lon="7.568744278586443"><ele>167.0</ele><time>2026-04-30T10:40:37.995Z</time></trkpt><trkpt lat="48.512797300711654" lon="7.56864330841199"><ele>167.0</ele><time>2026-04-30T10:40:38.995Z</time></trkpt><trkpt lat="48.51302095490872" lon="7.568538969729623"><ele>167.5</ele><time>2026-04-30T10:40:39.995Z</time></trkpt><trkpt lat="48.51324720291769" lon="7.568436799859826"><ele>168.0</ele><time>2026-04-30T10:40:40.995Z</time></trkpt><trkpt lat="48.51347493017738" lon="7.568337205727499"><ele>168.0</ele><time>2026-04-30T10:40:41.995Z</time></trkpt><trkpt lat="48.51370458830887" lon="7.568241174009074"><ele>168.0</ele><time>2026-04-30T10:40:42.995Z</time></trkpt><trkpt lat="48.513936049095314" lon="7.5681476324482055"><ele>167.5</ele><time>2026-04-30T10:40:43.995Z</time></trkpt><trkpt lat="48.51416689030488" lon="7.568060553818001"><ele>167.0</ele><time>2026-04-30T10:40:44.995Z</time></trkpt><trkpt lat="48.51439758057485" lon="7.5679766999094324"><ele>166.0</ele><time>2026-04-30T10:40:45.995Z</time></trkpt><trkpt lat="48.51462671189162" lon="7.567886467788792"><ele>165.0</ele><time>2026-04-30T10:40:46.994Z</time></trkpt><trkpt lat="48.51485601822189" lon="7.567799960462456"><ele>165.0</ele><time>2026-04-30T10:40:47.994Z</time></trkpt><trkpt lat="48.51508863111182" lon="7.567720305166738"><ele>165.0</ele><time>2026-04-30T10:40:48.994Z</time></trkpt><trkpt lat="48.51532155310179" lon="7.567639830792301"><ele>164.5</ele><time>2026-04-30T10:40:49.994Z</time></trkpt><trkpt lat="48.51555116110459" lon="7.567558822644195"><ele>164.0</ele><time>2026-04-30T10:40:50.994Z</time></trkpt><trkpt lat="48.51578319374056" lon="7.567472930392018"><ele>164.0</ele><time>2026-04-30T10:40:51.994Z</time></trkpt><trkpt lat="48.51599885709446" lon="7.567393742851665"><ele>164.0</ele><time>2026-04-30T10:40:52.994Z</time></trkpt><trkpt lat="48.51621809696011" lon="7.567318697593597"><ele>164.0</ele><time>2026-04-30T10:40:53.994Z</time></trkpt><trkpt lat="48.5164448930902" lon="7.5672442275547604"><ele>164.0</ele><time>2026-04-30T10:40:54.994Z</time></trkpt><trkpt lat="48.5166795412655" lon="7.567171107721655"><ele>164.0</ele><time>2026-04-30T10:40:55.994Z</time></trkpt><trkpt lat="48.51692378744421" lon="7.567091552465646"><ele>163.5</ele><time>2026-04-30T10:40:56.994Z</time></trkpt><trkpt lat="48.51717497972321" lon="7.567014212839971"><ele>163.0</ele><time>2026-04-30T10:40:57.994Z</time></trkpt><trkpt lat="48.51743068173649" lon="7.566934157552505"><ele>163.0</ele><time>2026-04-30T10:40:58.994Z</time></trkpt><trkpt lat="48.51769162299061" lon="7.56685193780016"><ele>163.0</ele><time>2026-04-30T10:40:59.994Z</time></trkpt><trkpt lat="48.51794990163292" lon="7.566778596386352"><ele>162.0</ele><time>2026-04-30T10:41:00.994Z</time></trkpt><trkpt lat="48.51817749650737" lon="7.566712014826766"><ele>161.0</ele><time>2026-04-30T10:41:01.994Z</time></trkpt><trkpt lat="48.518402855813086" lon="7.566646002641986"><ele>161.0</ele><time>2026-04-30T10:41:02.994Z</time></trkpt><trkpt lat="48.518621476921204" lon="7.56658525261552"><ele>161.0</ele><time>2026-04-30T10:41:03.994Z</time></trkpt><trkpt lat="48.518835900631046" lon="7.566529147546063"><ele>161.0</ele><time>2026-04-30T10:41:04.994Z</time></trkpt><trkpt lat="48.51904869372435" lon="7.566482745691291"><ele>161.33333333333331</ele><time>2026-04-30T10:41:05.994Z</time></trkpt><trkpt lat="48.519260658583725" lon="7.566434196723742"><ele>161.66666666666666</ele><time>2026-04-30T10:41:06.994Z</time></trkpt><trkpt lat="48.51947304642884" lon="7.566387905185426"><ele>162.0</ele><time>2026-04-30T10:41:07.994Z</time></trkpt><trkpt lat="48.51968572222115" lon="7.56634329352244"><ele>161.33333333333334</ele><time>2026-04-30T10:41:08.994Z</time></trkpt><trkpt lat="48.51989835270835" lon="7.566301506784149"><ele>160.66666666666669</ele><time>2026-04-30T10:41:09.994Z</time></trkpt><trkpt lat="48.52011092560505" lon="7.566262891320665"><ele>160.0</ele><time>2026-04-30T10:41:10.994Z</time></trkpt><trkpt lat="48.520308888258754" lon="7.566232466932121"><ele>160.66666666666669</ele><time>2026-04-30T10:41:11.994Z</time></trkpt><trkpt lat="48.52049122757459" lon="7.5662022234755995"><ele>161.33333333333334</ele><time>2026-04-30T10:41:12.994Z</time></trkpt><trkpt lat="48.52065606062854" lon="7.566170786688102"><ele>162.0</ele><time>2026-04-30T10:41:13.994Z</time></trkpt><trkpt lat="48.52080504500426" lon="7.566147896758216"><ele>162.0</ele><time>2026-04-30T10:41:14.994Z</time></trkpt><trkpt lat="48.52095815545076" lon="7.5661242647789635"><ele>162.0</ele><time>2026-04-30T10:41:15.994Z</time></trkpt><trkpt lat="48.521112735504445" lon="7.566100251995356"><ele>162.0</ele><time>2026-04-30T10:41:16.994Z</time></trkpt><trkpt lat="48.52125414187867" lon="7.566080672759633"><ele>162.2</ele><time>2026-04-30T10:41:17.994Z</time></trkpt><trkpt lat="48.52138094175784" lon="7.566062667557139"><ele>162.39999999999998</ele><time>2026-04-30T10:41:18.994Z</time></trkpt><trkpt lat="48.52149734534517" lon="7.566053799013717"><ele>162.60000000000002</ele><time>2026-04-30T10:41:19.994Z</time></trkpt><trkpt lat="48.52159781915434" lon="7.56604401761742"><ele>162.8</ele><time>2026-04-30T10:41:20.994Z</time></trkpt><trkpt lat="48.52168348566206" lon="7.56602237149872"><ele>163.0</ele><time>2026-04-30T10:41:21.994Z</time></trkpt><trkpt lat="48.52175968696847" lon="7.56600802455038"><ele>163.0</ele><time>2026-04-30T10:41:22.994Z</time></trkpt><trkpt lat="48.521865992079505" lon="7.565994691495973"><ele>163.0</ele><time>2026-04-30T10:41:24.994Z</time></trkpt><trkpt lat="48.52193433001167" lon="7.565991030564054"><ele>163.0</ele><time>2026-04-30T10:41:27.994Z</time></trkpt><trkpt lat="48.522012023042116" lon="7.565975714448751"><ele>163.0</ele><time>2026-04-30T10:41:34.994Z</time></trkpt><trkpt lat="48.52207875742443" lon="7.565977804005108"><ele>163.0</ele><time>2026-04-30T10:41:35.994Z</time></trkpt><trkpt lat="48.52215059453992" lon="7.565901107650125"><ele>163.0</ele><time>2026-04-30T10:41:37.994Z</time></trkpt><trkpt lat="48.52216987681725" lon="7.565789904990357"><ele>163.5</ele><time>2026-04-30T10:41:38.996Z</time></trkpt><trkpt lat="48.52216582178908" lon="7.565634282074361"><ele>164.0</ele><time>2026-04-30T10:41:39.995Z</time></trkpt><trkpt lat="48.52214178178002" lon="7.565441762795328"><ele>164.5</ele><time>2026-04-30T10:41:40.995Z</time></trkpt><trkpt lat="48.52211406142279" lon="7.5652368746622205"><ele>165.0</ele><time>2026-04-30T10:41:41.996Z</time></trkpt><trkpt lat="48.52210138138134" lon="7.565020050462971"><ele>165.0</ele><time>2026-04-30T10:41:42.996Z</time></trkpt><trkpt lat="48.5220937445284" lon="7.564809369074479"><ele>165.0</ele><time>2026-04-30T10:41:43.996Z</time></trkpt><trkpt lat="48.522083875796554" lon="7.56460928577269"><ele>165.0</ele><time>2026-04-30T10:41:44.996Z</time></trkpt><trkpt lat="48.522081944990795" lon="7.564423711258502"><ele>165.0</ele><time>2026-04-30T10:41:45.996Z</time></trkpt><trkpt lat="48.52207738432742" lon="7.564246951140223"><ele>165.0</ele><time>2026-04-30T10:41:46.996Z</time></trkpt><trkpt lat="48.522074403348874" lon="7.564075125650911"><ele>165.0</ele><time>2026-04-30T10:41:47.996Z</time></trkpt><trkpt lat="48.52206642037046" lon="7.563891020401388"><ele>165.0</ele><time>2026-04-30T10:41:48.996Z</time></trkpt><trkpt lat="48.522057392054734" lon="7.563707675363752"><ele>165.0</ele><time>2026-04-30T10:41:49.996Z</time></trkpt><trkpt lat="48.52204889447386" lon="7.563545054731681"><ele>165.0</ele><time>2026-04-30T10:41:50.996Z</time></trkpt><trkpt lat="48.52204776483223" lon="7.563409719411584"><ele>165.0</ele><time>2026-04-30T10:41:51.996Z</time></trkpt><trkpt lat="48.522052408056" lon="7.563299214903014"><ele>165.0</ele><time>2026-04-30T10:41:52.996Z</time></trkpt><trkpt lat="48.52204307840814" lon="7.56320198942614"><ele>165.0</ele><time>2026-04-30T10:41:53.996Z</time></trkpt><trkpt lat="48.52204378727753" lon="7.5630469104685245"><ele>165.0</ele><time>2026-04-30T10:41:55.996Z</time></trkpt><trkpt lat="48.52203367877132" lon="7.562940031332688"><ele>165.0</ele><time>2026-04-30T10:41:57.996Z</time></trkpt><trkpt lat="48.52202701653576" lon="7.562752211114202"><ele>164.75</ele><time>2026-04-30T10:41:59.996Z</time></trkpt><trkpt lat="48.522019735595194" lon="7.562611572714917"><ele>164.5</ele><time>2026-04-30T10:42:00.996Z</time></trkpt><trkpt lat="48.52201843866983" lon="7.56243810852666"><ele>164.25</ele><time>2026-04-30T10:42:01.996Z</time></trkpt><trkpt lat="48.52200839894688" lon="7.562253949786918"><ele>164.0</ele><time>2026-04-30T10:42:02.996Z</time></trkpt><trkpt lat="48.521998779569024" lon="7.56206409057822"><ele>164.0</ele><time>2026-04-30T10:42:03.996Z</time></trkpt><trkpt lat="48.52198505519639" lon="7.561841443596722"><ele>164.0</ele><time>2026-04-30T10:42:04.996Z</time></trkpt><trkpt lat="48.52197720171243" lon="7.561626716088818"><ele>164.0</ele><time>2026-04-30T10:42:05.996Z</time></trkpt><trkpt lat="48.52196538868692" lon="7.561422294587887"><ele>164.0</ele><time>2026-04-30T10:42:06.996Z</time></trkpt><trkpt lat="48.521958419856894" lon="7.561236067125159"><ele>163.75</ele><time>2026-04-30T10:42:07.995Z</time></trkpt><trkpt lat="48.521953364827716" lon="7.561030761105624"><ele>163.5</ele><time>2026-04-30T10:42:08.995Z</time></trkpt><trkpt lat="48.521945528531575" lon="7.5608333707292665"><ele>163.25</ele><time>2026-04-30T10:42:09.995Z</time></trkpt><trkpt lat="48.521936142881195" lon="7.560635236293913"><ele>163.0</ele><time>2026-04-30T10:42:10.995Z</time></trkpt><trkpt lat="48.52192703594379" lon="7.560447820552854"><ele>163.0</ele><time>2026-04-30T10:42:11.995Z</time></trkpt><trkpt lat="48.5219231548877" lon="7.560264755909889"><ele>163.0</ele><time>2026-04-30T10:42:12.995Z</time></trkpt><trkpt lat="48.52193538507317" lon="7.560082517042258"><ele>163.0</ele><time>2026-04-30T10:42:13.995Z</time></trkpt><trkpt lat="48.52195626150542" lon="7.559893201208472"><ele>163.0</ele><time>2026-04-30T10:42:14.995Z</time></trkpt><trkpt lat="48.521956089858264" lon="7.5596942191281"><ele>163.0</ele><time>2026-04-30T10:42:15.995Z</time></trkpt><trkpt lat="48.52191828588223" lon="7.559479274975426"><ele>163.0</ele><time>2026-04-30T10:42:16.995Z</time></trkpt><trkpt lat="48.52188936076316" lon="7.559228595465375"><ele>163.0</ele><time>2026-04-30T10:42:17.995Z</time></trkpt><trkpt lat="48.52187273601121" lon="7.558915301326626"><ele>163.0</ele><time>2026-04-30T10:42:18.995Z</time></trkpt><trkpt lat="48.52186043443136" lon="7.5585587167607065"><ele>163.0</ele><time>2026-04-30T10:42:19.995Z</time></trkpt><trkpt lat="48.52184407207247" lon="7.558205006955881"><ele>163.0</ele><time>2026-04-30T10:42:20.995Z</time></trkpt><trkpt lat="48.52182824278238" lon="7.557850473195861"><ele>163.0</ele><time>2026-04-30T10:42:21.995Z</time></trkpt><trkpt lat="48.521812447200034" lon="7.557478939343056"><ele>163.0</ele><time>2026-04-30T10:42:22.995Z</time></trkpt><trkpt lat="48.521796127261496" lon="7.557089981869742"><ele>163.0</ele><time>2026-04-30T10:42:23.995Z</time></trkpt><trkpt lat="48.52177948063681" lon="7.556713139397949"><ele>163.0</ele><time>2026-04-30T10:42:24.995Z</time></trkpt><trkpt lat="48.521766728337994" lon="7.556358729994946"><ele>163.0</ele><time>2026-04-30T10:42:25.995Z</time></trkpt><trkpt lat="48.521752728783724" lon="7.5560094491307135"><ele>163.5</ele><time>2026-04-30T10:42:26.995Z</time></trkpt><trkpt lat="48.52173712488353" lon="7.555667221977075"><ele>164.0</ele><time>2026-04-30T10:42:27.995Z</time></trkpt><trkpt lat="48.521721926972326" lon="7.5553291350787894"><ele>164.0</ele><time>2026-04-30T10:42:28.995Z</time></trkpt><trkpt lat="48.52170993726222" lon="7.554986908604358"><ele>164.0</ele><time>2026-04-30T10:42:29.995Z</time></trkpt><trkpt lat="48.521696678136834" lon="7.554639891366691"><ele>163.5</ele><time>2026-04-30T10:42:30.995Z</time></trkpt><trkpt lat="48.52168314878102" lon="7.554298855409444"><ele>163.0</ele><time>2026-04-30T10:42:31.995Z</time></trkpt><trkpt lat="48.521671115072564" lon="7.553951247093593"><ele>163.5</ele><time>2026-04-30T10:42:32.995Z</time></trkpt><trkpt lat="48.521656124775035" lon="7.553611297473791"><ele>164.0</ele><time>2026-04-30T10:42:33.995Z</time></trkpt><trkpt lat="48.52163995879059" lon="7.553262559088834"><ele>164.0</ele><time>2026-04-30T10:42:34.995Z</time></trkpt><trkpt lat="48.521626173134166" lon="7.5529117868561935"><ele>164.0</ele><time>2026-04-30T10:42:35.995Z</time></trkpt><trkpt lat="48.52161340939005" lon="7.552564115280462"><ele>164.0</ele><time>2026-04-30T10:42:36.995Z</time></trkpt><trkpt lat="48.521599047099485" lon="7.552212895906654"><ele>164.0</ele><time>2026-04-30T10:42:37.995Z</time></trkpt><trkpt lat="48.521586047156696" lon="7.551860936176399"><ele>164.0</ele><time>2026-04-30T10:42:38.995Z</time></trkpt><trkpt lat="48.521571795450335" lon="7.551512516176255"><ele>164.0</ele><time>2026-04-30T10:42:39.995Z</time></trkpt><trkpt lat="48.52155525911509" lon="7.551165439231091"><ele>164.5</ele><time>2026-04-30T10:42:40.995Z</time></trkpt><trkpt lat="48.52153673539339" lon="7.55082313395337"><ele>165.0</ele><time>2026-04-30T10:42:41.995Z</time></trkpt><trkpt lat="48.52152385182422" lon="7.550482788489693"><ele>165.0</ele><time>2026-04-30T10:42:42.995Z</time></trkpt><trkpt lat="48.521510238001035" lon="7.550143573860152"><ele>165.0</ele><time>2026-04-30T10:42:43.995Z</time></trkpt><trkpt lat="48.52149774363308" lon="7.549798659484432"><ele>165.0</ele><time>2026-04-30T10:42:44.995Z</time></trkpt><trkpt lat="48.521484863407814" lon="7.549438054887639"><ele>165.0</ele><time>2026-04-30T10:42:45.995Z</time></trkpt><trkpt lat="48.521472513550684" lon="7.5490625907646125"><ele>164.5</ele><time>2026-04-30T10:42:46.995Z</time></trkpt><trkpt lat="48.52145646984013" lon="7.548673034287226"><ele>164.0</ele><time>2026-04-30T10:42:47.995Z</time></trkpt><trkpt lat="48.52144123414721" lon="7.5482916552364445"><ele>164.0</ele><time>2026-04-30T10:42:48.995Z</time></trkpt><trkpt lat="48.52142422356958" lon="7.547935601056701"><ele>164.0</ele><time>2026-04-30T10:42:49.995Z</time></trkpt><trkpt lat="48.52140969529297" lon="7.54761568100519"><ele>164.0</ele><time>2026-04-30T10:42:50.995Z</time></trkpt><trkpt lat="48.52139785610354" lon="7.547319732228841"><ele>164.66666666666666</ele><time>2026-04-30T10:42:51.995Z</time></trkpt><trkpt lat="48.52138585453309" lon="7.547023610055721"><ele>165.33333333333334</ele><time>2026-04-30T10:42:52.995Z</time></trkpt><trkpt lat="48.52137345593151" lon="7.5467208014884495"><ele>166.0</ele><time>2026-04-30T10:42:53.995Z</time></trkpt><trkpt lat="48.52136347090539" lon="7.546414452891061"><ele>166.0</ele><time>2026-04-30T10:42:54.995Z</time></trkpt><trkpt lat="48.52134783963267" lon="7.5461238604979"><ele>166.0</ele><time>2026-04-30T10:42:55.995Z</time></trkpt><trkpt lat="48.52133451127458" lon="7.545843272826007"><ele>166.0</ele><time>2026-04-30T10:42:56.995Z</time></trkpt><trkpt lat="48.52132502423872" lon="7.545555802653227"><ele>166.33333333333334</ele><time>2026-04-30T10:42:57.995Z</time></trkpt><trkpt lat="48.52131319681668" lon="7.5452490867055015"><ele>166.66666666666666</ele><time>2026-04-30T10:42:58.995Z</time></trkpt><trkpt lat="48.52129786957825" lon="7.544926792698665"><ele>167.0</ele><time>2026-04-30T10:42:59.995Z</time></trkpt><trkpt lat="48.521277629477844" lon="7.544582533648576"><ele>166.0</ele><time>2026-04-30T10:43:00.995Z</time></trkpt><trkpt lat="48.52126151992433" lon="7.544212990071902"><ele>165.0</ele><time>2026-04-30T10:43:01.995Z</time></trkpt><trkpt lat="48.52124867848309" lon="7.543827844669271"><ele>165.0</ele><time>2026-04-30T10:43:02.995Z</time></trkpt><trkpt lat="48.52123633918388" lon="7.543437036170662"><ele>165.0</ele><time>2026-04-30T10:43:03.995Z</time></trkpt><trkpt lat="48.52122307880943" lon="7.543056474671091"><ele>166.0</ele><time>2026-04-30T10:43:04.995Z</time></trkpt><trkpt lat="48.5212133403494" lon="7.542682238628588"><ele>167.0</ele><time>2026-04-30T10:43:05.995Z</time></trkpt><trkpt lat="48.52120089422452" lon="7.5423030108807225"><ele>167.0</ele><time>2026-04-30T10:43:06.995Z</time></trkpt><trkpt lat="48.52118644954605" lon="7.5419220541408505"><ele>167.0</ele><time>2026-04-30T10:43:07.995Z</time></trkpt><trkpt lat="48.52117104241861" lon="7.541540538160175"><ele>167.5</ele><time>2026-04-30T10:43:08.995Z</time></trkpt><trkpt lat="48.521153635720005" lon="7.541158278990994"><ele>168.0</ele><time>2026-04-30T10:43:09.995Z</time></trkpt><trkpt lat="48.52113796260284" lon="7.540782945618779"><ele>168.0</ele><time>2026-04-30T10:43:10.995Z</time></trkpt><trkpt lat="48.52112371352382" lon="7.540417168718714"><ele>168.0</ele><time>2026-04-30T10:43:11.995Z</time></trkpt><trkpt lat="48.52110858935199" lon="7.5400504568476725"><ele>167.5</ele><time>2026-04-30T10:43:12.995Z</time></trkpt><trkpt lat="48.52109252370285" lon="7.539686293055347"><ele>167.0</ele><time>2026-04-30T10:43:13.995Z</time></trkpt><trkpt lat="48.5210757601762" lon="7.539323389086833"><ele>167.0</ele><time>2026-04-30T10:43:14.995Z</time></trkpt><trkpt lat="48.521060454906426" lon="7.538965216329462"><ele>167.0</ele><time>2026-04-30T10:43:15.995Z</time></trkpt><trkpt lat="48.52104779602936" lon="7.538610885142985"><ele>166.5</ele><time>2026-04-30T10:43:16.995Z</time></trkpt><trkpt lat="48.52103284008158" lon="7.538257628766112"><ele>166.0</ele><time>2026-04-30T10:43:17.995Z</time></trkpt><trkpt lat="48.52101914696412" lon="7.537904673768597"><ele>166.0</ele><time>2026-04-30T10:43:18.995Z</time></trkpt><trkpt lat="48.52100275447149" lon="7.537545692806981"><ele>166.0</ele><time>2026-04-30T10:43:19.995Z</time></trkpt><trkpt lat="48.5209855621539" lon="7.537187709870375"><ele>166.66666666666669</ele><time>2026-04-30T10:43:20.994Z</time></trkpt><trkpt lat="48.52096903366949" lon="7.53683634450015"><ele>167.33333333333334</ele><time>2026-04-30T10:43:21.994Z</time></trkpt><trkpt lat="48.52095689165979" lon="7.536512756627568"><ele>168.0</ele><time>2026-04-30T10:43:22.994Z</time></trkpt><trkpt lat="48.52094039390941" lon="7.536184670173615"><ele>168.0</ele><time>2026-04-30T10:43:23.994Z</time></trkpt><trkpt lat="48.52092967291046" lon="7.535850713700909"><ele>168.0</ele><time>2026-04-30T10:43:24.994Z</time></trkpt><trkpt lat="48.520916804354144" lon="7.535507060597255"><ele>168.0</ele><time>2026-04-30T10:43:25.994Z</time></trkpt><trkpt lat="48.52090600595719" lon="7.535153165768237"><ele>167.5</ele><time>2026-04-30T10:43:26.994Z</time></trkpt><trkpt lat="48.52089218383455" lon="7.534792489602185"><ele>167.0</ele><time>2026-04-30T10:43:27.994Z</time></trkpt><trkpt lat="48.52087545392738" lon="7.5344361041591394"><ele>167.0</ele><time>2026-04-30T10:43:28.994Z</time></trkpt><trkpt lat="48.52085701960868" lon="7.534092543538013"><ele>167.0</ele><time>2026-04-30T10:43:29.994Z</time></trkpt><trkpt lat="48.520844379760774" lon="7.533761405938727"><ele>167.0</ele><time>2026-04-30T10:43:30.994Z</time></trkpt><trkpt lat="48.52084680178306" lon="7.533448451974947"><ele>167.0</ele><time>2026-04-30T10:43:31.994Z</time></trkpt><trkpt lat="48.520835632150494" lon="7.5331622689397095"><ele>167.0</ele><time>2026-04-30T10:43:32.994Z</time></trkpt><trkpt lat="48.52082521347898" lon="7.532895326608344"><ele>167.0</ele><time>2026-04-30T10:43:33.994Z</time></trkpt><trkpt lat="48.52079957787397" lon="7.532647169595512"><ele>167.5</ele><time>2026-04-30T10:43:34.994Z</time></trkpt><trkpt lat="48.52079328235391" lon="7.53241569094485"><ele>168.0</ele><time>2026-04-30T10:43:35.994Z</time></trkpt><trkpt lat="48.520785040273225" lon="7.532203532577242"><ele>168.5</ele><time>2026-04-30T10:43:36.994Z</time></trkpt><trkpt lat="48.52078167120482" lon="7.532007499355277"><ele>169.0</ele><time>2026-04-30T10:43:37.994Z</time></trkpt><trkpt lat="48.52077454574596" lon="7.5318222697877655"><ele>169.0</ele><time>2026-04-30T10:43:38.994Z</time></trkpt><trkpt lat="48.520769803197375" lon="7.53164238966403"><ele>169.0</ele><time>2026-04-30T10:43:39.994Z</time></trkpt><trkpt lat="48.520770508563075" lon="7.5314582919494635"><ele>169.0</ele><time>2026-04-30T10:43:40.994Z</time></trkpt><trkpt lat="48.52076173362029" lon="7.531268460553082"><ele>169.0</ele><time>2026-04-30T10:43:41.994Z</time></trkpt><trkpt lat="48.5207502417976" lon="7.531076949898749"><ele>169.75</ele><time>2026-04-30T10:43:42.994Z</time></trkpt><trkpt lat="48.52074154174835" lon="7.53088538459742"><ele>170.5</ele><time>2026-04-30T10:43:43.994Z</time></trkpt><trkpt lat="48.52073494647541" lon="7.530707208558735"><ele>171.25</ele><time>2026-04-30T10:43:44.996Z</time></trkpt><trkpt lat="48.52072847703094" lon="7.5305339083264"><ele>172.0</ele><time>2026-04-30T10:43:45.996Z</time></trkpt><trkpt lat="48.52072122610539" lon="7.530361665666619"><ele>172.2</ele><time>2026-04-30T10:43:46.996Z</time></trkpt><trkpt lat="48.5207140144346" lon="7.530192015530497"><ele>172.39999999999998</ele><time>2026-04-30T10:43:47.995Z</time></trkpt><trkpt lat="48.520707019196486" lon="7.530029973831043"><ele>172.60000000000002</ele><time>2026-04-30T10:43:48.996Z</time></trkpt><trkpt lat="48.52069831013557" lon="7.529873387705827"><ele>172.8</ele><time>2026-04-30T10:43:49.996Z</time></trkpt><trkpt lat="48.52068826043467" lon="7.529714623027523"><ele>173.0</ele><time>2026-04-30T10:43:50.996Z</time></trkpt><trkpt lat="48.52067725634781" lon="7.529564856113936"><ele>172.8</ele><time>2026-04-30T10:43:51.995Z</time></trkpt><trkpt lat="48.520667092632515" lon="7.529421415210595"><ele>172.60000000000002</ele><time>2026-04-30T10:43:52.995Z</time></trkpt><trkpt lat="48.520661180245874" lon="7.5292949031788"><ele>172.39999999999998</ele><time>2026-04-30T10:43:53.996Z</time></trkpt><trkpt lat="48.520652788013955" lon="7.529161195637336"><ele>172.2</ele><time>2026-04-30T10:43:54.996Z</time></trkpt><trkpt lat="48.520673525171226" lon="7.529032617434281"><ele>172.0</ele><time>2026-04-30T10:43:55.996Z</time></trkpt><trkpt lat="48.52066285550202" lon="7.528881998731331"><ele>172.0</ele><time>2026-04-30T10:43:56.996Z</time></trkpt><trkpt lat="48.52065267309645" lon="7.528729330161439"><ele>172.0</ele><time>2026-04-30T10:43:57.996Z</time></trkpt><trkpt lat="48.52064290029557" lon="7.528572028668556"><ele>172.0</ele><time>2026-04-30T10:43:58.996Z</time></trkpt><trkpt lat="48.52063932798455" lon="7.52839989715169"><ele>172.0</ele><time>2026-04-30T10:43:59.996Z</time></trkpt><trkpt lat="48.52063508639713" lon="7.528223224277214"><ele>172.0</ele><time>2026-04-30T10:44:00.996Z</time></trkpt><trkpt lat="48.52062843914514" lon="7.5280353088047764"><ele>172.5</ele><time>2026-04-30T10:44:01.996Z</time></trkpt><trkpt lat="48.520622144285156" lon="7.527846793630697"><ele>173.0</ele><time>2026-04-30T10:44:02.996Z</time></trkpt><trkpt lat="48.52061287664847" lon="7.527651464870069"><ele>173.5</ele><time>2026-04-30T10:44:03.996Z</time></trkpt><trkpt lat="48.5206087621682" lon="7.527460026750364"><ele>174.0</ele><time>2026-04-30T10:44:04.996Z</time></trkpt><trkpt lat="48.52059509108717" lon="7.52728819270368"><ele>174.0</ele><time>2026-04-30T10:44:05.996Z</time></trkpt><trkpt lat="48.52058853976478" lon="7.527129329206744"><ele>174.0</ele><time>2026-04-30T10:44:06.996Z</time></trkpt><trkpt lat="48.52058311994042" lon="7.52697200118276"><ele>174.0</ele><time>2026-04-30T10:44:07.996Z</time></trkpt><trkpt lat="48.52057308949088" lon="7.526813257181564"><ele>174.0</ele><time>2026-04-30T10:44:08.996Z</time></trkpt><trkpt lat="48.52056661817898" lon="7.526652089702051"><ele>174.0</ele><time>2026-04-30T10:44:09.996Z</time></trkpt><trkpt lat="48.520565617262754" lon="7.526482256923565"><ele>173.75</ele><time>2026-04-30T10:44:10.996Z</time></trkpt><trkpt lat="48.52057235884918" lon="7.526303553792825"><ele>173.5</ele><time>2026-04-30T10:44:11.996Z</time></trkpt><trkpt lat="48.52059560942299" lon="7.526130121751992"><ele>173.25</ele><time>2026-04-30T10:44:12.996Z</time></trkpt><trkpt lat="48.520621119656845" lon="7.5259581706635705"><ele>173.0</ele><time>2026-04-30T10:44:13.996Z</time></trkpt><trkpt lat="48.52064169877456" lon="7.525785037351469"><ele>173.0</ele><time>2026-04-30T10:44:14.996Z</time></trkpt><trkpt lat="48.52066107995058" lon="7.525605177774515"><ele>173.0</ele><time>2026-04-30T10:44:15.996Z</time></trkpt><trkpt lat="48.52067962910205" lon="7.525420149765823"><ele>173.0</ele><time>2026-04-30T10:44:16.996Z</time></trkpt><trkpt lat="48.52069127061781" lon="7.525236637359424"><ele>173.0</ele><time>2026-04-30T10:44:17.996Z</time></trkpt><trkpt lat="48.520704465772894" lon="7.525061032267997"><ele>172.75</ele><time>2026-04-30T10:44:18.996Z</time></trkpt><trkpt lat="48.52072326814009" lon="7.524882446195735"><ele>172.5</ele><time>2026-04-30T10:44:19.996Z</time></trkpt><trkpt lat="48.52074563172231" lon="7.524706875161588"><ele>172.25</ele><time>2026-04-30T10:44:20.996Z</time></trkpt><trkpt lat="48.52080057386712" lon="7.524548947633367"><ele>172.0</ele><time>2026-04-30T10:44:21.996Z</time></trkpt><trkpt lat="48.520821155356636" lon="7.524361751178843"><ele>172.0</ele><time>2026-04-30T10:44:22.996Z</time></trkpt><trkpt lat="48.52083738449688" lon="7.52417151351369"><ele>172.0</ele><time>2026-04-30T10:44:23.996Z</time></trkpt><trkpt lat="48.52085858775575" lon="7.523982104130219"><ele>172.0</ele><time>2026-04-30T10:44:24.996Z</time></trkpt><trkpt lat="48.52087794423519" lon="7.52379252117145"><ele>172.0</ele><time>2026-04-30T10:44:25.996Z</time></trkpt><trkpt lat="48.52089852948511" lon="7.523599620183166"><ele>172.0</ele><time>2026-04-30T10:44:26.996Z</time></trkpt><trkpt lat="48.52091615070861" lon="7.523402353448825"><ele>172.0</ele><time>2026-04-30T10:44:27.995Z</time></trkpt><trkpt lat="48.520933288361945" lon="7.5232026249987864"><ele>172.0</ele><time>2026-04-30T10:44:28.995Z</time></trkpt><trkpt lat="48.52095257302259" lon="7.523003387276448"><ele>172.0</ele><time>2026-04-30T10:44:29.995Z</time></trkpt><trkpt lat="48.52097217505031" lon="7.522797560661584"><ele>171.75</ele><time>2026-04-30T10:44:30.995Z</time></trkpt><trkpt lat="48.520989933395" lon="7.522587158831853"><ele>171.5</ele><time>2026-04-30T10:44:31.995Z</time></trkpt><trkpt lat="48.52101095061482" lon="7.522378578834438"><ele>171.25</ele><time>2026-04-30T10:44:32.995Z</time></trkpt><trkpt lat="48.521036906337976" lon="7.522184366967613"><ele>171.0</ele><time>2026-04-30T10:44:33.995Z</time></trkpt><trkpt lat="48.5210583777484" lon="7.521975935100879"><ele>171.0</ele><time>2026-04-30T10:44:34.995Z</time></trkpt><trkpt lat="48.52107406310447" lon="7.5217618269613515"><ele>171.0</ele><time>2026-04-30T10:44:35.995Z</time></trkpt><trkpt lat="48.52108778814794" lon="7.521545519165968"><ele>171.0</ele><time>2026-04-30T10:44:36.995Z</time></trkpt><trkpt lat="48.521114847018865" lon="7.521332131648889"><ele>171.0</ele><time>2026-04-30T10:44:37.995Z</time></trkpt><trkpt lat="48.52114447046998" lon="7.521131524578508"><ele>171.25</ele><time>2026-04-30T10:44:38.995Z</time></trkpt><trkpt lat="48.521168854570114" lon="7.52092617855722"><ele>171.5</ele><time>2026-04-30T10:44:39.995Z</time></trkpt><trkpt lat="48.52119818670489" lon="7.520717639205118"><ele>171.75</ele><time>2026-04-30T10:44:40.995Z</time></trkpt><trkpt lat="48.521222295817246" lon="7.52049738748547"><ele>172.0</ele><time>2026-04-30T10:44:41.995Z</time></trkpt><trkpt lat="48.52125073281485" lon="7.52026894637384"><ele>172.33333333333334</ele><time>2026-04-30T10:44:42.995Z</time></trkpt><trkpt lat="48.521278634804716" lon="7.520016139056832"><ele>172.66666666666666</ele><time>2026-04-30T10:44:43.995Z</time></trkpt><trkpt lat="48.52130599521387" lon="7.519755425485836"><ele>173.0</ele><time>2026-04-30T10:44:44.995Z</time></trkpt><trkpt lat="48.52133293957326" lon="7.519475567403254"><ele>172.33333333333331</ele><time>2026-04-30T10:44:45.995Z</time></trkpt><trkpt lat="48.521360524600716" lon="7.519178541444918"><ele>171.66666666666666</ele><time>2026-04-30T10:44:46.995Z</time></trkpt><trkpt lat="48.52141077007906" lon="7.518857934772409"><ele>171.0</ele><time>2026-04-30T10:44:47.995Z</time></trkpt><trkpt lat="48.52144947041544" lon="7.518504371828259"><ele>171.0</ele><time>2026-04-30T10:44:48.995Z</time></trkpt><trkpt lat="48.521492601550136" lon="7.518125158528555"><ele>171.0</ele><time>2026-04-30T10:44:49.995Z</time></trkpt><trkpt lat="48.521536681500116" lon="7.517737603349873"><ele>171.5</ele><time>2026-04-30T10:44:50.995Z</time></trkpt><trkpt lat="48.52157924762003" lon="7.517344331658881"><ele>172.0</ele><time>2026-04-30T10:44:51.995Z</time></trkpt><trkpt lat="48.52161473502101" lon="7.516933270629462"><ele>172.0</ele><time>2026-04-30T10:44:52.994Z</time></trkpt><trkpt lat="48.52166457867267" lon="7.516533619544915"><ele>172.0</ele><time>2026-04-30T10:44:53.994Z</time></trkpt><trkpt lat="48.5217081844222" lon="7.516150148546667"><ele>172.0</ele><time>2026-04-30T10:44:54.994Z</time></trkpt><trkpt lat="48.52174699035331" lon="7.515772409646581"><ele>172.0</ele><time>2026-04-30T10:44:55.994Z</time></trkpt><trkpt lat="48.52178683695347" lon="7.515405465013607"><ele>172.0</ele><time>2026-04-30T10:44:56.994Z</time></trkpt><trkpt lat="48.52182954841699" lon="7.515043140426217"><ele>172.0</ele><time>2026-04-30T10:44:57.994Z</time></trkpt><trkpt lat="48.521869454093704" lon="7.514688244924625"><ele>172.0</ele><time>2026-04-30T10:44:58.993Z</time></trkpt><trkpt lat="48.521908340289386" lon="7.514340634962414"><ele>172.0</ele><time>2026-04-30T10:44:59.993Z</time></trkpt><trkpt lat="48.521946023445174" lon="7.513991521975493"><ele>172.5</ele><time>2026-04-30T10:45:00.993Z</time></trkpt><trkpt lat="48.52198329367116" lon="7.513640576513721"><ele>173.0</ele><time>2026-04-30T10:45:01.993Z</time></trkpt><trkpt lat="48.52202445355425" lon="7.513301175512704"><ele>173.0</ele><time>2026-04-30T10:45:02.993Z</time></trkpt><trkpt lat="48.52206115045407" lon="7.5129660019968725"><ele>173.0</ele><time>2026-04-30T10:45:03.993Z</time></trkpt><trkpt lat="48.5220922426303" lon="7.512649142124803"><ele>173.0</ele><time>2026-04-30T10:45:04.993Z</time></trkpt><trkpt lat="48.5221259885485" lon="7.512340593672384"><ele>172.66666666666666</ele><time>2026-04-30T10:45:05.993Z</time></trkpt><trkpt lat="48.52216467424046" lon="7.512033395671216"><ele>172.33333333333334</ele><time>2026-04-30T10:45:06.993Z</time></trkpt><trkpt lat="48.52219989245112" lon="7.511714189863733"><ele>172.0</ele><time>2026-04-30T10:45:07.993Z</time></trkpt><trkpt lat="48.52223271833047" lon="7.51139788814542"><ele>172.0</ele><time>2026-04-30T10:45:08.992Z</time></trkpt><trkpt lat="48.52226570861949" lon="7.511085496590821"><ele>172.0</ele><time>2026-04-30T10:45:09.992Z</time></trkpt><trkpt lat="48.522300525270865" lon="7.5107828727393375"><ele>172.0</ele><time>2026-04-30T10:45:10.992Z</time></trkpt><trkpt lat="48.52233196867719" lon="7.5104768190158735"><ele>172.33333333333334</ele><time>2026-04-30T10:45:11.992Z</time></trkpt><trkpt lat="48.52236203327028" lon="7.510173006837584"><ele>172.66666666666666</ele><time>2026-04-30T10:45:12.992Z</time></trkpt><trkpt lat="48.522395091401314" lon="7.509870131948154"><ele>173.0</ele><time>2026-04-30T10:45:13.992Z</time></trkpt><trkpt lat="48.5224291698952" lon="7.509574745959606"><ele>173.0</ele><time>2026-04-30T10:45:14.992Z</time></trkpt><trkpt lat="48.52246057051158" lon="7.5092749416331745"><ele>173.0</ele><time>2026-04-30T10:45:15.992Z</time></trkpt><trkpt lat="48.52249550938196" lon="7.508979111166544"><ele>173.0</ele><time>2026-04-30T10:45:16.992Z</time></trkpt><trkpt lat="48.52252979189584" lon="7.508677470872684"><ele>173.0</ele><time>2026-04-30T10:45:17.992Z</time></trkpt><trkpt lat="48.52256389468885" lon="7.508379832352679"><ele>173.0</ele><time>2026-04-30T10:45:18.992Z</time></trkpt><trkpt lat="48.52259597093961" lon="7.508081515295296"><ele>173.0</ele><time>2026-04-30T10:45:19.992Z</time></trkpt><trkpt lat="48.52262656890356" lon="7.5077900495224945"><ele>173.0</ele><time>2026-04-30T10:45:20.992Z</time></trkpt><trkpt lat="48.522655188403625" lon="7.507510020532857"><ele>173.0</ele><time>2026-04-30T10:45:21.992Z</time></trkpt><trkpt lat="48.52268404625108" lon="7.507233075791065"><ele>173.0</ele><time>2026-04-30T10:45:22.992Z</time></trkpt><trkpt lat="48.52271086778713" lon="7.506969187974172"><ele>173.0</ele><time>2026-04-30T10:45:23.992Z</time></trkpt><trkpt lat="48.52274008432285" lon="7.506715681219677"><ele>173.0</ele><time>2026-04-30T10:45:24.992Z</time></trkpt><trkpt lat="48.522766087999635" lon="7.506478754881068"><ele>173.0</ele><time>2026-04-30T10:45:25.992Z</time></trkpt><trkpt lat="48.522791810450286" lon="7.506245444550262"><ele>173.25</ele><time>2026-04-30T10:45:26.992Z</time></trkpt><trkpt lat="48.52281773149323" lon="7.506036795319671"><ele>173.5</ele><time>2026-04-30T10:45:27.992Z</time></trkpt><trkpt lat="48.52284178971612" lon="7.505842012022174"><ele>173.75</ele><time>2026-04-30T10:45:28.991Z</time></trkpt><trkpt lat="48.522867553331906" lon="7.505657439481694"><ele>174.0</ele><time>2026-04-30T10:45:29.991Z</time></trkpt><trkpt lat="48.522896226902326" lon="7.505486487755779"><ele>174.25</ele><time>2026-04-30T10:45:30.991Z</time></trkpt><trkpt lat="48.5229287001325" lon="7.505307641840788"><ele>174.5</ele><time>2026-04-30T10:45:31.991Z</time></trkpt><trkpt lat="48.522961762585005" lon="7.5051139943572105"><ele>174.75</ele><time>2026-04-30T10:45:32.991Z</time></trkpt><trkpt lat="48.522996397960135" lon="7.504933800221497"><ele>175.0</ele><time>2026-04-30T10:45:33.991Z</time></trkpt><trkpt lat="48.52303691963183" lon="7.504773324715174"><ele>175.0</ele><time>2026-04-30T10:45:34.991Z</time></trkpt><trkpt lat="48.52308629844097" lon="7.50464153664871"><ele>175.0</ele><time>2026-04-30T10:45:35.991Z</time></trkpt><trkpt lat="48.52315699058174" lon="7.50453157883172"><ele>175.0</ele><time>2026-04-30T10:45:36.991Z</time></trkpt><trkpt lat="48.52322374470644" lon="7.5044387602593146"><ele>175.0</ele><time>2026-04-30T10:45:37.991Z</time></trkpt><trkpt lat="48.523276264595054" lon="7.50432829998773"><ele>175.0</ele><time>2026-04-30T10:45:38.991Z</time></trkpt><trkpt lat="48.52330799484657" lon="7.504210061016416"><ele>175.2</ele><time>2026-04-30T10:45:39.991Z</time></trkpt><trkpt lat="48.52330923543856" lon="7.504088063332518"><ele>175.4</ele><time>2026-04-30T10:45:40.991Z</time></trkpt><trkpt lat="48.52328146033969" lon="7.503959669587987"><ele>175.60000000000002</ele><time>2026-04-30T10:45:41.991Z</time></trkpt><trkpt lat="48.52322964766268" lon="7.503834642449276"><ele>175.8</ele><time>2026-04-30T10:45:42.991Z</time></trkpt><trkpt lat="48.523180924686535" lon="7.503692941624665"><ele>176.0</ele><time>2026-04-30T10:45:43.991Z</time></trkpt><trkpt lat="48.52314835092117" lon="7.503512456204117"><ele>176.0</ele><time>2026-04-30T10:45:44.991Z</time></trkpt><trkpt lat="48.523148244981" lon="7.503330237416396"><ele>176.0</ele><time>2026-04-30T10:45:45.991Z</time></trkpt><trkpt lat="48.523180926736345" lon="7.503108449569625"><ele>176.0</ele><time>2026-04-30T10:45:46.991Z</time></trkpt><trkpt lat="48.523219804528736" lon="7.502837857815819"><ele>176.0</ele><time>2026-04-30T10:45:47.991Z</time></trkpt><trkpt lat="48.52326248352986" lon="7.502536258756598"><ele>176.0</ele><time>2026-04-30T10:45:48.991Z</time></trkpt><trkpt lat="48.52329823099612" lon="7.502194091981392"><ele>176.0</ele><time>2026-04-30T10:45:49.991Z</time></trkpt><trkpt lat="48.52333170611965" lon="7.501850486559589"><ele>176.0</ele><time>2026-04-30T10:45:50.993Z</time></trkpt><trkpt lat="48.52336839296859" lon="7.501520368789949"><ele>176.0</ele><time>2026-04-30T10:45:51.992Z</time></trkpt><trkpt lat="48.52341140175206" lon="7.501190774851097"><ele>176.0</ele><time>2026-04-30T10:45:52.992Z</time></trkpt><trkpt lat="48.52345702195565" lon="7.500863786542252"><ele>176.0</ele><time>2026-04-30T10:45:53.993Z</time></trkpt><trkpt lat="48.52349267608037" lon="7.500554559623152"><ele>176.0</ele><time>2026-04-30T10:45:54.992Z</time></trkpt><trkpt lat="48.5235263657392" lon="7.500263933049144"><ele>176.0</ele><time>2026-04-30T10:45:55.992Z</time></trkpt><trkpt lat="48.52355923235997" lon="7.499976860804905"><ele>176.0</ele><time>2026-04-30T10:45:56.993Z</time></trkpt><trkpt lat="48.52358772035182" lon="7.499711929534712"><ele>176.0</ele><time>2026-04-30T10:45:57.992Z</time></trkpt><trkpt lat="48.523615495765455" lon="7.499463965174855"><ele>176.0</ele><time>2026-04-30T10:45:58.992Z</time></trkpt><trkpt lat="48.52364035420999" lon="7.4992288457639775"><ele>176.0</ele><time>2026-04-30T10:45:59.992Z</time></trkpt><trkpt lat="48.52366398501126" lon="7.4990107108990465"><ele>176.0</ele><time>2026-04-30T10:46:00.992Z</time></trkpt><trkpt lat="48.52368772935392" lon="7.498800441852209"><ele>176.0</ele><time>2026-04-30T10:46:01.992Z</time></trkpt><trkpt lat="48.523711167058075" lon="7.498610618624752"><ele>176.0</ele><time>2026-04-30T10:46:02.992Z</time></trkpt><trkpt lat="48.52373957540923" lon="7.498442041917228"><ele>176.20000000000002</ele><time>2026-04-30T10:46:03.992Z</time></trkpt><trkpt lat="48.52378692086482" lon="7.498298622741167"><ele>176.4</ele><time>2026-04-30T10:46:04.992Z</time></trkpt><trkpt lat="48.52384322818673" lon="7.498192080894486"><ele>176.6</ele><time>2026-04-30T10:46:05.992Z</time></trkpt><trkpt lat="48.52390023112308" lon="7.498096951912082"><ele>176.8</ele><time>2026-04-30T10:46:06.992Z</time></trkpt><trkpt lat="48.523921970109036" lon="7.497972829500089"><ele>177.0</ele><time>2026-04-30T10:46:07.992Z</time></trkpt><trkpt lat="48.52390840312054" lon="7.497842206549251"><ele>177.2</ele><time>2026-04-30T10:46:08.992Z</time></trkpt><trkpt lat="48.5238577948493" lon="7.4977367714400485"><ele>177.39999999999998</ele><time>2026-04-30T10:46:09.992Z</time></trkpt><trkpt lat="48.52376400556187" lon="7.497661496486674"><ele>177.60000000000002</ele><time>2026-04-30T10:46:10.992Z</time></trkpt><trkpt lat="48.523659511034744" lon="7.497649872762381"><ele>177.8</ele><time>2026-04-30T10:46:11.992Z</time></trkpt><trkpt lat="48.52355432803181" lon="7.497688679984424"><ele>178.0</ele><time>2026-04-30T10:46:12.992Z</time></trkpt><trkpt lat="48.52341414075235" lon="7.497731906486223"><ele>178.0</ele><time>2026-04-30T10:46:13.992Z</time></trkpt><trkpt lat="48.52323302773142" lon="7.497729367394106"><ele>178.0</ele><time>2026-04-30T10:46:14.992Z</time></trkpt><trkpt lat="48.52302324514016" lon="7.497708387583507"><ele>178.0</ele><time>2026-04-30T10:46:15.992Z</time></trkpt><trkpt lat="48.522795553849676" lon="7.4976626353421825"><ele>177.0</ele><time>2026-04-30T10:46:16.992Z</time></trkpt><trkpt lat="48.52255356905042" lon="7.497620734263931"><ele>176.0</ele><time>2026-04-30T10:46:17.992Z</time></trkpt><trkpt lat="48.522325183798856" lon="7.49759533119737"><ele>176.0</ele><time>2026-04-30T10:46:18.992Z</time></trkpt><trkpt lat="48.522128531653756" lon="7.4975738225961015"><ele>176.0</ele><time>2026-04-30T10:46:19.992Z</time></trkpt><trkpt lat="48.52194931262143" lon="7.497557621427415"><ele>176.0</ele><time>2026-04-30T10:46:20.992Z</time></trkpt><trkpt lat="48.52178043092548" lon="7.497542545077928"><ele>176.33333333333331</ele><time>2026-04-30T10:46:21.992Z</time></trkpt><trkpt lat="48.521623411852545" lon="7.497519325242235"><ele>176.66666666666666</ele><time>2026-04-30T10:46:22.992Z</time></trkpt><trkpt lat="48.521481553691366" lon="7.49748473107535"><ele>177.0</ele><time>2026-04-30T10:46:23.992Z</time></trkpt><trkpt lat="48.52133682622298" lon="7.4974255071350795"><ele>177.75</ele><time>2026-04-30T10:46:24.992Z</time></trkpt><trkpt lat="48.52120991556943" lon="7.497321704788079"><ele>178.5</ele><time>2026-04-30T10:46:25.992Z</time></trkpt><trkpt lat="48.52110470878661" lon="7.497187267733766"><ele>179.25</ele><time>2026-04-30T10:46:26.992Z</time></trkpt><trkpt lat="48.521017837798205" lon="7.4970214588737125"><ele>180.0</ele><time>2026-04-30T10:46:27.992Z</time></trkpt><trkpt lat="48.52094798515612" lon="7.4968281980713165"><ele>180.25</ele><time>2026-04-30T10:46:28.992Z</time></trkpt><trkpt lat="48.52087602728326" lon="7.496637457092904"><ele>180.5</ele><time>2026-04-30T10:46:29.992Z</time></trkpt><trkpt lat="48.52079202286578" lon="7.49647135062872"><ele>180.75</ele><time>2026-04-30T10:46:30.992Z</time></trkpt><trkpt lat="48.520687607186524" lon="7.496336738011576"><ele>181.0</ele><time>2026-04-30T10:46:31.991Z</time></trkpt><trkpt lat="48.52056692833061" lon="7.496231094214579"><ele>180.5</ele><time>2026-04-30T10:46:32.991Z</time></trkpt><trkpt lat="48.52044071971474" lon="7.496138908068759"><ele>180.0</ele><time>2026-04-30T10:46:33.991Z</time></trkpt><trkpt lat="48.52030829269775" lon="7.496062658622777"><ele>179.5</ele><time>2026-04-30T10:46:34.991Z</time></trkpt><trkpt lat="48.52018223203013" lon="7.495961234630733"><ele>179.0</ele><time>2026-04-30T10:46:35.991Z</time></trkpt><trkpt lat="48.520075860910296" lon="7.495834539426341"><ele>180.0</ele><time>2026-04-30T10:46:36.991Z</time></trkpt><trkpt lat="48.51998970165506" lon="7.4956747702919655"><ele>181.0</ele><time>2026-04-30T10:46:37.991Z</time></trkpt><trkpt lat="48.51992782007308" lon="7.495491382583752"><ele>182.0</ele><time>2026-04-30T10:46:38.991Z</time></trkpt><trkpt lat="48.5198952528485" lon="7.495291171310814"><ele>183.0</ele><time>2026-04-30T10:46:39.991Z</time></trkpt><trkpt lat="48.51986737108585" lon="7.495060780207356"><ele>183.0</ele><time>2026-04-30T10:46:40.991Z</time></trkpt><trkpt lat="48.51982603533901" lon="7.494787203195258"><ele>183.0</ele><time>2026-04-30T10:46:41.991Z</time></trkpt><trkpt lat="48.51977509638501" lon="7.494471647654252"><ele>183.0</ele><time>2026-04-30T10:46:42.991Z</time></trkpt><trkpt lat="48.51972838954675" lon="7.494124024451272"><ele>182.5</ele><time>2026-04-30T10:46:43.991Z</time></trkpt><trkpt lat="48.5196937162859" lon="7.493741737026596"><ele>182.0</ele><time>2026-04-30T10:46:44.991Z</time></trkpt><trkpt lat="48.51966280594918" lon="7.493339468810037"><ele>182.0</ele><time>2026-04-30T10:46:45.991Z</time></trkpt><trkpt lat="48.519626975824835" lon="7.4929269025949665"><ele>182.0</ele><time>2026-04-30T10:46:46.991Z</time></trkpt><trkpt lat="48.519592347009024" lon="7.492515510590889"><ele>184.0</ele><time>2026-04-30T10:46:47.991Z</time></trkpt><trkpt lat="48.5195597947983" lon="7.49211349142746"><ele>186.0</ele><time>2026-04-30T10:46:48.991Z</time></trkpt><trkpt lat="48.5195274545695" lon="7.491721020353672"><ele>186.5</ele><time>2026-04-30T10:46:49.991Z</time></trkpt><trkpt lat="48.51949908957389" lon="7.49133811109226"><ele>187.0</ele><time>2026-04-30T10:46:50.991Z</time></trkpt><trkpt lat="48.51947373334431" lon="7.490968015768031"><ele>187.0</ele><time>2026-04-30T10:46:51.991Z</time></trkpt><trkpt lat="48.519442039738806" lon="7.490601758755024"><ele>187.0</ele><time>2026-04-30T10:46:52.991Z</time></trkpt><trkpt lat="48.51941018554202" lon="7.490236097555104"><ele>186.0</ele><time>2026-04-30T10:46:53.991Z</time></trkpt><trkpt lat="48.5193788783774" lon="7.489875083508897"><ele>185.0</ele><time>2026-04-30T10:46:54.991Z</time></trkpt><trkpt lat="48.51934913361872" lon="7.489507420080232"><ele>184.5</ele><time>2026-04-30T10:46:55.991Z</time></trkpt><trkpt lat="48.519317332555744" lon="7.489136226902865"><ele>184.0</ele><time>2026-04-30T10:46:56.991Z</time></trkpt><trkpt lat="48.51928493002595" lon="7.488769315452584"><ele>185.0</ele><time>2026-04-30T10:46:57.991Z</time></trkpt><trkpt lat="48.51925533619201" lon="7.48841319562364"><ele>186.0</ele><time>2026-04-30T10:46:58.991Z</time></trkpt><trkpt lat="48.51922646070237" lon="7.48807226910451"><ele>186.0</ele><time>2026-04-30T10:46:59.991Z</time></trkpt><trkpt lat="48.519199642700414" lon="7.48773658113075"><ele>186.0</ele><time>2026-04-30T10:47:00.991Z</time></trkpt><trkpt lat="48.51917334273252" lon="7.487403066166978"><ele>186.0</ele><time>2026-04-30T10:47:01.991Z</time></trkpt><trkpt lat="48.51914588033717" lon="7.48707515304175"><ele>186.33333333333334</ele><time>2026-04-30T10:47:02.991Z</time></trkpt><trkpt lat="48.519117140231444" lon="7.486756374436567"><ele>186.66666666666669</ele><time>2026-04-30T10:47:03.991Z</time></trkpt><trkpt lat="48.519088098040946" lon="7.486436070928932"><ele>187.0</ele><time>2026-04-30T10:47:04.991Z</time></trkpt><trkpt lat="48.51905921566046" lon="7.486122333764306"><ele>187.66666666666669</ele><time>2026-04-30T10:47:05.991Z</time></trkpt><trkpt lat="48.519029376894544" lon="7.4858137172090276"><ele>188.33333333333334</ele><time>2026-04-30T10:47:06.991Z</time></trkpt><trkpt lat="48.51899883029049" lon="7.485510388333441"><ele>189.0</ele><time>2026-04-30T10:47:07.991Z</time></trkpt><trkpt lat="48.518962563315256" lon="7.485204169258754"><ele>189.33333333333334</ele><time>2026-04-30T10:47:08.991Z</time></trkpt><trkpt lat="48.51891966797643" lon="7.484899196371313"><ele>189.66666666666669</ele><time>2026-04-30T10:47:09.991Z</time></trkpt><trkpt lat="48.51887491135286" lon="7.48458675070464"><ele>190.0</ele><time>2026-04-30T10:47:10.991Z</time></trkpt><trkpt lat="48.51882805830947" lon="7.484269795516224"><ele>189.0</ele><time>2026-04-30T10:47:11.991Z</time></trkpt><trkpt lat="48.51877954896628" lon="7.48394699710841"><ele>188.0</ele><time>2026-04-30T10:47:12.991Z</time></trkpt><trkpt lat="48.51873801933617" lon="7.483624348489542"><ele>187.0</ele><time>2026-04-30T10:47:13.991Z</time></trkpt><trkpt lat="48.518702231148204" lon="7.483292653277799"><ele>187.0</ele><time>2026-04-30T10:47:14.991Z</time></trkpt><trkpt lat="48.51866796904589" lon="7.482949917160318"><ele>187.0</ele><time>2026-04-30T10:47:15.991Z</time></trkpt><trkpt lat="48.51863726946157" lon="7.48260221083816"><ele>187.0</ele><time>2026-04-30T10:47:16.991Z</time></trkpt><trkpt lat="48.518606827369844" lon="7.482250168829187"><ele>187.0</ele><time>2026-04-30T10:47:17.991Z</time></trkpt><trkpt lat="48.51857548784103" lon="7.481897083732278"><ele>187.0</ele><time>2026-04-30T10:47:18.991Z</time></trkpt><trkpt lat="48.518544056855724" lon="7.481545976114773"><ele>187.0</ele><time>2026-04-30T10:47:19.991Z</time></trkpt><trkpt lat="48.51851351411719" lon="7.481188902788488"><ele>187.0</ele><time>2026-04-30T10:47:20.991Z</time></trkpt><trkpt lat="48.518485277371965" lon="7.480832633282409"><ele>187.0</ele><time>2026-04-30T10:47:21.991Z</time></trkpt><trkpt lat="48.518457621946354" lon="7.480475512279022"><ele>188.0</ele><time>2026-04-30T10:47:22.991Z</time></trkpt><trkpt lat="48.51843001343627" lon="7.4801173548593285"><ele>189.0</ele><time>2026-04-30T10:47:23.991Z</time></trkpt><trkpt lat="48.51840542613554" lon="7.479761318269357"><ele>188.5</ele><time>2026-04-30T10:47:24.991Z</time></trkpt><trkpt lat="48.518385458578486" lon="7.479412402738514"><ele>188.0</ele><time>2026-04-30T10:47:25.991Z</time></trkpt><trkpt lat="48.5183679063229" lon="7.479075410851983"><ele>188.0</ele><time>2026-04-30T10:47:26.991Z</time></trkpt><trkpt lat="48.51835425262106" lon="7.478747792453013"><ele>188.0</ele><time>2026-04-30T10:47:27.991Z</time></trkpt><trkpt lat="48.51834466669986" lon="7.478426715184864"><ele>188.0</ele><time>2026-04-30T10:47:28.991Z</time></trkpt><trkpt lat="48.51834160000457" lon="7.478107232992542"><ele>188.66666666666666</ele><time>2026-04-30T10:47:29.991Z</time></trkpt><trkpt lat="48.51834290325584" lon="7.4777892933238945"><ele>189.33333333333334</ele><time>2026-04-30T10:47:30.991Z</time></trkpt><trkpt lat="48.51834844940434" lon="7.4774769436915625"><ele>190.0</ele><time>2026-04-30T10:47:31.991Z</time></trkpt><trkpt lat="48.51835656080163" lon="7.477168627583055"><ele>190.33333333333334</ele><time>2026-04-30T10:47:32.991Z</time></trkpt><trkpt lat="48.518370681419626" lon="7.47686591927493"><ele>190.66666666666666</ele><time>2026-04-30T10:47:33.991Z</time></trkpt><trkpt lat="48.51839038277736" lon="7.476567464173151"><ele>191.0</ele><time>2026-04-30T10:47:34.991Z</time></trkpt><trkpt lat="48.518418416932434" lon="7.476269488985321"><ele>191.66666666666666</ele><time>2026-04-30T10:47:35.991Z</time></trkpt><trkpt lat="48.5184510964336" lon="7.47596605510497"><ele>192.33333333333331</ele><time>2026-04-30T10:47:36.991Z</time></trkpt><trkpt lat="48.518490269666046" lon="7.475667127154227"><ele>193.0</ele><time>2026-04-30T10:47:37.991Z</time></trkpt><trkpt lat="48.51852853495435" lon="7.47537482903111"><ele>193.0</ele><time>2026-04-30T10:47:38.991Z</time></trkpt><trkpt lat="48.51856817906282" lon="7.475090195352233"><ele>193.0</ele><time>2026-04-30T10:47:39.991Z</time></trkpt><trkpt lat="48.518617528567155" lon="7.474801369539552"><ele>193.0</ele><time>2026-04-30T10:47:40.99Z</time></trkpt><trkpt lat="48.518675836030326" lon="7.474506349816648"><ele>193.0</ele><time>2026-04-30T10:47:41.99Z</time></trkpt><trkpt lat="48.51873815752862" lon="7.474206852294306"><ele>193.0</ele><time>2026-04-30T10:47:42.99Z</time></trkpt><trkpt lat="48.518806239421494" lon="7.473899850406605"><ele>193.0</ele><time>2026-04-30T10:47:43.99Z</time></trkpt><trkpt lat="48.51888201666217" lon="7.4735959038215976"><ele>193.0</ele><time>2026-04-30T10:47:44.99Z</time></trkpt><trkpt lat="48.51896727209638" lon="7.473295677291526"><ele>193.0</ele><time>2026-04-30T10:47:45.99Z</time></trkpt><trkpt lat="48.519056730837875" lon="7.472992831318949"><ele>193.0</ele><time>2026-04-30T10:47:46.99Z</time></trkpt><trkpt lat="48.51915128504918" lon="7.472689802217627"><ele>193.33333333333331</ele><time>2026-04-30T10:47:47.99Z</time></trkpt><trkpt lat="48.519253164389575" lon="7.472390105791367"><ele>193.66666666666669</ele><time>2026-04-30T10:47:48.99Z</time></trkpt><trkpt lat="48.5193621436804" lon="7.472092467319566"><ele>194.0</ele><time>2026-04-30T10:47:49.99Z</time></trkpt><trkpt lat="48.51948039444908" lon="7.471792908691806"><ele>193.5</ele><time>2026-04-30T10:47:50.99Z</time></trkpt><trkpt lat="48.5196065213701" lon="7.471496192948202"><ele>193.0</ele><time>2026-04-30T10:47:51.99Z</time></trkpt><trkpt lat="48.519738443013054" lon="7.471199407483748"><ele>193.0</ele><time>2026-04-30T10:47:52.99Z</time></trkpt><trkpt lat="48.51987696087515" lon="7.4709195578228895"><ele>193.0</ele><time>2026-04-30T10:47:53.99Z</time></trkpt><trkpt lat="48.520018383459224" lon="7.470640375400322"><ele>193.5</ele><time>2026-04-30T10:47:54.99Z</time></trkpt><trkpt lat="48.520163135185875" lon="7.470368970434971"><ele>194.0</ele><time>2026-04-30T10:47:55.99Z</time></trkpt><trkpt lat="48.520312949621804" lon="7.470108356368767"><ele>194.0</ele><time>2026-04-30T10:47:56.992Z</time></trkpt><trkpt lat="48.52046767476766" lon="7.4698597179706745"><ele>194.0</ele><time>2026-04-30T10:47:57.992Z</time></trkpt><trkpt lat="48.52062594137611" lon="7.469619058687405"><ele>195.0</ele><time>2026-04-30T10:47:58.992Z</time></trkpt><trkpt lat="48.52077575342069" lon="7.469400735901849"><ele>196.0</ele><time>2026-04-30T10:47:59.992Z</time></trkpt><trkpt lat="48.52092220884316" lon="7.4691987599004666"><ele>197.0</ele><time>2026-04-30T10:48:00.992Z</time></trkpt><trkpt lat="48.52107288437952" lon="7.469005863503351"><ele>197.0</ele><time>2026-04-30T10:48:01.992Z</time></trkpt><trkpt lat="48.52122151376558" lon="7.468824018183663"><ele>197.0</ele><time>2026-04-30T10:48:02.992Z</time></trkpt><trkpt lat="48.521371282776165" lon="7.4686568650999705"><ele>197.0</ele><time>2026-04-30T10:48:03.992Z</time></trkpt><trkpt lat="48.5215140474257" lon="7.468515046925722"><ele>197.66666666666669</ele><time>2026-04-30T10:48:04.992Z</time></trkpt><trkpt lat="48.52166120548556" lon="7.468386515829262"><ele>198.33333333333331</ele><time>2026-04-30T10:48:05.992Z</time></trkpt><trkpt lat="48.52180574205427" lon="7.468264208020484"><ele>199.0</ele><time>2026-04-30T10:48:06.992Z</time></trkpt><trkpt lat="48.52195181412212" lon="7.468143687053361"><ele>198.66666666666666</ele><time>2026-04-30T10:48:07.992Z</time></trkpt><trkpt lat="48.522107120836445" lon="7.468016788014823"><ele>198.33333333333331</ele><time>2026-04-30T10:48:08.992Z</time></trkpt><trkpt lat="48.52226116085078" lon="7.467885656643929"><ele>198.0</ele><time>2026-04-30T10:48:09.992Z</time></trkpt><trkpt lat="48.52242261834224" lon="7.467747023119638"><ele>198.66666666666669</ele><time>2026-04-30T10:48:10.992Z</time></trkpt><trkpt lat="48.522582487869194" lon="7.467612312713485"><ele>199.33333333333334</ele><time>2026-04-30T10:48:11.992Z</time></trkpt><trkpt lat="48.522746063783345" lon="7.467472090988258"><ele>200.0</ele><time>2026-04-30T10:48:12.992Z</time></trkpt><trkpt lat="48.52291923998865" lon="7.467330510110688"><ele>200.0</ele><time>2026-04-30T10:48:13.992Z</time></trkpt><trkpt lat="48.523087798468126" lon="7.467189272913769"><ele>200.0</ele><time>2026-04-30T10:48:14.992Z</time></trkpt><trkpt lat="48.52325112479962" lon="7.467054716327771"><ele>200.0</ele><time>2026-04-30T10:48:15.992Z</time></trkpt><trkpt lat="48.52340641408792" lon="7.466931791607746"><ele>200.33333333333334</ele><time>2026-04-30T10:48:16.992Z</time></trkpt><trkpt lat="48.523545831829225" lon="7.466818815109362"><ele>200.66666666666669</ele><time>2026-04-30T10:48:17.992Z</time></trkpt><trkpt lat="48.52369051462563" lon="7.466704017915549"><ele>201.0</ele><time>2026-04-30T10:48:18.992Z</time></trkpt><trkpt lat="48.52382768544133" lon="7.466596547833396"><ele>201.0</ele><time>2026-04-30T10:48:19.992Z</time></trkpt><trkpt lat="48.523958599882086" lon="7.466506300929686"><ele>201.0</ele><time>2026-04-30T10:48:20.992Z</time></trkpt><trkpt lat="48.524082080878486" lon="7.466419013160787"><ele>201.0</ele><time>2026-04-30T10:48:21.992Z</time></trkpt><trkpt lat="48.52419947311" lon="7.466337926485583"><ele>201.0</ele><time>2026-04-30T10:48:22.991Z</time></trkpt><trkpt lat="48.52432270058102" lon="7.466259820277631"><ele>201.5</ele><time>2026-04-30T10:48:23.991Z</time></trkpt><trkpt lat="48.52444706124177" lon="7.4661870383169955"><ele>202.0</ele><time>2026-04-30T10:48:24.991Z</time></trkpt><trkpt lat="48.52456516448632" lon="7.4661223576186595"><ele>202.5</ele><time>2026-04-30T10:48:25.991Z</time></trkpt><trkpt lat="48.52467853306192" lon="7.466060550581694"><ele>203.0</ele><time>2026-04-30T10:48:26.991Z</time></trkpt><trkpt lat="48.52479890749832" lon="7.465997356335163"><ele>201.8</ele><time>2026-04-30T10:48:27.991Z</time></trkpt><trkpt lat="48.524912848980875" lon="7.465946578824084"><ele>200.60000000000002</ele><time>2026-04-30T10:48:28.991Z</time></trkpt><trkpt lat="48.525019374543284" lon="7.465917007200332"><ele>199.39999999999998</ele><time>2026-04-30T10:48:29.991Z</time></trkpt><trkpt lat="48.52511719464314" lon="7.465910059202066"><ele>198.2</ele><time>2026-04-30T10:48:30.991Z</time></trkpt><trkpt lat="48.52520683736811" lon="7.465930691193685"><ele>197.0</ele><time>2026-04-30T10:48:31.991Z</time></trkpt><trkpt lat="48.52530180062483" lon="7.465919090103728"><ele>197.0</ele><time>2026-04-30T10:48:32.991Z</time></trkpt><trkpt lat="48.52538165351742" lon="7.465864568911861"><ele>197.0</ele><time>2026-04-30T10:48:33.991Z</time></trkpt><trkpt lat="48.525453349147185" lon="7.465763852849644"><ele>197.0</ele><time>2026-04-30T10:48:34.991Z</time></trkpt><trkpt lat="48.52550054434743" lon="7.465629313201999"><ele>197.0</ele><time>2026-04-30T10:48:35.991Z</time></trkpt><trkpt lat="48.52555062539244" lon="7.4654832494642935"><ele>197.0</ele><time>2026-04-30T10:48:36.991Z</time></trkpt><trkpt lat="48.52563468578023" lon="7.465352339204206"><ele>196.75</ele><time>2026-04-30T10:48:37.991Z</time></trkpt><trkpt lat="48.52573004408337" lon="7.465220041926561"><ele>196.5</ele><time>2026-04-30T10:48:38.991Z</time></trkpt><trkpt lat="48.525834069003764" lon="7.465076033465874"><ele>196.25</ele><time>2026-04-30T10:48:39.991Z</time></trkpt><trkpt lat="48.52594181937937" lon="7.464939291432925"><ele>196.0</ele><time>2026-04-30T10:48:40.991Z</time></trkpt><trkpt lat="48.526053735410834" lon="7.464802616256276"><ele>196.0</ele><time>2026-04-30T10:48:41.991Z</time></trkpt><trkpt lat="48.52616806542977" lon="7.464672491016822"><ele>196.0</ele><time>2026-04-30T10:48:42.991Z</time></trkpt><trkpt lat="48.52627556949126" lon="7.464546415072911"><ele>196.0</ele><time>2026-04-30T10:48:43.991Z</time></trkpt><trkpt lat="48.526370628289555" lon="7.464435009904848"><ele>196.0</ele><time>2026-04-30T10:48:44.991Z</time></trkpt><trkpt lat="48.52646260839961" lon="7.464320711313002"><ele>196.4</ele><time>2026-04-30T10:48:45.991Z</time></trkpt><trkpt lat="48.526550587200205" lon="7.464217245783898"><ele>196.8</ele><time>2026-04-30T10:48:46.991Z</time></trkpt><trkpt lat="48.526643717091886" lon="7.464102997184639"><ele>197.20000000000002</ele><time>2026-04-30T10:48:47.991Z</time></trkpt><trkpt lat="48.52672551046112" lon="7.464001580419362"><ele>197.60000000000002</ele><time>2026-04-30T10:48:48.991Z</time></trkpt><trkpt lat="48.52680220156384" lon="7.4638943810023095"><ele>198.0</ele><time>2026-04-30T10:48:49.991Z</time></trkpt><trkpt lat="48.526881242406255" lon="7.463792337870873"><ele>198.25</ele><time>2026-04-30T10:48:50.991Z</time></trkpt><trkpt lat="48.526961803799594" lon="7.463686274522882"><ele>198.5</ele><time>2026-04-30T10:48:51.991Z</time></trkpt><trkpt lat="48.52704547388779" lon="7.463570419429791"><ele>198.75</ele><time>2026-04-30T10:48:52.991Z</time></trkpt><trkpt lat="48.52713276980215" lon="7.463440960692835"><ele>199.0</ele><time>2026-04-30T10:48:53.991Z</time></trkpt><trkpt lat="48.52721630068363" lon="7.463313858380584"><ele>199.5</ele><time>2026-04-30T10:48:54.991Z</time></trkpt><trkpt lat="48.52730786657037" lon="7.463164066963865"><ele>200.0</ele><time>2026-04-30T10:48:55.991Z</time></trkpt><trkpt lat="48.52742664250604" lon="7.463031375750832"><ele>200.5</ele><time>2026-04-30T10:48:56.991Z</time></trkpt><trkpt lat="48.52752462141265" lon="7.462863198960081"><ele>201.0</ele><time>2026-04-30T10:48:57.991Z</time></trkpt><trkpt lat="48.527622214879095" lon="7.462677872797424"><ele>202.33333333333331</ele><time>2026-04-30T10:48:58.991Z</time></trkpt><trkpt lat="48.52772303346607" lon="7.4624860494254515"><ele>203.66666666666666</ele><time>2026-04-30T10:48:59.991Z</time></trkpt><trkpt lat="48.52782099039143" lon="7.462275252247059"><ele>205.0</ele><time>2026-04-30T10:49:00.991Z</time></trkpt><trkpt lat="48.52791806044189" lon="7.4620594330035015"><ele>206.66666666666666</ele><time>2026-04-30T10:49:01.991Z</time></trkpt><trkpt lat="48.52800855971622" lon="7.461844765437215"><ele>208.33333333333331</ele><time>2026-04-30T10:49:02.991Z</time></trkpt><trkpt lat="48.528086564926504" lon="7.461641026773463"><ele>210.0</ele><time>2026-04-30T10:49:03.991Z</time></trkpt><trkpt lat="48.528160090221355" lon="7.461435796589525"><ele>212.0</ele><time>2026-04-30T10:49:04.991Z</time></trkpt><trkpt lat="48.52823112489466" lon="7.461228052375114"><ele>214.0</ele><time>2026-04-30T10:49:05.991Z</time></trkpt><trkpt lat="48.5282994120322" lon="7.46101957123585"><ele>216.0</ele><time>2026-04-30T10:49:06.991Z</time></trkpt><trkpt lat="48.52836365513427" lon="7.4608069522859255"><ele>216.0</ele><time>2026-04-30T10:49:07.991Z</time></trkpt><trkpt lat="48.52842716286243" lon="7.460595832493148"><ele>216.0</ele><time>2026-04-30T10:49:08.991Z</time></trkpt><trkpt lat="48.528486540257056" lon="7.460379879624561"><ele>216.0</ele><time>2026-04-30T10:49:09.991Z</time></trkpt><trkpt lat="48.52854275544811" lon="7.460159317372684"><ele>217.66666666666669</ele><time>2026-04-30T10:49:10.991Z</time></trkpt><trkpt lat="48.52859442205221" lon="7.459929114383219"><ele>219.33333333333334</ele><time>2026-04-30T10:49:11.991Z</time></trkpt><trkpt lat="48.528644617893626" lon="7.459689373060823"><ele>221.0</ele><time>2026-04-30T10:49:12.991Z</time></trkpt><trkpt lat="48.528698415983236" lon="7.4594403363138"><ele>218.66666666666669</ele><time>2026-04-30T10:49:13.991Z</time></trkpt><trkpt lat="48.528754825327226" lon="7.459173425494371"><ele>216.33333333333331</ele><time>2026-04-30T10:49:14.991Z</time></trkpt><trkpt lat="48.52881369961613" lon="7.458905082653758"><ele>214.0</ele><time>2026-04-30T10:49:15.991Z</time></trkpt><trkpt lat="48.52887231779073" lon="7.45863929136242"><ele>214.0</ele><time>2026-04-30T10:49:16.991Z</time></trkpt><trkpt lat="48.52893045384084" lon="7.458367193336164"><ele>214.0</ele><time>2026-04-30T10:49:17.991Z</time></trkpt><trkpt lat="48.528992892551265" lon="7.458096137698145"><ele>214.0</ele><time>2026-04-30T10:49:18.991Z</time></trkpt><trkpt lat="48.52906261789444" lon="7.457834082645527"><ele>214.0</ele><time>2026-04-30T10:49:19.991Z</time></trkpt><trkpt lat="48.52913187456831" lon="7.457573735903175"><ele>214.0</ele><time>2026-04-30T10:49:20.991Z</time></trkpt><trkpt lat="48.52920539048718" lon="7.457302124705265"><ele>214.0</ele><time>2026-04-30T10:49:21.991Z</time></trkpt><trkpt lat="48.529281165858905" lon="7.457043047404723"><ele>216.0</ele><time>2026-04-30T10:49:22.991Z</time></trkpt><trkpt lat="48.529366073445146" lon="7.456781413108803"><ele>218.0</ele><time>2026-04-30T10:49:23.991Z</time></trkpt><trkpt lat="48.52945386187802" lon="7.456529286808672"><ele>220.0</ele><time>2026-04-30T10:49:24.991Z</time></trkpt><trkpt lat="48.529548174715316" lon="7.456284480407069"><ele>216.33333333333331</ele><time>2026-04-30T10:49:25.991Z</time></trkpt><trkpt lat="48.52964425327021" lon="7.456036418479993"><ele>212.66666666666669</ele><time>2026-04-30T10:49:26.991Z</time></trkpt><trkpt lat="48.52975535506555" lon="7.455792424162619"><ele>209.0</ele><time>2026-04-30T10:49:27.991Z</time></trkpt><trkpt lat="48.52986554247334" lon="7.455544401356866"><ele>211.0</ele><time>2026-04-30T10:49:28.991Z</time></trkpt><trkpt lat="48.529985909563074" lon="7.45530425819892"><ele>213.0</ele><time>2026-04-30T10:49:29.991Z</time></trkpt><trkpt lat="48.5301011280703" lon="7.455080333709207"><ele>215.0</ele><time>2026-04-30T10:49:30.991Z</time></trkpt><trkpt lat="48.530222817343734" lon="7.454865887401661"><ele>215.0</ele><time>2026-04-30T10:49:31.99Z</time></trkpt><trkpt lat="48.53034024331855" lon="7.454669518989261"><ele>215.0</ele><time>2026-04-30T10:49:32.99Z</time></trkpt><trkpt lat="48.5304704078724" lon="7.454497922999205"><ele>215.0</ele><time>2026-04-30T10:49:33.99Z</time></trkpt><trkpt lat="48.530594691038935" lon="7.454319730041106"><ele>213.66666666666669</ele><time>2026-04-30T10:49:34.99Z</time></trkpt><trkpt lat="48.530719830326646" lon="7.454146031120002"><ele>212.33333333333331</ele><time>2026-04-30T10:49:35.99Z</time></trkpt><trkpt lat="48.53084639881212" lon="7.453979248713363"><ele>211.0</ele><time>2026-04-30T10:49:36.99Z</time></trkpt><trkpt lat="48.53097485816813" lon="7.45382184141155"><ele>212.33333333333331</ele><time>2026-04-30T10:49:37.99Z</time></trkpt><trkpt lat="48.531111752597816" lon="7.453663697569764"><ele>213.66666666666669</ele><time>2026-04-30T10:49:38.99Z</time></trkpt><trkpt lat="48.53125157781173" lon="7.453509569501168"><ele>215.0</ele><time>2026-04-30T10:49:39.99Z</time></trkpt><trkpt lat="48.531399105570564" lon="7.453348657483444"><ele>215.0</ele><time>2026-04-30T10:49:40.99Z</time></trkpt><trkpt lat="48.53154950437408" lon="7.453187348673819"><ele>215.0</ele><time>2026-04-30T10:49:41.99Z</time></trkpt><trkpt lat="48.53170424527698" lon="7.453026841770833"><ele>215.0</ele><time>2026-04-30T10:49:42.99Z</time></trkpt><trkpt lat="48.531859659026736" lon="7.452866306932628"><ele>215.0</ele><time>2026-04-30T10:49:43.99Z</time></trkpt><trkpt lat="48.532009474485164" lon="7.4526834717886565"><ele>215.0</ele><time>2026-04-30T10:49:44.99Z</time></trkpt><trkpt lat="48.53216862077638" lon="7.452520311168208"><ele>215.0</ele><time>2026-04-30T10:49:45.99Z</time></trkpt><trkpt lat="48.53232891155957" lon="7.452353724020165"><ele>215.0</ele><time>2026-04-30T10:49:46.99Z</time></trkpt><trkpt lat="48.53248846387087" lon="7.452177619716739"><ele>215.0</ele><time>2026-04-30T10:49:47.99Z</time></trkpt><trkpt lat="48.53263812097021" lon="7.451992090628868"><ele>215.0</ele><time>2026-04-30T10:49:48.99Z</time></trkpt><trkpt lat="48.53278591887093" lon="7.451827789908129"><ele>208.66666666666669</ele><time>2026-04-30T10:49:49.99Z</time></trkpt><trkpt lat="48.5329238768752" lon="7.45164975370409"><ele>202.33333333333331</ele><time>2026-04-30T10:49:50.99Z</time></trkpt><trkpt lat="48.533061033852995" lon="7.45145930049065"><ele>196.0</ele><time>2026-04-30T10:49:51.99Z</time></trkpt><trkpt lat="48.53318140272625" lon="7.451247641138482"><ele>196.0</ele><time>2026-04-30T10:49:52.99Z</time></trkpt><trkpt lat="48.53330880289792" lon="7.451039642829446"><ele>196.0</ele><time>2026-04-30T10:49:53.99Z</time></trkpt><trkpt lat="48.53344986312417" lon="7.450836503354529"><ele>196.0</ele><time>2026-04-30T10:49:54.99Z</time></trkpt><trkpt lat="48.5335632973574" lon="7.4505961734461055"><ele>194.66666666666666</ele><time>2026-04-30T10:49:55.99Z</time></trkpt><trkpt lat="48.53369507160157" lon="7.450369678696013"><ele>193.33333333333331</ele><time>2026-04-30T10:49:56.99Z</time></trkpt><trkpt lat="48.53381075731196" lon="7.450120876882572"><ele>192.0</ele><time>2026-04-30T10:49:57.99Z</time></trkpt><trkpt lat="48.533927856900185" lon="7.449854396900037"><ele>191.0</ele><time>2026-04-30T10:49:58.99Z</time></trkpt><trkpt lat="48.53404269623324" lon="7.449575267738997"><ele>190.0</ele><time>2026-04-30T10:49:59.99Z</time></trkpt><trkpt lat="48.5341525709426" lon="7.449290865386329"><ele>189.0</ele><time>2026-04-30T10:50:00.99Z</time></trkpt><trkpt lat="48.534238746487716" lon="7.449009460009767"><ele>189.0</ele><time>2026-04-30T10:50:01.99Z</time></trkpt><trkpt lat="48.53434210408814" lon="7.448724655416592"><ele>189.0</ele><time>2026-04-30T10:50:02.992Z</time></trkpt><trkpt lat="48.534436585819556" lon="7.448434952810383"><ele>189.0</ele><time>2026-04-30T10:50:03.992Z</time></trkpt><trkpt lat="48.53453408192987" lon="7.448137901204275"><ele>190.0</ele><time>2026-04-30T10:50:04.992Z</time></trkpt><trkpt lat="48.53463157996359" lon="7.447841680643598"><ele>191.0</ele><time>2026-04-30T10:50:05.992Z</time></trkpt><trkpt lat="48.53471534313883" lon="7.447546482752772"><ele>192.0</ele><time>2026-04-30T10:50:06.992Z</time></trkpt><trkpt lat="48.53480319987792" lon="7.4472430006384025"><ele>191.66666666666666</ele><time>2026-04-30T10:50:07.992Z</time></trkpt><trkpt lat="48.5348914992569" lon="7.4469455219515"><ele>191.33333333333331</ele><time>2026-04-30T10:50:08.992Z</time></trkpt><trkpt lat="48.53497643587221" lon="7.446653434464421"><ele>191.0</ele><time>2026-04-30T10:50:09.992Z</time></trkpt><trkpt lat="48.53505662071471" lon="7.446368666879659"><ele>190.33333333333331</ele><time>2026-04-30T10:50:10.992Z</time></trkpt><trkpt lat="48.535138523679564" lon="7.4460869931886045"><ele>189.66666666666666</ele><time>2026-04-30T10:50:11.992Z</time></trkpt><trkpt lat="48.535223148699984" lon="7.445795720321841"><ele>189.0</ele><time>2026-04-30T10:50:12.991Z</time></trkpt><trkpt lat="48.53530929018855" lon="7.445502627657593"><ele>188.66666666666666</ele><time>2026-04-30T10:50:13.991Z</time></trkpt><trkpt lat="48.53539774190063" lon="7.445200283060141"><ele>188.33333333333331</ele><time>2026-04-30T10:50:14.992Z</time></trkpt><trkpt lat="48.53548719860735" lon="7.444890762246419"><ele>188.0</ele><time>2026-04-30T10:50:15.992Z</time></trkpt><trkpt lat="48.535576331544455" lon="7.444579904601087"><ele>188.66666666666666</ele><time>2026-04-30T10:50:16.992Z</time></trkpt><trkpt lat="48.535668003551315" lon="7.444268810044615"><ele>189.33333333333334</ele><time>2026-04-30T10:50:17.992Z</time></trkpt><trkpt lat="48.53575916870173" lon="7.443968727547957"><ele>190.0</ele><time>2026-04-30T10:50:18.992Z</time></trkpt><trkpt lat="48.535848863787294" lon="7.4436781674897805"><ele>190.0</ele><time>2026-04-30T10:50:19.992Z</time></trkpt><trkpt lat="48.535933014285355" lon="7.4433919600830984"><ele>190.0</ele><time>2026-04-30T10:50:20.992Z</time></trkpt><trkpt lat="48.536013232803334" lon="7.4431146454317725"><ele>190.0</ele><time>2026-04-30T10:50:21.992Z</time></trkpt><trkpt lat="48.53608644865005" lon="7.442848813582314"><ele>190.0</ele><time>2026-04-30T10:50:22.992Z</time></trkpt><trkpt lat="48.536180137757086" lon="7.442582286164225"><ele>190.0</ele><time>2026-04-30T10:50:23.992Z</time></trkpt><trkpt lat="48.53624840721392" lon="7.442296705732304"><ele>190.0</ele><time>2026-04-30T10:50:24.992Z</time></trkpt><trkpt lat="48.53633353859605" lon="7.442021554846222"><ele>190.66666666666669</ele><time>2026-04-30T10:50:25.992Z</time></trkpt><trkpt lat="48.536419734938846" lon="7.441739090516328"><ele>191.33333333333334</ele><time>2026-04-30T10:50:26.992Z</time></trkpt><trkpt lat="48.536503912445944" lon="7.441456317326663"><ele>192.0</ele><time>2026-04-30T10:50:27.992Z</time></trkpt><trkpt lat="48.53658760799298" lon="7.441166266121166"><ele>192.0</ele><time>2026-04-30T10:50:28.992Z</time></trkpt><trkpt lat="48.536675735474304" lon="7.44086257354924"><ele>192.0</ele><time>2026-04-30T10:50:29.992Z</time></trkpt><trkpt lat="48.53677104934823" lon="7.440556405448214"><ele>192.0</ele><time>2026-04-30T10:50:30.992Z</time></trkpt><trkpt lat="48.53686487469669" lon="7.440242614046429"><ele>192.0</ele><time>2026-04-30T10:50:31.992Z</time></trkpt><trkpt lat="48.53695916783201" lon="7.439922536884092"><ele>192.0</ele><time>2026-04-30T10:50:32.992Z</time></trkpt><trkpt lat="48.53705360579123" lon="7.439605066160838"><ele>192.0</ele><time>2026-04-30T10:50:33.992Z</time></trkpt><trkpt lat="48.53714733178875" lon="7.439289172781121"><ele>192.0</ele><time>2026-04-30T10:50:34.992Z</time></trkpt><trkpt lat="48.53724330069659" lon="7.438971565988"><ele>192.5</ele><time>2026-04-30T10:50:35.992Z</time></trkpt><trkpt lat="48.537339183421786" lon="7.438648762048346"><ele>193.0</ele><time>2026-04-30T10:50:36.992Z</time></trkpt><trkpt lat="48.537433365726876" lon="7.438323854669094"><ele>193.0</ele><time>2026-04-30T10:50:37.992Z</time></trkpt><trkpt lat="48.53752731555972" lon="7.438000481025957"><ele>193.0</ele><time>2026-04-30T10:50:38.992Z</time></trkpt><trkpt lat="48.537620583477434" lon="7.437672634773522"><ele>194.0</ele><time>2026-04-30T10:50:39.992Z</time></trkpt><trkpt lat="48.53771583174694" lon="7.43734591966232"><ele>195.0</ele><time>2026-04-30T10:50:40.992Z</time></trkpt><trkpt lat="48.53780832261429" lon="7.43702117794942"><ele>195.5</ele><time>2026-04-30T10:50:41.992Z</time></trkpt><trkpt lat="48.53791738807704" lon="7.4367082215593765"><ele>196.0</ele><time>2026-04-30T10:50:42.992Z</time></trkpt><trkpt lat="48.53799594587903" lon="7.436379991291303"><ele>196.0</ele><time>2026-04-30T10:50:43.992Z</time></trkpt><trkpt lat="48.53809140941492" lon="7.436067950941202"><ele>196.0</ele><time>2026-04-30T10:50:44.992Z</time></trkpt><trkpt lat="48.53818702338726" lon="7.43577075479249"><ele>196.0</ele><time>2026-04-30T10:50:45.992Z</time></trkpt><trkpt lat="48.53827296730554" lon="7.435458035306735"><ele>196.0</ele><time>2026-04-30T10:50:46.992Z</time></trkpt><trkpt lat="48.53835878250348" lon="7.435142721290447"><ele>196.0</ele><time>2026-04-30T10:50:47.992Z</time></trkpt><trkpt lat="48.53843961950908" lon="7.4348246885902025"><ele>195.5</ele><time>2026-04-30T10:50:48.992Z</time></trkpt><trkpt lat="48.53851659037991" lon="7.4345000140683535"><ele>195.0</ele><time>2026-04-30T10:50:49.992Z</time></trkpt><trkpt lat="48.53859008387549" lon="7.434177998802498"><ele>195.0</ele><time>2026-04-30T10:50:50.992Z</time></trkpt><trkpt lat="48.538658417677674" lon="7.43385518961412"><ele>195.0</ele><time>2026-04-30T10:50:51.992Z</time></trkpt><trkpt lat="48.53871725682187" lon="7.433530193788726"><ele>195.0</ele><time>2026-04-30T10:50:52.992Z</time></trkpt><trkpt lat="48.538767132459526" lon="7.433211577962406"><ele>194.66666666666669</ele><time>2026-04-30T10:50:53.992Z</time></trkpt><trkpt lat="48.538810511794146" lon="7.432888641399399"><ele>194.33333333333334</ele><time>2026-04-30T10:50:54.992Z</time></trkpt><trkpt lat="48.538841847355606" lon="7.432564598230779"><ele>194.0</ele><time>2026-04-30T10:50:55.992Z</time></trkpt><trkpt lat="48.5388594153548" lon="7.432237492036169"><ele>193.66666666666669</ele><time>2026-04-30T10:50:56.992Z</time></trkpt><trkpt lat="48.53887057522694" lon="7.43190888196174"><ele>193.33333333333331</ele><time>2026-04-30T10:50:57.992Z</time></trkpt><trkpt lat="48.53887479008351" lon="7.431575725036788"><ele>193.0</ele><time>2026-04-30T10:50:58.992Z</time></trkpt><trkpt lat="48.538870432889965" lon="7.431246982466087"><ele>193.0</ele><time>2026-04-30T10:50:59.992Z</time></trkpt><trkpt lat="48.53885931392225" lon="7.43091870063063"><ele>193.0</ele><time>2026-04-30T10:51:00.992Z</time></trkpt><trkpt lat="48.538841960236006" lon="7.430592919388483"><ele>193.0</ele><time>2026-04-30T10:51:01.992Z</time></trkpt><trkpt lat="48.538818038729524" lon="7.430265173289739"><ele>193.33333333333331</ele><time>2026-04-30T10:51:02.992Z</time></trkpt><trkpt lat="48.53878820479196" lon="7.429939387672226"><ele>193.66666666666669</ele><time>2026-04-30T10:51:03.992Z</time></trkpt><trkpt lat="48.53874657983851" lon="7.429620293237213"><ele>194.0</ele><time>2026-04-30T10:51:04.992Z</time></trkpt><trkpt lat="48.53869622606166" lon="7.429303435444819"><ele>194.33333333333334</ele><time>2026-04-30T10:51:05.992Z</time></trkpt><trkpt lat="48.53863873533387" lon="7.428999529266079"><ele>194.66666666666669</ele><time>2026-04-30T10:51:06.992Z</time></trkpt><trkpt lat="48.53858105921114" lon="7.428707472832354"><ele>195.0</ele><time>2026-04-30T10:51:07.992Z</time></trkpt><trkpt lat="48.53851862196251" lon="7.428419210397807"><ele>195.66666666666669</ele><time>2026-04-30T10:51:08.992Z</time></trkpt><trkpt lat="48.538451122649285" lon="7.4281365621669995"><ele>196.33333333333334</ele><time>2026-04-30T10:51:09.992Z</time></trkpt><trkpt lat="48.53838320246619" lon="7.427858628848755"><ele>197.0</ele><time>2026-04-30T10:51:10.991Z</time></trkpt><trkpt lat="48.538309188929844" lon="7.427584492446376"><ele>197.0</ele><time>2026-04-30T10:51:11.991Z</time></trkpt><trkpt lat="48.538229184993014" lon="7.427313544889135"><ele>197.0</ele><time>2026-04-30T10:51:12.991Z</time></trkpt><trkpt lat="48.538147155780756" lon="7.427039143183039"><ele>197.0</ele><time>2026-04-30T10:51:13.991Z</time></trkpt><trkpt lat="48.538066533672726" lon="7.426773993420826"><ele>197.0</ele><time>2026-04-30T10:51:14.991Z</time></trkpt><trkpt lat="48.53798615967816" lon="7.426511336110283"><ele>197.0</ele><time>2026-04-30T10:51:15.991Z</time></trkpt><trkpt lat="48.537902325154654" lon="7.426250626363467"><ele>197.0</ele><time>2026-04-30T10:51:16.991Z</time></trkpt><trkpt lat="48.537817980996415" lon="7.425994321114654"><ele>196.66666666666669</ele><time>2026-04-30T10:51:17.991Z</time></trkpt><trkpt lat="48.53773040392311" lon="7.42573395661665"><ele>196.33333333333331</ele><time>2026-04-30T10:51:18.991Z</time></trkpt><trkpt lat="48.53764020511887" lon="7.425475107640611"><ele>196.0</ele><time>2026-04-30T10:51:19.991Z</time></trkpt><trkpt lat="48.53754817144538" lon="7.425205079445937"><ele>196.0</ele><time>2026-04-30T10:51:20.991Z</time></trkpt><trkpt lat="48.5374587362465" lon="7.424942038744608"><ele>196.0</ele><time>2026-04-30T10:51:21.991Z</time></trkpt><trkpt lat="48.53736940052389" lon="7.424674760337427"><ele>196.0</ele><time>2026-04-30T10:51:22.991Z</time></trkpt><trkpt lat="48.53728342593731" lon="7.424403590365353"><ele>196.66666666666666</ele><time>2026-04-30T10:51:23.991Z</time></trkpt><trkpt lat="48.53719884497633" lon="7.4241377971127"><ele>197.33333333333331</ele><time>2026-04-30T10:51:24.991Z</time></trkpt><trkpt lat="48.53711545447168" lon="7.423873209360179"><ele>198.0</ele><time>2026-04-30T10:51:25.991Z</time></trkpt><trkpt lat="48.537038700477346" lon="7.423621644134584"><ele>198.0</ele><time>2026-04-30T10:51:26.991Z</time></trkpt><trkpt lat="48.53696965383452" lon="7.423371293909022"><ele>198.0</ele><time>2026-04-30T10:51:27.991Z</time></trkpt><trkpt lat="48.53690415103569" lon="7.4231249085469635"><ele>198.0</ele><time>2026-04-30T10:51:28.991Z</time></trkpt><trkpt lat="48.53684319609683" lon="7.422867861502782"><ele>198.0</ele><time>2026-04-30T10:51:29.991Z</time></trkpt><trkpt lat="48.536787256557304" lon="7.42259961458013"><ele>198.0</ele><time>2026-04-30T10:51:30.991Z</time></trkpt><trkpt lat="48.53672838638254" lon="7.4223075632249"><ele>198.0</ele><time>2026-04-30T10:51:31.991Z</time></trkpt><trkpt lat="48.53666970312065" lon="7.4220181961744425"><ele>198.0</ele><time>2026-04-30T10:51:32.991Z</time></trkpt><trkpt lat="48.53661727418069" lon="7.421732283503478"><ele>198.0</ele><time>2026-04-30T10:51:33.991Z</time></trkpt><trkpt lat="48.536567535878845" lon="7.421449879193063"><ele>198.0</ele><time>2026-04-30T10:51:34.991Z</time></trkpt><trkpt lat="48.53652297400679" lon="7.421160806307905"><ele>198.33333333333331</ele><time>2026-04-30T10:51:35.991Z</time></trkpt><trkpt lat="48.53648559571076" lon="7.420870282781337"><ele>198.66666666666666</ele><time>2026-04-30T10:51:36.991Z</time></trkpt><trkpt lat="48.53645134237883" lon="7.420578376046003"><ele>199.0</ele><time>2026-04-30T10:51:37.991Z</time></trkpt><trkpt lat="48.53641841955664" lon="7.420285292380969"><ele>199.0</ele><time>2026-04-30T10:51:38.991Z</time></trkpt><trkpt lat="48.53638587938483" lon="7.419996548976086"><ele>199.0</ele><time>2026-04-30T10:51:39.991Z</time></trkpt><trkpt lat="48.53635252898633" lon="7.419703276418556"><ele>199.0</ele><time>2026-04-30T10:51:40.991Z</time></trkpt><trkpt lat="48.536320000072806" lon="7.419431278004553"><ele>199.0</ele><time>2026-04-30T10:51:41.991Z</time></trkpt><trkpt lat="48.53629462540083" lon="7.41915928324368"><ele>199.0</ele><time>2026-04-30T10:51:42.991Z</time></trkpt><trkpt lat="48.53627223503624" lon="7.41888556833482"><ele>199.0</ele><time>2026-04-30T10:51:43.991Z</time></trkpt><trkpt lat="48.53625302327316" lon="7.418620705434035"><ele>198.66666666666666</ele><time>2026-04-30T10:51:44.991Z</time></trkpt><trkpt lat="48.536231859699875" lon="7.4183669747522485"><ele>198.33333333333331</ele><time>2026-04-30T10:51:45.991Z</time></trkpt><trkpt lat="48.536207167777484" lon="7.418111863725036"><ele>198.0</ele><time>2026-04-30T10:51:46.991Z</time></trkpt><trkpt lat="48.536178908588724" lon="7.417860064343893"><ele>198.66666666666669</ele><time>2026-04-30T10:51:47.991Z</time></trkpt><trkpt lat="48.53615143442046" lon="7.417600948082012"><ele>199.33333333333334</ele><time>2026-04-30T10:51:48.991Z</time></trkpt><trkpt lat="48.53612457549079" lon="7.417335257050451"><ele>200.0</ele><time>2026-04-30T10:51:49.991Z</time></trkpt><trkpt lat="48.536096691473745" lon="7.417063783767365"><ele>200.66666666666669</ele><time>2026-04-30T10:51:50.991Z</time></trkpt><trkpt lat="48.53607100483536" lon="7.416791021554382"><ele>201.33333333333331</ele><time>2026-04-30T10:51:51.991Z</time></trkpt><trkpt lat="48.53604462487604" lon="7.416503404011061"><ele>202.0</ele><time>2026-04-30T10:51:52.991Z</time></trkpt><trkpt lat="48.536018803861104" lon="7.416209579662258"><ele>202.0</ele><time>2026-04-30T10:51:53.991Z</time></trkpt><trkpt lat="48.535993901371455" lon="7.415909568749317"><ele>202.0</ele><time>2026-04-30T10:51:54.991Z</time></trkpt><trkpt lat="48.535970820334256" lon="7.415601290265539"><ele>202.0</ele><time>2026-04-30T10:51:55.991Z</time></trkpt><trkpt lat="48.535950465530235" lon="7.4152774648933475"><ele>202.5</ele><time>2026-04-30T10:51:56.991Z</time></trkpt><trkpt lat="48.53592970234616" lon="7.41493761255816"><ele>203.0</ele><time>2026-04-30T10:51:57.991Z</time></trkpt><trkpt lat="48.53590758276663" lon="7.414591443962922"><ele>203.5</ele><time>2026-04-30T10:51:58.991Z</time></trkpt><trkpt lat="48.53588663762766" lon="7.414230890427482"><ele>204.0</ele><time>2026-04-30T10:51:59.991Z</time></trkpt><trkpt lat="48.53586209434848" lon="7.413861040663373"><ele>203.5</ele><time>2026-04-30T10:52:00.991Z</time></trkpt><trkpt lat="48.53583570148991" lon="7.41348618660677"><ele>203.0</ele><time>2026-04-30T10:52:01.991Z</time></trkpt><trkpt lat="48.535799786316765" lon="7.413103311687553"><ele>203.0</ele><time>2026-04-30T10:52:02.991Z</time></trkpt><trkpt lat="48.535748325691294" lon="7.412707365889475"><ele>203.0</ele><time>2026-04-30T10:52:03.991Z</time></trkpt><trkpt lat="48.5357007243196" lon="7.412297336810665"><ele>202.0</ele><time>2026-04-30T10:52:04.991Z</time></trkpt><trkpt lat="48.53565584530754" lon="7.411870555957855"><ele>201.0</ele><time>2026-04-30T10:52:05.991Z</time></trkpt><trkpt lat="48.535611683511135" lon="7.411434623591157"><ele>201.0</ele><time>2026-04-30T10:52:06.991Z</time></trkpt><trkpt lat="48.53556731224483" lon="7.410987385984782"><ele>201.0</ele><time>2026-04-30T10:52:07.991Z</time></trkpt><trkpt lat="48.53552615240259" lon="7.410550211655027"><ele>201.0</ele><time>2026-04-30T10:52:08.992Z</time></trkpt><trkpt lat="48.53548650818474" lon="7.410113376652979"><ele>201.0</ele><time>2026-04-30T10:52:09.992Z</time></trkpt><trkpt lat="48.5354516968434" lon="7.409676726044928"><ele>201.5</ele><time>2026-04-30T10:52:10.992Z</time></trkpt><trkpt lat="48.53541701906914" lon="7.409244351807151"><ele>202.0</ele><time>2026-04-30T10:52:11.992Z</time></trkpt><trkpt lat="48.53537941519038" lon="7.408812773266055"><ele>202.0</ele><time>2026-04-30T10:52:12.992Z</time></trkpt><trkpt lat="48.53533962227839" lon="7.408386456116982"><ele>202.0</ele><time>2026-04-30T10:52:13.992Z</time></trkpt><trkpt lat="48.53530164777678" lon="7.407964075617467"><ele>202.5</ele><time>2026-04-30T10:52:14.992Z</time></trkpt><trkpt lat="48.5352651691953" lon="7.407528197771801"><ele>203.0</ele><time>2026-04-30T10:52:15.992Z</time></trkpt><trkpt lat="48.53522609118715" lon="7.407077335144586"><ele>203.0</ele><time>2026-04-30T10:52:16.992Z</time></trkpt><trkpt lat="48.53518453347511" lon="7.406620320892326"><ele>203.0</ele><time>2026-04-30T10:52:17.992Z</time></trkpt><trkpt lat="48.53513827253492" lon="7.4061503729228635"><ele>203.0</ele><time>2026-04-30T10:52:18.992Z</time></trkpt><trkpt lat="48.535091538078056" lon="7.405672934931523"><ele>203.0</ele><time>2026-04-30T10:52:19.992Z</time></trkpt><trkpt lat="48.53504345180776" lon="7.405190247331563"><ele>203.0</ele><time>2026-04-30T10:52:20.992Z</time></trkpt><trkpt lat="48.534993220254144" lon="7.404709747459428"><ele>203.0</ele><time>2026-04-30T10:52:21.992Z</time></trkpt><trkpt lat="48.53494717230897" lon="7.404256067334729"><ele>202.5</ele><time>2026-04-30T10:52:22.992Z</time></trkpt><trkpt lat="48.53490178649828" lon="7.403821747965733"><ele>202.0</ele><time>2026-04-30T10:52:23.992Z</time></trkpt><trkpt lat="48.5348560341787" lon="7.403398677362732"><ele>202.5</ele><time>2026-04-30T10:52:24.992Z</time></trkpt><trkpt lat="48.53481152099304" lon="7.402985091871461"><ele>203.0</ele><time>2026-04-30T10:52:25.991Z</time></trkpt><trkpt lat="48.534762080960505" lon="7.402569380085416"><ele>203.5</ele><time>2026-04-30T10:52:26.991Z</time></trkpt><trkpt lat="48.53471131804131" lon="7.402152495204537"><ele>204.0</ele><time>2026-04-30T10:52:27.991Z</time></trkpt><trkpt lat="48.53466203628838" lon="7.401707429121688"><ele>204.5</ele><time>2026-04-30T10:52:28.991Z</time></trkpt><trkpt lat="48.53462305735946" lon="7.401258365380571"><ele>205.0</ele><time>2026-04-30T10:52:29.991Z</time></trkpt><trkpt lat="48.53458188790762" lon="7.400824066997555"><ele>204.5</ele><time>2026-04-30T10:52:30.991Z</time></trkpt><trkpt lat="48.53453724425496" lon="7.400405143604325"><ele>204.0</ele><time>2026-04-30T10:52:31.991Z</time></trkpt><trkpt lat="48.53449517484448" lon="7.399977330133985"><ele>203.5</ele><time>2026-04-30T10:52:32.991Z</time></trkpt><trkpt lat="48.534455079098315" lon="7.399543727700805"><ele>203.0</ele><time>2026-04-30T10:52:33.991Z</time></trkpt><trkpt lat="48.53441287295484" lon="7.399099749790155"><ele>203.5</ele><time>2026-04-30T10:52:34.991Z</time></trkpt><trkpt lat="48.534374516422204" lon="7.398651261743821"><ele>204.0</ele><time>2026-04-30T10:52:35.991Z</time></trkpt><trkpt lat="48.534336053106145" lon="7.39822784018055"><ele>204.0</ele><time>2026-04-30T10:52:36.991Z</time></trkpt><trkpt lat="48.534300831807535" lon="7.397811602003684"><ele>204.0</ele><time>2026-04-30T10:52:37.991Z</time></trkpt><trkpt lat="48.53427189179332" lon="7.397406063301484"><ele>204.5</ele><time>2026-04-30T10:52:38.991Z</time></trkpt><trkpt lat="48.53424048112562" lon="7.396995062684751"><ele>205.0</ele><time>2026-04-30T10:52:39.991Z</time></trkpt><trkpt lat="48.534203742221926" lon="7.39659464091348"><ele>205.0</ele><time>2026-04-30T10:52:40.991Z</time></trkpt><trkpt lat="48.53416919626048" lon="7.396218577255351"><ele>205.0</ele><time>2026-04-30T10:52:41.991Z</time></trkpt><trkpt lat="48.53413848524159" lon="7.395844768538601"><ele>205.5</ele><time>2026-04-30T10:52:42.991Z</time></trkpt><trkpt lat="48.53410771490705" lon="7.395475541048837"><ele>206.0</ele><time>2026-04-30T10:52:43.991Z</time></trkpt><trkpt lat="48.53407400758742" lon="7.395106901018196"><ele>206.0</ele><time>2026-04-30T10:52:44.991Z</time></trkpt><trkpt lat="48.53404069587188" lon="7.394743471714206"><ele>206.0</ele><time>2026-04-30T10:52:45.991Z</time></trkpt><trkpt lat="48.534004349194404" lon="7.394379491630501"><ele>207.0</ele><time>2026-04-30T10:52:46.991Z</time></trkpt><trkpt lat="48.53396581445765" lon="7.394013993995034"><ele>208.0</ele><time>2026-04-30T10:52:47.991Z</time></trkpt><trkpt lat="48.533925249363925" lon="7.393654656724536"><ele>208.0</ele><time>2026-04-30T10:52:48.991Z</time></trkpt><trkpt lat="48.53388214463088" lon="7.393299391638893"><ele>208.0</ele><time>2026-04-30T10:52:49.991Z</time></trkpt><trkpt lat="48.53383596291885" lon="7.392947433762129"><ele>207.66666666666666</ele><time>2026-04-30T10:52:50.991Z</time></trkpt><trkpt lat="48.53378606015824" lon="7.392611481651172"><ele>207.33333333333331</ele><time>2026-04-30T10:52:51.991Z</time></trkpt><trkpt lat="48.533737079198666" lon="7.392293171325297"><ele>207.0</ele><time>2026-04-30T10:52:52.991Z</time></trkpt><trkpt lat="48.53369895669904" lon="7.391984185015865"><ele>207.0</ele><time>2026-04-30T10:52:53.991Z</time></trkpt><trkpt lat="48.533663481455235" lon="7.391678289199442"><ele>207.0</ele><time>2026-04-30T10:52:54.991Z</time></trkpt><trkpt lat="48.533626081194605" lon="7.39137516290753"><ele>207.0</ele><time>2026-04-30T10:52:55.991Z</time></trkpt><trkpt lat="48.533590382707466" lon="7.391069634274277"><ele>207.0</ele><time>2026-04-30T10:52:56.991Z</time></trkpt><trkpt lat="48.53355788523144" lon="7.390757683346465"><ele>207.0</ele><time>2026-04-30T10:52:57.991Z</time></trkpt><trkpt lat="48.53352606860482" lon="7.3904383506650015"><ele>207.0</ele><time>2026-04-30T10:52:58.991Z</time></trkpt><trkpt lat="48.53349202167703" lon="7.390113341933375"><ele>207.66666666666669</ele><time>2026-04-30T10:52:59.991Z</time></trkpt><trkpt lat="48.5334575080958" lon="7.389786747924179"><ele>208.33333333333334</ele><time>2026-04-30T10:53:00.991Z</time></trkpt><trkpt lat="48.53342075370832" lon="7.389456185678178"><ele>209.0</ele><time>2026-04-30T10:53:01.991Z</time></trkpt><trkpt lat="48.53338105089608" lon="7.389119859375879"><ele>209.0</ele><time>2026-04-30T10:53:02.991Z</time></trkpt><trkpt lat="48.533340745903494" lon="7.388786732841144"><ele>209.0</ele><time>2026-04-30T10:53:03.991Z</time></trkpt><trkpt lat="48.53329536039835" lon="7.38847684813486"><ele>209.0</ele><time>2026-04-30T10:53:04.991Z</time></trkpt><trkpt lat="48.53324751676006" lon="7.388187478844388"><ele>209.33333333333334</ele><time>2026-04-30T10:53:05.991Z</time></trkpt><trkpt lat="48.53319470890043" lon="7.387898642745982"><ele>209.66666666666669</ele><time>2026-04-30T10:53:06.991Z</time></trkpt><trkpt lat="48.53314000886508" lon="7.387612781985072"><ele>210.0</ele><time>2026-04-30T10:53:07.991Z</time></trkpt><trkpt lat="48.53308246440598" lon="7.387326968650514"><ele>210.0</ele><time>2026-04-30T10:53:08.991Z</time></trkpt><trkpt lat="48.533016791798815" lon="7.387044018940151"><ele>210.0</ele><time>2026-04-30T10:53:09.991Z</time></trkpt><trkpt lat="48.53294735735985" lon="7.386766984250769"><ele>210.0</ele><time>2026-04-30T10:53:10.991Z</time></trkpt><trkpt lat="48.53287308470717" lon="7.3864870072896425"><ele>210.33333333333331</ele><time>2026-04-30T10:53:11.991Z</time></trkpt><trkpt lat="48.5327960764524" lon="7.386210142221765"><ele>210.66666666666666</ele><time>2026-04-30T10:53:12.991Z</time></trkpt><trkpt lat="48.532716139583115" lon="7.38593592506449"><ele>211.0</ele><time>2026-04-30T10:53:13.991Z</time></trkpt><trkpt lat="48.53263273794341" lon="7.385657513978579"><ele>210.66666666666666</ele><time>2026-04-30T10:53:14.991Z</time></trkpt><trkpt lat="48.532549811029384" lon="7.385381927220054"><ele>210.33333333333331</ele><time>2026-04-30T10:53:15.991Z</time></trkpt><trkpt lat="48.53246352165532" lon="7.385105283875447"><ele>210.0</ele><time>2026-04-30T10:53:16.991Z</time></trkpt><trkpt lat="48.532378174795454" lon="7.384836889177129"><ele>210.0</ele><time>2026-04-30T10:53:17.991Z</time></trkpt><trkpt lat="48.532291733766925" lon="7.384579595983991"><ele>210.0</ele><time>2026-04-30T10:53:18.991Z</time></trkpt><trkpt lat="48.53219950728469" lon="7.384327494195036"><ele>210.0</ele><time>2026-04-30T10:53:19.991Z</time></trkpt><trkpt lat="48.53209743532257" lon="7.384085497263623"><ele>210.33333333333331</ele><time>2026-04-30T10:53:20.991Z</time></trkpt><trkpt lat="48.5319862626061" lon="7.383850727778836"><ele>210.66666666666666</ele><time>2026-04-30T10:53:21.991Z</time></trkpt><trkpt lat="48.531868748378294" lon="7.3836198143313485"><ele>211.0</ele><time>2026-04-30T10:53:22.991Z</time></trkpt><trkpt lat="48.531748280177965" lon="7.383393086231581"><ele>211.0</ele><time>2026-04-30T10:53:23.991Z</time></trkpt><trkpt lat="48.531625615129634" lon="7.383171253317587"><ele>211.0</ele><time>2026-04-30T10:53:24.991Z</time></trkpt><trkpt lat="48.53149534080973" lon="7.382948831473285"><ele>211.0</ele><time>2026-04-30T10:53:25.991Z</time></trkpt><trkpt lat="48.531369723534425" lon="7.382733609403627"><ele>211.0</ele><time>2026-04-30T10:53:26.991Z</time></trkpt><trkpt lat="48.53124017122236" lon="7.3825201017063495"><ele>211.0</ele><time>2026-04-30T10:53:27.991Z</time></trkpt><trkpt lat="48.53111584624873" lon="7.382323003092189"><ele>211.0</ele><time>2026-04-30T10:53:28.991Z</time></trkpt><trkpt lat="48.5309968920971" lon="7.382139607588313"><ele>211.33333333333331</ele><time>2026-04-30T10:53:29.991Z</time></trkpt><trkpt lat="48.53088026874742" lon="7.381964994947968"><ele>211.66666666666669</ele><time>2026-04-30T10:53:30.991Z</time></trkpt><trkpt lat="48.530770504997015" lon="7.381807714855112"><ele>212.0</ele><time>2026-04-30T10:53:31.991Z</time></trkpt><trkpt lat="48.53067359101138" lon="7.381663615949602"><ele>212.0</ele><time>2026-04-30T10:53:32.991Z</time></trkpt><trkpt lat="48.53058265717811" lon="7.381532707961617"><ele>212.0</ele><time>2026-04-30T10:53:33.991Z</time></trkpt><trkpt lat="48.530501102177325" lon="7.381421779378239"><ele>212.0</ele><time>2026-04-30T10:53:34.991Z</time></trkpt><trkpt lat="48.53043567820297" lon="7.381328452941535"><ele>212.0</ele><time>2026-04-30T10:53:35.99Z</time></trkpt><trkpt lat="48.530384996939645" lon="7.381234943112271"><ele>212.0</ele><time>2026-04-30T10:53:36.99Z</time></trkpt><trkpt lat="48.53034099878139" lon="7.381119525930221"><ele>212.6</ele><time>2026-04-30T10:53:37.99Z</time></trkpt><trkpt lat="48.530312614167336" lon="7.380984502842551"><ele>213.2</ele><time>2026-04-30T10:53:38.99Z</time></trkpt><trkpt lat="48.53026888706704" lon="7.380858824086976"><ele>213.8</ele><time>2026-04-30T10:53:39.99Z</time></trkpt><trkpt lat="48.53020154985335" lon="7.3807454647672985"><ele>214.4</ele><time>2026-04-30T10:53:40.99Z</time></trkpt><trkpt lat="48.53011120860783" lon="7.380660829210901"><ele>215.0</ele><time>2026-04-30T10:53:41.99Z</time></trkpt><trkpt lat="48.53001080687465" lon="7.380588140016019"><ele>215.33333333333334</ele><time>2026-04-30T10:53:42.99Z</time></trkpt><trkpt lat="48.52990431190885" lon="7.380489818034747"><ele>215.66666666666669</ele><time>2026-04-30T10:53:43.99Z</time></trkpt><trkpt lat="48.52979096586557" lon="7.380352032450421"><ele>216.0</ele><time>2026-04-30T10:53:44.99Z</time></trkpt><trkpt lat="48.529647600397674" lon="7.380161323761541"><ele>216.33333333333331</ele><time>2026-04-30T10:53:45.99Z</time></trkpt><trkpt lat="48.529495626961186" lon="7.379947553887703"><ele>216.66666666666666</ele><time>2026-04-30T10:53:46.99Z</time></trkpt><trkpt lat="48.529329858536606" lon="7.379709664276898"><ele>217.0</ele><time>2026-04-30T10:53:47.99Z</time></trkpt><trkpt lat="48.52914782542635" lon="7.379451191827496"><ele>217.0</ele><time>2026-04-30T10:53:48.99Z</time></trkpt><trkpt lat="48.52896790715065" lon="7.379188151849141"><ele>217.0</ele><time>2026-04-30T10:53:49.99Z</time></trkpt><trkpt lat="48.52879044155891" lon="7.378914971464745"><ele>214.5</ele><time>2026-04-30T10:53:50.99Z</time></trkpt><trkpt lat="48.52861516295933" lon="7.37864789402477"><ele>212.0</ele><time>2026-04-30T10:53:51.99Z</time></trkpt><trkpt lat="48.52843990209283" lon="7.378382386479365"><ele>212.0</ele><time>2026-04-30T10:53:52.99Z</time></trkpt><trkpt lat="48.528267845518585" lon="7.378120004368592"><ele>212.0</ele><time>2026-04-30T10:53:53.99Z</time></trkpt><trkpt lat="48.528092434612276" lon="7.377853899520973"><ele>212.5</ele><time>2026-04-30T10:53:54.99Z</time></trkpt><trkpt lat="48.52791223864938" lon="7.37759388384946"><ele>213.0</ele><time>2026-04-30T10:53:55.99Z</time></trkpt><trkpt lat="48.52773331386345" lon="7.377333912570847"><ele>214.5</ele><time>2026-04-30T10:53:56.99Z</time></trkpt><trkpt lat="48.527560693659474" lon="7.377080122512314"><ele>216.0</ele><time>2026-04-30T10:53:57.99Z</time></trkpt><trkpt lat="48.5273941990377" lon="7.376842897781872"><ele>216.0</ele><time>2026-04-30T10:53:58.99Z</time></trkpt><trkpt lat="48.527236144904315" lon="7.376615842031191"><ele>216.0</ele><time>2026-04-30T10:53:59.99Z</time></trkpt><trkpt lat="48.52708212255874" lon="7.376395860347789"><ele>216.0</ele><time>2026-04-30T10:54:00.99Z</time></trkpt><trkpt lat="48.52693108881242" lon="7.376174562841045"><ele>216.33333333333331</ele><time>2026-04-30T10:54:01.99Z</time></trkpt><trkpt lat="48.526780281426454" lon="7.375954771140691"><ele>216.66666666666666</ele><time>2026-04-30T10:54:02.99Z</time></trkpt><trkpt lat="48.52662978357386" lon="7.375730566070819"><ele>217.0</ele><time>2026-04-30T10:54:03.99Z</time></trkpt><trkpt lat="48.526481131703996" lon="7.375503138610576"><ele>217.33333333333331</ele><time>2026-04-30T10:54:04.99Z</time></trkpt><trkpt lat="48.52632860379457" lon="7.37526893970845"><ele>217.66666666666669</ele><time>2026-04-30T10:54:05.99Z</time></trkpt><trkpt lat="48.52617609167384" lon="7.375026383607815"><ele>218.0</ele><time>2026-04-30T10:54:06.99Z</time></trkpt><trkpt lat="48.526028773722764" lon="7.374789477943416"><ele>219.66666666666669</ele><time>2026-04-30T10:54:07.99Z</time></trkpt><trkpt lat="48.52589335805332" lon="7.374566242608647"><ele>221.33333333333331</ele><time>2026-04-30T10:54:08.99Z</time></trkpt><trkpt lat="48.52576790848381" lon="7.3743570884560485"><ele>223.0</ele><time>2026-04-30T10:54:09.99Z</time></trkpt><trkpt lat="48.525646175861816" lon="7.374149624114386"><ele>223.0</ele><time>2026-04-30T10:54:10.99Z</time></trkpt><trkpt lat="48.525521735328695" lon="7.373939258214247"><ele>223.0</ele><time>2026-04-30T10:54:11.99Z</time></trkpt><trkpt lat="48.52539494022127" lon="7.373719029084489"><ele>223.0</ele><time>2026-04-30T10:54:12.99Z</time></trkpt><trkpt lat="48.52526511976121" lon="7.373490524882089"><ele>223.0</ele><time>2026-04-30T10:54:13.99Z</time></trkpt><trkpt lat="48.525130667893954" lon="7.37325646991689"><ele>223.0</ele><time>2026-04-30T10:54:14.992Z</time></trkpt><trkpt lat="48.525001742904195" lon="7.373027525937879"><ele>223.0</ele><time>2026-04-30T10:54:15.992Z</time></trkpt><trkpt lat="48.52487494421582" lon="7.372792665263569"><ele>223.0</ele><time>2026-04-30T10:54:16.992Z</time></trkpt><trkpt lat="48.52474494085335" lon="7.372565476229383"><ele>223.0</ele><time>2026-04-30T10:54:17.993Z</time></trkpt><trkpt lat="48.52461885989977" lon="7.372333343892436"><ele>223.0</ele><time>2026-04-30T10:54:18.993Z</time></trkpt><trkpt lat="48.524489700235726" lon="7.372100280335208"><ele>221.33333333333331</ele><time>2026-04-30T10:54:19.994Z</time></trkpt><trkpt lat="48.52435981840612" lon="7.371881178483022"><ele>219.66666666666669</ele><time>2026-04-30T10:54:20.995Z</time></trkpt><trkpt lat="48.524230190898734" lon="7.371650628303326"><ele>218.0</ele><time>2026-04-30T10:54:21.995Z</time></trkpt><trkpt lat="48.524099474767446" lon="7.371416579050781"><ele>218.33333333333334</ele><time>2026-04-30T10:54:22.995Z</time></trkpt><trkpt lat="48.5239715935603" lon="7.371186701740492"><ele>218.66666666666669</ele><time>2026-04-30T10:54:23.996Z</time></trkpt><trkpt lat="48.523849041237874" lon="7.370961012678078"><ele>219.0</ele><time>2026-04-30T10:54:24.996Z</time></trkpt><trkpt lat="48.52372426946076" lon="7.370735174480413"><ele>219.0</ele><time>2026-04-30T10:54:25.996Z</time></trkpt><trkpt lat="48.5236114116262" lon="7.3705277998239165"><ele>219.0</ele><time>2026-04-30T10:54:26.996Z</time></trkpt><trkpt lat="48.52351170868376" lon="7.370313135321464"><ele>219.0</ele><time>2026-04-30T10:54:27.997Z</time></trkpt><trkpt lat="48.52341717728415" lon="7.370090309470486"><ele>219.33333333333331</ele><time>2026-04-30T10:54:28.997Z</time></trkpt><trkpt lat="48.52333105595219" lon="7.369861877934041"><ele>219.66666666666666</ele><time>2026-04-30T10:54:29.997Z</time></trkpt><trkpt lat="48.52325680323878" lon="7.369632407175316"><ele>220.0</ele><time>2026-04-30T10:54:30.997Z</time></trkpt><trkpt lat="48.52319408591583" lon="7.3694058147629145"><ele>222.33333333333331</ele><time>2026-04-30T10:54:31.997Z</time></trkpt><trkpt lat="48.52313349340816" lon="7.3691760585521555"><ele>224.66666666666669</ele><time>2026-04-30T10:54:32.998Z</time></trkpt><trkpt lat="48.52308341339547" lon="7.368941815086295"><ele>227.0</ele><time>2026-04-30T10:54:33.998Z</time></trkpt><trkpt lat="48.5230422142061" lon="7.368705961098619"><ele>225.66666666666669</ele><time>2026-04-30T10:54:34.998Z</time></trkpt><trkpt lat="48.52300370571124" lon="7.3684679432647195"><ele>224.33333333333331</ele><time>2026-04-30T10:54:35.998Z</time></trkpt><trkpt lat="48.52295791083505" lon="7.368244092207306"><ele>223.0</ele><time>2026-04-30T10:54:36.998Z</time></trkpt><trkpt lat="48.52287970919738" lon="7.368033257794075"><ele>226.33333333333331</ele><time>2026-04-30T10:54:37.998Z</time></trkpt><trkpt lat="48.522788754975714" lon="7.367832423532955"><ele>229.66666666666669</ele><time>2026-04-30T10:54:38.998Z</time></trkpt><trkpt lat="48.522685932942046" lon="7.367650926894549"><ele>233.0</ele><time>2026-04-30T10:54:39.999Z</time></trkpt><trkpt lat="48.52258171879959" lon="7.367478156332696"><ele>233.0</ele><time>2026-04-30T10:54:40.999Z</time></trkpt><trkpt lat="48.522466520502874" lon="7.367313295228936"><ele>233.0</ele><time>2026-04-30T10:54:41.999Z</time></trkpt><trkpt lat="48.522347343113594" lon="7.367157641351037"><ele>233.0</ele><time>2026-04-30T10:54:42.999Z</time></trkpt><trkpt lat="48.522235676042534" lon="7.367001550306432"><ele>230.0</ele><time>2026-04-30T10:54:43.999Z</time></trkpt><trkpt lat="48.522119151212245" lon="7.36683560234946"><ele>227.0</ele><time>2026-04-30T10:54:44.999Z</time></trkpt><trkpt lat="48.52199490221919" lon="7.366674807934236"><ele>224.0</ele><time>2026-04-30T10:54:45.999Z</time></trkpt><trkpt lat="48.52188743020785" lon="7.366477227642668"><ele>226.33333333333334</ele><time>2026-04-30T10:54:46.999Z</time></trkpt><trkpt lat="48.52180819611925" lon="7.366233677999701"><ele>228.66666666666669</ele><time>2026-04-30T10:54:47.999Z</time></trkpt><trkpt lat="48.521718325971186" lon="7.365993425252765"><ele>231.0</ele><time>2026-04-30T10:54:48.999Z</time></trkpt><trkpt lat="48.521643870256625" lon="7.365742685918181"><ele>233.0</ele><time>2026-04-30T10:54:49.999Z</time></trkpt><trkpt lat="48.5215984582043" lon="7.365483805739812"><ele>235.0</ele><time>2026-04-30T10:54:50.999Z</time></trkpt><trkpt lat="48.52157427552531" lon="7.365239644958081"><ele>237.0</ele><time>2026-04-30T10:54:51.999Z</time></trkpt><trkpt lat="48.52159056027481" lon="7.364997065189969"><ele>237.0</ele><time>2026-04-30T10:54:52.999Z</time></trkpt><trkpt lat="48.52160034558859" lon="7.364739985518681"><ele>237.0</ele><time>2026-04-30T10:54:53.999Z</time></trkpt><trkpt lat="48.52163080281595" lon="7.364488832889504"><ele>237.0</ele><time>2026-04-30T10:54:54.999Z</time></trkpt><trkpt lat="48.52167779457109" lon="7.3642395277212245"><ele>236.33333333333331</ele><time>2026-04-30T10:54:55.999Z</time></trkpt><trkpt lat="48.52174193200104" lon="7.364001637528581"><ele>235.66666666666666</ele><time>2026-04-30T10:54:56.999Z</time></trkpt><trkpt lat="48.52180056207633" lon="7.3637511095260075"><ele>235.0</ele><time>2026-04-30T10:54:57.999Z</time></trkpt><trkpt lat="48.5218965077486" lon="7.363502968840027"><ele>236.0</ele><time>2026-04-30T10:54:59Z</time></trkpt><trkpt lat="48.52199687335713" lon="7.363264352773073"><ele>237.0</ele><time>2026-04-30T10:55:00Z</time></trkpt><trkpt lat="48.52211045044169" lon="7.363029814528828"><ele>238.0</ele><time>2026-04-30T10:55:01Z</time></trkpt><trkpt lat="48.522236969028704" lon="7.3627936651328545"><ele>238.0</ele><time>2026-04-30T10:55:02Z</time></trkpt><trkpt lat="48.52238140753601" lon="7.362576549914815"><ele>238.0</ele><time>2026-04-30T10:55:03Z</time></trkpt><trkpt lat="48.522543094397555" lon="7.362384779675793"><ele>238.0</ele><time>2026-04-30T10:55:04Z</time></trkpt><trkpt lat="48.522695920123695" lon="7.362244286443477"><ele>239.0</ele><time>2026-04-30T10:55:05Z</time></trkpt><trkpt lat="48.522855702438974" lon="7.362108605369524"><ele>240.0</ele><time>2026-04-30T10:55:06Z</time></trkpt><trkpt lat="48.52300780046054" lon="7.361979132522284"><ele>241.0</ele><time>2026-04-30T10:55:07Z</time></trkpt><trkpt lat="48.52315094140632" lon="7.361855095272254"><ele>241.0</ele><time>2026-04-30T10:55:08Z</time></trkpt><trkpt lat="48.52329184214974" lon="7.3617315400608465"><ele>241.0</ele><time>2026-04-30T10:55:09Z</time></trkpt><trkpt lat="48.52341659285055" lon="7.361601357944192"><ele>241.0</ele><time>2026-04-30T10:55:10Z</time></trkpt><trkpt lat="48.523534026336314" lon="7.36146015053104"><ele>243.66666666666666</ele><time>2026-04-30T10:55:11Z</time></trkpt><trkpt lat="48.523656218121616" lon="7.361287306513309"><ele>246.33333333333331</ele><time>2026-04-30T10:55:12Z</time></trkpt><trkpt lat="48.52376514766371" lon="7.361072566009985"><ele>249.0</ele><time>2026-04-30T10:55:13Z</time></trkpt><trkpt lat="48.523851330784765" lon="7.360849528537294"><ele>249.0</ele><time>2026-04-30T10:55:14Z</time></trkpt><trkpt lat="48.52392195956354" lon="7.360602519881568"><ele>249.0</ele><time>2026-04-30T10:55:15Z</time></trkpt><trkpt lat="48.5239667227003" lon="7.360327687502044"><ele>249.0</ele><time>2026-04-30T10:55:16Z</time></trkpt><trkpt lat="48.524033451567824" lon="7.360081493395954"><ele>246.66666666666669</ele><time>2026-04-30T10:55:17Z</time></trkpt><trkpt lat="48.5240826341007" lon="7.359825717500478"><ele>244.33333333333334</ele><time>2026-04-30T10:55:18Z</time></trkpt><trkpt lat="48.52412807340962" lon="7.35957530381936"><ele>242.0</ele><time>2026-04-30T10:55:19Z</time></trkpt><trkpt lat="48.52417169435669" lon="7.359323707033059"><ele>240.0</ele><time>2026-04-30T10:55:20Z</time></trkpt><trkpt lat="48.52421527957563" lon="7.359066694434409"><ele>238.0</ele><time>2026-04-30T10:55:21Z</time></trkpt><trkpt lat="48.52425859323524" lon="7.35880282233534"><ele>236.0</ele><time>2026-04-30T10:55:22Z</time></trkpt><trkpt lat="48.52430185198116" lon="7.35854105737723"><ele>235.0</ele><time>2026-04-30T10:55:23Z</time></trkpt><trkpt lat="48.52434862545367" lon="7.358290710244396"><ele>234.0</ele><time>2026-04-30T10:55:24Z</time></trkpt><trkpt lat="48.52440869882792" lon="7.358048207597958"><ele>233.0</ele><time>2026-04-30T10:55:25Z</time></trkpt><trkpt lat="48.52448282445138" lon="7.357815577050634"><ele>232.0</ele><time>2026-04-30T10:55:26Z</time></trkpt><trkpt lat="48.52456133530611" lon="7.357597765834861"><ele>231.0</ele><time>2026-04-30T10:55:27Z</time></trkpt><trkpt lat="48.5246432919422" lon="7.357386123535885"><ele>230.0</ele><time>2026-04-30T10:55:28Z</time></trkpt><trkpt lat="48.52473171806423" lon="7.357175108277005"><ele>232.33333333333334</ele><time>2026-04-30T10:55:29Z</time></trkpt><trkpt lat="48.52481919177541" lon="7.356980353017048"><ele>234.66666666666669</ele><time>2026-04-30T10:55:30Z</time></trkpt><trkpt lat="48.524910822236514" lon="7.35677780882023"><ele>237.0</ele><time>2026-04-30T10:55:31Z</time></trkpt><trkpt lat="48.52499761749417" lon="7.35657864880933"><ele>236.33333333333331</ele><time>2026-04-30T10:55:32Z</time></trkpt><trkpt lat="48.52507243882405" lon="7.35636608765706"><ele>235.66666666666666</ele><time>2026-04-30T10:55:33Z</time></trkpt><trkpt lat="48.525137325744296" lon="7.356134179321644"><ele>235.0</ele><time>2026-04-30T10:55:34Z</time></trkpt><trkpt lat="48.52519907318552" lon="7.355881311082365"><ele>235.0</ele><time>2026-04-30T10:55:35Z</time></trkpt><trkpt lat="48.52524591006697" lon="7.355621676155799"><ele>235.0</ele><time>2026-04-30T10:55:36Z</time></trkpt><trkpt lat="48.525258901955674" lon="7.355348299645999"><ele>235.0</ele><time>2026-04-30T10:55:37Z</time></trkpt><trkpt lat="48.525248256890336" lon="7.355079733859213"><ele>235.33333333333331</ele><time>2026-04-30T10:55:38Z</time></trkpt><trkpt lat="48.52521291752995" lon="7.35479625008505"><ele>235.66666666666669</ele><time>2026-04-30T10:55:38.999Z</time></trkpt><trkpt lat="48.52514330770628" lon="7.3545330769791"><ele>236.0</ele><time>2026-04-30T10:55:39.999Z</time></trkpt><trkpt lat="48.52509106250778" lon="7.354290104398058"><ele>236.33333333333334</ele><time>2026-04-30T10:55:40.999Z</time></trkpt><trkpt lat="48.52504738963212" lon="7.354052652017455"><ele>236.66666666666669</ele><time>2026-04-30T10:55:41.999Z</time></trkpt><trkpt lat="48.52498944625431" lon="7.353816656301289"><ele>237.0</ele><time>2026-04-30T10:55:42.999Z</time></trkpt><trkpt lat="48.524928345784396" lon="7.353567801511601"><ele>237.33333333333331</ele><time>2026-04-30T10:55:43.999Z</time></trkpt><trkpt lat="48.524871931880384" lon="7.353331105225921"><ele>237.66666666666666</ele><time>2026-04-30T10:55:44.999Z</time></trkpt><trkpt lat="48.52479845720686" lon="7.353089098268829"><ele>238.0</ele><time>2026-04-30T10:55:45.999Z</time></trkpt><trkpt lat="48.52476726536927" lon="7.352827659415434"><ele>238.0</ele><time>2026-04-30T10:55:46.999Z</time></trkpt><trkpt lat="48.52473808898293" lon="7.352573888767399"><ele>238.0</ele><time>2026-04-30T10:55:47.999Z</time></trkpt><trkpt lat="48.524718978485154" lon="7.352315243412268"><ele>238.0</ele><time>2026-04-30T10:55:48.999Z</time></trkpt><trkpt lat="48.52471093128298" lon="7.352069536239213"><ele>237.33333333333331</ele><time>2026-04-30T10:55:49.999Z</time></trkpt><trkpt lat="48.524717734566316" lon="7.351839371501909"><ele>236.66666666666669</ele><time>2026-04-30T10:55:50.999Z</time></trkpt><trkpt lat="48.52471880595785" lon="7.351601891845287"><ele>236.0</ele><time>2026-04-30T10:55:51.999Z</time></trkpt><trkpt lat="48.52474018172026" lon="7.351366968384054"><ele>234.33333333333334</ele><time>2026-04-30T10:55:52.999Z</time></trkpt><trkpt lat="48.524769899841004" lon="7.351123976651064"><ele>232.66666666666669</ele><time>2026-04-30T10:55:53.999Z</time></trkpt><trkpt lat="48.5248087846519" lon="7.3508894536553795"><ele>231.0</ele><time>2026-04-30T10:55:54.999Z</time></trkpt><trkpt lat="48.52486162528581" lon="7.350651796351322"><ele>230.33333333333331</ele><time>2026-04-30T10:55:55.999Z</time></trkpt><trkpt lat="48.52490670099442" lon="7.350384572795076"><ele>229.66666666666666</ele><time>2026-04-30T10:55:56.999Z</time></trkpt><trkpt lat="48.5249627854824" lon="7.350114578137396"><ele>229.0</ele><time>2026-04-30T10:55:57.999Z</time></trkpt><trkpt lat="48.52501135899549" lon="7.349830371824343"><ele>228.66666666666666</ele><time>2026-04-30T10:55:58.999Z</time></trkpt><trkpt lat="48.525060154970205" lon="7.349529267109018"><ele>228.33333333333331</ele><time>2026-04-30T10:55:59.999Z</time></trkpt><trkpt lat="48.525106527554826" lon="7.349228554690073"><ele>228.0</ele><time>2026-04-30T10:56:00.999Z</time></trkpt><trkpt lat="48.52515484986982" lon="7.348958418093266"><ele>228.0</ele><time>2026-04-30T10:56:01.999Z</time></trkpt><trkpt lat="48.52520202987401" lon="7.348710472168161"><ele>228.0</ele><time>2026-04-30T10:56:02.999Z</time></trkpt><trkpt lat="48.525258557247476" lon="7.348477886738834"><ele>228.0</ele><time>2026-04-30T10:56:03.999Z</time></trkpt><trkpt lat="48.52531537579523" lon="7.348268226853085"><ele>228.0</ele><time>2026-04-30T10:56:04.999Z</time></trkpt><trkpt lat="48.525376525680095" lon="7.348064512665736"><ele>228.0</ele><time>2026-04-30T10:56:05.999Z</time></trkpt><trkpt lat="48.525441907318516" lon="7.347889497122417"><ele>228.0</ele><time>2026-04-30T10:56:06.999Z</time></trkpt><trkpt lat="48.52550302599678" lon="7.347726326101899"><ele>228.0</ele><time>2026-04-30T10:56:07.999Z</time></trkpt><trkpt lat="48.52557948289767" lon="7.34759490635913"><ele>229.0</ele><time>2026-04-30T10:56:08.999Z</time></trkpt><trkpt lat="48.525630598808384" lon="7.347450187074912"><ele>230.0</ele><time>2026-04-30T10:56:09.999Z</time></trkpt><trkpt lat="48.52567341126248" lon="7.347325681291564"><ele>231.0</ele><time>2026-04-30T10:56:10.999Z</time></trkpt><trkpt lat="48.525716386009606" lon="7.347210270286338"><ele>232.0</ele><time>2026-04-30T10:56:11.999Z</time></trkpt><trkpt lat="48.52576096609234" lon="7.34709112553537"><ele>233.0</ele><time>2026-04-30T10:56:12.999Z</time></trkpt><trkpt lat="48.52580699920215" lon="7.346995903125536"><ele>233.0</ele><time>2026-04-30T10:56:13.999Z</time></trkpt><trkpt lat="48.52590679674845" lon="7.346897307968942"><ele>233.0</ele><time>2026-04-30T10:56:15.999Z</time></trkpt><trkpt lat="48.525979756190424" lon="7.346884157101211"><ele>233.0</ele><time>2026-04-30T10:56:16.999Z</time></trkpt><trkpt lat="48.52606104032954" lon="7.346918503634634"><ele>233.0</ele><time>2026-04-30T10:56:17.999Z</time></trkpt><trkpt lat="48.52614338765882" lon="7.346994439526784"><ele>233.0</ele><time>2026-04-30T10:56:18.999Z</time></trkpt><trkpt lat="48.52619618559392" lon="7.347108341611054"><ele>233.0</ele><time>2026-04-30T10:56:19.999Z</time></trkpt><trkpt lat="48.52620700274853" lon="7.347271592863524"><ele>233.0</ele><time>2026-04-30T10:56:21.001Z</time></trkpt><trkpt lat="48.52625179047967" lon="7.347448814213235"><ele>233.0</ele><time>2026-04-30T10:56:22Z</time></trkpt><trkpt lat="48.52629450888015" lon="7.347649345677252"><ele>233.0</ele><time>2026-04-30T10:56:23Z</time></trkpt><trkpt lat="48.526391777595066" lon="7.34784422969967"><ele>233.66666666666669</ele><time>2026-04-30T10:56:24.001Z</time></trkpt><trkpt lat="48.52650675972656" lon="7.348010457663276"><ele>234.33333333333331</ele><time>2026-04-30T10:56:25Z</time></trkpt><trkpt lat="48.52666124373804" lon="7.348109459904643"><ele>235.0</ele><time>2026-04-30T10:56:26Z</time></trkpt><trkpt lat="48.52684770355591" lon="7.348148945520058"><ele>234.33333333333331</ele><time>2026-04-30T10:56:27.001Z</time></trkpt><trkpt lat="48.527037275007565" lon="7.348121692062723"><ele>233.66666666666669</ele><time>2026-04-30T10:56:28Z</time></trkpt><trkpt lat="48.527242489157196" lon="7.348084548123867"><ele>233.0</ele><time>2026-04-30T10:56:29Z</time></trkpt><trkpt lat="48.527463392657324" lon="7.348059170682365"><ele>233.0</ele><time>2026-04-30T10:56:30.001Z</time></trkpt><trkpt lat="48.527699563984406" lon="7.348054881584722"><ele>233.0</ele><time>2026-04-30T10:56:31Z</time></trkpt><trkpt lat="48.527938697953765" lon="7.348046553648178"><ele>235.5</ele><time>2026-04-30T10:56:32Z</time></trkpt><trkpt lat="48.52818599457876" lon="7.348034779684319"><ele>238.0</ele><time>2026-04-30T10:56:33.001Z</time></trkpt><trkpt lat="48.52844565528596" lon="7.348031969285578"><ele>238.0</ele><time>2026-04-30T10:56:34.001Z</time></trkpt><trkpt lat="48.52868708491888" lon="7.348025558566885"><ele>238.0</ele><time>2026-04-30T10:56:35.001Z</time></trkpt><trkpt lat="48.528925535859635" lon="7.34801139371776"><ele>241.0</ele><time>2026-04-30T10:56:36.001Z</time></trkpt><trkpt lat="48.52916113352566" lon="7.348004697655582"><ele>244.0</ele><time>2026-04-30T10:56:37.001Z</time></trkpt><trkpt lat="48.529395219325444" lon="7.347998331319651"><ele>243.0</ele><time>2026-04-30T10:56:38.001Z</time></trkpt><trkpt lat="48.52963030222035" lon="7.3479811475044405"><ele>242.0</ele><time>2026-04-30T10:56:39.001Z</time></trkpt><trkpt lat="48.52986370714968" lon="7.347942457857431"><ele>242.0</ele><time>2026-04-30T10:56:40.001Z</time></trkpt><trkpt lat="48.53009671160225" lon="7.34785685692968"><ele>242.0</ele><time>2026-04-30T10:56:41.001Z</time></trkpt><trkpt lat="48.5303258377858" lon="7.34774764531572"><ele>241.0</ele><time>2026-04-30T10:56:42.001Z</time></trkpt><trkpt lat="48.53055727913239" lon="7.347640043055114"><ele>240.0</ele><time>2026-04-30T10:56:43.001Z</time></trkpt><trkpt lat="48.530788774715006" lon="7.347521150140412"><ele>240.0</ele><time>2026-04-30T10:56:44.001Z</time></trkpt><trkpt lat="48.53102047803395" lon="7.347413139919665"><ele>240.0</ele><time>2026-04-30T10:56:45Z</time></trkpt><trkpt lat="48.531250140621516" lon="7.347307206284534"><ele>244.0</ele><time>2026-04-30T10:56:46Z</time></trkpt><trkpt lat="48.531482045163024" lon="7.3472018036969455"><ele>248.0</ele><time>2026-04-30T10:56:47Z</time></trkpt><trkpt lat="48.53171729963113" lon="7.347120501807681"><ele>248.0</ele><time>2026-04-30T10:56:48Z</time></trkpt><trkpt lat="48.531952120519634" lon="7.347035874324556"><ele>248.0</ele><time>2026-04-30T10:56:49Z</time></trkpt><trkpt lat="48.532194712438944" lon="7.346977384653433"><ele>248.5</ele><time>2026-04-30T10:56:50Z</time></trkpt><trkpt lat="48.532429682006594" lon="7.346916864233101"><ele>249.0</ele><time>2026-04-30T10:56:51Z</time></trkpt><trkpt lat="48.532663065568386" lon="7.346857733153664"><ele>247.5</ele><time>2026-04-30T10:56:52Z</time></trkpt><trkpt lat="48.53289455052493" lon="7.346806942442707"><ele>246.0</ele><time>2026-04-30T10:56:53Z</time></trkpt><trkpt lat="48.533132288836036" lon="7.346759819280694"><ele>246.0</ele><time>2026-04-30T10:56:54Z</time></trkpt><trkpt lat="48.533374736164475" lon="7.346713500814243"><ele>246.0</ele><time>2026-04-30T10:56:55Z</time></trkpt><trkpt lat="48.53361954281553" lon="7.346683132496654"><ele>244.0</ele><time>2026-04-30T10:56:56Z</time></trkpt><trkpt lat="48.5338601703528" lon="7.3466512293271675"><ele>242.0</ele><time>2026-04-30T10:56:57Z</time></trkpt><trkpt lat="48.5340985501101" lon="7.346616905442611"><ele>242.0</ele><time>2026-04-30T10:56:58Z</time></trkpt><trkpt lat="48.53434700149749" lon="7.34658544826665"><ele>242.0</ele><time>2026-04-30T10:56:59Z</time></trkpt><trkpt lat="48.53459890936922" lon="7.346564367520503"><ele>242.0</ele><time>2026-04-30T10:57:00Z</time></trkpt><trkpt lat="48.534835558336965" lon="7.346540351516975"><ele>242.0</ele><time>2026-04-30T10:57:01Z</time></trkpt><trkpt lat="48.535049260096436" lon="7.346525781154779"><ele>242.0</ele><time>2026-04-30T10:57:02Z</time></trkpt><trkpt lat="48.5352423244862" lon="7.3465037390059384"><ele>242.0</ele><time>2026-04-30T10:57:03Z</time></trkpt><trkpt lat="48.535429169244175" lon="7.346482079927238"><ele>242.0</ele><time>2026-04-30T10:57:04Z</time></trkpt><trkpt lat="48.53559744693484" lon="7.346461034902148"><ele>241.75</ele><time>2026-04-30T10:57:05Z</time></trkpt><trkpt lat="48.535755028727415" lon="7.346440670091159"><ele>241.5</ele><time>2026-04-30T10:57:06Z</time></trkpt><trkpt lat="48.53590503536161" lon="7.34642052473378"><ele>241.25</ele><time>2026-04-30T10:57:07Z</time></trkpt><trkpt lat="48.536040227735974" lon="7.346407610713302"><ele>241.0</ele><time>2026-04-30T10:57:08Z</time></trkpt><trkpt lat="48.53615953044372" lon="7.3463959491757835"><ele>241.4</ele><time>2026-04-30T10:57:09Z</time></trkpt><trkpt lat="48.536261645665405" lon="7.346383933691825"><ele>241.8</ele><time>2026-04-30T10:57:10Z</time></trkpt><trkpt lat="48.53635560069969" lon="7.346378352800679"><ele>242.20000000000002</ele><time>2026-04-30T10:57:11Z</time></trkpt><trkpt lat="48.53643887037068" lon="7.346370854956369"><ele>242.60000000000002</ele><time>2026-04-30T10:57:12Z</time></trkpt><trkpt lat="48.536528332807826" lon="7.346362732228266"><ele>243.0</ele><time>2026-04-30T10:57:13Z</time></trkpt><trkpt lat="48.536627141270145" lon="7.346354482535683"><ele>245.0</ele><time>2026-04-30T10:57:14Z</time></trkpt><trkpt lat="48.53673353902538" lon="7.34634506922253"><ele>247.0</ele><time>2026-04-30T10:57:15Z</time></trkpt><trkpt lat="48.536847409680746" lon="7.3463350253533815"><ele>249.0</ele><time>2026-04-30T10:57:16Z</time></trkpt><trkpt lat="48.536963506817884" lon="7.3463179185000955"><ele>251.0</ele><time>2026-04-30T10:57:17Z</time></trkpt><trkpt lat="48.53708147344808" lon="7.34630656210249"><ele>251.0</ele><time>2026-04-30T10:57:18Z</time></trkpt><trkpt lat="48.53719829016819" lon="7.346297128332698"><ele>251.0</ele><time>2026-04-30T10:57:19Z</time></trkpt><trkpt lat="48.53732080189714" lon="7.346282835203918"><ele>251.0</ele><time>2026-04-30T10:57:20Z</time></trkpt><trkpt lat="48.53744219197934" lon="7.346267764655629"><ele>251.0</ele><time>2026-04-30T10:57:21Z</time></trkpt><trkpt lat="48.53756420488029" lon="7.346250536182016"><ele>251.0</ele><time>2026-04-30T10:57:22Z</time></trkpt><trkpt lat="48.53768271082719" lon="7.346231195592242"><ele>251.0</ele><time>2026-04-30T10:57:23Z</time></trkpt><trkpt lat="48.537804469448076" lon="7.346210673931698"><ele>251.0</ele><time>2026-04-30T10:57:24Z</time></trkpt><trkpt lat="48.5379235666728" lon="7.346184911403234"><ele>251.0</ele><time>2026-04-30T10:57:25Z</time></trkpt><trkpt lat="48.53804218526729" lon="7.346158490981496"><ele>250.25</ele><time>2026-04-30T10:57:26Z</time></trkpt><trkpt lat="48.5381597950967" lon="7.346123063928488"><ele>249.5</ele><time>2026-04-30T10:57:27Z</time></trkpt><trkpt lat="48.53828264060855" lon="7.346084751926557"><ele>248.75</ele><time>2026-04-30T10:57:28Z</time></trkpt><trkpt lat="48.538403801770194" lon="7.3460386495690475"><ele>248.0</ele><time>2026-04-30T10:57:29Z</time></trkpt><trkpt lat="48.538524672932645" lon="7.345979864636621"><ele>248.0</ele><time>2026-04-30T10:57:30Z</time></trkpt><trkpt lat="48.538640414198525" lon="7.345903659289065"><ele>248.0</ele><time>2026-04-30T10:57:31Z</time></trkpt><trkpt lat="48.53875119168476" lon="7.345816202494429"><ele>248.0</ele><time>2026-04-30T10:57:32Z</time></trkpt><trkpt lat="48.538853097316064" lon="7.345731234125653"><ele>248.0</ele><time>2026-04-30T10:57:33Z</time></trkpt><trkpt lat="48.53895139835853" lon="7.345654186221807"><ele>247.75</ele><time>2026-04-30T10:57:34Z</time></trkpt><trkpt lat="48.5390485000852" lon="7.34557699872885"><ele>247.5</ele><time>2026-04-30T10:57:35Z</time></trkpt><trkpt lat="48.53915093120089" lon="7.345501526613081"><ele>247.25</ele><time>2026-04-30T10:57:36Z</time></trkpt><trkpt lat="48.53925813416659" lon="7.3454422408550535"><ele>247.0</ele><time>2026-04-30T10:57:37Z</time></trkpt><trkpt lat="48.53936693522998" lon="7.345368921097616"><ele>246.8</ele><time>2026-04-30T10:57:38Z</time></trkpt><trkpt lat="48.53947002238029" lon="7.3452920807876625"><ele>246.6</ele><time>2026-04-30T10:57:39Z</time></trkpt><trkpt lat="48.539568707533356" lon="7.345216892375287"><ele>246.40000000000003</ele><time>2026-04-30T10:57:40Z</time></trkpt><trkpt lat="48.53966347532448" lon="7.3451436498774765"><ele>246.20000000000002</ele><time>2026-04-30T10:57:41Z</time></trkpt><trkpt lat="48.539755205000574" lon="7.345065849028838"><ele>246.0</ele><time>2026-04-30T10:57:42Z</time></trkpt><trkpt lat="48.53984376504116" lon="7.344972339249466"><ele>246.0</ele><time>2026-04-30T10:57:43Z</time></trkpt><trkpt lat="48.53991954499718" lon="7.344854317768812"><ele>246.0</ele><time>2026-04-30T10:57:44Z</time></trkpt><trkpt lat="48.53999354911218" lon="7.34472559686237"><ele>246.0</ele><time>2026-04-30T10:57:45Z</time></trkpt><trkpt lat="48.54007354439749" lon="7.344596173449034"><ele>246.0</ele><time>2026-04-30T10:57:46Z</time></trkpt><trkpt lat="48.54016045405745" lon="7.344461051451747"><ele>246.5</ele><time>2026-04-30T10:57:47Z</time></trkpt><trkpt lat="48.54025222248162" lon="7.344333032039683"><ele>247.0</ele><time>2026-04-30T10:57:48Z</time></trkpt><trkpt lat="48.54034269966742" lon="7.344209439606607"><ele>247.5</ele><time>2026-04-30T10:57:49Z</time></trkpt><trkpt lat="48.54042466836733" lon="7.3440819106727275"><ele>248.0</ele><time>2026-04-30T10:57:50Z</time></trkpt><trkpt lat="48.540508228956455" lon="7.343952051073106"><ele>248.5</ele><time>2026-04-30T10:57:51Z</time></trkpt><trkpt lat="48.54059205641682" lon="7.343825219517474"><ele>249.0</ele><time>2026-04-30T10:57:52Z</time></trkpt><trkpt lat="48.540673424621446" lon="7.343694546199048"><ele>249.5</ele><time>2026-04-30T10:57:53Z</time></trkpt><trkpt lat="48.540754566987054" lon="7.3435760628316"><ele>250.0</ele><time>2026-04-30T10:57:54Z</time></trkpt><trkpt lat="48.54083835966527" lon="7.343452086646334"><ele>250.0</ele><time>2026-04-30T10:57:55Z</time></trkpt><trkpt lat="48.540917942986844" lon="7.343320732399604"><ele>250.0</ele><time>2026-04-30T10:57:56Z</time></trkpt><trkpt lat="48.5410024777082" lon="7.343181557231687"><ele>250.0</ele><time>2026-04-30T10:57:56.999Z</time></trkpt><trkpt lat="48.54109517818124" lon="7.343061752256323"><ele>250.0</ele><time>2026-04-30T10:57:57.999Z</time></trkpt><trkpt lat="48.54120225305741" lon="7.342973616315423"><ele>250.25</ele><time>2026-04-30T10:57:58.999Z</time></trkpt><trkpt lat="48.54131657437961" lon="7.342907721499054"><ele>250.5</ele><time>2026-04-30T10:57:59.999Z</time></trkpt><trkpt lat="48.54143793622896" lon="7.342853454686015"><ele>250.75</ele><time>2026-04-30T10:58:00.999Z</time></trkpt><trkpt lat="48.54155629804529" lon="7.342790003021994"><ele>251.0</ele><time>2026-04-30T10:58:01.999Z</time></trkpt><trkpt lat="48.54166903474341" lon="7.3426989770197615"><ele>251.0</ele><time>2026-04-30T10:58:02.999Z</time></trkpt><trkpt lat="48.541767506216395" lon="7.342580431292702"><ele>251.0</ele><time>2026-04-30T10:58:03.999Z</time></trkpt><trkpt lat="48.5418551286431" lon="7.342441269134487"><ele>251.0</ele><time>2026-04-30T10:58:04.999Z</time></trkpt><trkpt lat="48.54194450047665" lon="7.342293741196064"><ele>251.0</ele><time>2026-04-30T10:58:05.999Z</time></trkpt><trkpt lat="48.542033565529884" lon="7.342148878359578"><ele>251.0</ele><time>2026-04-30T10:58:06.999Z</time></trkpt><trkpt lat="48.5421159121549" lon="7.341999677863927"><ele>251.0</ele><time>2026-04-30T10:58:07.999Z</time></trkpt><trkpt lat="48.542204019807514" lon="7.341858352673188"><ele>251.0</ele><time>2026-04-30T10:58:08.999Z</time></trkpt><trkpt lat="48.54228522038482" lon="7.341722330751004"><ele>251.0</ele><time>2026-04-30T10:58:09.999Z</time></trkpt><trkpt lat="48.542360712752846" lon="7.341595659595058"><ele>251.0</ele><time>2026-04-30T10:58:10.999Z</time></trkpt><trkpt lat="48.54242089808476" lon="7.341447001121546"><ele>251.0</ele><time>2026-04-30T10:58:11.999Z</time></trkpt><trkpt lat="48.54247008754542" lon="7.341289358828377"><ele>251.0</ele><time>2026-04-30T10:58:12.999Z</time></trkpt><trkpt lat="48.54251997886256" lon="7.341129105822563"><ele>251.0</ele><time>2026-04-30T10:58:13.999Z</time></trkpt><trkpt lat="48.54257023100942" lon="7.340963284243373"><ele>251.75</ele><time>2026-04-30T10:58:14.999Z</time></trkpt><trkpt lat="48.5426179076784" lon="7.34079427834269"><ele>252.5</ele><time>2026-04-30T10:58:15.999Z</time></trkpt><trkpt lat="48.54266885229452" lon="7.340632130658787"><ele>253.25</ele><time>2026-04-30T10:58:16.999Z</time></trkpt><trkpt lat="48.54272708936272" lon="7.340471383493482"><ele>254.0</ele><time>2026-04-30T10:58:17.999Z</time></trkpt><trkpt lat="48.54281880641393" lon="7.34034325768371"><ele>254.39999999999998</ele><time>2026-04-30T10:58:18.999Z</time></trkpt><trkpt lat="48.54290138237955" lon="7.340227016304125"><ele>254.79999999999998</ele><time>2026-04-30T10:58:19.999Z</time></trkpt><trkpt lat="48.542988032615476" lon="7.340130805033608"><ele>255.20000000000002</ele><time>2026-04-30T10:58:20.999Z</time></trkpt><trkpt lat="48.543084561189225" lon="7.340071635647482"><ele>255.60000000000002</ele><time>2026-04-30T10:58:21.999Z</time></trkpt><trkpt lat="48.54319514011975" lon="7.3400161996409725"><ele>256.0</ele><time>2026-04-30T10:58:22.999Z</time></trkpt><trkpt lat="48.543312629070954" lon="7.33995481356992"><ele>256.0</ele><time>2026-04-30T10:58:23.999Z</time></trkpt><trkpt lat="48.54342510172933" lon="7.339873170338323"><ele>256.0</ele><time>2026-04-30T10:58:24.999Z</time></trkpt><trkpt lat="48.54353215559713" lon="7.3397819657758046"><ele>256.0</ele><time>2026-04-30T10:58:25.999Z</time></trkpt><trkpt lat="48.5436354912422" lon="7.339721477962465"><ele>256.0</ele><time>2026-04-30T10:58:27.001Z</time></trkpt><trkpt lat="48.54371775998055" lon="7.3396564367166315"><ele>255.8</ele><time>2026-04-30T10:58:28.001Z</time></trkpt><trkpt lat="48.5438086616232" lon="7.339610428242274"><ele>255.60000000000002</ele><time>2026-04-30T10:58:29.001Z</time></trkpt><trkpt lat="48.54390950580194" lon="7.339578202568514"><ele>255.4</ele><time>2026-04-30T10:58:30.001Z</time></trkpt><trkpt lat="48.5440157785939" lon="7.339610440346032"><ele>255.2</ele><time>2026-04-30T10:58:31Z</time></trkpt><trkpt lat="48.54412278218254" lon="7.339654826785415"><ele>255.0</ele><time>2026-04-30T10:58:32Z</time></trkpt><trkpt lat="48.54424199002108" lon="7.339705082262937"><ele>255.25</ele><time>2026-04-30T10:58:33.001Z</time></trkpt><trkpt lat="48.544361909832595" lon="7.339779788653318"><ele>255.5</ele><time>2026-04-30T10:58:34Z</time></trkpt><trkpt lat="48.544473838207466" lon="7.339875719005652"><ele>255.75</ele><time>2026-04-30T10:58:35Z</time></trkpt><trkpt lat="48.54458243227769" lon="7.339973718993346"><ele>256.0</ele><time>2026-04-30T10:58:36.001Z</time></trkpt><trkpt lat="48.54469592716706" lon="7.340076605201244"><ele>256.2</ele><time>2026-04-30T10:58:37.001Z</time></trkpt><trkpt lat="48.54480629095962" lon="7.340170051856362"><ele>256.40000000000003</ele><time>2026-04-30T10:58:38.001Z</time></trkpt><trkpt lat="48.544904964635066" lon="7.340255428013143"><ele>256.6</ele><time>2026-04-30T10:58:39.001Z</time></trkpt><trkpt lat="48.544991915578784" lon="7.340342084943227"><ele>256.8</ele><time>2026-04-30T10:58:40.001Z</time></trkpt><trkpt lat="48.54506381503663" lon="7.340423082993477"><ele>257.0</ele><time>2026-04-30T10:58:41.001Z</time></trkpt><trkpt lat="48.545141668973706" lon="7.34046070939152"><ele>257.0</ele><time>2026-04-30T10:58:42.001Z</time></trkpt><trkpt lat="48.54522832408954" lon="7.3404295652226645"><ele>257.0</ele><time>2026-04-30T10:58:43.001Z</time></trkpt><trkpt lat="48.54531706620733" lon="7.34035751182957"><ele>257.0</ele><time>2026-04-30T10:58:44.001Z</time></trkpt><trkpt lat="48.545406934035" lon="7.340241099293241"><ele>257.0</ele><time>2026-04-30T10:58:45.001Z</time></trkpt><trkpt lat="48.545501846553414" lon="7.340076931792207"><ele>257.6666666666667</ele><time>2026-04-30T10:58:46.001Z</time></trkpt><trkpt lat="48.54558575814793" lon="7.339881247966716"><ele>258.3333333333333</ele><time>2026-04-30T10:58:47Z</time></trkpt><trkpt lat="48.54568748406126" lon="7.339696874665571"><ele>259.0</ele><time>2026-04-30T10:58:48Z</time></trkpt><trkpt lat="48.54579457828665" lon="7.339511120416752"><ele>259.0</ele><time>2026-04-30T10:58:49Z</time></trkpt><trkpt lat="48.54591727795233" lon="7.339322459378532"><ele>259.0</ele><time>2026-04-30T10:58:50Z</time></trkpt><trkpt lat="48.54603473423331" lon="7.33911050481782"><ele>259.0</ele><time>2026-04-30T10:58:51Z</time></trkpt><trkpt lat="48.546171816954356" lon="7.338920494292709"><ele>261.3333333333333</ele><time>2026-04-30T10:58:52Z</time></trkpt><trkpt lat="48.54630566332436" lon="7.338739694523783"><ele>263.6666666666667</ele><time>2026-04-30T10:58:53Z</time></trkpt><trkpt lat="48.546427550797816" lon="7.338555763088566"><ele>266.0</ele><time>2026-04-30T10:58:54Z</time></trkpt><trkpt lat="48.54655397655766" lon="7.33838603675269"><ele>266.0</ele><time>2026-04-30T10:58:55Z</time></trkpt><trkpt lat="48.546673379126005" lon="7.338215097715311"><ele>266.0</ele><time>2026-04-30T10:58:56Z</time></trkpt><trkpt lat="48.5467933372292" lon="7.3380401305143055"><ele>266.0</ele><time>2026-04-30T10:58:57Z</time></trkpt><trkpt lat="48.54690773027583" lon="7.337856383699269"><ele>265.33333333333337</ele><time>2026-04-30T10:58:58Z</time></trkpt><trkpt lat="48.54702076998806" lon="7.337671830165302"><ele>264.6666666666667</ele><time>2026-04-30T10:58:59Z</time></trkpt><trkpt lat="48.547119239164395" lon="7.337503976703057"><ele>264.0</ele><time>2026-04-30T10:59:00Z</time></trkpt><trkpt lat="48.5472013182314" lon="7.337330042791741"><ele>265.75</ele><time>2026-04-30T10:59:01Z</time></trkpt><trkpt lat="48.54726722063171" lon="7.337144660737203"><ele>267.5</ele><time>2026-04-30T10:59:02Z</time></trkpt><trkpt lat="48.54732143585303" lon="7.336941263948844"><ele>269.25</ele><time>2026-04-30T10:59:03Z</time></trkpt><trkpt lat="48.54738444384828" lon="7.336739623305277"><ele>271.0</ele><time>2026-04-30T10:59:04Z</time></trkpt><trkpt lat="48.54745251427544" lon="7.336529255237115"><ele>270.66666666666663</ele><time>2026-04-30T10:59:05Z</time></trkpt><trkpt lat="48.547527078530436" lon="7.336326781337967"><ele>270.3333333333333</ele><time>2026-04-30T10:59:06Z</time></trkpt><trkpt lat="48.547618314256894" lon="7.336131801230431"><ele>270.0</ele><time>2026-04-30T10:59:07Z</time></trkpt><trkpt lat="48.54766550986798" lon="7.335908901565031"><ele>270.0</ele><time>2026-04-30T10:59:08Z</time></trkpt><trkpt lat="48.54772447856051" lon="7.335711033564276"><ele>270.0</ele><time>2026-04-30T10:59:09Z</time></trkpt><trkpt lat="48.54778971429617" lon="7.335539699726987"><ele>270.0</ele><time>2026-04-30T10:59:10Z</time></trkpt><trkpt lat="48.5478586306968" lon="7.335376227009322"><ele>270.0</ele><time>2026-04-30T10:59:11Z</time></trkpt><trkpt lat="48.54793295629929" lon="7.335210906307559"><ele>271.0</ele><time>2026-04-30T10:59:12Z</time></trkpt><trkpt lat="48.54801183479507" lon="7.335055026392516"><ele>272.0</ele><time>2026-04-30T10:59:13Z</time></trkpt><trkpt lat="48.548089772059896" lon="7.334890271846359"><ele>273.0</ele><time>2026-04-30T10:59:14Z</time></trkpt><trkpt lat="48.548167676606596" lon="7.334722585417827"><ele>274.0</ele><time>2026-04-30T10:59:15Z</time></trkpt><trkpt lat="48.54824515602252" lon="7.334548959386474"><ele>274.0</ele><time>2026-04-30T10:59:16Z</time></trkpt><trkpt lat="48.54832521875129" lon="7.33438403487105"><ele>274.0</ele><time>2026-04-30T10:59:17Z</time></trkpt><trkpt lat="48.548419395992546" lon="7.334247504413856"><ele>274.0</ele><time>2026-04-30T10:59:18Z</time></trkpt><trkpt lat="48.548500650304085" lon="7.334102403985927"><ele>274.0</ele><time>2026-04-30T10:59:19Z</time></trkpt><trkpt lat="48.54858444430341" lon="7.333963535828113"><ele>274.0</ele><time>2026-04-30T10:59:20Z</time></trkpt><trkpt lat="48.54866839951033" lon="7.333846640380774"><ele>274.0</ele><time>2026-04-30T10:59:21Z</time></trkpt><trkpt lat="48.548745975558774" lon="7.33375014867318"><ele>274.0</ele><time>2026-04-30T10:59:22Z</time></trkpt><trkpt lat="48.54882430464321" lon="7.333679170199511"><ele>274.0</ele><time>2026-04-30T10:59:23Z</time></trkpt><trkpt lat="48.54888529896501" lon="7.333598180602902"><ele>274.0</ele><time>2026-04-30T10:59:24Z</time></trkpt><trkpt lat="48.54891867504924" lon="7.333488253427978"><ele>274.4</ele><time>2026-04-30T10:59:25Z</time></trkpt><trkpt lat="48.54893040563852" lon="7.333344861638585"><ele>274.79999999999995</ele><time>2026-04-30T10:59:26Z</time></trkpt><trkpt lat="48.548924453583034" lon="7.333175287394502"><ele>275.20000000000005</ele><time>2026-04-30T10:59:27Z</time></trkpt><trkpt lat="48.5489347070403" lon="7.333026624094524"><ele>275.6</ele><time>2026-04-30T10:59:28Z</time></trkpt><trkpt lat="48.54896068340598" lon="7.332856424288715"><ele>276.0</ele><time>2026-04-30T10:59:29Z</time></trkpt><trkpt lat="48.54900747571292" lon="7.332694862446994"><ele>276.0</ele><time>2026-04-30T10:59:30Z</time></trkpt><trkpt lat="48.54905663532716" lon="7.332529650189212"><ele>276.0</ele><time>2026-04-30T10:59:31Z</time></trkpt><trkpt lat="48.54910558601794" lon="7.332364613736692"><ele>276.0</ele><time>2026-04-30T10:59:32Z</time></trkpt><trkpt lat="48.54914961156157" lon="7.332206541853616"><ele>276.0</ele><time>2026-04-30T10:59:33Z</time></trkpt><trkpt lat="48.54919762935735" lon="7.332060126075019"><ele>275.8</ele><time>2026-04-30T10:59:34Z</time></trkpt><trkpt lat="48.5492492455974" lon="7.331912235168072"><ele>275.6</ele><time>2026-04-30T10:59:35Z</time></trkpt><trkpt lat="48.549295026285236" lon="7.331776867161859"><ele>275.4</ele><time>2026-04-30T10:59:36Z</time></trkpt><trkpt lat="48.54932856258793" lon="7.331666100025554"><ele>275.2</ele><time>2026-04-30T10:59:37Z</time></trkpt><trkpt lat="48.549394491396214" lon="7.331614414720384"><ele>275.0</ele><time>2026-04-30T10:59:38Z</time></trkpt><trkpt lat="48.54946911502421" lon="7.331476456812785"><ele>274.8</ele><time>2026-04-30T10:59:40Z</time></trkpt><trkpt lat="48.54951993457638" lon="7.331363845886709"><ele>274.6</ele><time>2026-04-30T10:59:41Z</time></trkpt><trkpt lat="48.54954926370761" lon="7.331226044149726"><ele>274.4</ele><time>2026-04-30T10:59:42Z</time></trkpt><trkpt lat="48.54959182544619" lon="7.331109676747361"><ele>274.2</ele><time>2026-04-30T10:59:43Z</time></trkpt><trkpt lat="48.54964288903652" lon="7.330991766510916"><ele>274.0</ele><time>2026-04-30T10:59:44Z</time></trkpt><trkpt lat="48.549686704276276" lon="7.330869467506978"><ele>274.8</ele><time>2026-04-30T10:59:45Z</time></trkpt><trkpt lat="48.54975833468266" lon="7.330775742765919"><ele>275.59999999999997</ele><time>2026-04-30T10:59:46Z</time></trkpt><trkpt lat="48.54984119154668" lon="7.3306844767597354"><ele>276.4</ele><time>2026-04-30T10:59:47Z</time></trkpt><trkpt lat="48.549912491815135" lon="7.330573804407878"><ele>277.2</ele><time>2026-04-30T10:59:48Z</time></trkpt><trkpt lat="48.549987984747965" lon="7.330452831290648"><ele>278.0</ele><time>2026-04-30T10:59:48.999Z</time></trkpt><trkpt lat="48.550054664033034" lon="7.330323922891678"><ele>278.0</ele><time>2026-04-30T10:59:49.999Z</time></trkpt><trkpt lat="48.55009475314621" lon="7.330183537441814"><ele>278.0</ele><time>2026-04-30T10:59:50.999Z</time></trkpt><trkpt lat="48.5501352472811" lon="7.330059475662854"><ele>278.0</ele><time>2026-04-30T10:59:51.999Z</time></trkpt><trkpt lat="48.55017915419977" lon="7.3299368599278285"><ele>278.0</ele><time>2026-04-30T10:59:52.999Z</time></trkpt><trkpt lat="48.550180127311215" lon="7.329790569201951"><ele>278.0</ele><time>2026-04-30T10:59:53.999Z</time></trkpt><trkpt lat="48.55019728705169" lon="7.329645824042765"><ele>277.8</ele><time>2026-04-30T10:59:54.999Z</time></trkpt><trkpt lat="48.55020784801246" lon="7.32950319689675"><ele>277.6</ele><time>2026-04-30T10:59:55.999Z</time></trkpt><trkpt lat="48.550209296570145" lon="7.329355473419294"><ele>277.4</ele><time>2026-04-30T10:59:56.999Z</time></trkpt><trkpt lat="48.55020179051012" lon="7.329207076363532"><ele>277.2</ele><time>2026-04-30T10:59:57.999Z</time></trkpt><trkpt lat="48.550188216929335" lon="7.329048764612661"><ele>277.0</ele><time>2026-04-30T10:59:58.999Z</time></trkpt><trkpt lat="48.55017931569941" lon="7.328899768762813"><ele>277.0</ele><time>2026-04-30T10:59:59.999Z</time></trkpt><trkpt lat="48.55016731771981" lon="7.328742564776019"><ele>277.0</ele><time>2026-04-30T11:00:00.999Z</time></trkpt><trkpt lat="48.55015905504697" lon="7.32858319374738"><ele>277.0</ele><time>2026-04-30T11:00:01.999Z</time></trkpt><trkpt lat="48.55013477263644" lon="7.3284228261907405"><ele>277.0</ele><time>2026-04-30T11:00:02.999Z</time></trkpt><trkpt lat="48.550099935597316" lon="7.328265237733862"><ele>277.0</ele><time>2026-04-30T11:00:03.999Z</time></trkpt><trkpt lat="48.5500647927736" lon="7.328117908553476"><ele>276.8</ele><time>2026-04-30T11:00:04.999Z</time></trkpt><trkpt lat="48.55004022205108" lon="7.3279693799114005"><ele>276.6</ele><time>2026-04-30T11:00:05.999Z</time></trkpt><trkpt lat="48.550026300561605" lon="7.327822585378735"><ele>276.40000000000003</ele><time>2026-04-30T11:00:06.999Z</time></trkpt><trkpt lat="48.550019866050064" lon="7.327663246412101"><ele>276.2</ele><time>2026-04-30T11:00:07.999Z</time></trkpt><trkpt lat="48.550020558121325" lon="7.327518108439423"><ele>276.0</ele><time>2026-04-30T11:00:08.999Z</time></trkpt><trkpt lat="48.550037718437885" lon="7.327386928705463"><ele>276.0</ele><time>2026-04-30T11:00:09.999Z</time></trkpt><trkpt lat="48.55006750502229" lon="7.327263673588222"><ele>276.0</ele><time>2026-04-30T11:00:10.999Z</time></trkpt><trkpt lat="48.55011507498362" lon="7.327133035016182"><ele>276.0</ele><time>2026-04-30T11:00:11.999Z</time></trkpt><trkpt lat="48.550168974833646" lon="7.32697361122758"><ele>276.0</ele><time>2026-04-30T11:00:12.999Z</time></trkpt><trkpt lat="48.55020671526123" lon="7.3268131537950065"><ele>276.0</ele><time>2026-04-30T11:00:13.999Z</time></trkpt><trkpt lat="48.55024492678094" lon="7.32664361187781"><ele>275.5</ele><time>2026-04-30T11:00:14.999Z</time></trkpt><trkpt lat="48.55026492206433" lon="7.326469722152364"><ele>275.0</ele><time>2026-04-30T11:00:15.999Z</time></trkpt><trkpt lat="48.55027148356725" lon="7.326279950485652"><ele>274.5</ele><time>2026-04-30T11:00:16.999Z</time></trkpt><trkpt lat="48.55026278047298" lon="7.326082056075268"><ele>274.0</ele><time>2026-04-30T11:00:17.999Z</time></trkpt><trkpt lat="48.55024263073046" lon="7.325877157007133"><ele>273.8</ele><time>2026-04-30T11:00:18.999Z</time></trkpt><trkpt lat="48.550224765970825" lon="7.325694575607519"><ele>273.59999999999997</ele><time>2026-04-30T11:00:19.999Z</time></trkpt><trkpt lat="48.55021783844096" lon="7.3255251670234385"><ele>273.4</ele><time>2026-04-30T11:00:20.999Z</time></trkpt><trkpt lat="48.550239042992395" lon="7.325366395851934"><ele>273.2</ele><time>2026-04-30T11:00:21.999Z</time></trkpt><trkpt lat="48.55026426046146" lon="7.32521142009129"><ele>273.0</ele><time>2026-04-30T11:00:22.999Z</time></trkpt><trkpt lat="48.550309173323754" lon="7.325062443059161"><ele>272.75</ele><time>2026-04-30T11:00:23.999Z</time></trkpt><trkpt lat="48.55036078799237" lon="7.324900659771782"><ele>272.5</ele><time>2026-04-30T11:00:24.999Z</time></trkpt><trkpt lat="48.55042362201879" lon="7.324741024059579"><ele>272.25</ele><time>2026-04-30T11:00:25.999Z</time></trkpt><trkpt lat="48.55047961499558" lon="7.324580572215426"><ele>272.0</ele><time>2026-04-30T11:00:26.999Z</time></trkpt><trkpt lat="48.55053271124287" lon="7.324436952933277"><ele>272.1666666666667</ele><time>2026-04-30T11:00:27.999Z</time></trkpt><trkpt lat="48.55057910899269" lon="7.324304341924909"><ele>272.33333333333337</ele><time>2026-04-30T11:00:28.999Z</time></trkpt><trkpt lat="48.5506255875212" lon="7.324205970267966"><ele>272.5</ele><time>2026-04-30T11:00:29.999Z</time></trkpt><trkpt lat="48.550659795367004" lon="7.32411925176117"><ele>272.6666666666667</ele><time>2026-04-30T11:00:30.999Z</time></trkpt><trkpt lat="48.55068418879561" lon="7.323983391937962"><ele>272.8333333333333</ele><time>2026-04-30T11:00:33Z</time></trkpt><trkpt lat="48.550637508151006" lon="7.323875921187127"><ele>273.0</ele><time>2026-04-30T11:00:35Z</time></trkpt><trkpt lat="48.550510878024156" lon="7.323775892877109"><ele>273.0</ele><time>2026-04-30T11:00:37Z</time></trkpt><trkpt lat="48.55043746945757" lon="7.323729713897198"><ele>273.0</ele><time>2026-04-30T11:00:38Z</time></trkpt><trkpt lat="48.55035903334953" lon="7.323696756311908"><ele>273.0</ele><time>2026-04-30T11:00:39.001Z</time></trkpt><trkpt lat="48.55028968875562" lon="7.3236898967759"><ele>273.0</ele><time>2026-04-30T11:00:40Z</time></trkpt><trkpt lat="48.55018941937734" lon="7.323700047914179"><ele>273.0</ele><time>2026-04-30T11:00:42.001Z</time></trkpt><trkpt lat="48.55011252521074" lon="7.323724459617657"><ele>273.0</ele><time>2026-04-30T11:00:44Z</time></trkpt><trkpt lat="48.5500465770131" lon="7.323739149592796"><ele>272.85714285714283</ele><time>2026-04-30T11:00:46Z</time></trkpt><trkpt lat="48.54997478684823" lon="7.32371194169227"><ele>272.7142857142857</ele><time>2026-04-30T11:01:05Z</time></trkpt><trkpt lat="48.54991606406547" lon="7.323658832627357"><ele>272.57142857142856</ele><time>2026-04-30T11:01:25Z</time></trkpt><trkpt lat="48.54985086815198" lon="7.3236099612179535"><ele>272.42857142857144</ele><time>2026-04-30T11:01:31Z</time></trkpt><trkpt lat="48.549785580813875" lon="7.323576710969635"><ele>272.2857142857143</ele><time>2026-04-30T11:01:37Z</time></trkpt><trkpt lat="48.549724893344006" lon="7.323548986138336"><ele>272.1428571428571</ele><time>2026-04-30T11:01:41.999Z</time></trkpt><trkpt lat="48.549660090900076" lon="7.3235431617586055"><ele>272.0</ele><time>2026-04-30T11:01:51.999Z</time></trkpt><trkpt lat="48.54959954981243" lon="7.323516276321493"><ele>271.99999999999994</ele><time>2026-04-30T11:01:59.999Z</time></trkpt><trkpt lat="48.549541111228024" lon="7.323441526691648"><ele>272.0</ele><time>2026-04-30T11:02:08.999Z</time></trkpt><trkpt lat="48.54948908814314" lon="7.323386161196471"><ele>272.0</ele><time>2026-04-30T11:02:14.999Z</time></trkpt><trkpt lat="48.54952192176034" lon="7.323294853418254"><ele>272.0</ele><time>2026-04-30T11:02:20.999Z</time></trkpt><trkpt lat="48.54954048112773" lon="7.323189701486224"><ele>272.0</ele><time>2026-04-30T11:02:26.999Z</time></trkpt><trkpt lat="48.5494693258918" lon="7.3232236541221045"><ele>271.99999999999994</ele><time>2026-04-30T11:03:13Z</time></trkpt><trkpt lat="48.54948506613793" lon="7.323317712843063"><ele>272.0</ele><time>2026-04-30T11:07:53Z</time></trkpt><trkpt lat="48.54950866757702" lon="7.323407553976163"><ele>271.99999999999994</ele><time>2026-04-30T11:08:06Z</time></trkpt><trkpt lat="48.54956944497152" lon="7.323469343399229"><ele>272.0</ele><time>2026-04-30T11:08:11Z</time></trkpt><trkpt lat="48.549636332686624" lon="7.32351192715551"><ele>272.0</ele><time>2026-04-30T11:08:15.999Z</time></trkpt><trkpt lat="48.549703985129604" lon="7.323558711925997"><ele>272.0</ele><time>2026-04-30T11:08:21.999Z</time></trkpt><trkpt lat="48.54977907309423" lon="7.323591706169932"><ele>272.0</ele><time>2026-04-30T11:08:26.999Z</time></trkpt><trkpt lat="48.54983902325507" lon="7.32362595026782"><ele>271.99999999999994</ele><time>2026-04-30T11:08:31.999Z</time></trkpt><trkpt lat="48.549901669309" lon="7.323668721017298"><ele>272.0</ele><time>2026-04-30T11:08:37.999Z</time></trkpt><trkpt lat="48.5499532181898" lon="7.323724721427539"><ele>272.0</ele><time>2026-04-30T11:08:46.999Z</time></trkpt><trkpt lat="48.550034848086014" lon="7.323640734598188"><ele>272.0</ele><time>2026-04-30T11:09:37Z</time></trkpt><trkpt lat="48.55012230547485" lon="7.323659522381566"><ele>272.0</ele><time>2026-04-30T11:09:38Z</time></trkpt><trkpt lat="48.55025288147464" lon="7.3236787219859085"><ele>272.0</ele><time>2026-04-30T11:09:39Z</time></trkpt><trkpt lat="48.550353892164864" lon="7.323706276943404"><ele>272.0</ele><time>2026-04-30T11:09:40Z</time></trkpt><trkpt lat="48.550452587917434" lon="7.323743770971361"><ele>272.2</ele><time>2026-04-30T11:09:42Z</time></trkpt><trkpt lat="48.550503522784474" lon="7.323661341023744"><ele>272.4</ele><time>2026-04-30T11:09:45Z</time></trkpt><trkpt lat="48.550498031186" lon="7.323537504155492"><ele>272.6</ele><time>2026-04-30T11:09:46Z</time></trkpt><trkpt lat="48.550457869415034" lon="7.323356945385308"><ele>272.8</ele><time>2026-04-30T11:09:47Z</time></trkpt><trkpt lat="48.55041395850254" lon="7.323131995563794"><ele>273.0</ele><time>2026-04-30T11:09:48Z</time></trkpt><trkpt lat="48.55035632698833" lon="7.322874318275056"><ele>273.0</ele><time>2026-04-30T11:09:49Z</time></trkpt><trkpt lat="48.55027203854527" lon="7.322601148328249"><ele>273.0</ele><time>2026-04-30T11:09:50Z</time></trkpt><trkpt lat="48.55017602140511" lon="7.322352527680283"><ele>273.0</ele><time>2026-04-30T11:09:51Z</time></trkpt><trkpt lat="48.55008648375532" lon="7.3221497044084725"><ele>273.3333333333333</ele><time>2026-04-30T11:09:52Z</time></trkpt><trkpt lat="48.55000299144619" lon="7.321952333334732"><ele>273.66666666666663</ele><time>2026-04-30T11:09:53Z</time></trkpt><trkpt lat="48.54993998943694" lon="7.321746626838762"><ele>274.0</ele><time>2026-04-30T11:09:54Z</time></trkpt><trkpt lat="48.54987116922449" lon="7.3215476430679685"><ele>274.75</ele><time>2026-04-30T11:09:55Z</time></trkpt><trkpt lat="48.54983034539412" lon="7.321361376945335"><ele>275.5</ele><time>2026-04-30T11:09:56Z</time></trkpt><trkpt lat="48.54981084084126" lon="7.321187250502381"><ele>276.25</ele><time>2026-04-30T11:09:57Z</time></trkpt><trkpt lat="48.549812305651905" lon="7.321021995863141"><ele>277.0</ele><time>2026-04-30T11:09:58Z</time></trkpt><trkpt lat="48.549827070948076" lon="7.3208776852484085"><ele>277.0</ele><time>2026-04-30T11:09:59Z</time></trkpt><trkpt lat="48.54985772745936" lon="7.320756138576428"><ele>277.0</ele><time>2026-04-30T11:10:00Z</time></trkpt><trkpt lat="48.549898044379034" lon="7.3206438054087375"><ele>277.0</ele><time>2026-04-30T11:10:01Z</time></trkpt><trkpt lat="48.549944406876925" lon="7.320552821408637"><ele>277.0</ele><time>2026-04-30T11:10:02Z</time></trkpt><trkpt lat="48.54999230936824" lon="7.320480997830559"><ele>277.0</ele><time>2026-04-30T11:10:03Z</time></trkpt><trkpt lat="48.550044223412485" lon="7.320424468062693"><ele>277.0</ele><time>2026-04-30T11:10:04Z</time></trkpt><trkpt lat="48.55011108694259" lon="7.320400022365077"><ele>277.0</ele><time>2026-04-30T11:10:05Z</time></trkpt><trkpt lat="48.55018163935893" lon="7.320376454776611"><ele>277.0</ele><time>2026-04-30T11:10:06Z</time></trkpt><trkpt lat="48.55026194383045" lon="7.320326161538078"><ele>277.0</ele><time>2026-04-30T11:10:07Z</time></trkpt><trkpt lat="48.55032336862249" lon="7.320255969441744"><ele>277.0</ele><time>2026-04-30T11:10:08Z</time></trkpt><trkpt lat="48.550378454929294" lon="7.320169106584159"><ele>277.0</ele><time>2026-04-30T11:10:09Z</time></trkpt><trkpt lat="48.5504437360177" lon="7.320080415931149"><ele>277.0</ele><time>2026-04-30T11:10:10Z</time></trkpt><trkpt lat="48.550516220444585" lon="7.3199650680935076"><ele>277.0</ele><time>2026-04-30T11:10:11Z</time></trkpt><trkpt lat="48.55058962674851" lon="7.31985881572131"><ele>277.0</ele><time>2026-04-30T11:10:12Z</time></trkpt><trkpt lat="48.55067966689099" lon="7.319776073113815"><ele>277.0</ele><time>2026-04-30T11:10:13Z</time></trkpt><trkpt lat="48.550777111403335" lon="7.319712644286838"><ele>277.0</ele><time>2026-04-30T11:10:14Z</time></trkpt><trkpt lat="48.550892208835975" lon="7.319637842493833"><ele>277.0</ele><time>2026-04-30T11:10:15Z</time></trkpt><trkpt lat="48.5510136332555" lon="7.319521249190283"><ele>278.0</ele><time>2026-04-30T11:10:16Z</time></trkpt><trkpt lat="48.55114654055387" lon="7.319356080844421"><ele>279.0</ele><time>2026-04-30T11:10:17Z</time></trkpt><trkpt lat="48.55129710748273" lon="7.319143606767631"><ele>280.0</ele><time>2026-04-30T11:10:18Z</time></trkpt><trkpt lat="48.55146058480291" lon="7.318936050024722"><ele>282.3333333333333</ele><time>2026-04-30T11:10:19Z</time></trkpt><trkpt lat="48.55161970630866" lon="7.318761236648678"><ele>284.6666666666667</ele><time>2026-04-30T11:10:19.999Z</time></trkpt><trkpt lat="48.5517481819014" lon="7.318605825735745"><ele>287.0</ele><time>2026-04-30T11:10:20.999Z</time></trkpt><trkpt lat="48.55186122725903" lon="7.318471135160004"><ele>287.0</ele><time>2026-04-30T11:10:21.999Z</time></trkpt><trkpt lat="48.5519861764135" lon="7.3183600289328385"><ele>287.0</ele><time>2026-04-30T11:10:22.999Z</time></trkpt><trkpt lat="48.55209254697571" lon="7.318251073115744"><ele>287.0</ele><time>2026-04-30T11:10:23.999Z</time></trkpt><trkpt lat="48.55218106127751" lon="7.318120402849393"><ele>287.0</ele><time>2026-04-30T11:10:24.999Z</time></trkpt><trkpt lat="48.55225199725907" lon="7.3179522950230185"><ele>286.25</ele><time>2026-04-30T11:10:25.999Z</time></trkpt><trkpt lat="48.55232185465193" lon="7.317741633035566"><ele>285.5</ele><time>2026-04-30T11:10:26.999Z</time></trkpt><trkpt lat="48.55237946823958" lon="7.317561479844374"><ele>284.75</ele><time>2026-04-30T11:10:27.999Z</time></trkpt><trkpt lat="48.55242800826777" lon="7.317424969531911"><ele>284.0</ele><time>2026-04-30T11:10:28.999Z</time></trkpt><trkpt lat="48.552468328259806" lon="7.317322677102678"><ele>284.6666666666667</ele><time>2026-04-30T11:10:29.999Z</time></trkpt><trkpt lat="48.55249547131072" lon="7.317224869425258"><ele>285.33333333333337</ele><time>2026-04-30T11:10:30.999Z</time></trkpt><trkpt lat="48.55250924173843" lon="7.317106809995078"><ele>286.0</ele><time>2026-04-30T11:10:31.999Z</time></trkpt><trkpt lat="48.55252761087564" lon="7.3169892923086355"><ele>286.6666666666667</ele><time>2026-04-30T11:10:32.999Z</time></trkpt><trkpt lat="48.55254045377986" lon="7.316869826244045"><ele>287.3333333333333</ele><time>2026-04-30T11:10:33.999Z</time></trkpt><trkpt lat="48.5525591385555" lon="7.316768948000579"><ele>288.0</ele><time>2026-04-30T11:10:34.999Z</time></trkpt><trkpt lat="48.55260246198351" lon="7.316676853988426"><ele>288.0</ele><time>2026-04-30T11:10:36.999Z</time></trkpt><trkpt lat="48.55269570377019" lon="7.316555397682514"><ele>288.0</ele><time>2026-04-30T11:10:37.999Z</time></trkpt><trkpt lat="48.5527801977089" lon="7.3164158119554825"><ele>288.0</ele><time>2026-04-30T11:10:38.999Z</time></trkpt><trkpt lat="48.55284789358578" lon="7.316282095906133"><ele>288.0</ele><time>2026-04-30T11:10:39.999Z</time></trkpt><trkpt lat="48.5529190964615" lon="7.31616677821131"><ele>288.4</ele><time>2026-04-30T11:10:40.999Z</time></trkpt><trkpt lat="48.55301639231703" lon="7.316032593617999"><ele>288.8</ele><time>2026-04-30T11:10:41.999Z</time></trkpt><trkpt lat="48.55310729997207" lon="7.315892946434131"><ele>289.2</ele><time>2026-04-30T11:10:42.999Z</time></trkpt><trkpt lat="48.553179664925324" lon="7.315787926441154"><ele>289.6</ele><time>2026-04-30T11:10:43.999Z</time></trkpt><trkpt lat="48.553244497167306" lon="7.315712500029516"><ele>290.0</ele><time>2026-04-30T11:10:44.999Z</time></trkpt><trkpt lat="48.553286263525344" lon="7.315607354151592"><ele>291.8</ele><time>2026-04-30T11:10:46.999Z</time></trkpt><trkpt lat="48.553302062745104" lon="7.31547454951269"><ele>293.6</ele><time>2026-04-30T11:10:47.999Z</time></trkpt><trkpt lat="48.55330698149052" lon="7.315375737660463"><ele>295.4</ele><time>2026-04-30T11:10:48.999Z</time></trkpt><trkpt lat="48.55333739944363" lon="7.3151224935994845"><ele>297.2</ele><time>2026-04-30T11:10:50.999Z</time></trkpt><trkpt lat="48.55334407082982" lon="7.314988965474537"><ele>299.0</ele><time>2026-04-30T11:10:51.999Z</time></trkpt><trkpt lat="48.553382751392995" lon="7.314898991719209"><ele>299.0</ele><time>2026-04-30T11:10:52.999Z</time></trkpt><trkpt lat="48.55341130858752" lon="7.314801196046953"><ele>299.0</ele><time>2026-04-30T11:10:53.999Z</time></trkpt><trkpt lat="48.553445480762996" lon="7.3146892020769085"><ele>299.0</ele><time>2026-04-30T11:10:54.999Z</time></trkpt><trkpt lat="48.55350909089351" lon="7.314548209649723"><ele>299.0</ele><time>2026-04-30T11:10:55.999Z</time></trkpt><trkpt lat="48.55357169665763" lon="7.314443478037441"><ele>299.0</ele><time>2026-04-30T11:10:56.999Z</time></trkpt><trkpt lat="48.553615699520684" lon="7.314354165419689"><ele>299.0</ele><time>2026-04-30T11:10:57.999Z</time></trkpt><trkpt lat="48.553688311043004" lon="7.31422834058926"><ele>297.83333333333337</ele><time>2026-04-30T11:10:59.999Z</time></trkpt><trkpt lat="48.553769340801274" lon="7.314167162112813"><ele>296.6666666666667</ele><time>2026-04-30T11:11:00.999Z</time></trkpt><trkpt lat="48.553826978476465" lon="7.314098734557873"><ele>295.5</ele><time>2026-04-30T11:11:01.999Z</time></trkpt><trkpt lat="48.55388490186541" lon="7.314045474573008"><ele>294.3333333333333</ele><time>2026-04-30T11:11:03Z</time></trkpt><trkpt lat="48.55394722703784" lon="7.3139773047895185"><ele>293.16666666666663</ele><time>2026-04-30T11:11:04Z</time></trkpt><trkpt lat="48.554029253613415" lon="7.313900663767904"><ele>292.0</ele><time>2026-04-30T11:11:05Z</time></trkpt><trkpt lat="48.55408928060482" lon="7.313840734449469"><ele>294.3333333333333</ele><time>2026-04-30T11:11:07Z</time></trkpt><trkpt lat="48.554175376653205" lon="7.313770203691148"><ele>296.66666666666663</ele><time>2026-04-30T11:11:09Z</time></trkpt><trkpt lat="48.55422214113617" lon="7.31367673927433"><ele>299.0</ele><time>2026-04-30T11:11:10Z</time></trkpt><trkpt lat="48.55427129807836" lon="7.313585185356511"><ele>301.3333333333333</ele><time>2026-04-30T11:11:11Z</time></trkpt><trkpt lat="48.55434737951277" lon="7.313501053807956"><ele>303.6666666666667</ele><time>2026-04-30T11:11:12Z</time></trkpt><trkpt lat="48.55441134760903" lon="7.3134412954698655"><ele>306.0</ele><time>2026-04-30T11:11:13Z</time></trkpt><trkpt lat="48.554470430301265" lon="7.313331968654997"><ele>305.2</ele><time>2026-04-30T11:11:14Z</time></trkpt><trkpt lat="48.55459224556877" lon="7.313187098336084"><ele>304.40000000000003</ele><time>2026-04-30T11:11:15Z</time></trkpt><trkpt lat="48.5546867234027" lon="7.313093091869225"><ele>303.6</ele><time>2026-04-30T11:11:16Z</time></trkpt><trkpt lat="48.55475143627546" lon="7.313046397164349"><ele>302.8</ele><time>2026-04-30T11:11:17Z</time></trkpt><trkpt lat="48.554805401525" lon="7.31290375879167"><ele>302.0</ele><time>2026-04-30T11:11:19Z</time></trkpt><trkpt lat="48.55485266368505" lon="7.312747694170157"><ele>302.0</ele><time>2026-04-30T11:11:21Z</time></trkpt><trkpt lat="48.554888207397525" lon="7.312663869267981"><ele>302.0</ele><time>2026-04-30T11:11:25Z</time></trkpt><trkpt lat="48.55494337493144" lon="7.312586788125723"><ele>302.0</ele><time>2026-04-30T11:11:27Z</time></trkpt><trkpt lat="48.55496922417153" lon="7.312492874450332"><ele>302.0</ele><time>2026-04-30T11:11:29Z</time></trkpt><trkpt lat="48.555006599736004" lon="7.312400976673421"><ele>302.0</ele><time>2026-04-30T11:11:30Z</time></trkpt><trkpt lat="48.55503418118357" lon="7.31225532564388"><ele>302.0</ele><time>2026-04-30T11:11:32Z</time></trkpt><trkpt lat="48.55510589974467" lon="7.31210848328222"><ele>305.5</ele><time>2026-04-30T11:11:34Z</time></trkpt><trkpt lat="48.55513310953324" lon="7.3120197653739725"><ele>309.0</ele><time>2026-04-30T11:11:35Z</time></trkpt><trkpt lat="48.555156040406146" lon="7.31193069054295"><ele>312.5</ele><time>2026-04-30T11:11:36Z</time></trkpt><trkpt lat="48.555174276706346" lon="7.311829812018059"><ele>316.0</ele><time>2026-04-30T11:11:37Z</time></trkpt><trkpt lat="48.555171991922464" lon="7.311695897325227"><ele>319.5</ele><time>2026-04-30T11:11:39Z</time></trkpt><trkpt lat="48.55520748037726" lon="7.3115665137030685"><ele>323.0</ele><time>2026-04-30T11:11:41Z</time></trkpt><trkpt lat="48.5552276353292" lon="7.311449792523106"><ele>321.4</ele><time>2026-04-30T11:11:42Z</time></trkpt><trkpt lat="48.55527415704478" lon="7.311311173130813"><ele>319.79999999999995</ele><time>2026-04-30T11:11:44Z</time></trkpt><trkpt lat="48.55533071913356" lon="7.31115536571184"><ele>318.2</ele><time>2026-04-30T11:11:45Z</time></trkpt><trkpt lat="48.55537894496516" lon="7.311008966823316"><ele>316.6</ele><time>2026-04-30T11:11:46Z</time></trkpt><trkpt lat="48.55542363527978" lon="7.310931850437556"><ele>315.0</ele><time>2026-04-30T11:11:47Z</time></trkpt><trkpt lat="48.55547876109312" lon="7.31086458371493"><ele>315.0</ele><time>2026-04-30T11:11:49Z</time></trkpt><trkpt lat="48.555496731539726" lon="7.3107421130111065"><ele>315.0</ele><time>2026-04-30T11:11:52Z</time></trkpt><trkpt lat="48.55544766271399" lon="7.310805033036697"><ele>315.0</ele><time>2026-04-30T11:11:56Z</time></trkpt><trkpt lat="48.555385460574385" lon="7.311058081845763"><ele>315.0</ele><time>2026-04-30T11:11:58Z</time></trkpt><trkpt lat="48.55533395138044" lon="7.311230662884797"><ele>316.6</ele><time>2026-04-30T11:11:59Z</time></trkpt><trkpt lat="48.55525751439387" lon="7.3113613471659"><ele>318.2</ele><time>2026-04-30T11:12:00Z</time></trkpt><trkpt lat="48.555180888848206" lon="7.311467726004483"><ele>319.79999999999995</ele><time>2026-04-30T11:12:01Z</time></trkpt><trkpt lat="48.55509951547932" lon="7.311555845943278"><ele>321.4</ele><time>2026-04-30T11:12:02Z</time></trkpt><trkpt lat="48.555013444162164" lon="7.311650907158739"><ele>323.0</ele><time>2026-04-30T11:12:03Z</time></trkpt><trkpt lat="48.554927103852776" lon="7.311724339761667"><ele>323.0</ele><time>2026-04-30T11:12:04Z</time></trkpt><trkpt lat="48.55483219347703" lon="7.3118062703474695"><ele>323.0</ele><time>2026-04-30T11:12:04.999Z</time></trkpt><trkpt lat="48.554760361605716" lon="7.311886490459863"><ele>323.0</ele><time>2026-04-30T11:12:05.999Z</time></trkpt><trkpt lat="48.554658267998136" lon="7.311965053844028"><ele>323.0</ele><time>2026-04-30T11:12:06.999Z</time></trkpt><trkpt lat="48.55456115468533" lon="7.312060935587882"><ele>323.0</ele><time>2026-04-30T11:12:07.999Z</time></trkpt><trkpt lat="48.5544255271782" lon="7.312131925162282"><ele>322.0</ele><time>2026-04-30T11:12:08.999Z</time></trkpt><trkpt lat="48.554291718585866" lon="7.312193438706201"><ele>321.0</ele><time>2026-04-30T11:12:09.999Z</time></trkpt><trkpt lat="48.554154010993386" lon="7.312334105977633"><ele>320.0</ele><time>2026-04-30T11:12:10.999Z</time></trkpt><trkpt lat="48.554019099855964" lon="7.3124944010962585"><ele>320.0</ele><time>2026-04-30T11:12:11.999Z</time></trkpt><trkpt lat="48.553889184065476" lon="7.3126439237927885"><ele>320.0</ele><time>2026-04-30T11:12:12.999Z</time></trkpt><trkpt lat="48.55374922250572" lon="7.312806615454724"><ele>320.0</ele><time>2026-04-30T11:12:13.999Z</time></trkpt><trkpt lat="48.55361135451859" lon="7.312949208570874"><ele>323.33333333333337</ele><time>2026-04-30T11:12:14.999Z</time></trkpt><trkpt lat="48.553477582975226" lon="7.313095526104075"><ele>326.6666666666667</ele><time>2026-04-30T11:12:15.999Z</time></trkpt><trkpt lat="48.553356960239284" lon="7.313251573187817"><ele>330.0</ele><time>2026-04-30T11:12:16.999Z</time></trkpt><trkpt lat="48.55325724479877" lon="7.313389172835702"><ele>330.0</ele><time>2026-04-30T11:12:17.999Z</time></trkpt><trkpt lat="48.55314857429641" lon="7.313498883175654"><ele>330.0</ele><time>2026-04-30T11:12:18.999Z</time></trkpt><trkpt lat="48.553030182145775" lon="7.313620682295553"><ele>330.0</ele><time>2026-04-30T11:12:19.999Z</time></trkpt><trkpt lat="48.552903866557564" lon="7.313771763207323"><ele>330.0</ele><time>2026-04-30T11:12:20.999Z</time></trkpt><trkpt lat="48.55280987104065" lon="7.313871331076831"><ele>331.75</ele><time>2026-04-30T11:12:21.999Z</time></trkpt><trkpt lat="48.55271650410172" lon="7.313985606769111"><ele>333.5</ele><time>2026-04-30T11:12:22.999Z</time></trkpt><trkpt lat="48.55262304008961" lon="7.314085126257324"><ele>335.25</ele><time>2026-04-30T11:12:23.999Z</time></trkpt><trkpt lat="48.552539896032066" lon="7.314177411119908"><ele>337.0</ele><time>2026-04-30T11:12:24.999Z</time></trkpt><trkpt lat="48.552440077286946" lon="7.3142985103585385"><ele>337.0</ele><time>2026-04-30T11:12:25.999Z</time></trkpt><trkpt lat="48.55234229620875" lon="7.314421143928665"><ele>337.0</ele><time>2026-04-30T11:12:26.999Z</time></trkpt><trkpt lat="48.55224426319882" lon="7.314563216280807"><ele>337.0</ele><time>2026-04-30T11:12:27.999Z</time></trkpt><trkpt lat="48.552167257285234" lon="7.314681948806269"><ele>337.0</ele><time>2026-04-30T11:12:28.999Z</time></trkpt><trkpt lat="48.552095788282955" lon="7.314800415118487"><ele>334.40000000000003</ele><time>2026-04-30T11:12:29.999Z</time></trkpt><trkpt lat="48.552023323219004" lon="7.314884335864176"><ele>331.8</ele><time>2026-04-30T11:12:30.999Z</time></trkpt><trkpt lat="48.55196293967509" lon="7.314982806650195"><ele>329.2</ele><time>2026-04-30T11:12:31.999Z</time></trkpt><trkpt lat="48.551895008328096" lon="7.315074414873586"><ele>326.6</ele><time>2026-04-30T11:12:32.999Z</time></trkpt><trkpt lat="48.55182439377861" lon="7.315186885069793"><ele>324.0</ele><time>2026-04-30T11:12:33.999Z</time></trkpt><trkpt lat="48.551753898267044" lon="7.315301503672425"><ele>324.0</ele><time>2026-04-30T11:12:34.999Z</time></trkpt><trkpt lat="48.551670012101255" lon="7.315440266799638"><ele>324.0</ele><time>2026-04-30T11:12:35.999Z</time></trkpt><trkpt lat="48.55161083762586" lon="7.3155621402679625"><ele>324.0</ele><time>2026-04-30T11:12:36.999Z</time></trkpt><trkpt lat="48.551547890866836" lon="7.315660851460573"><ele>324.0</ele><time>2026-04-30T11:12:37.999Z</time></trkpt><trkpt lat="48.55147230854723" lon="7.3157392512970985"><ele>324.0</ele><time>2026-04-30T11:12:38.999Z</time></trkpt><trkpt lat="48.55140867380129" lon="7.315828449245303"><ele>322.8</ele><time>2026-04-30T11:12:39.999Z</time></trkpt><trkpt lat="48.55134029604305" lon="7.31591182055149"><ele>321.59999999999997</ele><time>2026-04-30T11:12:40.999Z</time></trkpt><trkpt lat="48.5512618351884" lon="7.315999824133475"><ele>320.4</ele><time>2026-04-30T11:12:41.999Z</time></trkpt><trkpt lat="48.5511814876437" lon="7.31608119259817"><ele>319.2</ele><time>2026-04-30T11:12:42.999Z</time></trkpt><trkpt lat="48.55108302436201" lon="7.31620733012142"><ele>318.0</ele><time>2026-04-30T11:12:43.999Z</time></trkpt><trkpt lat="48.55097629304538" lon="7.3163482469322005"><ele>316.4</ele><time>2026-04-30T11:12:44.999Z</time></trkpt><trkpt lat="48.5508871951237" lon="7.316477616313749"><ele>314.8</ele><time>2026-04-30T11:12:45.999Z</time></trkpt><trkpt lat="48.5508087671916" lon="7.316588808293674"><ele>313.2</ele><time>2026-04-30T11:12:46.999Z</time></trkpt><trkpt lat="48.55073659723067" lon="7.316684078675121"><ele>311.6</ele><time>2026-04-30T11:12:47.999Z</time></trkpt><trkpt lat="48.55066540257934" lon="7.3167868934008125"><ele>310.0</ele><time>2026-04-30T11:12:48.999Z</time></trkpt><trkpt lat="48.550597545288" lon="7.3168736475553064"><ele>310.0</ele><time>2026-04-30T11:12:49.999Z</time></trkpt><trkpt lat="48.550523137511746" lon="7.316984192425905"><ele>310.0</ele><time>2026-04-30T11:12:50.999Z</time></trkpt><trkpt lat="48.550454301882354" lon="7.317082192510604"><ele>310.0</ele><time>2026-04-30T11:12:51.999Z</time></trkpt><trkpt lat="48.550379565306294" lon="7.317168825997943"><ele>310.0</ele><time>2026-04-30T11:12:52.999Z</time></trkpt><trkpt lat="48.55029570268007" lon="7.3172511541084875"><ele>310.0</ele><time>2026-04-30T11:12:53.999Z</time></trkpt><trkpt lat="48.55019275887978" lon="7.3173447113864105"><ele>308.8333333333333</ele><time>2026-04-30T11:12:54.999Z</time></trkpt><trkpt lat="48.55009109820535" lon="7.31743208401889"><ele>307.66666666666663</ele><time>2026-04-30T11:12:55.999Z</time></trkpt><trkpt lat="48.549995944045854" lon="7.317474127881781"><ele>306.5</ele><time>2026-04-30T11:12:56.999Z</time></trkpt><trkpt lat="48.549923222350095" lon="7.3175306833043745"><ele>305.3333333333333</ele><time>2026-04-30T11:12:57.999Z</time></trkpt><trkpt lat="48.54986484183577" lon="7.317580012208072"><ele>304.1666666666667</ele><time>2026-04-30T11:12:58.999Z</time></trkpt><trkpt lat="48.5498068154596" lon="7.31764600105771"><ele>303.0</ele><time>2026-04-30T11:12:59.999Z</time></trkpt><trkpt lat="48.5497470671837" lon="7.317684090201811"><ele>303.0</ele><time>2026-04-30T11:13:00.999Z</time></trkpt><trkpt lat="48.54967311461899" lon="7.3177725399181925"><ele>303.0</ele><time>2026-04-30T11:13:02.999Z</time></trkpt><trkpt lat="48.54964859334354" lon="7.317869001196236"><ele>303.0</ele><time>2026-04-30T11:13:05.999Z</time></trkpt><trkpt lat="48.54963972943749" lon="7.317963965880127"><ele>303.0</ele><time>2026-04-30T11:13:06.999Z</time></trkpt><trkpt lat="48.54961236606234" lon="7.318110690298971"><ele>303.0</ele><time>2026-04-30T11:13:07.999Z</time></trkpt><trkpt lat="48.54959539700497" lon="7.318266305165905"><ele>303.0</ele><time>2026-04-30T11:13:09Z</time></trkpt><trkpt lat="48.54956050818288" lon="7.318429973590892"><ele>301.8</ele><time>2026-04-30T11:13:10Z</time></trkpt><trkpt lat="48.549544901065" lon="7.318594048947035"><ele>300.6</ele><time>2026-04-30T11:13:11Z</time></trkpt><trkpt lat="48.54954996555407" lon="7.318756464961793"><ele>299.4</ele><time>2026-04-30T11:13:12Z</time></trkpt><trkpt lat="48.549559531933895" lon="7.31889768624686"><ele>298.2</ele><time>2026-04-30T11:13:13Z</time></trkpt><trkpt lat="48.54958381427973" lon="7.31905378215931"><ele>297.0</ele><time>2026-04-30T11:13:14Z</time></trkpt><trkpt lat="48.54963796630414" lon="7.319219148802698"><ele>294.6</ele><time>2026-04-30T11:13:15Z</time></trkpt><trkpt lat="48.54970601825165" lon="7.319364502005185"><ele>292.2</ele><time>2026-04-30T11:13:16Z</time></trkpt><trkpt lat="48.54978370912154" lon="7.319475649704517"><ele>289.8</ele><time>2026-04-30T11:13:17Z</time></trkpt><trkpt lat="48.54985725314765" lon="7.319571657537581"><ele>287.4</ele><time>2026-04-30T11:13:18Z</time></trkpt><trkpt lat="48.549905238034896" lon="7.319704281239765"><ele>285.0</ele><time>2026-04-30T11:13:19Z</time></trkpt><trkpt lat="48.54991305792875" lon="7.319843814912101"><ele>283.5</ele><time>2026-04-30T11:13:20Z</time></trkpt><trkpt lat="48.549895329095186" lon="7.320005792031911"><ele>282.0</ele><time>2026-04-30T11:13:21Z</time></trkpt><trkpt lat="48.54985886588558" lon="7.320207556958499"><ele>280.5</ele><time>2026-04-30T11:13:22Z</time></trkpt><trkpt lat="48.54984447503231" lon="7.320418860767434"><ele>279.0</ele><time>2026-04-30T11:13:23Z</time></trkpt><trkpt lat="48.54983381111119" lon="7.320624583192745"><ele>278.5</ele><time>2026-04-30T11:13:24Z</time></trkpt><trkpt lat="48.549824764301896" lon="7.320818080002846"><ele>278.0</ele><time>2026-04-30T11:13:25Z</time></trkpt><trkpt lat="48.54981768279388" lon="7.321009956244188"><ele>277.5</ele><time>2026-04-30T11:13:26Z</time></trkpt><trkpt lat="48.549824053868946" lon="7.321195892252429"><ele>277.0</ele><time>2026-04-30T11:13:27Z</time></trkpt><trkpt lat="48.549846233619775" lon="7.321385029658217"><ele>276.25</ele><time>2026-04-30T11:13:28Z</time></trkpt><trkpt lat="48.549884958526626" lon="7.321571545751536"><ele>275.5</ele><time>2026-04-30T11:13:29Z</time></trkpt><trkpt lat="48.54993859481041" lon="7.321759099602879"><ele>274.75</ele><time>2026-04-30T11:13:30Z</time></trkpt><trkpt lat="48.5499998833106" lon="7.321939417795836"><ele>274.0</ele><time>2026-04-30T11:13:31Z</time></trkpt><trkpt lat="48.55006429253197" lon="7.32210783227339"><ele>273.75</ele><time>2026-04-30T11:13:32Z</time></trkpt><trkpt lat="48.55013017622652" lon="7.322275109526924"><ele>273.5</ele><time>2026-04-30T11:13:33Z</time></trkpt><trkpt lat="48.550200373539575" lon="7.322455878460337"><ele>273.25</ele><time>2026-04-30T11:13:34Z</time></trkpt><trkpt lat="48.55027371711992" lon="7.32265288673836"><ele>273.0</ele><time>2026-04-30T11:13:35Z</time></trkpt><trkpt lat="48.55035222965157" lon="7.322871313220891"><ele>273.0</ele><time>2026-04-30T11:13:36Z</time></trkpt><trkpt lat="48.55040976293716" lon="7.323059949991867"><ele>273.0</ele><time>2026-04-30T11:13:37Z</time></trkpt><trkpt lat="48.55045706593995" lon="7.32325144033725"><ele>273.0</ele><time>2026-04-30T11:13:38Z</time></trkpt><trkpt lat="48.55049671656149" lon="7.323451944077876"><ele>273.0</ele><time>2026-04-30T11:13:39Z</time></trkpt><trkpt lat="48.55053217680384" lon="7.323656664344691"><ele>273.0</ele><time>2026-04-30T11:13:40Z</time></trkpt><trkpt lat="48.55056341040115" lon="7.323837380688169"><ele>273.0</ele><time>2026-04-30T11:13:41Z</time></trkpt><trkpt lat="48.55058199676516" lon="7.32399159340287"><ele>273.0</ele><time>2026-04-30T11:13:42Z</time></trkpt><trkpt lat="48.55059518066608" lon="7.324128288334419"><ele>273.0</ele><time>2026-04-30T11:13:43Z</time></trkpt><trkpt lat="48.550581373900584" lon="7.324273309591511"><ele>273.0</ele><time>2026-04-30T11:13:44Z</time></trkpt><trkpt lat="48.550526194945704" lon="7.324452225436065"><ele>272.75</ele><time>2026-04-30T11:13:45Z</time></trkpt><trkpt lat="48.550447134526266" lon="7.324636296015004"><ele>272.5</ele><time>2026-04-30T11:13:46Z</time></trkpt><trkpt lat="48.55036993583961" lon="7.324833662124552"><ele>272.25</ele><time>2026-04-30T11:13:47Z</time></trkpt><trkpt lat="48.55030098185479" lon="7.32502515799246"><ele>272.0</ele><time>2026-04-30T11:13:48Z</time></trkpt><trkpt lat="48.55023700042517" lon="7.325196216024421"><ele>272.0</ele><time>2026-04-30T11:13:49Z</time></trkpt><trkpt lat="48.55019474022068" lon="7.325361273088358"><ele>272.0</ele><time>2026-04-30T11:13:50Z</time></trkpt><trkpt lat="48.550195319135135" lon="7.325525674790112"><ele>272.0</ele><time>2026-04-30T11:13:51Z</time></trkpt><trkpt lat="48.5502170918831" lon="7.325711422681028"><ele>272.0</ele><time>2026-04-30T11:13:52Z</time></trkpt><trkpt lat="48.55023416280314" lon="7.325918348284885"><ele>272.25</ele><time>2026-04-30T11:13:53Z</time></trkpt><trkpt lat="48.55024610107458" lon="7.326130183449065"><ele>272.5</ele><time>2026-04-30T11:13:54Z</time></trkpt><trkpt lat="48.55025105168237" lon="7.326306923050425"><ele>272.75</ele><time>2026-04-30T11:13:55Z</time></trkpt><trkpt lat="48.55024873013127" lon="7.326479201278947"><ele>273.0</ele><time>2026-04-30T11:13:56Z</time></trkpt><trkpt lat="48.550225472147794" lon="7.326651136904835"><ele>273.25</ele><time>2026-04-30T11:13:57Z</time></trkpt><trkpt lat="48.550203976482564" lon="7.326812781691328"><ele>273.5</ele><time>2026-04-30T11:13:58Z</time></trkpt><trkpt lat="48.55015791524621" lon="7.326981107308286"><ele>273.75</ele><time>2026-04-30T11:13:59Z</time></trkpt><trkpt lat="48.550098288012414" lon="7.327161782948791"><ele>274.0</ele><time>2026-04-30T11:14:00Z</time></trkpt><trkpt lat="48.55004219454299" lon="7.32730596045976"><ele>274.5</ele><time>2026-04-30T11:14:01Z</time></trkpt><trkpt lat="48.550010227972095" lon="7.327462452097138"><ele>275.0</ele><time>2026-04-30T11:14:02Z</time></trkpt><trkpt lat="48.55000580224766" lon="7.3276420714486"><ele>275.5</ele><time>2026-04-30T11:14:03Z</time></trkpt><trkpt lat="48.55000987047464" lon="7.32781878389391"><ele>276.0</ele><time>2026-04-30T11:14:04Z</time></trkpt><trkpt lat="48.550015743830016" lon="7.327986298113203"><ele>276.2</ele><time>2026-04-30T11:14:05Z</time></trkpt><trkpt lat="48.5500422987384" lon="7.328149464946074"><ele>276.40000000000003</ele><time>2026-04-30T11:14:06Z</time></trkpt><trkpt lat="48.55007506291198" lon="7.328295771643314"><ele>276.6</ele><time>2026-04-30T11:14:07Z</time></trkpt><trkpt lat="48.55011758532963" lon="7.328434429772815"><ele>276.8</ele><time>2026-04-30T11:14:08Z</time></trkpt><trkpt lat="48.55013474135967" lon="7.328583734096042"><ele>277.0</ele><time>2026-04-30T11:14:09Z</time></trkpt><trkpt lat="48.55014899390994" lon="7.328735781353668"><ele>277.0</ele><time>2026-04-30T11:14:10Z</time></trkpt><trkpt lat="48.55016043942" lon="7.328899292422818"><ele>277.0</ele><time>2026-04-30T11:14:11Z</time></trkpt><trkpt lat="48.55016855183727" lon="7.329055022812784"><ele>277.0</ele><time>2026-04-30T11:14:12Z</time></trkpt><trkpt lat="48.550180914012046" lon="7.329217950473524"><ele>277.0</ele><time>2026-04-30T11:14:13Z</time></trkpt><trkpt lat="48.550187886170036" lon="7.329371948173322"><ele>277.0</ele><time>2026-04-30T11:14:14Z</time></trkpt><trkpt lat="48.55018634449181" lon="7.329521823514775"><ele>277.0</ele><time>2026-04-30T11:14:15Z</time></trkpt><trkpt lat="48.550180105509604" lon="7.329650923950926"><ele>277.0</ele><time>2026-04-30T11:14:16Z</time></trkpt><trkpt lat="48.55016230713702" lon="7.329807570778336"><ele>277.0</ele><time>2026-04-30T11:14:18Z</time></trkpt><trkpt lat="48.55014802900078" lon="7.32990806251484"><ele>277.0</ele><time>2026-04-30T11:14:20Z</time></trkpt><trkpt lat="48.55019974726405" lon="7.330014710482968"><ele>277.0</ele><time>2026-04-30T11:14:22.999Z</time></trkpt><trkpt lat="48.55031824382161" lon="7.330033513474531"><ele>277.8333333333333</ele><time>2026-04-30T11:14:24.999Z</time></trkpt><trkpt lat="48.55040497384907" lon="7.330049276564583"><ele>278.66666666666663</ele><time>2026-04-30T11:14:25.999Z</time></trkpt><trkpt lat="48.55049269774582" lon="7.33005715474455"><ele>279.5</ele><time>2026-04-30T11:14:26.999Z</time></trkpt><trkpt lat="48.550575613533084" lon="7.330060788931773"><ele>280.3333333333333</ele><time>2026-04-30T11:14:27.999Z</time></trkpt><trkpt lat="48.5506583058341" lon="7.330047645012722"><ele>281.1666666666667</ele><time>2026-04-30T11:14:28.999Z</time></trkpt><trkpt lat="48.5507265663514" lon="7.3300317625324976"><ele>282.0</ele><time>2026-04-30T11:14:29.999Z</time></trkpt><trkpt lat="48.55080617879457" lon="7.330053447329325"><ele>282.0</ele><time>2026-04-30T11:14:30.999Z</time></trkpt><trkpt lat="48.55088863286805" lon="7.330058600450965"><ele>282.0</ele><time>2026-04-30T11:14:31.999Z</time></trkpt><trkpt lat="48.55097239253614" lon="7.330062585230783"><ele>282.0</ele><time>2026-04-30T11:14:32.999Z</time></trkpt><trkpt lat="48.551066629753564" lon="7.330060077121706"><ele>282.0</ele><time>2026-04-30T11:14:33.999Z</time></trkpt><trkpt lat="48.55115486447532" lon="7.330059342365644"><ele>282.0</ele><time>2026-04-30T11:14:34.999Z</time></trkpt><trkpt lat="48.55122766470032" lon="7.330056465059027"><ele>282.0</ele><time>2026-04-30T11:14:35.999Z</time></trkpt><trkpt lat="48.551299828145545" lon="7.330054859679131"><ele>282.8333333333333</ele><time>2026-04-30T11:14:36.999Z</time></trkpt><trkpt lat="48.55137476486922" lon="7.330051789008936"><ele>283.6666666666667</ele><time>2026-04-30T11:14:37.999Z</time></trkpt><trkpt lat="48.55144664600852" lon="7.330040541290077"><ele>284.5</ele><time>2026-04-30T11:14:38.999Z</time></trkpt><trkpt lat="48.55152020324076" lon="7.330023677457693"><ele>285.33333333333337</ele><time>2026-04-30T11:14:39.999Z</time></trkpt><trkpt lat="48.55158814958065" lon="7.330010870814513"><ele>286.1666666666667</ele><time>2026-04-30T11:14:40.999Z</time></trkpt><trkpt lat="48.55165317391586" lon="7.3300213660565845"><ele>287.0</ele><time>2026-04-30T11:14:41.999Z</time></trkpt><trkpt lat="48.551722900592246" lon="7.330134168524451"><ele>287.0</ele><time>2026-04-30T11:14:43.999Z</time></trkpt><trkpt lat="48.55175886323585" lon="7.330268943787715"><ele>287.0</ele><time>2026-04-30T11:14:45.999Z</time></trkpt><trkpt lat="48.55181097226655" lon="7.330464025914021"><ele>287.0</ele><time>2026-04-30T11:14:47.999Z</time></trkpt><trkpt lat="48.5518469875372" lon="7.3305809980957966"><ele>287.0</ele><time>2026-04-30T11:14:48.999Z</time></trkpt><trkpt lat="48.55188383410671" lon="7.330721448505443"><ele>287.0</ele><time>2026-04-30T11:14:49.999Z</time></trkpt><trkpt lat="48.55192230560957" lon="7.330882979993681"><ele>287.0</ele><time>2026-04-30T11:14:50.999Z</time></trkpt><trkpt lat="48.55195419821956" lon="7.33102407899595"><ele>287.0</ele><time>2026-04-30T11:14:51.999Z</time></trkpt><trkpt lat="48.55197621846863" lon="7.331151020221843"><ele>287.0</ele><time>2026-04-30T11:14:52.999Z</time></trkpt><trkpt lat="48.55199595678541" lon="7.3312523728955385"><ele>287.0</ele><time>2026-04-30T11:14:53.999Z</time></trkpt><trkpt lat="48.55201856447696" lon="7.331394839021792"><ele>287.0</ele><time>2026-04-30T11:14:55.999Z</time></trkpt><trkpt lat="48.55199711872407" lon="7.331485818746265"><ele>287.0</ele><time>2026-04-30T11:14:57.999Z</time></trkpt><trkpt lat="48.551918531840414" lon="7.33156970244472"><ele>286.6666666666667</ele><time>2026-04-30T11:14:59.999Z</time></trkpt><trkpt lat="48.55184462445684" lon="7.33159850612803"><ele>286.33333333333337</ele><time>2026-04-30T11:15:00.999Z</time></trkpt><trkpt lat="48.55176749391994" lon="7.331625970145973"><ele>286.0</ele><time>2026-04-30T11:15:01.999Z</time></trkpt><trkpt lat="48.55169415463637" lon="7.3316474599045955"><ele>285.6666666666667</ele><time>2026-04-30T11:15:02.999Z</time></trkpt><trkpt lat="48.55159743371321" lon="7.3316979834430045"><ele>285.3333333333333</ele><time>2026-04-30T11:15:04.999Z</time></trkpt><trkpt lat="48.55152593076081" lon="7.3316491580206025"><ele>285.0</ele><time>2026-04-30T11:15:07.999Z</time></trkpt><trkpt lat="48.55149963378313" lon="7.331550089556367"><ele>285.0</ele><time>2026-04-30T11:15:10.999Z</time></trkpt><trkpt lat="48.55139005803333" lon="7.331621643419846"><ele>285.0</ele><time>2026-04-30T11:15:48Z</time></trkpt><trkpt lat="48.551326928451196" lon="7.331607585174012"><ele>285.0</ele><time>2026-04-30T11:15:57Z</time></trkpt></trkseg></trk></gpx>